<?xml version="1.0" encoding="UTF-8" standalone="no" ?>
<gpx xmlns="http://www.topografix.com/GPX/1/1" xmlns:xsi="http://www.w3.org/2001/XMLSchema-instance" xsi:schemaLocation="http://www.topografix.com/GPX/1/1 http://www.topografix.com/GPX/1/1/gpx.xsd" version="1.1" creator="VisuGPX - https://www.visugpx.com">
  <metadata>
    <name>Dôme de Vaugelas 2217m</name>
    <desc><![CDATA[Ski de randonnée au départ des Pars.
Jeudi 26 Décembre 2019 avec le CAF de Chambéry.Montée au Dôme de Vaugelas et descente vers Bonpas et pont de la Gitte.
Neige croutee, difficile à skier, on attend la neige promise ce soir.]]></desc>
  </metadata>
  <trk>
    <name><![CDATA[TRK-2019-12-26]]></name>
    <trkseg>
      <trkpt lat="45.59166" lon="6.67102">
        <ele>1456.3672</ele>
        <time>2019-12-26 08:49:24</time>
      </trkpt>
      <trkpt lat="45.59165" lon="6.67102">
        <ele>1446.1986</ele>
        <time>2019-12-26 08:49:43</time>
      </trkpt>
      <trkpt lat="45.59165" lon="6.67105">
        <ele>1449.2595</ele>
        <time>2019-12-26 08:49:44</time>
      </trkpt>
      <trkpt lat="45.59166" lon="6.67105">
        <ele>1451.4336</ele>
        <time>2019-12-26 08:49:45</time>
      </trkpt>
      <trkpt lat="45.59168" lon="6.67102">
        <ele>1453.0284</ele>
        <time>2019-12-26 08:49:49</time>
      </trkpt>
      <trkpt lat="45.59168" lon="6.67101">
        <ele>1453.7112</ele>
        <time>2019-12-26 08:49:50</time>
      </trkpt>
      <trkpt lat="45.59168" lon="6.671">
        <ele>1453.66</ele>
        <time>2019-12-26 08:49:51</time>
      </trkpt>
      <trkpt lat="45.59168" lon="6.671">
        <ele>1453.8762</ele>
        <time>2019-12-26 08:49:52</time>
      </trkpt>
      <trkpt lat="45.59168" lon="6.67099">
        <ele>1454.1619</ele>
        <time>2019-12-26 08:49:53</time>
      </trkpt>
      <trkpt lat="45.59167" lon="6.67095">
        <ele>1457.7488</ele>
        <time>2019-12-26 08:50:08</time>
      </trkpt>
      <trkpt lat="45.59167" lon="6.67094">
        <ele>1455.6687</ele>
        <time>2019-12-26 08:50:09</time>
      </trkpt>
      <trkpt lat="45.59167" lon="6.67094">
        <ele>1456.6172</ele>
        <time>2019-12-26 08:50:10</time>
      </trkpt>
      <trkpt lat="45.59166" lon="6.67094">
        <ele>1456.7148</ele>
        <time>2019-12-26 08:50:11</time>
      </trkpt>
      <trkpt lat="45.59166" lon="6.67093">
        <ele>1457.1768</ele>
        <time>2019-12-26 08:50:14</time>
      </trkpt>
      <trkpt lat="45.59166" lon="6.6709">
        <ele>1457.0981</ele>
        <time>2019-12-26 08:50:18</time>
      </trkpt>
      <trkpt lat="45.59164" lon="6.67087">
        <ele>1457.5602</ele>
        <time>2019-12-26 08:50:23</time>
      </trkpt>
      <trkpt lat="45.59162" lon="6.6708">
        <ele>1458.3184</ele>
        <time>2019-12-26 08:50:32</time>
      </trkpt>
      <trkpt lat="45.5916" lon="6.67077">
        <ele>1455.2372</ele>
        <time>2019-12-26 08:50:36</time>
      </trkpt>
      <trkpt lat="45.59159" lon="6.67075">
        <ele>1454.5315</ele>
        <time>2019-12-26 08:50:41</time>
      </trkpt>
      <trkpt lat="45.59159" lon="6.67073">
        <ele>1449.2106</ele>
        <time>2019-12-26 08:51:21</time>
      </trkpt>
      <trkpt lat="45.59159" lon="6.67073">
        <ele>1450.0162</ele>
        <time>2019-12-26 08:51:22</time>
      </trkpt>
      <trkpt lat="45.59158" lon="6.67075">
        <ele>1450.5537</ele>
        <time>2019-12-26 08:51:31</time>
      </trkpt>
      <trkpt lat="45.59159" lon="6.67078">
        <ele>1451.3479</ele>
        <time>2019-12-26 08:51:34</time>
      </trkpt>
      <trkpt lat="45.59162" lon="6.67086">
        <ele>1454.3093</ele>
        <time>2019-12-26 08:51:42</time>
      </trkpt>
      <trkpt lat="45.59167" lon="6.67095">
        <ele>1455.67</ele>
        <time>2019-12-26 08:51:52</time>
      </trkpt>
      <trkpt lat="45.59167" lon="6.67095">
        <ele>1455.8134</ele>
        <time>2019-12-26 08:51:56</time>
      </trkpt>
      <trkpt lat="45.59167" lon="6.67095">
        <ele>1456.4045</ele>
        <time>2019-12-26 08:51:58</time>
      </trkpt>
      <trkpt lat="45.59167" lon="6.67095">
        <ele>1455.8097</ele>
        <time>2019-12-26 08:51:59</time>
      </trkpt>
      <trkpt lat="45.59167" lon="6.67095">
        <ele>1455.4802</ele>
        <time>2019-12-26 08:52:02</time>
      </trkpt>
      <trkpt lat="45.59167" lon="6.67095">
        <ele>1455.8629</ele>
        <time>2019-12-26 08:52:03</time>
      </trkpt>
      <trkpt lat="45.59167" lon="6.67096">
        <ele>1456.6593</ele>
        <time>2019-12-26 08:52:05</time>
      </trkpt>
      <trkpt lat="45.59167" lon="6.67096">
        <ele>1456.9419</ele>
        <time>2019-12-26 08:52:06</time>
      </trkpt>
      <trkpt lat="45.59168" lon="6.67096">
        <ele>1457.8411</ele>
        <time>2019-12-26 08:52:10</time>
      </trkpt>
      <trkpt lat="45.59168" lon="6.67095">
        <ele>1457.8856</ele>
        <time>2019-12-26 08:52:11</time>
      </trkpt>
      <trkpt lat="45.59168" lon="6.67096">
        <ele>1458.1211</ele>
        <time>2019-12-26 08:52:12</time>
      </trkpt>
      <trkpt lat="45.59168" lon="6.67096">
        <ele>1457.3384</ele>
        <time>2019-12-26 08:52:33</time>
      </trkpt>
      <trkpt lat="45.59168" lon="6.67094">
        <ele>1457.3667</ele>
        <time>2019-12-26 08:52:36</time>
      </trkpt>
      <trkpt lat="45.59167" lon="6.67093">
        <ele>1456.9487</ele>
        <time>2019-12-26 08:52:41</time>
      </trkpt>
      <trkpt lat="45.59167" lon="6.67094">
        <ele>1456.7716</ele>
        <time>2019-12-26 08:52:44</time>
      </trkpt>
      <trkpt lat="45.59167" lon="6.67093">
        <ele>1457.4031</ele>
        <time>2019-12-26 08:52:50</time>
      </trkpt>
      <trkpt lat="45.59167" lon="6.67093">
        <ele>1458.5797</ele>
        <time>2019-12-26 08:52:55</time>
      </trkpt>
      <trkpt lat="45.59166" lon="6.67092">
        <ele>1457.6669</ele>
        <time>2019-12-26 08:53:17</time>
      </trkpt>
      <trkpt lat="45.59166" lon="6.67092">
        <ele>1457.7865</ele>
        <time>2019-12-26 08:53:18</time>
      </trkpt>
      <trkpt lat="45.59164" lon="6.67097">
        <ele>1459.7822</ele>
        <time>2019-12-26 08:53:25</time>
      </trkpt>
      <trkpt lat="45.59164" lon="6.67097">
        <ele>1459.5623</ele>
        <time>2019-12-26 08:53:26</time>
      </trkpt>
      <trkpt lat="45.59164" lon="6.67098">
        <ele>1459.8212</ele>
        <time>2019-12-26 08:53:28</time>
      </trkpt>
      <trkpt lat="45.59164" lon="6.67098">
        <ele>1461.5123</ele>
        <time>2019-12-26 08:53:35</time>
      </trkpt>
      <trkpt lat="45.59164" lon="6.67098">
        <ele>1462.1677</ele>
        <time>2019-12-26 08:53:36</time>
      </trkpt>
      <trkpt lat="45.59164" lon="6.67098">
        <ele>1462.0945</ele>
        <time>2019-12-26 08:53:38</time>
      </trkpt>
      <trkpt lat="45.59164" lon="6.671">
        <ele>1461.0767</ele>
        <time>2019-12-26 08:53:47</time>
      </trkpt>
      <trkpt lat="45.59164" lon="6.671">
        <ele>1461.1793</ele>
        <time>2019-12-26 08:53:48</time>
      </trkpt>
      <trkpt lat="45.59165" lon="6.671">
        <ele>1462.0862</ele>
        <time>2019-12-26 08:53:51</time>
      </trkpt>
      <trkpt lat="45.59166" lon="6.671">
        <ele>1461.996</ele>
        <time>2019-12-26 08:54:41</time>
      </trkpt>
      <trkpt lat="45.59166" lon="6.671">
        <ele>1462.0613</ele>
        <time>2019-12-26 08:55:53</time>
      </trkpt>
      <trkpt lat="45.59165" lon="6.671">
        <ele>1461.2865</ele>
        <time>2019-12-26 08:56:01</time>
      </trkpt>
      <trkpt lat="45.59165" lon="6.67101">
        <ele>1463.0436</ele>
        <time>2019-12-26 08:56:03</time>
      </trkpt>
      <trkpt lat="45.59164" lon="6.67102">
        <ele>1462.9366</ele>
        <time>2019-12-26 08:56:43</time>
      </trkpt>
      <trkpt lat="45.59165" lon="6.67102">
        <ele>1460.278</ele>
        <time>2019-12-26 08:57:22</time>
      </trkpt>
      <trkpt lat="45.59165" lon="6.67101">
        <ele>1458.9583</ele>
        <time>2019-12-26 08:57:52</time>
      </trkpt>
      <trkpt lat="45.59165" lon="6.67099">
        <ele>1457.9493</ele>
        <time>2019-12-26 08:57:54</time>
      </trkpt>
      <trkpt lat="45.59164" lon="6.67098">
        <ele>1457.732</ele>
        <time>2019-12-26 08:58:13</time>
      </trkpt>
      <trkpt lat="45.59164" lon="6.67098">
        <ele>1457.6747</ele>
        <time>2019-12-26 08:58:15</time>
      </trkpt>
      <trkpt lat="45.59162" lon="6.67099">
        <ele>1456.2964</ele>
        <time>2019-12-26 08:58:59</time>
      </trkpt>
      <trkpt lat="45.5916" lon="6.67101">
        <ele>1456.4731</ele>
        <time>2019-12-26 08:59:36</time>
      </trkpt>
      <trkpt lat="45.5916" lon="6.67101">
        <ele>1456.2429</ele>
        <time>2019-12-26 08:59:40</time>
      </trkpt>
      <trkpt lat="45.5916" lon="6.67101">
        <ele>1456.8204</ele>
        <time>2019-12-26 08:59:41</time>
      </trkpt>
      <trkpt lat="45.5916" lon="6.67101">
        <ele>1457.5654</ele>
        <time>2019-12-26 08:59:42</time>
      </trkpt>
      <trkpt lat="45.5916" lon="6.671">
        <ele>1457.1013</ele>
        <time>2019-12-26 08:59:43</time>
      </trkpt>
      <trkpt lat="45.59162" lon="6.67099">
        <ele>1457.2383</ele>
        <time>2019-12-26 08:59:44</time>
      </trkpt>
      <trkpt lat="45.59165" lon="6.67097">
        <ele>1454.9053</ele>
        <time>2019-12-26 09:00:17</time>
      </trkpt>
      <trkpt lat="45.59165" lon="6.67097">
        <ele>1454.2494</ele>
        <time>2019-12-26 09:00:18</time>
      </trkpt>
      <trkpt lat="45.59167" lon="6.67094">
        <ele>1454.1545</ele>
        <time>2019-12-26 09:00:55</time>
      </trkpt>
      <trkpt lat="45.59164" lon="6.67092">
        <ele>1456.0449</ele>
        <time>2019-12-26 09:01:33</time>
      </trkpt>
      <trkpt lat="45.59165" lon="6.67091">
        <ele>1456.9209</ele>
        <time>2019-12-26 09:02:13</time>
      </trkpt>
      <trkpt lat="45.59165" lon="6.67091">
        <ele>1456.7543</ele>
        <time>2019-12-26 09:02:16</time>
      </trkpt>
      <trkpt lat="45.59164" lon="6.67091">
        <ele>1456.9862</ele>
        <time>2019-12-26 09:02:17</time>
      </trkpt>
      <trkpt lat="45.59163" lon="6.67089">
        <ele>1456.6149</ele>
        <time>2019-12-26 09:02:57</time>
      </trkpt>
      <trkpt lat="45.59164" lon="6.6709">
        <ele>1456.7811</ele>
        <time>2019-12-26 09:03:00</time>
      </trkpt>
      <trkpt lat="45.59164" lon="6.67091">
        <ele>1456.8655</ele>
        <time>2019-12-26 09:03:01</time>
      </trkpt>
      <trkpt lat="45.59164" lon="6.67091">
        <ele>1456.8557</ele>
        <time>2019-12-26 09:03:02</time>
      </trkpt>
      <trkpt lat="45.59165" lon="6.67096">
        <ele>1454.8547</ele>
        <time>2019-12-26 09:03:36</time>
      </trkpt>
      <trkpt lat="45.59165" lon="6.67096">
        <ele>1454.7638</ele>
        <time>2019-12-26 09:03:37</time>
      </trkpt>
      <trkpt lat="45.59164" lon="6.67097">
        <ele>1455.8961</ele>
        <time>2019-12-26 09:04:20</time>
      </trkpt>
      <trkpt lat="45.59165" lon="6.67097">
        <ele>1456.1448</ele>
        <time>2019-12-26 09:04:21</time>
      </trkpt>
      <trkpt lat="45.59165" lon="6.67097">
        <ele>1456.2318</ele>
        <time>2019-12-26 09:04:22</time>
      </trkpt>
      <trkpt lat="45.59165" lon="6.67097">
        <ele>1455.856</ele>
        <time>2019-12-26 09:04:23</time>
      </trkpt>
      <trkpt lat="45.59166" lon="6.67095">
        <ele>1455.3793</ele>
        <time>2019-12-26 09:04:42</time>
      </trkpt>
      <trkpt lat="45.59166" lon="6.67095">
        <ele>1454.7996</ele>
        <time>2019-12-26 09:04:43</time>
      </trkpt>
      <trkpt lat="45.59165" lon="6.67095">
        <ele>1456.5636</ele>
        <time>2019-12-26 09:05:22</time>
      </trkpt>
      <trkpt lat="45.59165" lon="6.67093">
        <ele>1456.3062</ele>
        <time>2019-12-26 09:05:41</time>
      </trkpt>
      <trkpt lat="45.59165" lon="6.67093">
        <ele>1455.9468</ele>
        <time>2019-12-26 09:05:42</time>
      </trkpt>
      <trkpt lat="45.59165" lon="6.67094">
        <ele>1456.1853</ele>
        <time>2019-12-26 09:05:48</time>
      </trkpt>
      <trkpt lat="45.59165" lon="6.67094">
        <ele>1456.6029</ele>
        <time>2019-12-26 09:05:49</time>
      </trkpt>
      <trkpt lat="45.59164" lon="6.67094">
        <ele>1458.0687</ele>
        <time>2019-12-26 09:06:23</time>
      </trkpt>
      <trkpt lat="45.59164" lon="6.67094">
        <ele>1458.2349</ele>
        <time>2019-12-26 09:06:24</time>
      </trkpt>
      <trkpt lat="45.59163" lon="6.67094">
        <ele>1460.5671</ele>
        <time>2019-12-26 09:07:03</time>
      </trkpt>
      <trkpt lat="45.59164" lon="6.67094">
        <ele>1461.0305</ele>
        <time>2019-12-26 09:07:12</time>
      </trkpt>
      <trkpt lat="45.59164" lon="6.67093">
        <ele>1461.0927</ele>
        <time>2019-12-26 09:07:13</time>
      </trkpt>
      <trkpt lat="45.59163" lon="6.67094">
        <ele>1462.2142</ele>
        <time>2019-12-26 09:07:18</time>
      </trkpt>
      <trkpt lat="45.59163" lon="6.67094">
        <ele>1462.1302</ele>
        <time>2019-12-26 09:07:19</time>
      </trkpt>
      <trkpt lat="45.59163" lon="6.67094">
        <ele>1462.5753</ele>
        <time>2019-12-26 09:07:30</time>
      </trkpt>
      <trkpt lat="45.59163" lon="6.67094">
        <ele>1462.7847</ele>
        <time>2019-12-26 09:07:31</time>
      </trkpt>
      <trkpt lat="45.59165" lon="6.67094">
        <ele>1462.868</ele>
        <time>2019-12-26 09:08:12</time>
      </trkpt>
      <trkpt lat="45.59165" lon="6.67094">
        <ele>1462.808</ele>
        <time>2019-12-26 09:08:50</time>
      </trkpt>
      <trkpt lat="45.59164" lon="6.67094">
        <ele>1462.8792</ele>
        <time>2019-12-26 09:09:30</time>
      </trkpt>
      <trkpt lat="45.59164" lon="6.67094">
        <ele>1462.9445</ele>
        <time>2019-12-26 09:10:10</time>
      </trkpt>
      <trkpt lat="45.59164" lon="6.67094">
        <ele>1463.0306</ele>
        <time>2019-12-26 09:10:46</time>
      </trkpt>
      <trkpt lat="45.59164" lon="6.67094">
        <ele>1462.7003</ele>
        <time>2019-12-26 09:11:24</time>
      </trkpt>
      <trkpt lat="45.59164" lon="6.67094">
        <ele>1463.35</ele>
        <time>2019-12-26 09:11:25</time>
      </trkpt>
      <trkpt lat="45.59164" lon="6.67094">
        <ele>1464.0084</ele>
        <time>2019-12-26 09:11:27</time>
      </trkpt>
      <trkpt lat="45.59171" lon="6.67094">
        <ele>1464.3855</ele>
        <time>2019-12-26 09:11:35</time>
      </trkpt>
      <trkpt lat="45.59177" lon="6.67096">
        <ele>1465.2815</ele>
        <time>2019-12-26 09:11:42</time>
      </trkpt>
      <trkpt lat="45.59188" lon="6.67096">
        <ele>1465.2172</ele>
        <time>2019-12-26 09:11:56</time>
      </trkpt>
      <trkpt lat="45.59189" lon="6.67096">
        <ele>1465.2948</ele>
        <time>2019-12-26 09:11:58</time>
      </trkpt>
      <trkpt lat="45.59189" lon="6.67095">
        <ele>1467.1428</ele>
        <time>2019-12-26 09:12:05</time>
      </trkpt>
      <trkpt lat="45.5919" lon="6.67095">
        <ele>1466.7545</ele>
        <time>2019-12-26 09:12:06</time>
      </trkpt>
      <trkpt lat="45.59192" lon="6.67092">
        <ele>1464.8008</ele>
        <time>2019-12-26 09:12:43</time>
      </trkpt>
      <trkpt lat="45.59192" lon="6.67093">
        <ele>1464.1815</ele>
        <time>2019-12-26 09:13:03</time>
      </trkpt>
      <trkpt lat="45.59192" lon="6.67092">
        <ele>1463.8086</ele>
        <time>2019-12-26 09:13:06</time>
      </trkpt>
      <trkpt lat="45.59192" lon="6.67093">
        <ele>1464.3512</ele>
        <time>2019-12-26 09:13:07</time>
      </trkpt>
      <trkpt lat="45.59192" lon="6.67094">
        <ele>1464.5133</ele>
        <time>2019-12-26 09:13:09</time>
      </trkpt>
      <trkpt lat="45.59193" lon="6.67094">
        <ele>1464.6248</ele>
        <time>2019-12-26 09:13:13</time>
      </trkpt>
      <trkpt lat="45.59193" lon="6.67095">
        <ele>1464.7943</ele>
        <time>2019-12-26 09:13:15</time>
      </trkpt>
      <trkpt lat="45.59194" lon="6.67097">
        <ele>1464.7875</ele>
        <time>2019-12-26 09:13:18</time>
      </trkpt>
      <trkpt lat="45.59194" lon="6.67097">
        <ele>1464.8372</ele>
        <time>2019-12-26 09:13:19</time>
      </trkpt>
      <trkpt lat="45.59195" lon="6.67099">
        <ele>1465.7822</ele>
        <time>2019-12-26 09:13:24</time>
      </trkpt>
      <trkpt lat="45.59195" lon="6.67099">
        <ele>1466.312</ele>
        <time>2019-12-26 09:13:25</time>
      </trkpt>
      <trkpt lat="45.59194" lon="6.671">
        <ele>1467.9579</ele>
        <time>2019-12-26 09:13:27</time>
      </trkpt>
      <trkpt lat="45.59194" lon="6.671">
        <ele>1468.9789</ele>
        <time>2019-12-26 09:13:28</time>
      </trkpt>
      <trkpt lat="45.59193" lon="6.67103">
        <ele>1470.3765</ele>
        <time>2019-12-26 09:13:35</time>
      </trkpt>
      <trkpt lat="45.59193" lon="6.67103">
        <ele>1470.4534</ele>
        <time>2019-12-26 09:13:36</time>
      </trkpt>
      <trkpt lat="45.59193" lon="6.67104">
        <ele>1471.6603</ele>
        <time>2019-12-26 09:13:39</time>
      </trkpt>
      <trkpt lat="45.59193" lon="6.67105">
        <ele>1471.9371</ele>
        <time>2019-12-26 09:13:40</time>
      </trkpt>
      <trkpt lat="45.59193" lon="6.67108">
        <ele>1470.9735</ele>
        <time>2019-12-26 09:13:42</time>
      </trkpt>
      <trkpt lat="45.59194" lon="6.67109">
        <ele>1470.8218</ele>
        <time>2019-12-26 09:13:43</time>
      </trkpt>
      <trkpt lat="45.59194" lon="6.67112">
        <ele>1471.3599</ele>
        <time>2019-12-26 09:13:45</time>
      </trkpt>
      <trkpt lat="45.59195" lon="6.67113">
        <ele>1471.3711</ele>
        <time>2019-12-26 09:13:47</time>
      </trkpt>
      <trkpt lat="45.59196" lon="6.67114">
        <ele>1471.2532</ele>
        <time>2019-12-26 09:13:48</time>
      </trkpt>
      <trkpt lat="45.59196" lon="6.67115">
        <ele>1470.8718</ele>
        <time>2019-12-26 09:13:49</time>
      </trkpt>
      <trkpt lat="45.592" lon="6.67121">
        <ele>1471.5933</ele>
        <time>2019-12-26 09:13:58</time>
      </trkpt>
      <trkpt lat="45.59202" lon="6.67121">
        <ele>1472.222</ele>
        <time>2019-12-26 09:14:04</time>
      </trkpt>
      <trkpt lat="45.59202" lon="6.67121">
        <ele>1471.6825</ele>
        <time>2019-12-26 09:14:05</time>
      </trkpt>
      <trkpt lat="45.59203" lon="6.67125">
        <ele>1470.9109</ele>
        <time>2019-12-26 09:14:45</time>
      </trkpt>
      <trkpt lat="45.59203" lon="6.67124">
        <ele>1471.6917</ele>
        <time>2019-12-26 09:15:01</time>
      </trkpt>
      <trkpt lat="45.59204" lon="6.67124">
        <ele>1470.3269</ele>
        <time>2019-12-26 09:15:06</time>
      </trkpt>
      <trkpt lat="45.59204" lon="6.67123">
        <ele>1469.1288</ele>
        <time>2019-12-26 09:15:46</time>
      </trkpt>
      <trkpt lat="45.59204" lon="6.67123">
        <ele>1469.0282</ele>
        <time>2019-12-26 09:16:25</time>
      </trkpt>
      <trkpt lat="45.59204" lon="6.67123">
        <ele>1468.9215</ele>
        <time>2019-12-26 09:17:08</time>
      </trkpt>
      <trkpt lat="45.59204" lon="6.67123">
        <ele>1468.8982</ele>
        <time>2019-12-26 09:17:52</time>
      </trkpt>
      <trkpt lat="45.59204" lon="6.67123">
        <ele>1468.9232</ele>
        <time>2019-12-26 09:18:26</time>
      </trkpt>
      <trkpt lat="45.59205" lon="6.67123">
        <ele>1468.8713</ele>
        <time>2019-12-26 09:19:06</time>
      </trkpt>
      <trkpt lat="45.59205" lon="6.67123">
        <ele>1468.9762</ele>
        <time>2019-12-26 09:19:22</time>
      </trkpt>
      <trkpt lat="45.59205" lon="6.67123">
        <ele>1468.7927</ele>
        <time>2019-12-26 09:19:23</time>
      </trkpt>
      <trkpt lat="45.59205" lon="6.67124">
        <ele>1468.5555</ele>
        <time>2019-12-26 09:19:25</time>
      </trkpt>
      <trkpt lat="45.59204" lon="6.67124">
        <ele>1468.2191</ele>
        <time>2019-12-26 09:19:29</time>
      </trkpt>
      <trkpt lat="45.59204" lon="6.67124">
        <ele>1468.3519</ele>
        <time>2019-12-26 09:19:30</time>
      </trkpt>
      <trkpt lat="45.59206" lon="6.67123">
        <ele>1466.8032</ele>
        <time>2019-12-26 09:19:54</time>
      </trkpt>
      <trkpt lat="45.59207" lon="6.67124">
        <ele>1466.6536</ele>
        <time>2019-12-26 09:19:55</time>
      </trkpt>
      <trkpt lat="45.59207" lon="6.67124">
        <ele>1466.1648</ele>
        <time>2019-12-26 09:19:56</time>
      </trkpt>
      <trkpt lat="45.59207" lon="6.67125">
        <ele>1468.1094</ele>
        <time>2019-12-26 09:19:57</time>
      </trkpt>
      <trkpt lat="45.59207" lon="6.67128">
        <ele>1470.2126</ele>
        <time>2019-12-26 09:20:01</time>
      </trkpt>
      <trkpt lat="45.59208" lon="6.67129">
        <ele>1470.9753</ele>
        <time>2019-12-26 09:20:02</time>
      </trkpt>
      <trkpt lat="45.59209" lon="6.6713">
        <ele>1470.3729</ele>
        <time>2019-12-26 09:20:05</time>
      </trkpt>
      <trkpt lat="45.59209" lon="6.6713">
        <ele>1470.4814</ele>
        <time>2019-12-26 09:20:07</time>
      </trkpt>
      <trkpt lat="45.59209" lon="6.67129">
        <ele>1471.1887</ele>
        <time>2019-12-26 09:20:08</time>
      </trkpt>
      <trkpt lat="45.59209" lon="6.67129">
        <ele>1472.2445</ele>
        <time>2019-12-26 09:20:09</time>
      </trkpt>
      <trkpt lat="45.5921" lon="6.6713">
        <ele>1472.0325</ele>
        <time>2019-12-26 09:20:12</time>
      </trkpt>
      <trkpt lat="45.5921" lon="6.6713">
        <ele>1472.5446</ele>
        <time>2019-12-26 09:20:15</time>
      </trkpt>
      <trkpt lat="45.59211" lon="6.67129">
        <ele>1472.7936</ele>
        <time>2019-12-26 09:20:16</time>
      </trkpt>
      <trkpt lat="45.59213" lon="6.67128">
        <ele>1473.3823</ele>
        <time>2019-12-26 09:20:18</time>
      </trkpt>
      <trkpt lat="45.59217" lon="6.67127">
        <ele>1477.1034</ele>
        <time>2019-12-26 09:20:24</time>
      </trkpt>
      <trkpt lat="45.5922" lon="6.67128">
        <ele>1477.3883</ele>
        <time>2019-12-26 09:20:28</time>
      </trkpt>
      <trkpt lat="45.59221" lon="6.67128">
        <ele>1476.8973</ele>
        <time>2019-12-26 09:20:29</time>
      </trkpt>
      <trkpt lat="45.59223" lon="6.67127">
        <ele>1477.2424</ele>
        <time>2019-12-26 09:20:33</time>
      </trkpt>
      <trkpt lat="45.59224" lon="6.67127">
        <ele>1478.0287</ele>
        <time>2019-12-26 09:20:35</time>
      </trkpt>
      <trkpt lat="45.59227" lon="6.67126">
        <ele>1479.0934</ele>
        <time>2019-12-26 09:20:43</time>
      </trkpt>
      <trkpt lat="45.59228" lon="6.67124">
        <ele>1478.5415</ele>
        <time>2019-12-26 09:20:52</time>
      </trkpt>
      <trkpt lat="45.59229" lon="6.67125">
        <ele>1477.6691</ele>
        <time>2019-12-26 09:20:53</time>
      </trkpt>
      <trkpt lat="45.59229" lon="6.67125">
        <ele>1477.7878</ele>
        <time>2019-12-26 09:20:55</time>
      </trkpt>
      <trkpt lat="45.59229" lon="6.67125">
        <ele>1479.7694</ele>
        <time>2019-12-26 09:21:09</time>
      </trkpt>
      <trkpt lat="45.59229" lon="6.67126">
        <ele>1479.4264</ele>
        <time>2019-12-26 09:21:12</time>
      </trkpt>
      <trkpt lat="45.59229" lon="6.67127">
        <ele>1478.8842</ele>
        <time>2019-12-26 09:21:15</time>
      </trkpt>
      <trkpt lat="45.59229" lon="6.67127">
        <ele>1478.8032</ele>
        <time>2019-12-26 09:21:16</time>
      </trkpt>
      <trkpt lat="45.5923" lon="6.67128">
        <ele>1478.7606</ele>
        <time>2019-12-26 09:21:18</time>
      </trkpt>
      <trkpt lat="45.59231" lon="6.67129">
        <ele>1479.3837</ele>
        <time>2019-12-26 09:21:20</time>
      </trkpt>
      <trkpt lat="45.59232" lon="6.6713">
        <ele>1479.5298</ele>
        <time>2019-12-26 09:21:23</time>
      </trkpt>
      <trkpt lat="45.59232" lon="6.67131">
        <ele>1479.6666</ele>
        <time>2019-12-26 09:21:24</time>
      </trkpt>
      <trkpt lat="45.59232" lon="6.67139">
        <ele>1480.1948</ele>
        <time>2019-12-26 09:21:35</time>
      </trkpt>
      <trkpt lat="45.59232" lon="6.67139">
        <ele>1479.9303</ele>
        <time>2019-12-26 09:21:36</time>
      </trkpt>
      <trkpt lat="45.59232" lon="6.67139">
        <ele>1479.8511</ele>
        <time>2019-12-26 09:21:37</time>
      </trkpt>
      <trkpt lat="45.59232" lon="6.67139">
        <ele>1479.6948</ele>
        <time>2019-12-26 09:21:38</time>
      </trkpt>
      <trkpt lat="45.59232" lon="6.6714">
        <ele>1479.1377</ele>
        <time>2019-12-26 09:21:39</time>
      </trkpt>
      <trkpt lat="45.59232" lon="6.67141">
        <ele>1480.0813</ele>
        <time>2019-12-26 09:21:42</time>
      </trkpt>
      <trkpt lat="45.59231" lon="6.67141">
        <ele>1479.8997</ele>
        <time>2019-12-26 09:21:43</time>
      </trkpt>
      <trkpt lat="45.59231" lon="6.67142">
        <ele>1480.437</ele>
        <time>2019-12-26 09:21:46</time>
      </trkpt>
      <trkpt lat="45.59231" lon="6.67143">
        <ele>1481.7446</ele>
        <time>2019-12-26 09:21:49</time>
      </trkpt>
      <trkpt lat="45.59233" lon="6.67145">
        <ele>1481.2578</ele>
        <time>2019-12-26 09:21:53</time>
      </trkpt>
      <trkpt lat="45.59234" lon="6.67145">
        <ele>1481.3206</ele>
        <time>2019-12-26 09:21:54</time>
      </trkpt>
      <trkpt lat="45.59235" lon="6.67145">
        <ele>1481.7035</ele>
        <time>2019-12-26 09:21:56</time>
      </trkpt>
      <trkpt lat="45.59238" lon="6.67145">
        <ele>1482.8999</ele>
        <time>2019-12-26 09:22:01</time>
      </trkpt>
      <trkpt lat="45.59243" lon="6.67148">
        <ele>1484.9304</ele>
        <time>2019-12-26 09:22:12</time>
      </trkpt>
      <trkpt lat="45.59243" lon="6.67148">
        <ele>1484.6819</ele>
        <time>2019-12-26 09:22:13</time>
      </trkpt>
      <trkpt lat="45.59245" lon="6.67149">
        <ele>1483.626</ele>
        <time>2019-12-26 09:22:17</time>
      </trkpt>
      <trkpt lat="45.59245" lon="6.67149">
        <ele>1483.6143</ele>
        <time>2019-12-26 09:22:18</time>
      </trkpt>
      <trkpt lat="45.59249" lon="6.67146">
        <ele>1486.1505</ele>
        <time>2019-12-26 09:22:28</time>
      </trkpt>
      <trkpt lat="45.5925" lon="6.67146">
        <ele>1486.408</ele>
        <time>2019-12-26 09:22:30</time>
      </trkpt>
      <trkpt lat="45.59251" lon="6.67145">
        <ele>1486.5359</ele>
        <time>2019-12-26 09:22:32</time>
      </trkpt>
      <trkpt lat="45.59252" lon="6.67145">
        <ele>1486.268</ele>
        <time>2019-12-26 09:22:33</time>
      </trkpt>
      <trkpt lat="45.59252" lon="6.67146">
        <ele>1487.2637</ele>
        <time>2019-12-26 09:22:35</time>
      </trkpt>
      <trkpt lat="45.59252" lon="6.67145">
        <ele>1488.5992</ele>
        <time>2019-12-26 09:22:36</time>
      </trkpt>
      <trkpt lat="45.59253" lon="6.67144">
        <ele>1489.2183</ele>
        <time>2019-12-26 09:22:38</time>
      </trkpt>
      <trkpt lat="45.59254" lon="6.67144">
        <ele>1489.972</ele>
        <time>2019-12-26 09:22:42</time>
      </trkpt>
      <trkpt lat="45.59254" lon="6.67144">
        <ele>1490.2686</ele>
        <time>2019-12-26 09:22:43</time>
      </trkpt>
      <trkpt lat="45.59254" lon="6.67144">
        <ele>1490.9075</ele>
        <time>2019-12-26 09:22:44</time>
      </trkpt>
      <trkpt lat="45.59255" lon="6.67144">
        <ele>1491.0951</ele>
        <time>2019-12-26 09:22:46</time>
      </trkpt>
      <trkpt lat="45.59255" lon="6.67143">
        <ele>1491.4275</ele>
        <time>2019-12-26 09:22:49</time>
      </trkpt>
      <trkpt lat="45.59256" lon="6.67142">
        <ele>1491.666</ele>
        <time>2019-12-26 09:22:50</time>
      </trkpt>
      <trkpt lat="45.59256" lon="6.67142">
        <ele>1490.2212</ele>
        <time>2019-12-26 09:22:53</time>
      </trkpt>
      <trkpt lat="45.5926" lon="6.67141">
        <ele>1487.0857</ele>
        <time>2019-12-26 09:22:59</time>
      </trkpt>
      <trkpt lat="45.59259" lon="6.67146">
        <ele>1484.9937</ele>
        <time>2019-12-26 09:23:05</time>
      </trkpt>
      <trkpt lat="45.59258" lon="6.67148">
        <ele>1485.0165</ele>
        <time>2019-12-26 09:23:07</time>
      </trkpt>
      <trkpt lat="45.59257" lon="6.67154">
        <ele>1486.1864</ele>
        <time>2019-12-26 09:23:13</time>
      </trkpt>
      <trkpt lat="45.59258" lon="6.67157">
        <ele>1487.1962</ele>
        <time>2019-12-26 09:23:16</time>
      </trkpt>
      <trkpt lat="45.59259" lon="6.6716">
        <ele>1485.5458</ele>
        <time>2019-12-26 09:23:24</time>
      </trkpt>
      <trkpt lat="45.5926" lon="6.6716">
        <ele>1485.2688</ele>
        <time>2019-12-26 09:23:26</time>
      </trkpt>
      <trkpt lat="45.59258" lon="6.67163">
        <ele>1486.2891</ele>
        <time>2019-12-26 09:23:31</time>
      </trkpt>
      <trkpt lat="45.59255" lon="6.6717">
        <ele>1488.6898</ele>
        <time>2019-12-26 09:23:36</time>
      </trkpt>
      <trkpt lat="45.59255" lon="6.67171">
        <ele>1490.42</ele>
        <time>2019-12-26 09:23:37</time>
      </trkpt>
      <trkpt lat="45.59254" lon="6.67173">
        <ele>1490.9393</ele>
        <time>2019-12-26 09:23:38</time>
      </trkpt>
      <trkpt lat="45.59252" lon="6.67178">
        <ele>1489.5895</ele>
        <time>2019-12-26 09:23:41</time>
      </trkpt>
      <trkpt lat="45.59249" lon="6.6718">
        <ele>1492.7319</ele>
        <time>2019-12-26 09:23:44</time>
      </trkpt>
      <trkpt lat="45.59248" lon="6.67181">
        <ele>1493.4725</ele>
        <time>2019-12-26 09:23:45</time>
      </trkpt>
      <trkpt lat="45.59245" lon="6.67185">
        <ele>1495.102</ele>
        <time>2019-12-26 09:23:51</time>
      </trkpt>
      <trkpt lat="45.59244" lon="6.67185">
        <ele>1494.1702</ele>
        <time>2019-12-26 09:23:52</time>
      </trkpt>
      <trkpt lat="45.59242" lon="6.67187">
        <ele>1493.9163</ele>
        <time>2019-12-26 09:23:54</time>
      </trkpt>
      <trkpt lat="45.5924" lon="6.67188">
        <ele>1494.0394</ele>
        <time>2019-12-26 09:23:57</time>
      </trkpt>
      <trkpt lat="45.59238" lon="6.6719">
        <ele>1494.5286</ele>
        <time>2019-12-26 09:24:01</time>
      </trkpt>
      <trkpt lat="45.59237" lon="6.67189">
        <ele>1495.0205</ele>
        <time>2019-12-26 09:24:02</time>
      </trkpt>
      <trkpt lat="45.59235" lon="6.67191">
        <ele>1493.3138</ele>
        <time>2019-12-26 09:24:04</time>
      </trkpt>
      <trkpt lat="45.59234" lon="6.67194">
        <ele>1491.2007</ele>
        <time>2019-12-26 09:24:06</time>
      </trkpt>
      <trkpt lat="45.59234" lon="6.67196">
        <ele>1491.3635</ele>
        <time>2019-12-26 09:24:07</time>
      </trkpt>
      <trkpt lat="45.59234" lon="6.67198">
        <ele>1489.245</ele>
        <time>2019-12-26 09:24:08</time>
      </trkpt>
      <trkpt lat="45.59231" lon="6.67201">
        <ele>1489.3174</ele>
        <time>2019-12-26 09:24:12</time>
      </trkpt>
      <trkpt lat="45.59231" lon="6.67201">
        <ele>1489.5879</ele>
        <time>2019-12-26 09:24:15</time>
      </trkpt>
      <trkpt lat="45.59231" lon="6.67203">
        <ele>1491.2961</ele>
        <time>2019-12-26 09:24:17</time>
      </trkpt>
      <trkpt lat="45.59231" lon="6.67203">
        <ele>1490.5862</ele>
        <time>2019-12-26 09:24:18</time>
      </trkpt>
      <trkpt lat="45.59224" lon="6.67207">
        <ele>1488.1411</ele>
        <time>2019-12-26 09:24:27</time>
      </trkpt>
      <trkpt lat="45.59223" lon="6.67208">
        <ele>1489.3352</ele>
        <time>2019-12-26 09:24:28</time>
      </trkpt>
      <trkpt lat="45.59222" lon="6.67208">
        <ele>1489.175</ele>
        <time>2019-12-26 09:24:29</time>
      </trkpt>
      <trkpt lat="45.59222" lon="6.67209">
        <ele>1489.086</ele>
        <time>2019-12-26 09:24:30</time>
      </trkpt>
      <trkpt lat="45.59221" lon="6.6721">
        <ele>1489.1802</ele>
        <time>2019-12-26 09:24:32</time>
      </trkpt>
      <trkpt lat="45.5922" lon="6.67211">
        <ele>1489.8866</ele>
        <time>2019-12-26 09:24:33</time>
      </trkpt>
      <trkpt lat="45.5922" lon="6.67212">
        <ele>1490.1418</ele>
        <time>2019-12-26 09:24:35</time>
      </trkpt>
      <trkpt lat="45.59216" lon="6.67215">
        <ele>1488.5819</ele>
        <time>2019-12-26 09:24:39</time>
      </trkpt>
      <trkpt lat="45.59215" lon="6.67215">
        <ele>1488.319</ele>
        <time>2019-12-26 09:24:40</time>
      </trkpt>
      <trkpt lat="45.59214" lon="6.67215">
        <ele>1486.0117</ele>
        <time>2019-12-26 09:24:41</time>
      </trkpt>
      <trkpt lat="45.59213" lon="6.67214">
        <ele>1487.1829</ele>
        <time>2019-12-26 09:24:43</time>
      </trkpt>
      <trkpt lat="45.5921" lon="6.67215">
        <ele>1486.3936</ele>
        <time>2019-12-26 09:24:46</time>
      </trkpt>
      <trkpt lat="45.59207" lon="6.67214">
        <ele>1484.6353</ele>
        <time>2019-12-26 09:24:48</time>
      </trkpt>
      <trkpt lat="45.59205" lon="6.67214">
        <ele>1481.6154</ele>
        <time>2019-12-26 09:24:51</time>
      </trkpt>
      <trkpt lat="45.59205" lon="6.67214">
        <ele>1482.7566</ele>
        <time>2019-12-26 09:24:52</time>
      </trkpt>
      <trkpt lat="45.59204" lon="6.67212">
        <ele>1487.3052</ele>
        <time>2019-12-26 09:24:58</time>
      </trkpt>
      <trkpt lat="45.59201" lon="6.67212">
        <ele>1486.4453</ele>
        <time>2019-12-26 09:25:01</time>
      </trkpt>
      <trkpt lat="45.59193" lon="6.67218">
        <ele>1489.0049</ele>
        <time>2019-12-26 09:25:07</time>
      </trkpt>
      <trkpt lat="45.59193" lon="6.67219">
        <ele>1484.6736</ele>
        <time>2019-12-26 09:25:09</time>
      </trkpt>
      <trkpt lat="45.59194" lon="6.67219">
        <ele>1482.4475</ele>
        <time>2019-12-26 09:25:11</time>
      </trkpt>
      <trkpt lat="45.59194" lon="6.67217">
        <ele>1484.0734</ele>
        <time>2019-12-26 09:25:17</time>
      </trkpt>
      <trkpt lat="45.59194" lon="6.67217">
        <ele>1483.6638</ele>
        <time>2019-12-26 09:25:18</time>
      </trkpt>
      <trkpt lat="45.59192" lon="6.67217">
        <ele>1484.551</ele>
        <time>2019-12-26 09:25:19</time>
      </trkpt>
      <trkpt lat="45.59191" lon="6.67216">
        <ele>1485.7261</ele>
        <time>2019-12-26 09:25:20</time>
      </trkpt>
      <trkpt lat="45.5919" lon="6.67216">
        <ele>1486.333</ele>
        <time>2019-12-26 09:25:21</time>
      </trkpt>
      <trkpt lat="45.5919" lon="6.67216">
        <ele>1487.1067</ele>
        <time>2019-12-26 09:25:22</time>
      </trkpt>
      <trkpt lat="45.59186" lon="6.67217">
        <ele>1487.9607</ele>
        <time>2019-12-26 09:25:24</time>
      </trkpt>
      <trkpt lat="45.59186" lon="6.67217">
        <ele>1488.7211</ele>
        <time>2019-12-26 09:25:25</time>
      </trkpt>
      <trkpt lat="45.59184" lon="6.67216">
        <ele>1489.9369</ele>
        <time>2019-12-26 09:25:26</time>
      </trkpt>
      <trkpt lat="45.59181" lon="6.67217">
        <ele>1492.9001</ele>
        <time>2019-12-26 09:25:29</time>
      </trkpt>
      <trkpt lat="45.59177" lon="6.67216">
        <ele>1491.7975</ele>
        <time>2019-12-26 09:25:34</time>
      </trkpt>
      <trkpt lat="45.59176" lon="6.67216">
        <ele>1491.0659</ele>
        <time>2019-12-26 09:25:36</time>
      </trkpt>
      <trkpt lat="45.59174" lon="6.67215">
        <ele>1491.5593</ele>
        <time>2019-12-26 09:25:38</time>
      </trkpt>
      <trkpt lat="45.59173" lon="6.67215">
        <ele>1491.8531</ele>
        <time>2019-12-26 09:25:39</time>
      </trkpt>
      <trkpt lat="45.59171" lon="6.67215">
        <ele>1492.7556</ele>
        <time>2019-12-26 09:25:41</time>
      </trkpt>
      <trkpt lat="45.59166" lon="6.67216">
        <ele>1492.0165</ele>
        <time>2019-12-26 09:25:47</time>
      </trkpt>
      <trkpt lat="45.59165" lon="6.67216">
        <ele>1492.2762</ele>
        <time>2019-12-26 09:25:48</time>
      </trkpt>
      <trkpt lat="45.59164" lon="6.67217">
        <ele>1492.0582</ele>
        <time>2019-12-26 09:25:50</time>
      </trkpt>
      <trkpt lat="45.59164" lon="6.67217">
        <ele>1493.2001</ele>
        <time>2019-12-26 09:25:51</time>
      </trkpt>
      <trkpt lat="45.5916" lon="6.67217">
        <ele>1494.391</ele>
        <time>2019-12-26 09:25:54</time>
      </trkpt>
      <trkpt lat="45.59155" lon="6.67217">
        <ele>1497.5203</ele>
        <time>2019-12-26 09:26:00</time>
      </trkpt>
      <trkpt lat="45.59155" lon="6.67217">
        <ele>1497.9523</ele>
        <time>2019-12-26 09:26:01</time>
      </trkpt>
      <trkpt lat="45.59152" lon="6.67217">
        <ele>1497.1432</ele>
        <time>2019-12-26 09:26:04</time>
      </trkpt>
      <trkpt lat="45.59147" lon="6.67219">
        <ele>1499.3806</ele>
        <time>2019-12-26 09:26:10</time>
      </trkpt>
      <trkpt lat="45.59146" lon="6.67219">
        <ele>1499.7086</ele>
        <time>2019-12-26 09:26:11</time>
      </trkpt>
      <trkpt lat="45.59145" lon="6.67218">
        <ele>1499.6772</ele>
        <time>2019-12-26 09:26:12</time>
      </trkpt>
      <trkpt lat="45.59145" lon="6.67217">
        <ele>1500.437</ele>
        <time>2019-12-26 09:26:14</time>
      </trkpt>
      <trkpt lat="45.59144" lon="6.67215">
        <ele>1502.3411</ele>
        <time>2019-12-26 09:26:16</time>
      </trkpt>
      <trkpt lat="45.59144" lon="6.67214">
        <ele>1501.9448</ele>
        <time>2019-12-26 09:26:17</time>
      </trkpt>
      <trkpt lat="45.59143" lon="6.67215">
        <ele>1502.6836</ele>
        <time>2019-12-26 09:26:26</time>
      </trkpt>
      <trkpt lat="45.59142" lon="6.67215">
        <ele>1502.9485</ele>
        <time>2019-12-26 09:26:27</time>
      </trkpt>
      <trkpt lat="45.59141" lon="6.67214">
        <ele>1502.0647</ele>
        <time>2019-12-26 09:26:28</time>
      </trkpt>
      <trkpt lat="45.5914" lon="6.67214">
        <ele>1502.4427</ele>
        <time>2019-12-26 09:26:29</time>
      </trkpt>
      <trkpt lat="45.5914" lon="6.67214">
        <ele>1503.2698</ele>
        <time>2019-12-26 09:26:30</time>
      </trkpt>
      <trkpt lat="45.59139" lon="6.67214">
        <ele>1502.8745</ele>
        <time>2019-12-26 09:26:31</time>
      </trkpt>
      <trkpt lat="45.59138" lon="6.67215">
        <ele>1502.846</ele>
        <time>2019-12-26 09:26:32</time>
      </trkpt>
      <trkpt lat="45.59135" lon="6.67217">
        <ele>1503.2695</ele>
        <time>2019-12-26 09:26:34</time>
      </trkpt>
      <trkpt lat="45.59135" lon="6.67217">
        <ele>1503.7648</ele>
        <time>2019-12-26 09:26:35</time>
      </trkpt>
      <trkpt lat="45.59134" lon="6.67217">
        <ele>1502.4912</ele>
        <time>2019-12-26 09:26:36</time>
      </trkpt>
      <trkpt lat="45.59132" lon="6.67218">
        <ele>1502.4634</ele>
        <time>2019-12-26 09:26:38</time>
      </trkpt>
      <trkpt lat="45.59132" lon="6.6722">
        <ele>1502.364</ele>
        <time>2019-12-26 09:26:39</time>
      </trkpt>
      <trkpt lat="45.59131" lon="6.67222">
        <ele>1503.6956</ele>
        <time>2019-12-26 09:26:42</time>
      </trkpt>
      <trkpt lat="45.5913" lon="6.67223">
        <ele>1502.3036</ele>
        <time>2019-12-26 09:26:44</time>
      </trkpt>
      <trkpt lat="45.59129" lon="6.67223">
        <ele>1502.3134</ele>
        <time>2019-12-26 09:26:45</time>
      </trkpt>
      <trkpt lat="45.59129" lon="6.67222">
        <ele>1501.7769</ele>
        <time>2019-12-26 09:26:46</time>
      </trkpt>
      <trkpt lat="45.59129" lon="6.67222">
        <ele>1502.4319</ele>
        <time>2019-12-26 09:26:47</time>
      </trkpt>
      <trkpt lat="45.59129" lon="6.67223">
        <ele>1501.0376</ele>
        <time>2019-12-26 09:26:48</time>
      </trkpt>
      <trkpt lat="45.59127" lon="6.67222">
        <ele>1505.807</ele>
        <time>2019-12-26 09:26:53</time>
      </trkpt>
      <trkpt lat="45.59126" lon="6.67221">
        <ele>1509.2301</ele>
        <time>2019-12-26 09:26:54</time>
      </trkpt>
      <trkpt lat="45.59125" lon="6.6722">
        <ele>1510.4867</ele>
        <time>2019-12-26 09:26:55</time>
      </trkpt>
      <trkpt lat="45.59123" lon="6.67223">
        <ele>1510.7228</ele>
        <time>2019-12-26 09:26:58</time>
      </trkpt>
      <trkpt lat="45.59122" lon="6.67223">
        <ele>1511.3392</ele>
        <time>2019-12-26 09:26:59</time>
      </trkpt>
      <trkpt lat="45.59121" lon="6.67223">
        <ele>1511.5952</ele>
        <time>2019-12-26 09:27:00</time>
      </trkpt>
      <trkpt lat="45.5912" lon="6.67223">
        <ele>1511.0723</ele>
        <time>2019-12-26 09:27:01</time>
      </trkpt>
      <trkpt lat="45.59119" lon="6.67222">
        <ele>1511.8223</ele>
        <time>2019-12-26 09:27:02</time>
      </trkpt>
      <trkpt lat="45.59117" lon="6.67223">
        <ele>1511.8987</ele>
        <time>2019-12-26 09:27:04</time>
      </trkpt>
      <trkpt lat="45.59116" lon="6.67223">
        <ele>1512.6262</ele>
        <time>2019-12-26 09:27:05</time>
      </trkpt>
      <trkpt lat="45.59115" lon="6.67223">
        <ele>1513.4492</ele>
        <time>2019-12-26 09:27:19</time>
      </trkpt>
      <trkpt lat="45.59114" lon="6.67224">
        <ele>1513.7322</ele>
        <time>2019-12-26 09:27:20</time>
      </trkpt>
      <trkpt lat="45.59113" lon="6.67226">
        <ele>1511.2717</ele>
        <time>2019-12-26 09:27:21</time>
      </trkpt>
      <trkpt lat="45.59111" lon="6.67228">
        <ele>1509.9464</ele>
        <time>2019-12-26 09:27:23</time>
      </trkpt>
      <trkpt lat="45.59109" lon="6.67228">
        <ele>1509.1503</ele>
        <time>2019-12-26 09:27:24</time>
      </trkpt>
      <trkpt lat="45.59107" lon="6.67228">
        <ele>1507.8765</ele>
        <time>2019-12-26 09:27:26</time>
      </trkpt>
      <trkpt lat="45.59105" lon="6.67228">
        <ele>1508.3794</ele>
        <time>2019-12-26 09:27:27</time>
      </trkpt>
      <trkpt lat="45.59104" lon="6.67228">
        <ele>1507.9376</ele>
        <time>2019-12-26 09:27:28</time>
      </trkpt>
      <trkpt lat="45.59101" lon="6.67232">
        <ele>1508.7941</ele>
        <time>2019-12-26 09:27:31</time>
      </trkpt>
      <trkpt lat="45.591" lon="6.67232">
        <ele>1509.3098</ele>
        <time>2019-12-26 09:27:32</time>
      </trkpt>
      <trkpt lat="45.59099" lon="6.67233">
        <ele>1508.7695</ele>
        <time>2019-12-26 09:27:33</time>
      </trkpt>
      <trkpt lat="45.59099" lon="6.67235">
        <ele>1509.3523</ele>
        <time>2019-12-26 09:27:35</time>
      </trkpt>
      <trkpt lat="45.59098" lon="6.67237">
        <ele>1508.2843</ele>
        <time>2019-12-26 09:27:37</time>
      </trkpt>
      <trkpt lat="45.59096" lon="6.67241">
        <ele>1505.3231</ele>
        <time>2019-12-26 09:27:44</time>
      </trkpt>
      <trkpt lat="45.59095" lon="6.67242">
        <ele>1506.1534</ele>
        <time>2019-12-26 09:27:45</time>
      </trkpt>
      <trkpt lat="45.59094" lon="6.67243">
        <ele>1505.5684</ele>
        <time>2019-12-26 09:27:47</time>
      </trkpt>
      <trkpt lat="45.59089" lon="6.67245">
        <ele>1507.5684</ele>
        <time>2019-12-26 09:27:53</time>
      </trkpt>
      <trkpt lat="45.59085" lon="6.67244">
        <ele>1509.9467</ele>
        <time>2019-12-26 09:27:59</time>
      </trkpt>
      <trkpt lat="45.59083" lon="6.67245">
        <ele>1508.5327</ele>
        <time>2019-12-26 09:28:00</time>
      </trkpt>
      <trkpt lat="45.59081" lon="6.67247">
        <ele>1507.783</ele>
        <time>2019-12-26 09:28:02</time>
      </trkpt>
      <trkpt lat="45.5908" lon="6.67248">
        <ele>1507.9702</ele>
        <time>2019-12-26 09:28:03</time>
      </trkpt>
      <trkpt lat="45.59076" lon="6.67252">
        <ele>1505.1567</ele>
        <time>2019-12-26 09:28:11</time>
      </trkpt>
      <trkpt lat="45.59075" lon="6.67253">
        <ele>1504.86</ele>
        <time>2019-12-26 09:28:13</time>
      </trkpt>
      <trkpt lat="45.59074" lon="6.67253">
        <ele>1504.8116</ele>
        <time>2019-12-26 09:28:14</time>
      </trkpt>
      <trkpt lat="45.59073" lon="6.67253">
        <ele>1506.7656</ele>
        <time>2019-12-26 09:28:15</time>
      </trkpt>
      <trkpt lat="45.59072" lon="6.67253">
        <ele>1504.8918</ele>
        <time>2019-12-26 09:28:16</time>
      </trkpt>
      <trkpt lat="45.59072" lon="6.67252">
        <ele>1504.9586</ele>
        <time>2019-12-26 09:28:17</time>
      </trkpt>
      <trkpt lat="45.5907" lon="6.67253">
        <ele>1505.218</ele>
        <time>2019-12-26 09:28:20</time>
      </trkpt>
      <trkpt lat="45.59069" lon="6.67255">
        <ele>1503.3268</ele>
        <time>2019-12-26 09:28:21</time>
      </trkpt>
      <trkpt lat="45.59068" lon="6.67257">
        <ele>1504.3162</ele>
        <time>2019-12-26 09:28:22</time>
      </trkpt>
      <trkpt lat="45.59067" lon="6.67258">
        <ele>1507.2878</ele>
        <time>2019-12-26 09:28:27</time>
      </trkpt>
      <trkpt lat="45.59066" lon="6.67258">
        <ele>1507.637</ele>
        <time>2019-12-26 09:28:28</time>
      </trkpt>
      <trkpt lat="45.59065" lon="6.67258">
        <ele>1507.7527</ele>
        <time>2019-12-26 09:28:29</time>
      </trkpt>
      <trkpt lat="45.59063" lon="6.67257">
        <ele>1506.736</ele>
        <time>2019-12-26 09:28:31</time>
      </trkpt>
      <trkpt lat="45.59062" lon="6.67258">
        <ele>1507.2316</ele>
        <time>2019-12-26 09:28:32</time>
      </trkpt>
      <trkpt lat="45.59061" lon="6.67258">
        <ele>1506.83</ele>
        <time>2019-12-26 09:28:33</time>
      </trkpt>
      <trkpt lat="45.59061" lon="6.67259">
        <ele>1506.9843</ele>
        <time>2019-12-26 09:28:34</time>
      </trkpt>
      <trkpt lat="45.59059" lon="6.67262">
        <ele>1507.2142</ele>
        <time>2019-12-26 09:28:37</time>
      </trkpt>
      <trkpt lat="45.59058" lon="6.67262">
        <ele>1508.559</ele>
        <time>2019-12-26 09:28:38</time>
      </trkpt>
      <trkpt lat="45.59057" lon="6.67262">
        <ele>1509.4866</ele>
        <time>2019-12-26 09:28:39</time>
      </trkpt>
      <trkpt lat="45.59056" lon="6.67262">
        <ele>1509.2168</ele>
        <time>2019-12-26 09:28:41</time>
      </trkpt>
      <trkpt lat="45.59056" lon="6.67263">
        <ele>1510.0039</ele>
        <time>2019-12-26 09:28:42</time>
      </trkpt>
      <trkpt lat="45.59055" lon="6.67263">
        <ele>1510.1239</ele>
        <time>2019-12-26 09:28:43</time>
      </trkpt>
      <trkpt lat="45.59053" lon="6.67265">
        <ele>1512.0847</ele>
        <time>2019-12-26 09:28:46</time>
      </trkpt>
      <trkpt lat="45.59052" lon="6.67265">
        <ele>1513.2312</ele>
        <time>2019-12-26 09:28:47</time>
      </trkpt>
      <trkpt lat="45.59051" lon="6.67265">
        <ele>1513.0177</ele>
        <time>2019-12-26 09:28:48</time>
      </trkpt>
      <trkpt lat="45.5905" lon="6.67267">
        <ele>1512.7037</ele>
        <time>2019-12-26 09:28:50</time>
      </trkpt>
      <trkpt lat="45.59048" lon="6.67269">
        <ele>1512.6726</ele>
        <time>2019-12-26 09:28:52</time>
      </trkpt>
      <trkpt lat="45.59047" lon="6.67272">
        <ele>1512.6815</ele>
        <time>2019-12-26 09:28:55</time>
      </trkpt>
      <trkpt lat="45.59047" lon="6.67273">
        <ele>1513.6052</ele>
        <time>2019-12-26 09:28:56</time>
      </trkpt>
      <trkpt lat="45.59046" lon="6.67273">
        <ele>1513.6033</ele>
        <time>2019-12-26 09:28:57</time>
      </trkpt>
      <trkpt lat="45.59044" lon="6.67273">
        <ele>1514.01</ele>
        <time>2019-12-26 09:28:59</time>
      </trkpt>
      <trkpt lat="45.59044" lon="6.67273">
        <ele>1514.165</ele>
        <time>2019-12-26 09:29:00</time>
      </trkpt>
      <trkpt lat="45.59043" lon="6.67274">
        <ele>1515.001</ele>
        <time>2019-12-26 09:29:01</time>
      </trkpt>
      <trkpt lat="45.59041" lon="6.67276">
        <ele>1515.3945</ele>
        <time>2019-12-26 09:29:03</time>
      </trkpt>
      <trkpt lat="45.5904" lon="6.67277">
        <ele>1518.2507</ele>
        <time>2019-12-26 09:29:05</time>
      </trkpt>
      <trkpt lat="45.59039" lon="6.67276">
        <ele>1521.593</ele>
        <time>2019-12-26 09:29:06</time>
      </trkpt>
      <trkpt lat="45.59038" lon="6.67275">
        <ele>1521.8639</ele>
        <time>2019-12-26 09:29:08</time>
      </trkpt>
      <trkpt lat="45.59037" lon="6.67275">
        <ele>1522.5099</ele>
        <time>2019-12-26 09:29:09</time>
      </trkpt>
      <trkpt lat="45.59036" lon="6.67275">
        <ele>1524.778</ele>
        <time>2019-12-26 09:29:11</time>
      </trkpt>
      <trkpt lat="45.59035" lon="6.67275">
        <ele>1525.5802</ele>
        <time>2019-12-26 09:29:12</time>
      </trkpt>
      <trkpt lat="45.59035" lon="6.67274">
        <ele>1525.4438</ele>
        <time>2019-12-26 09:29:13</time>
      </trkpt>
      <trkpt lat="45.59035" lon="6.67275">
        <ele>1526.4789</ele>
        <time>2019-12-26 09:29:17</time>
      </trkpt>
      <trkpt lat="45.59034" lon="6.67275">
        <ele>1525.9622</ele>
        <time>2019-12-26 09:29:19</time>
      </trkpt>
      <trkpt lat="45.59033" lon="6.67276">
        <ele>1523.6031</ele>
        <time>2019-12-26 09:29:20</time>
      </trkpt>
      <trkpt lat="45.5903" lon="6.67279">
        <ele>1523.337</ele>
        <time>2019-12-26 09:29:22</time>
      </trkpt>
      <trkpt lat="45.59028" lon="6.67282">
        <ele>1525.3334</ele>
        <time>2019-12-26 09:29:24</time>
      </trkpt>
      <trkpt lat="45.59027" lon="6.67284">
        <ele>1525.9688</ele>
        <time>2019-12-26 09:29:26</time>
      </trkpt>
      <trkpt lat="45.59025" lon="6.67285">
        <ele>1525.7853</ele>
        <time>2019-12-26 09:29:28</time>
      </trkpt>
      <trkpt lat="45.59023" lon="6.67286">
        <ele>1526.771</ele>
        <time>2019-12-26 09:29:32</time>
      </trkpt>
      <trkpt lat="45.59022" lon="6.67286">
        <ele>1527.2332</ele>
        <time>2019-12-26 09:29:33</time>
      </trkpt>
      <trkpt lat="45.59022" lon="6.67286">
        <ele>1527.5854</ele>
        <time>2019-12-26 09:29:34</time>
      </trkpt>
      <trkpt lat="45.59022" lon="6.67286">
        <ele>1527.1372</ele>
        <time>2019-12-26 09:29:36</time>
      </trkpt>
      <trkpt lat="45.59021" lon="6.67287">
        <ele>1526.7515</ele>
        <time>2019-12-26 09:29:37</time>
      </trkpt>
      <trkpt lat="45.5902" lon="6.67286">
        <ele>1527.7228</ele>
        <time>2019-12-26 09:29:40</time>
      </trkpt>
      <trkpt lat="45.59019" lon="6.67286">
        <ele>1528.5592</ele>
        <time>2019-12-26 09:29:41</time>
      </trkpt>
      <trkpt lat="45.59018" lon="6.67286">
        <ele>1527.9968</ele>
        <time>2019-12-26 09:29:42</time>
      </trkpt>
      <trkpt lat="45.59017" lon="6.67285">
        <ele>1529.0889</ele>
        <time>2019-12-26 09:29:45</time>
      </trkpt>
      <trkpt lat="45.59016" lon="6.67285">
        <ele>1529.6205</ele>
        <time>2019-12-26 09:29:46</time>
      </trkpt>
      <trkpt lat="45.59015" lon="6.67286">
        <ele>1528.5443</ele>
        <time>2019-12-26 09:29:47</time>
      </trkpt>
      <trkpt lat="45.59015" lon="6.67288">
        <ele>1529.2041</ele>
        <time>2019-12-26 09:29:48</time>
      </trkpt>
      <trkpt lat="45.59015" lon="6.67289">
        <ele>1530.1982</ele>
        <time>2019-12-26 09:29:49</time>
      </trkpt>
      <trkpt lat="45.59014" lon="6.6729">
        <ele>1530.926</ele>
        <time>2019-12-26 09:29:50</time>
      </trkpt>
      <trkpt lat="45.59014" lon="6.67291">
        <ele>1531.1824</ele>
        <time>2019-12-26 09:29:51</time>
      </trkpt>
      <trkpt lat="45.59008" lon="6.67288">
        <ele>1532.5559</ele>
        <time>2019-12-26 09:30:00</time>
      </trkpt>
      <trkpt lat="45.59007" lon="6.67288">
        <ele>1532.9553</ele>
        <time>2019-12-26 09:30:01</time>
      </trkpt>
      <trkpt lat="45.59006" lon="6.67289">
        <ele>1532.914</ele>
        <time>2019-12-26 09:30:02</time>
      </trkpt>
      <trkpt lat="45.59005" lon="6.6729">
        <ele>1535.3519</ele>
        <time>2019-12-26 09:30:05</time>
      </trkpt>
      <trkpt lat="45.59004" lon="6.67291">
        <ele>1535.7378</ele>
        <time>2019-12-26 09:30:06</time>
      </trkpt>
      <trkpt lat="45.59003" lon="6.67292">
        <ele>1536.4103</ele>
        <time>2019-12-26 09:30:08</time>
      </trkpt>
      <trkpt lat="45.59003" lon="6.67293">
        <ele>1536.9641</ele>
        <time>2019-12-26 09:30:09</time>
      </trkpt>
      <trkpt lat="45.59002" lon="6.67293">
        <ele>1537.7343</ele>
        <time>2019-12-26 09:30:10</time>
      </trkpt>
      <trkpt lat="45.59001" lon="6.67292">
        <ele>1537.5436</ele>
        <time>2019-12-26 09:30:11</time>
      </trkpt>
      <trkpt lat="45.59" lon="6.67293">
        <ele>1529.3298</ele>
        <time>2019-12-26 09:30:13</time>
      </trkpt>
      <trkpt lat="45.59" lon="6.67295">
        <ele>1528.797</ele>
        <time>2019-12-26 09:30:14</time>
      </trkpt>
      <trkpt lat="45.58999" lon="6.67297">
        <ele>1526.2845</ele>
        <time>2019-12-26 09:30:15</time>
      </trkpt>
      <trkpt lat="45.58995" lon="6.67305">
        <ele>1520.9756</ele>
        <time>2019-12-26 09:30:19</time>
      </trkpt>
      <trkpt lat="45.5899" lon="6.67308">
        <ele>1525.8972</ele>
        <time>2019-12-26 09:30:25</time>
      </trkpt>
      <trkpt lat="45.58989" lon="6.67309">
        <ele>1525.2523</ele>
        <time>2019-12-26 09:30:26</time>
      </trkpt>
      <trkpt lat="45.58988" lon="6.67309">
        <ele>1525.117</ele>
        <time>2019-12-26 09:30:28</time>
      </trkpt>
      <trkpt lat="45.58987" lon="6.67309">
        <ele>1524.6665</ele>
        <time>2019-12-26 09:30:29</time>
      </trkpt>
      <trkpt lat="45.58986" lon="6.6731">
        <ele>1524.8241</ele>
        <time>2019-12-26 09:30:30</time>
      </trkpt>
      <trkpt lat="45.58985" lon="6.6731">
        <ele>1526.164</ele>
        <time>2019-12-26 09:30:31</time>
      </trkpt>
      <trkpt lat="45.58984" lon="6.67311">
        <ele>1525.5011</ele>
        <time>2019-12-26 09:30:33</time>
      </trkpt>
      <trkpt lat="45.58983" lon="6.67311">
        <ele>1524.996</ele>
        <time>2019-12-26 09:30:34</time>
      </trkpt>
      <trkpt lat="45.58982" lon="6.67311">
        <ele>1524.4404</ele>
        <time>2019-12-26 09:30:35</time>
      </trkpt>
      <trkpt lat="45.58981" lon="6.6731">
        <ele>1525.7236</ele>
        <time>2019-12-26 09:30:36</time>
      </trkpt>
      <trkpt lat="45.58976" lon="6.67311">
        <ele>1528.2675</ele>
        <time>2019-12-26 09:30:42</time>
      </trkpt>
      <trkpt lat="45.58975" lon="6.67312">
        <ele>1526.8981</ele>
        <time>2019-12-26 09:30:44</time>
      </trkpt>
      <trkpt lat="45.58974" lon="6.67312">
        <ele>1527.5719</ele>
        <time>2019-12-26 09:30:45</time>
      </trkpt>
      <trkpt lat="45.58974" lon="6.67313">
        <ele>1526.7694</ele>
        <time>2019-12-26 09:30:46</time>
      </trkpt>
      <trkpt lat="45.58969" lon="6.67317">
        <ele>1529.4678</ele>
        <time>2019-12-26 09:30:51</time>
      </trkpt>
      <trkpt lat="45.58967" lon="6.67317">
        <ele>1530.5497</ele>
        <time>2019-12-26 09:30:52</time>
      </trkpt>
      <trkpt lat="45.58967" lon="6.67318">
        <ele>1530.2488</ele>
        <time>2019-12-26 09:30:53</time>
      </trkpt>
      <trkpt lat="45.58966" lon="6.67319">
        <ele>1529.4038</ele>
        <time>2019-12-26 09:30:54</time>
      </trkpt>
      <trkpt lat="45.58966" lon="6.67319">
        <ele>1529.7577</ele>
        <time>2019-12-26 09:30:55</time>
      </trkpt>
      <trkpt lat="45.58965" lon="6.67322">
        <ele>1530.443</ele>
        <time>2019-12-26 09:30:57</time>
      </trkpt>
      <trkpt lat="45.58964" lon="6.67322">
        <ele>1530.271</ele>
        <time>2019-12-26 09:30:58</time>
      </trkpt>
      <trkpt lat="45.58962" lon="6.67323">
        <ele>1531.554</ele>
        <time>2019-12-26 09:31:00</time>
      </trkpt>
      <trkpt lat="45.5896" lon="6.67326">
        <ele>1533.3306</ele>
        <time>2019-12-26 09:31:13</time>
      </trkpt>
      <trkpt lat="45.58959" lon="6.6733">
        <ele>1531.2836</ele>
        <time>2019-12-26 09:31:17</time>
      </trkpt>
      <trkpt lat="45.58958" lon="6.67331">
        <ele>1531.7946</ele>
        <time>2019-12-26 09:31:18</time>
      </trkpt>
      <trkpt lat="45.58958" lon="6.67332">
        <ele>1533.5999</ele>
        <time>2019-12-26 09:31:20</time>
      </trkpt>
      <trkpt lat="45.58958" lon="6.67334">
        <ele>1532.7407</ele>
        <time>2019-12-26 09:31:22</time>
      </trkpt>
      <trkpt lat="45.58958" lon="6.67335">
        <ele>1533.5172</ele>
        <time>2019-12-26 09:31:23</time>
      </trkpt>
      <trkpt lat="45.58957" lon="6.67337">
        <ele>1536.274</ele>
        <time>2019-12-26 09:31:26</time>
      </trkpt>
      <trkpt lat="45.58957" lon="6.67338">
        <ele>1537.6345</ele>
        <time>2019-12-26 09:31:27</time>
      </trkpt>
      <trkpt lat="45.58957" lon="6.67338">
        <ele>1539.0625</ele>
        <time>2019-12-26 09:31:28</time>
      </trkpt>
      <trkpt lat="45.58958" lon="6.67339">
        <ele>1538.8226</ele>
        <time>2019-12-26 09:31:29</time>
      </trkpt>
      <trkpt lat="45.58959" lon="6.67343">
        <ele>1539.128</ele>
        <time>2019-12-26 09:31:34</time>
      </trkpt>
      <trkpt lat="45.58959" lon="6.67344">
        <ele>1538.8573</ele>
        <time>2019-12-26 09:31:35</time>
      </trkpt>
      <trkpt lat="45.5896" lon="6.67345">
        <ele>1538.9269</ele>
        <time>2019-12-26 09:31:36</time>
      </trkpt>
      <trkpt lat="45.5896" lon="6.67345">
        <ele>1538.7671</ele>
        <time>2019-12-26 09:31:37</time>
      </trkpt>
      <trkpt lat="45.5896" lon="6.67346">
        <ele>1538.9287</ele>
        <time>2019-12-26 09:31:38</time>
      </trkpt>
      <trkpt lat="45.58961" lon="6.67348">
        <ele>1538.3168</ele>
        <time>2019-12-26 09:31:40</time>
      </trkpt>
      <trkpt lat="45.58961" lon="6.67348">
        <ele>1538.4532</ele>
        <time>2019-12-26 09:31:41</time>
      </trkpt>
      <trkpt lat="45.58962" lon="6.67348">
        <ele>1538.7633</ele>
        <time>2019-12-26 09:31:42</time>
      </trkpt>
      <trkpt lat="45.58962" lon="6.67349">
        <ele>1538.4979</ele>
        <time>2019-12-26 09:31:43</time>
      </trkpt>
      <trkpt lat="45.58963" lon="6.67351">
        <ele>1538.8462</ele>
        <time>2019-12-26 09:31:44</time>
      </trkpt>
      <trkpt lat="45.58961" lon="6.67352">
        <ele>1544.3296</ele>
        <time>2019-12-26 09:31:57</time>
      </trkpt>
      <trkpt lat="45.5896" lon="6.67352">
        <ele>1544.3344</ele>
        <time>2019-12-26 09:31:58</time>
      </trkpt>
      <trkpt lat="45.5896" lon="6.67353">
        <ele>1542.7375</ele>
        <time>2019-12-26 09:32:14</time>
      </trkpt>
      <trkpt lat="45.58959" lon="6.67352">
        <ele>1543.4287</ele>
        <time>2019-12-26 09:32:15</time>
      </trkpt>
      <trkpt lat="45.58958" lon="6.67355">
        <ele>1544.2257</ele>
        <time>2019-12-26 09:32:22</time>
      </trkpt>
      <trkpt lat="45.58958" lon="6.67357">
        <ele>1543.9865</ele>
        <time>2019-12-26 09:32:23</time>
      </trkpt>
      <trkpt lat="45.58959" lon="6.67358">
        <ele>1544.1046</ele>
        <time>2019-12-26 09:32:24</time>
      </trkpt>
      <trkpt lat="45.58961" lon="6.67362">
        <ele>1544.3678</ele>
        <time>2019-12-26 09:32:30</time>
      </trkpt>
      <trkpt lat="45.58962" lon="6.67363">
        <ele>1544.1099</ele>
        <time>2019-12-26 09:32:31</time>
      </trkpt>
      <trkpt lat="45.58963" lon="6.67367">
        <ele>1543.7505</ele>
        <time>2019-12-26 09:32:35</time>
      </trkpt>
      <trkpt lat="45.58964" lon="6.67368">
        <ele>1543.7612</ele>
        <time>2019-12-26 09:32:36</time>
      </trkpt>
      <trkpt lat="45.58965" lon="6.67369">
        <ele>1543.4688</ele>
        <time>2019-12-26 09:32:37</time>
      </trkpt>
      <trkpt lat="45.58966" lon="6.6737">
        <ele>1543.5114</ele>
        <time>2019-12-26 09:32:38</time>
      </trkpt>
      <trkpt lat="45.58967" lon="6.6737">
        <ele>1543.9719</ele>
        <time>2019-12-26 09:32:39</time>
      </trkpt>
      <trkpt lat="45.58967" lon="6.67373">
        <ele>1543.7708</ele>
        <time>2019-12-26 09:32:43</time>
      </trkpt>
      <trkpt lat="45.58967" lon="6.67374">
        <ele>1544.3167</ele>
        <time>2019-12-26 09:32:44</time>
      </trkpt>
      <trkpt lat="45.58967" lon="6.67375">
        <ele>1544.5314</ele>
        <time>2019-12-26 09:32:45</time>
      </trkpt>
      <trkpt lat="45.58967" lon="6.67378">
        <ele>1544.401</ele>
        <time>2019-12-26 09:32:48</time>
      </trkpt>
      <trkpt lat="45.58967" lon="6.67378">
        <ele>1544.6305</ele>
        <time>2019-12-26 09:32:49</time>
      </trkpt>
      <trkpt lat="45.58968" lon="6.67379">
        <ele>1545.7482</ele>
        <time>2019-12-26 09:32:51</time>
      </trkpt>
      <trkpt lat="45.58969" lon="6.67379">
        <ele>1546.6962</ele>
        <time>2019-12-26 09:32:52</time>
      </trkpt>
      <trkpt lat="45.58969" lon="6.67379">
        <ele>1546.8976</ele>
        <time>2019-12-26 09:32:53</time>
      </trkpt>
      <trkpt lat="45.58969" lon="6.67379">
        <ele>1547.2299</ele>
        <time>2019-12-26 09:32:54</time>
      </trkpt>
      <trkpt lat="45.5897" lon="6.6738">
        <ele>1548.2002</ele>
        <time>2019-12-26 09:32:56</time>
      </trkpt>
      <trkpt lat="45.5897" lon="6.67381">
        <ele>1548.9766</ele>
        <time>2019-12-26 09:32:57</time>
      </trkpt>
      <trkpt lat="45.5897" lon="6.67384">
        <ele>1549.7812</ele>
        <time>2019-12-26 09:33:01</time>
      </trkpt>
      <trkpt lat="45.5897" lon="6.67385">
        <ele>1550.6011</ele>
        <time>2019-12-26 09:33:05</time>
      </trkpt>
      <trkpt lat="45.5897" lon="6.67384">
        <ele>1550.1399</ele>
        <time>2019-12-26 09:33:06</time>
      </trkpt>
      <trkpt lat="45.5897" lon="6.67385">
        <ele>1549.7397</ele>
        <time>2019-12-26 09:33:07</time>
      </trkpt>
      <trkpt lat="45.58969" lon="6.67386">
        <ele>1550.8906</ele>
        <time>2019-12-26 09:33:08</time>
      </trkpt>
      <trkpt lat="45.58969" lon="6.67387">
        <ele>1549.2212</ele>
        <time>2019-12-26 09:33:09</time>
      </trkpt>
      <trkpt lat="45.58968" lon="6.67389">
        <ele>1548.6997</ele>
        <time>2019-12-26 09:33:11</time>
      </trkpt>
      <trkpt lat="45.58967" lon="6.67391">
        <ele>1548.7925</ele>
        <time>2019-12-26 09:33:13</time>
      </trkpt>
      <trkpt lat="45.58967" lon="6.67392">
        <ele>1549.0542</ele>
        <time>2019-12-26 09:33:14</time>
      </trkpt>
      <trkpt lat="45.58967" lon="6.67393">
        <ele>1548.9741</ele>
        <time>2019-12-26 09:33:15</time>
      </trkpt>
      <trkpt lat="45.58966" lon="6.67395">
        <ele>1549.4565</ele>
        <time>2019-12-26 09:33:17</time>
      </trkpt>
      <trkpt lat="45.58966" lon="6.67397">
        <ele>1549.8186</ele>
        <time>2019-12-26 09:33:18</time>
      </trkpt>
      <trkpt lat="45.58966" lon="6.67397">
        <ele>1549.5015</ele>
        <time>2019-12-26 09:33:19</time>
      </trkpt>
      <trkpt lat="45.58965" lon="6.67399">
        <ele>1551.1301</ele>
        <time>2019-12-26 09:33:20</time>
      </trkpt>
      <trkpt lat="45.58964" lon="6.67403">
        <ele>1551.6489</ele>
        <time>2019-12-26 09:33:23</time>
      </trkpt>
      <trkpt lat="45.58965" lon="6.67404">
        <ele>1551.2856</ele>
        <time>2019-12-26 09:33:24</time>
      </trkpt>
      <trkpt lat="45.58965" lon="6.67406">
        <ele>1550.5674</ele>
        <time>2019-12-26 09:33:25</time>
      </trkpt>
      <trkpt lat="45.58964" lon="6.67408">
        <ele>1550.9812</ele>
        <time>2019-12-26 09:33:26</time>
      </trkpt>
      <trkpt lat="45.58964" lon="6.6741">
        <ele>1551.126</ele>
        <time>2019-12-26 09:33:28</time>
      </trkpt>
      <trkpt lat="45.58965" lon="6.67416">
        <ele>1549.6445</ele>
        <time>2019-12-26 09:33:32</time>
      </trkpt>
      <trkpt lat="45.58965" lon="6.67417">
        <ele>1549.2495</ele>
        <time>2019-12-26 09:33:33</time>
      </trkpt>
      <trkpt lat="45.58965" lon="6.67419">
        <ele>1549.8657</ele>
        <time>2019-12-26 09:33:35</time>
      </trkpt>
      <trkpt lat="45.58964" lon="6.6742">
        <ele>1549.977</ele>
        <time>2019-12-26 09:33:36</time>
      </trkpt>
      <trkpt lat="45.58964" lon="6.67421">
        <ele>1550.0381</ele>
        <time>2019-12-26 09:33:37</time>
      </trkpt>
      <trkpt lat="45.58964" lon="6.67422">
        <ele>1550.04</ele>
        <time>2019-12-26 09:33:39</time>
      </trkpt>
      <trkpt lat="45.58964" lon="6.67423">
        <ele>1550.1294</ele>
        <time>2019-12-26 09:33:40</time>
      </trkpt>
      <trkpt lat="45.58964" lon="6.67424">
        <ele>1549.9932</ele>
        <time>2019-12-26 09:33:41</time>
      </trkpt>
      <trkpt lat="45.58968" lon="6.67427">
        <ele>1550.1165</ele>
        <time>2019-12-26 09:33:50</time>
      </trkpt>
      <trkpt lat="45.58969" lon="6.67427">
        <ele>1550.6782</ele>
        <time>2019-12-26 09:33:51</time>
      </trkpt>
      <trkpt lat="45.58969" lon="6.67427">
        <ele>1551.1982</ele>
        <time>2019-12-26 09:33:52</time>
      </trkpt>
      <trkpt lat="45.5897" lon="6.67427">
        <ele>1552.1045</ele>
        <time>2019-12-26 09:33:53</time>
      </trkpt>
      <trkpt lat="45.5897" lon="6.67427">
        <ele>1552.2476</ele>
        <time>2019-12-26 09:33:54</time>
      </trkpt>
      <trkpt lat="45.58971" lon="6.67428">
        <ele>1552.7065</ele>
        <time>2019-12-26 09:33:58</time>
      </trkpt>
      <trkpt lat="45.58972" lon="6.67429">
        <ele>1552.6514</ele>
        <time>2019-12-26 09:33:59</time>
      </trkpt>
      <trkpt lat="45.58972" lon="6.6743">
        <ele>1553.8843</ele>
        <time>2019-12-26 09:34:00</time>
      </trkpt>
      <trkpt lat="45.58973" lon="6.67432">
        <ele>1551.9038</ele>
        <time>2019-12-26 09:34:03</time>
      </trkpt>
      <trkpt lat="45.58973" lon="6.67432">
        <ele>1553.1257</ele>
        <time>2019-12-26 09:34:05</time>
      </trkpt>
      <trkpt lat="45.58974" lon="6.67432">
        <ele>1553.9316</ele>
        <time>2019-12-26 09:34:06</time>
      </trkpt>
      <trkpt lat="45.58974" lon="6.67433">
        <ele>1554.7993</ele>
        <time>2019-12-26 09:34:07</time>
      </trkpt>
      <trkpt lat="45.58975" lon="6.67433">
        <ele>1554.8777</ele>
        <time>2019-12-26 09:34:08</time>
      </trkpt>
      <trkpt lat="45.58975" lon="6.67433">
        <ele>1554.6104</ele>
        <time>2019-12-26 09:34:09</time>
      </trkpt>
      <trkpt lat="45.58976" lon="6.67433">
        <ele>1555.0181</ele>
        <time>2019-12-26 09:34:10</time>
      </trkpt>
      <trkpt lat="45.58976" lon="6.67434">
        <ele>1554.4158</ele>
        <time>2019-12-26 09:34:11</time>
      </trkpt>
      <trkpt lat="45.58978" lon="6.67436">
        <ele>1554.6201</ele>
        <time>2019-12-26 09:34:14</time>
      </trkpt>
      <trkpt lat="45.58978" lon="6.67437">
        <ele>1554.1382</ele>
        <time>2019-12-26 09:34:15</time>
      </trkpt>
      <trkpt lat="45.58978" lon="6.67439">
        <ele>1554.7798</ele>
        <time>2019-12-26 09:34:16</time>
      </trkpt>
      <trkpt lat="45.58978" lon="6.6744">
        <ele>1554.8147</ele>
        <time>2019-12-26 09:34:18</time>
      </trkpt>
      <trkpt lat="45.58978" lon="6.67442">
        <ele>1554.956</ele>
        <time>2019-12-26 09:34:20</time>
      </trkpt>
      <trkpt lat="45.58978" lon="6.67448">
        <ele>1552.7441</ele>
        <time>2019-12-26 09:34:24</time>
      </trkpt>
      <trkpt lat="45.58978" lon="6.67448">
        <ele>1552.6516</ele>
        <time>2019-12-26 09:34:25</time>
      </trkpt>
      <trkpt lat="45.58978" lon="6.67449">
        <ele>1552.6521</ele>
        <time>2019-12-26 09:34:26</time>
      </trkpt>
      <trkpt lat="45.58977" lon="6.67453">
        <ele>1552.6147</ele>
        <time>2019-12-26 09:34:30</time>
      </trkpt>
      <trkpt lat="45.58977" lon="6.67455">
        <ele>1553.2065</ele>
        <time>2019-12-26 09:34:32</time>
      </trkpt>
      <trkpt lat="45.58977" lon="6.67456">
        <ele>1553.835</ele>
        <time>2019-12-26 09:34:43</time>
      </trkpt>
      <trkpt lat="45.58977" lon="6.67456">
        <ele>1553.6812</ele>
        <time>2019-12-26 09:34:44</time>
      </trkpt>
      <trkpt lat="45.58977" lon="6.67457">
        <ele>1553.2468</ele>
        <time>2019-12-26 09:34:45</time>
      </trkpt>
      <trkpt lat="45.58978" lon="6.67459">
        <ele>1552.0146</ele>
        <time>2019-12-26 09:34:47</time>
      </trkpt>
      <trkpt lat="45.58978" lon="6.6746">
        <ele>1552.2258</ele>
        <time>2019-12-26 09:34:49</time>
      </trkpt>
      <trkpt lat="45.58978" lon="6.67461">
        <ele>1552.4443</ele>
        <time>2019-12-26 09:34:50</time>
      </trkpt>
      <trkpt lat="45.58978" lon="6.67461">
        <ele>1552.6943</ele>
        <time>2019-12-26 09:34:51</time>
      </trkpt>
      <trkpt lat="45.58977" lon="6.67462">
        <ele>1551.896</ele>
        <time>2019-12-26 09:34:54</time>
      </trkpt>
      <trkpt lat="45.58976" lon="6.67466">
        <ele>1552.5049</ele>
        <time>2019-12-26 09:34:57</time>
      </trkpt>
      <trkpt lat="45.58975" lon="6.67467">
        <ele>1553.0037</ele>
        <time>2019-12-26 09:34:58</time>
      </trkpt>
      <trkpt lat="45.58974" lon="6.67469">
        <ele>1554.2695</ele>
        <time>2019-12-26 09:35:00</time>
      </trkpt>
      <trkpt lat="45.58973" lon="6.6747">
        <ele>1555.042</ele>
        <time>2019-12-26 09:35:01</time>
      </trkpt>
      <trkpt lat="45.58973" lon="6.6747">
        <ele>1555.904</ele>
        <time>2019-12-26 09:35:02</time>
      </trkpt>
      <trkpt lat="45.58972" lon="6.67472">
        <ele>1554.9622</ele>
        <time>2019-12-26 09:35:04</time>
      </trkpt>
      <trkpt lat="45.58971" lon="6.67476">
        <ele>1555.5225</ele>
        <time>2019-12-26 09:35:07</time>
      </trkpt>
      <trkpt lat="45.58971" lon="6.67477">
        <ele>1554.9468</ele>
        <time>2019-12-26 09:35:08</time>
      </trkpt>
      <trkpt lat="45.5897" lon="6.67478">
        <ele>1554.6829</ele>
        <time>2019-12-26 09:35:09</time>
      </trkpt>
      <trkpt lat="45.5897" lon="6.67479">
        <ele>1555.0996</ele>
        <time>2019-12-26 09:35:10</time>
      </trkpt>
      <trkpt lat="45.5897" lon="6.6748">
        <ele>1555.3384</ele>
        <time>2019-12-26 09:35:11</time>
      </trkpt>
      <trkpt lat="45.5897" lon="6.67481">
        <ele>1555.7139</ele>
        <time>2019-12-26 09:35:12</time>
      </trkpt>
      <trkpt lat="45.58969" lon="6.67484">
        <ele>1557.2451</ele>
        <time>2019-12-26 09:35:35</time>
      </trkpt>
      <trkpt lat="45.58968" lon="6.67487">
        <ele>1556.8647</ele>
        <time>2019-12-26 09:35:38</time>
      </trkpt>
      <trkpt lat="45.58968" lon="6.67488">
        <ele>1556.9521</ele>
        <time>2019-12-26 09:35:39</time>
      </trkpt>
      <trkpt lat="45.58968" lon="6.67488">
        <ele>1557.4434</ele>
        <time>2019-12-26 09:35:41</time>
      </trkpt>
      <trkpt lat="45.58968" lon="6.67489">
        <ele>1558.6118</ele>
        <time>2019-12-26 09:35:42</time>
      </trkpt>
      <trkpt lat="45.58968" lon="6.6749">
        <ele>1559.5972</ele>
        <time>2019-12-26 09:35:43</time>
      </trkpt>
      <trkpt lat="45.58968" lon="6.67492">
        <ele>1559.9468</ele>
        <time>2019-12-26 09:35:47</time>
      </trkpt>
      <trkpt lat="45.58969" lon="6.67493">
        <ele>1559.8076</ele>
        <time>2019-12-26 09:35:48</time>
      </trkpt>
      <trkpt lat="45.58969" lon="6.67495">
        <ele>1558.7283</ele>
        <time>2019-12-26 09:35:49</time>
      </trkpt>
      <trkpt lat="45.58972" lon="6.67498">
        <ele>1558.5332</ele>
        <time>2019-12-26 09:35:53</time>
      </trkpt>
      <trkpt lat="45.58973" lon="6.67498">
        <ele>1558.9858</ele>
        <time>2019-12-26 09:35:54</time>
      </trkpt>
      <trkpt lat="45.58973" lon="6.67499">
        <ele>1559.0146</ele>
        <time>2019-12-26 09:35:55</time>
      </trkpt>
      <trkpt lat="45.58974" lon="6.67499">
        <ele>1559.1626</ele>
        <time>2019-12-26 09:35:56</time>
      </trkpt>
      <trkpt lat="45.58976" lon="6.675">
        <ele>1560.002</ele>
        <time>2019-12-26 09:35:59</time>
      </trkpt>
      <trkpt lat="45.58976" lon="6.675">
        <ele>1559.8298</ele>
        <time>2019-12-26 09:36:00</time>
      </trkpt>
      <trkpt lat="45.58979" lon="6.67502">
        <ele>1561.0332</ele>
        <time>2019-12-26 09:36:08</time>
      </trkpt>
      <trkpt lat="45.58979" lon="6.67502">
        <ele>1560.9592</ele>
        <time>2019-12-26 09:36:09</time>
      </trkpt>
      <trkpt lat="45.5898" lon="6.67503">
        <ele>1560.6641</ele>
        <time>2019-12-26 09:36:10</time>
      </trkpt>
      <trkpt lat="45.58981" lon="6.67503">
        <ele>1561.5332</ele>
        <time>2019-12-26 09:36:11</time>
      </trkpt>
      <trkpt lat="45.58982" lon="6.67504">
        <ele>1561.9067</ele>
        <time>2019-12-26 09:36:12</time>
      </trkpt>
      <trkpt lat="45.58982" lon="6.67504">
        <ele>1561.6394</ele>
        <time>2019-12-26 09:36:13</time>
      </trkpt>
      <trkpt lat="45.58983" lon="6.67505">
        <ele>1561.8545</ele>
        <time>2019-12-26 09:36:16</time>
      </trkpt>
      <trkpt lat="45.58984" lon="6.67506">
        <ele>1561.9751</ele>
        <time>2019-12-26 09:36:17</time>
      </trkpt>
      <trkpt lat="45.58985" lon="6.67507">
        <ele>1563.729</ele>
        <time>2019-12-26 09:36:20</time>
      </trkpt>
      <trkpt lat="45.58987" lon="6.6751">
        <ele>1565.0767</ele>
        <time>2019-12-26 09:36:27</time>
      </trkpt>
      <trkpt lat="45.58987" lon="6.6751">
        <ele>1565.1455</ele>
        <time>2019-12-26 09:36:28</time>
      </trkpt>
      <trkpt lat="45.58987" lon="6.67511">
        <ele>1565.0347</ele>
        <time>2019-12-26 09:36:29</time>
      </trkpt>
      <trkpt lat="45.58988" lon="6.67511">
        <ele>1564.6455</ele>
        <time>2019-12-26 09:36:30</time>
      </trkpt>
      <trkpt lat="45.58988" lon="6.67512">
        <ele>1564.3298</ele>
        <time>2019-12-26 09:36:31</time>
      </trkpt>
      <trkpt lat="45.58989" lon="6.67513">
        <ele>1564.6895</ele>
        <time>2019-12-26 09:36:32</time>
      </trkpt>
      <trkpt lat="45.58989" lon="6.67515">
        <ele>1565.8289</ele>
        <time>2019-12-26 09:36:34</time>
      </trkpt>
      <trkpt lat="45.58989" lon="6.6752">
        <ele>1565.5015</ele>
        <time>2019-12-26 09:36:38</time>
      </trkpt>
      <trkpt lat="45.58989" lon="6.6752">
        <ele>1565.293</ele>
        <time>2019-12-26 09:36:39</time>
      </trkpt>
      <trkpt lat="45.58989" lon="6.67521">
        <ele>1566.0137</ele>
        <time>2019-12-26 09:36:40</time>
      </trkpt>
      <trkpt lat="45.58989" lon="6.67521">
        <ele>1565.5742</ele>
        <time>2019-12-26 09:36:41</time>
      </trkpt>
      <trkpt lat="45.58989" lon="6.67521">
        <ele>1565.8757</ele>
        <time>2019-12-26 09:36:42</time>
      </trkpt>
      <trkpt lat="45.58989" lon="6.67525">
        <ele>1566.9434</ele>
        <time>2019-12-26 09:36:46</time>
      </trkpt>
      <trkpt lat="45.58989" lon="6.67526">
        <ele>1566.8262</ele>
        <time>2019-12-26 09:36:47</time>
      </trkpt>
      <trkpt lat="45.58989" lon="6.67527">
        <ele>1566.0444</ele>
        <time>2019-12-26 09:36:48</time>
      </trkpt>
      <trkpt lat="45.58989" lon="6.67527">
        <ele>1565.8936</ele>
        <time>2019-12-26 09:36:49</time>
      </trkpt>
      <trkpt lat="45.5899" lon="6.67531">
        <ele>1567.4995</ele>
        <time>2019-12-26 09:36:56</time>
      </trkpt>
      <trkpt lat="45.58991" lon="6.67532">
        <ele>1567.8936</ele>
        <time>2019-12-26 09:36:57</time>
      </trkpt>
      <trkpt lat="45.58991" lon="6.67532">
        <ele>1568.2881</ele>
        <time>2019-12-26 09:36:58</time>
      </trkpt>
      <trkpt lat="45.58991" lon="6.67533">
        <ele>1568.3818</ele>
        <time>2019-12-26 09:36:59</time>
      </trkpt>
      <trkpt lat="45.58994" lon="6.67534">
        <ele>1571.8306</ele>
        <time>2019-12-26 09:37:29</time>
      </trkpt>
      <trkpt lat="45.58994" lon="6.67535">
        <ele>1571.7593</ele>
        <time>2019-12-26 09:37:41</time>
      </trkpt>
      <trkpt lat="45.58997" lon="6.67535">
        <ele>1572.2324</ele>
        <time>2019-12-26 09:37:46</time>
      </trkpt>
      <trkpt lat="45.58998" lon="6.67535">
        <ele>1573.0022</ele>
        <time>2019-12-26 09:38:17</time>
      </trkpt>
      <trkpt lat="45.58998" lon="6.67535">
        <ele>1573.9961</ele>
        <time>2019-12-26 09:38:19</time>
      </trkpt>
      <trkpt lat="45.58999" lon="6.67534">
        <ele>1573.6958</ele>
        <time>2019-12-26 09:38:21</time>
      </trkpt>
      <trkpt lat="45.58999" lon="6.67534">
        <ele>1574.1646</ele>
        <time>2019-12-26 09:38:22</time>
      </trkpt>
      <trkpt lat="45.59001" lon="6.6753">
        <ele>1575.4985</ele>
        <time>2019-12-26 09:38:27</time>
      </trkpt>
      <trkpt lat="45.59001" lon="6.67529">
        <ele>1575.404</ele>
        <time>2019-12-26 09:38:28</time>
      </trkpt>
      <trkpt lat="45.59002" lon="6.67528">
        <ele>1574.5986</ele>
        <time>2019-12-26 09:38:29</time>
      </trkpt>
      <trkpt lat="45.59003" lon="6.67527">
        <ele>1573.6528</ele>
        <time>2019-12-26 09:38:31</time>
      </trkpt>
      <trkpt lat="45.59003" lon="6.67526">
        <ele>1574.0388</ele>
        <time>2019-12-26 09:38:32</time>
      </trkpt>
      <trkpt lat="45.59005" lon="6.67521">
        <ele>1574.5986</ele>
        <time>2019-12-26 09:38:36</time>
      </trkpt>
      <trkpt lat="45.59005" lon="6.6752">
        <ele>1574.5293</ele>
        <time>2019-12-26 09:38:37</time>
      </trkpt>
      <trkpt lat="45.59006" lon="6.67518">
        <ele>1572.9321</ele>
        <time>2019-12-26 09:38:39</time>
      </trkpt>
      <trkpt lat="45.59007" lon="6.67517">
        <ele>1572.5195</ele>
        <time>2019-12-26 09:38:40</time>
      </trkpt>
      <trkpt lat="45.59007" lon="6.67516">
        <ele>1573.1641</ele>
        <time>2019-12-26 09:38:41</time>
      </trkpt>
      <trkpt lat="45.59007" lon="6.67514">
        <ele>1572.4163</ele>
        <time>2019-12-26 09:38:43</time>
      </trkpt>
      <trkpt lat="45.59007" lon="6.67514">
        <ele>1572.8657</ele>
        <time>2019-12-26 09:38:44</time>
      </trkpt>
      <trkpt lat="45.59008" lon="6.67513">
        <ele>1573.8604</ele>
        <time>2019-12-26 09:38:45</time>
      </trkpt>
      <trkpt lat="45.59008" lon="6.67513">
        <ele>1573.8564</ele>
        <time>2019-12-26 09:38:46</time>
      </trkpt>
      <trkpt lat="45.59008" lon="6.67512">
        <ele>1573.0171</ele>
        <time>2019-12-26 09:38:47</time>
      </trkpt>
      <trkpt lat="45.59009" lon="6.6751">
        <ele>1571.4575</ele>
        <time>2019-12-26 09:38:49</time>
      </trkpt>
      <trkpt lat="45.59011" lon="6.67507">
        <ele>1572.9009</ele>
        <time>2019-12-26 09:38:51</time>
      </trkpt>
      <trkpt lat="45.59011" lon="6.67506">
        <ele>1573.3906</ele>
        <time>2019-12-26 09:38:52</time>
      </trkpt>
      <trkpt lat="45.5901" lon="6.67502">
        <ele>1575.377</ele>
        <time>2019-12-26 09:39:22</time>
      </trkpt>
      <trkpt lat="45.5901" lon="6.67502">
        <ele>1575.5669</ele>
        <time>2019-12-26 09:39:26</time>
      </trkpt>
      <trkpt lat="45.59011" lon="6.67501">
        <ele>1576.3489</ele>
        <time>2019-12-26 09:39:27</time>
      </trkpt>
      <trkpt lat="45.59011" lon="6.67501">
        <ele>1575.0288</ele>
        <time>2019-12-26 09:39:28</time>
      </trkpt>
      <trkpt lat="45.59011" lon="6.67499">
        <ele>1575.5322</ele>
        <time>2019-12-26 09:39:29</time>
      </trkpt>
      <trkpt lat="45.59011" lon="6.67498">
        <ele>1573.2327</ele>
        <time>2019-12-26 09:39:30</time>
      </trkpt>
      <trkpt lat="45.59011" lon="6.67496">
        <ele>1574.0044</ele>
        <time>2019-12-26 09:39:31</time>
      </trkpt>
      <trkpt lat="45.59012" lon="6.67496">
        <ele>1575.3145</ele>
        <time>2019-12-26 09:39:32</time>
      </trkpt>
      <trkpt lat="45.59012" lon="6.67495">
        <ele>1577.217</ele>
        <time>2019-12-26 09:39:33</time>
      </trkpt>
      <trkpt lat="45.59013" lon="6.67495">
        <ele>1578.8145</ele>
        <time>2019-12-26 09:39:34</time>
      </trkpt>
      <trkpt lat="45.59014" lon="6.67494">
        <ele>1580.0791</ele>
        <time>2019-12-26 09:39:35</time>
      </trkpt>
      <trkpt lat="45.59012" lon="6.67491">
        <ele>1579.3247</ele>
        <time>2019-12-26 09:39:42</time>
      </trkpt>
      <trkpt lat="45.59012" lon="6.6749">
        <ele>1579.1323</ele>
        <time>2019-12-26 09:39:44</time>
      </trkpt>
      <trkpt lat="45.59013" lon="6.6749">
        <ele>1579.2969</ele>
        <time>2019-12-26 09:39:45</time>
      </trkpt>
      <trkpt lat="45.59014" lon="6.67489">
        <ele>1579.4912</ele>
        <time>2019-12-26 09:39:46</time>
      </trkpt>
      <trkpt lat="45.59015" lon="6.67488">
        <ele>1581.7927</ele>
        <time>2019-12-26 09:39:47</time>
      </trkpt>
      <trkpt lat="45.59016" lon="6.67487">
        <ele>1582.5996</ele>
        <time>2019-12-26 09:39:48</time>
      </trkpt>
      <trkpt lat="45.59017" lon="6.67487">
        <ele>1582.8306</ele>
        <time>2019-12-26 09:39:49</time>
      </trkpt>
      <trkpt lat="45.59017" lon="6.67486">
        <ele>1584.1096</ele>
        <time>2019-12-26 09:39:50</time>
      </trkpt>
      <trkpt lat="45.59018" lon="6.67485">
        <ele>1585.595</ele>
        <time>2019-12-26 09:39:52</time>
      </trkpt>
      <trkpt lat="45.5902" lon="6.67482">
        <ele>1588.4915</ele>
        <time>2019-12-26 09:39:57</time>
      </trkpt>
      <trkpt lat="45.59024" lon="6.6748">
        <ele>1584.7488</ele>
        <time>2019-12-26 09:39:59</time>
      </trkpt>
      <trkpt lat="45.59024" lon="6.67479">
        <ele>1585.2798</ele>
        <time>2019-12-26 09:40:00</time>
      </trkpt>
      <trkpt lat="45.59026" lon="6.67479">
        <ele>1584.5842</ele>
        <time>2019-12-26 09:40:02</time>
      </trkpt>
      <trkpt lat="45.59026" lon="6.67479">
        <ele>1585.4968</ele>
        <time>2019-12-26 09:40:03</time>
      </trkpt>
      <trkpt lat="45.59027" lon="6.67479">
        <ele>1586.0894</ele>
        <time>2019-12-26 09:40:04</time>
      </trkpt>
      <trkpt lat="45.59029" lon="6.67477">
        <ele>1580.1567</ele>
        <time>2019-12-26 09:40:05</time>
      </trkpt>
      <trkpt lat="45.59032" lon="6.67474">
        <ele>1580.228</ele>
        <time>2019-12-26 09:40:06</time>
      </trkpt>
      <trkpt lat="45.59033" lon="6.67474">
        <ele>1581.2979</ele>
        <time>2019-12-26 09:40:07</time>
      </trkpt>
      <trkpt lat="45.59036" lon="6.67476">
        <ele>1585.023</ele>
        <time>2019-12-26 09:40:15</time>
      </trkpt>
      <trkpt lat="45.59036" lon="6.67477">
        <ele>1585.3271</ele>
        <time>2019-12-26 09:40:17</time>
      </trkpt>
      <trkpt lat="45.59037" lon="6.67477">
        <ele>1583.2778</ele>
        <time>2019-12-26 09:40:18</time>
      </trkpt>
      <trkpt lat="45.59037" lon="6.67477">
        <ele>1581.7539</ele>
        <time>2019-12-26 09:40:19</time>
      </trkpt>
      <trkpt lat="45.59037" lon="6.67478">
        <ele>1581.9543</ele>
        <time>2019-12-26 09:40:20</time>
      </trkpt>
      <trkpt lat="45.59037" lon="6.67478">
        <ele>1582.4937</ele>
        <time>2019-12-26 09:40:21</time>
      </trkpt>
      <trkpt lat="45.59038" lon="6.67477">
        <ele>1580.6672</ele>
        <time>2019-12-26 09:40:25</time>
      </trkpt>
      <trkpt lat="45.59038" lon="6.67478">
        <ele>1580.6147</ele>
        <time>2019-12-26 09:40:26</time>
      </trkpt>
      <trkpt lat="45.59038" lon="6.67478">
        <ele>1580.8218</ele>
        <time>2019-12-26 09:40:28</time>
      </trkpt>
      <trkpt lat="45.59039" lon="6.67479">
        <ele>1580.6733</ele>
        <time>2019-12-26 09:40:31</time>
      </trkpt>
      <trkpt lat="45.5904" lon="6.6748">
        <ele>1581.5903</ele>
        <time>2019-12-26 09:40:32</time>
      </trkpt>
      <trkpt lat="45.5904" lon="6.6748">
        <ele>1582.2964</ele>
        <time>2019-12-26 09:40:33</time>
      </trkpt>
      <trkpt lat="45.59041" lon="6.6748">
        <ele>1581.9355</ele>
        <time>2019-12-26 09:40:34</time>
      </trkpt>
      <trkpt lat="45.59043" lon="6.6748">
        <ele>1587.404</ele>
        <time>2019-12-26 09:40:39</time>
      </trkpt>
      <trkpt lat="45.59043" lon="6.6748">
        <ele>1587.5264</ele>
        <time>2019-12-26 09:40:40</time>
      </trkpt>
      <trkpt lat="45.59043" lon="6.67481">
        <ele>1587.9197</ele>
        <time>2019-12-26 09:40:41</time>
      </trkpt>
      <trkpt lat="45.59044" lon="6.67481">
        <ele>1588.2927</ele>
        <time>2019-12-26 09:40:42</time>
      </trkpt>
      <trkpt lat="45.59044" lon="6.67481">
        <ele>1588.3452</ele>
        <time>2019-12-26 09:40:43</time>
      </trkpt>
      <trkpt lat="45.59044" lon="6.67481">
        <ele>1588.9233</ele>
        <time>2019-12-26 09:40:44</time>
      </trkpt>
      <trkpt lat="45.59045" lon="6.6748">
        <ele>1586.5059</ele>
        <time>2019-12-26 09:40:45</time>
      </trkpt>
      <trkpt lat="45.59046" lon="6.6748">
        <ele>1586.6729</ele>
        <time>2019-12-26 09:40:46</time>
      </trkpt>
      <trkpt lat="45.59048" lon="6.6748">
        <ele>1586.4683</ele>
        <time>2019-12-26 09:40:47</time>
      </trkpt>
      <trkpt lat="45.59049" lon="6.6748">
        <ele>1586.3413</ele>
        <time>2019-12-26 09:40:48</time>
      </trkpt>
      <trkpt lat="45.5905" lon="6.67481">
        <ele>1586.9126</ele>
        <time>2019-12-26 09:40:49</time>
      </trkpt>
      <trkpt lat="45.59051" lon="6.67482">
        <ele>1587.7588</ele>
        <time>2019-12-26 09:40:50</time>
      </trkpt>
      <trkpt lat="45.59051" lon="6.67483">
        <ele>1587.9385</ele>
        <time>2019-12-26 09:40:51</time>
      </trkpt>
      <trkpt lat="45.59052" lon="6.67484">
        <ele>1588.0732</ele>
        <time>2019-12-26 09:40:52</time>
      </trkpt>
      <trkpt lat="45.59052" lon="6.67486">
        <ele>1588.4321</ele>
        <time>2019-12-26 09:40:54</time>
      </trkpt>
      <trkpt lat="45.59055" lon="6.67488">
        <ele>1587.3867</ele>
        <time>2019-12-26 09:40:58</time>
      </trkpt>
      <trkpt lat="45.59056" lon="6.67488">
        <ele>1587.3296</ele>
        <time>2019-12-26 09:41:00</time>
      </trkpt>
      <trkpt lat="45.59056" lon="6.6749">
        <ele>1588.5498</ele>
        <time>2019-12-26 09:41:02</time>
      </trkpt>
      <trkpt lat="45.59057" lon="6.67491">
        <ele>1589.0845</ele>
        <time>2019-12-26 09:41:03</time>
      </trkpt>
      <trkpt lat="45.59059" lon="6.67494">
        <ele>1587.9089</ele>
        <time>2019-12-26 09:41:08</time>
      </trkpt>
      <trkpt lat="45.59059" lon="6.67494">
        <ele>1588.1355</ele>
        <time>2019-12-26 09:41:09</time>
      </trkpt>
      <trkpt lat="45.5906" lon="6.67495">
        <ele>1589.56</ele>
        <time>2019-12-26 09:41:10</time>
      </trkpt>
      <trkpt lat="45.5906" lon="6.67495">
        <ele>1589.4292</ele>
        <time>2019-12-26 09:41:11</time>
      </trkpt>
      <trkpt lat="45.59063" lon="6.67497">
        <ele>1587.6338</ele>
        <time>2019-12-26 09:41:14</time>
      </trkpt>
      <trkpt lat="45.59063" lon="6.67497">
        <ele>1587.4165</ele>
        <time>2019-12-26 09:41:15</time>
      </trkpt>
      <trkpt lat="45.59066" lon="6.67499">
        <ele>1586.312</ele>
        <time>2019-12-26 09:41:19</time>
      </trkpt>
      <trkpt lat="45.59067" lon="6.675">
        <ele>1586.7705</ele>
        <time>2019-12-26 09:41:20</time>
      </trkpt>
      <trkpt lat="45.59068" lon="6.675">
        <ele>1586.8408</ele>
        <time>2019-12-26 09:41:21</time>
      </trkpt>
      <trkpt lat="45.59069" lon="6.67501">
        <ele>1587.0854</ele>
        <time>2019-12-26 09:41:22</time>
      </trkpt>
      <trkpt lat="45.5907" lon="6.67502">
        <ele>1586.4658</ele>
        <time>2019-12-26 09:41:23</time>
      </trkpt>
      <trkpt lat="45.5907" lon="6.67502">
        <ele>1587.1147</ele>
        <time>2019-12-26 09:41:24</time>
      </trkpt>
      <trkpt lat="45.59071" lon="6.67503">
        <ele>1587.2041</ele>
        <time>2019-12-26 09:41:25</time>
      </trkpt>
      <trkpt lat="45.59071" lon="6.67504">
        <ele>1587.5508</ele>
        <time>2019-12-26 09:41:26</time>
      </trkpt>
      <trkpt lat="45.59071" lon="6.67504">
        <ele>1587.6655</ele>
        <time>2019-12-26 09:41:27</time>
      </trkpt>
      <trkpt lat="45.59072" lon="6.67505">
        <ele>1587.6934</ele>
        <time>2019-12-26 09:41:28</time>
      </trkpt>
      <trkpt lat="45.59072" lon="6.67505">
        <ele>1587.583</ele>
        <time>2019-12-26 09:41:29</time>
      </trkpt>
      <trkpt lat="45.59072" lon="6.67505">
        <ele>1588.0386</ele>
        <time>2019-12-26 09:41:30</time>
      </trkpt>
      <trkpt lat="45.59073" lon="6.67506">
        <ele>1587.748</ele>
        <time>2019-12-26 09:41:31</time>
      </trkpt>
      <trkpt lat="45.59073" lon="6.67507">
        <ele>1587.9014</ele>
        <time>2019-12-26 09:41:32</time>
      </trkpt>
      <trkpt lat="45.59074" lon="6.67508">
        <ele>1588.1147</ele>
        <time>2019-12-26 09:41:33</time>
      </trkpt>
      <trkpt lat="45.59074" lon="6.67509">
        <ele>1587.8574</ele>
        <time>2019-12-26 09:41:34</time>
      </trkpt>
      <trkpt lat="45.59075" lon="6.67509">
        <ele>1586.3247</ele>
        <time>2019-12-26 09:41:35</time>
      </trkpt>
      <trkpt lat="45.59075" lon="6.6751">
        <ele>1587.8647</ele>
        <time>2019-12-26 09:41:38</time>
      </trkpt>
      <trkpt lat="45.59075" lon="6.67511">
        <ele>1588.19</ele>
        <time>2019-12-26 09:41:39</time>
      </trkpt>
      <trkpt lat="45.59075" lon="6.67512">
        <ele>1588.4746</ele>
        <time>2019-12-26 09:41:40</time>
      </trkpt>
      <trkpt lat="45.59075" lon="6.67513">
        <ele>1589.1565</ele>
        <time>2019-12-26 09:41:41</time>
      </trkpt>
      <trkpt lat="45.59076" lon="6.67513">
        <ele>1589.4585</ele>
        <time>2019-12-26 09:41:42</time>
      </trkpt>
      <trkpt lat="45.59077" lon="6.67514">
        <ele>1587.8757</ele>
        <time>2019-12-26 09:41:43</time>
      </trkpt>
      <trkpt lat="45.59078" lon="6.67515">
        <ele>1588.3628</ele>
        <time>2019-12-26 09:41:45</time>
      </trkpt>
      <trkpt lat="45.59079" lon="6.67518">
        <ele>1590.0005</ele>
        <time>2019-12-26 09:41:49</time>
      </trkpt>
      <trkpt lat="45.59081" lon="6.67522">
        <ele>1590.4055</ele>
        <time>2019-12-26 09:41:53</time>
      </trkpt>
      <trkpt lat="45.59081" lon="6.67523">
        <ele>1589.9136</ele>
        <time>2019-12-26 09:41:54</time>
      </trkpt>
      <trkpt lat="45.59082" lon="6.67523">
        <ele>1590.2327</ele>
        <time>2019-12-26 09:41:55</time>
      </trkpt>
      <trkpt lat="45.59083" lon="6.67526">
        <ele>1590.5728</ele>
        <time>2019-12-26 09:41:58</time>
      </trkpt>
      <trkpt lat="45.59083" lon="6.67527">
        <ele>1591.7402</ele>
        <time>2019-12-26 09:41:59</time>
      </trkpt>
      <trkpt lat="45.59083" lon="6.67528">
        <ele>1591.6011</ele>
        <time>2019-12-26 09:42:00</time>
      </trkpt>
      <trkpt lat="45.59085" lon="6.6753">
        <ele>1592.2827</ele>
        <time>2019-12-26 09:42:04</time>
      </trkpt>
      <trkpt lat="45.59085" lon="6.6753">
        <ele>1592.9583</ele>
        <time>2019-12-26 09:42:05</time>
      </trkpt>
      <trkpt lat="45.59086" lon="6.67531">
        <ele>1592.9211</ele>
        <time>2019-12-26 09:42:06</time>
      </trkpt>
      <trkpt lat="45.59086" lon="6.67532">
        <ele>1592.7144</ele>
        <time>2019-12-26 09:42:07</time>
      </trkpt>
      <trkpt lat="45.59087" lon="6.67533">
        <ele>1593.2925</ele>
        <time>2019-12-26 09:42:09</time>
      </trkpt>
      <trkpt lat="45.59089" lon="6.67536">
        <ele>1594.1248</ele>
        <time>2019-12-26 09:42:14</time>
      </trkpt>
      <trkpt lat="45.59092" lon="6.67539">
        <ele>1597.0027</ele>
        <time>2019-12-26 09:42:21</time>
      </trkpt>
      <trkpt lat="45.59093" lon="6.67539">
        <ele>1595.9209</ele>
        <time>2019-12-26 09:42:23</time>
      </trkpt>
      <trkpt lat="45.59093" lon="6.6754">
        <ele>1596.0889</ele>
        <time>2019-12-26 09:42:24</time>
      </trkpt>
      <trkpt lat="45.59093" lon="6.67541">
        <ele>1596.584</ele>
        <time>2019-12-26 09:42:26</time>
      </trkpt>
      <trkpt lat="45.59094" lon="6.67542">
        <ele>1596.374</ele>
        <time>2019-12-26 09:42:27</time>
      </trkpt>
      <trkpt lat="45.59095" lon="6.67543">
        <ele>1596.6184</ele>
        <time>2019-12-26 09:42:28</time>
      </trkpt>
      <trkpt lat="45.59095" lon="6.67544">
        <ele>1597.2715</ele>
        <time>2019-12-26 09:42:29</time>
      </trkpt>
      <trkpt lat="45.59095" lon="6.67545">
        <ele>1596.9114</ele>
        <time>2019-12-26 09:42:30</time>
      </trkpt>
      <trkpt lat="45.59095" lon="6.67546">
        <ele>1597</ele>
        <time>2019-12-26 09:42:31</time>
      </trkpt>
      <trkpt lat="45.59095" lon="6.67547">
        <ele>1597.5186</ele>
        <time>2019-12-26 09:42:32</time>
      </trkpt>
      <trkpt lat="45.59096" lon="6.67548">
        <ele>1597.6345</ele>
        <time>2019-12-26 09:42:33</time>
      </trkpt>
      <trkpt lat="45.59096" lon="6.6755">
        <ele>1598.9346</ele>
        <time>2019-12-26 09:42:35</time>
      </trkpt>
      <trkpt lat="45.59096" lon="6.6755">
        <ele>1599.9609</ele>
        <time>2019-12-26 09:42:36</time>
      </trkpt>
      <trkpt lat="45.59096" lon="6.67551">
        <ele>1600.065</ele>
        <time>2019-12-26 09:42:37</time>
      </trkpt>
      <trkpt lat="45.59096" lon="6.67551">
        <ele>1600.4883</ele>
        <time>2019-12-26 09:42:38</time>
      </trkpt>
      <trkpt lat="45.59097" lon="6.67552">
        <ele>1600.1616</ele>
        <time>2019-12-26 09:42:39</time>
      </trkpt>
      <trkpt lat="45.59097" lon="6.67552">
        <ele>1599.6025</ele>
        <time>2019-12-26 09:42:41</time>
      </trkpt>
      <trkpt lat="45.59097" lon="6.67554">
        <ele>1598.1895</ele>
        <time>2019-12-26 09:42:43</time>
      </trkpt>
      <trkpt lat="45.59097" lon="6.67556">
        <ele>1597.969</ele>
        <time>2019-12-26 09:42:44</time>
      </trkpt>
      <trkpt lat="45.59096" lon="6.67556">
        <ele>1598.3206</ele>
        <time>2019-12-26 09:42:45</time>
      </trkpt>
      <trkpt lat="45.59096" lon="6.67557">
        <ele>1598.5894</ele>
        <time>2019-12-26 09:42:46</time>
      </trkpt>
      <trkpt lat="45.59096" lon="6.67559">
        <ele>1597.9167</ele>
        <time>2019-12-26 09:42:48</time>
      </trkpt>
      <trkpt lat="45.59095" lon="6.6756">
        <ele>1598.7422</ele>
        <time>2019-12-26 09:43:18</time>
      </trkpt>
      <trkpt lat="45.59095" lon="6.6756">
        <ele>1598.6948</ele>
        <time>2019-12-26 09:43:48</time>
      </trkpt>
      <trkpt lat="45.59095" lon="6.6756">
        <ele>1598.8557</ele>
        <time>2019-12-26 09:44:18</time>
      </trkpt>
      <trkpt lat="45.59095" lon="6.6756">
        <ele>1598.9536</ele>
        <time>2019-12-26 09:44:48</time>
      </trkpt>
      <trkpt lat="45.59095" lon="6.6756">
        <ele>1599.0032</ele>
        <time>2019-12-26 09:45:18</time>
      </trkpt>
      <trkpt lat="45.59095" lon="6.6756">
        <ele>1599.0254</ele>
        <time>2019-12-26 09:45:49</time>
      </trkpt>
      <trkpt lat="45.59095" lon="6.6756">
        <ele>1599.0376</ele>
        <time>2019-12-26 09:46:19</time>
      </trkpt>
      <trkpt lat="45.59095" lon="6.6756">
        <ele>1599.0176</ele>
        <time>2019-12-26 09:46:49</time>
      </trkpt>
      <trkpt lat="45.59095" lon="6.6756">
        <ele>1599.0483</ele>
        <time>2019-12-26 09:47:19</time>
      </trkpt>
      <trkpt lat="45.59095" lon="6.6756">
        <ele>1599.0691</ele>
        <time>2019-12-26 09:47:49</time>
      </trkpt>
      <trkpt lat="45.59095" lon="6.6756">
        <ele>1599.0938</ele>
        <time>2019-12-26 09:48:19</time>
      </trkpt>
      <trkpt lat="45.59095" lon="6.6756">
        <ele>1599.1128</ele>
        <time>2019-12-26 09:48:49</time>
      </trkpt>
      <trkpt lat="45.59094" lon="6.6756">
        <ele>1599.104</ele>
        <time>2019-12-26 09:49:20</time>
      </trkpt>
      <trkpt lat="45.59094" lon="6.6756">
        <ele>1599.1245</ele>
        <time>2019-12-26 09:49:50</time>
      </trkpt>
      <trkpt lat="45.59094" lon="6.6756">
        <ele>1599.176</ele>
        <time>2019-12-26 09:50:20</time>
      </trkpt>
      <trkpt lat="45.59094" lon="6.6756">
        <ele>1599.2542</ele>
        <time>2019-12-26 09:50:50</time>
      </trkpt>
      <trkpt lat="45.59098" lon="6.67562">
        <ele>1603.0986</ele>
        <time>2019-12-26 09:51:07</time>
      </trkpt>
      <trkpt lat="45.59099" lon="6.67563">
        <ele>1603.0796</ele>
        <time>2019-12-26 09:51:08</time>
      </trkpt>
      <trkpt lat="45.591" lon="6.67564">
        <ele>1603.6509</ele>
        <time>2019-12-26 09:51:10</time>
      </trkpt>
      <trkpt lat="45.591" lon="6.67565">
        <ele>1603.9214</ele>
        <time>2019-12-26 09:51:11</time>
      </trkpt>
      <trkpt lat="45.59101" lon="6.67566">
        <ele>1604.2239</ele>
        <time>2019-12-26 09:51:12</time>
      </trkpt>
      <trkpt lat="45.59101" lon="6.67566">
        <ele>1604.3945</ele>
        <time>2019-12-26 09:51:13</time>
      </trkpt>
      <trkpt lat="45.59101" lon="6.67567">
        <ele>1604.3843</ele>
        <time>2019-12-26 09:51:14</time>
      </trkpt>
      <trkpt lat="45.59101" lon="6.67568">
        <ele>1604.6104</ele>
        <time>2019-12-26 09:51:15</time>
      </trkpt>
      <trkpt lat="45.59102" lon="6.67569">
        <ele>1604.2739</ele>
        <time>2019-12-26 09:51:16</time>
      </trkpt>
      <trkpt lat="45.59104" lon="6.67572">
        <ele>1605.6719</ele>
        <time>2019-12-26 09:51:19</time>
      </trkpt>
      <trkpt lat="45.59105" lon="6.67573">
        <ele>1605.8008</ele>
        <time>2019-12-26 09:51:20</time>
      </trkpt>
      <trkpt lat="45.59105" lon="6.67573">
        <ele>1606.103</ele>
        <time>2019-12-26 09:51:21</time>
      </trkpt>
      <trkpt lat="45.59106" lon="6.67574">
        <ele>1606.4375</ele>
        <time>2019-12-26 09:51:22</time>
      </trkpt>
      <trkpt lat="45.59106" lon="6.67574">
        <ele>1606.1938</ele>
        <time>2019-12-26 09:51:23</time>
      </trkpt>
      <trkpt lat="45.59108" lon="6.67576">
        <ele>1606.3965</ele>
        <time>2019-12-26 09:51:27</time>
      </trkpt>
      <trkpt lat="45.59109" lon="6.67576">
        <ele>1606.792</ele>
        <time>2019-12-26 09:51:28</time>
      </trkpt>
      <trkpt lat="45.59109" lon="6.67577">
        <ele>1605.9849</ele>
        <time>2019-12-26 09:51:30</time>
      </trkpt>
      <trkpt lat="45.59109" lon="6.67577">
        <ele>1606.3218</ele>
        <time>2019-12-26 09:51:31</time>
      </trkpt>
      <trkpt lat="45.5911" lon="6.67577">
        <ele>1606.4468</ele>
        <time>2019-12-26 09:51:32</time>
      </trkpt>
      <trkpt lat="45.59111" lon="6.67578">
        <ele>1606.5383</ele>
        <time>2019-12-26 09:51:34</time>
      </trkpt>
      <trkpt lat="45.59111" lon="6.67578">
        <ele>1607.1943</ele>
        <time>2019-12-26 09:51:35</time>
      </trkpt>
      <trkpt lat="45.59112" lon="6.6758">
        <ele>1608.1438</ele>
        <time>2019-12-26 09:51:37</time>
      </trkpt>
      <trkpt lat="45.59113" lon="6.67579">
        <ele>1605.7715</ele>
        <time>2019-12-26 09:51:38</time>
      </trkpt>
      <trkpt lat="45.59113" lon="6.67578">
        <ele>1606.7773</ele>
        <time>2019-12-26 09:51:40</time>
      </trkpt>
      <trkpt lat="45.59113" lon="6.67579">
        <ele>1607.2959</ele>
        <time>2019-12-26 09:51:41</time>
      </trkpt>
      <trkpt lat="45.59114" lon="6.67579">
        <ele>1607.5774</ele>
        <time>2019-12-26 09:51:42</time>
      </trkpt>
      <trkpt lat="45.59114" lon="6.6758">
        <ele>1607.783</ele>
        <time>2019-12-26 09:51:43</time>
      </trkpt>
      <trkpt lat="45.59115" lon="6.6758">
        <ele>1607.6274</ele>
        <time>2019-12-26 09:51:44</time>
      </trkpt>
      <trkpt lat="45.59115" lon="6.67581">
        <ele>1608.9163</ele>
        <time>2019-12-26 09:51:45</time>
      </trkpt>
      <trkpt lat="45.59116" lon="6.67582">
        <ele>1609.3293</ele>
        <time>2019-12-26 09:51:47</time>
      </trkpt>
      <trkpt lat="45.59116" lon="6.67583">
        <ele>1610.0332</ele>
        <time>2019-12-26 09:51:48</time>
      </trkpt>
      <trkpt lat="45.59116" lon="6.67584">
        <ele>1609.815</ele>
        <time>2019-12-26 09:51:49</time>
      </trkpt>
      <trkpt lat="45.59117" lon="6.67585">
        <ele>1610.2163</ele>
        <time>2019-12-26 09:51:50</time>
      </trkpt>
      <trkpt lat="45.59116" lon="6.67586">
        <ele>1610.3193</ele>
        <time>2019-12-26 09:51:51</time>
      </trkpt>
      <trkpt lat="45.59116" lon="6.67587">
        <ele>1610.4595</ele>
        <time>2019-12-26 09:51:52</time>
      </trkpt>
      <trkpt lat="45.59116" lon="6.67589">
        <ele>1610.832</ele>
        <time>2019-12-26 09:51:54</time>
      </trkpt>
      <trkpt lat="45.59117" lon="6.6759">
        <ele>1610.5303</ele>
        <time>2019-12-26 09:51:57</time>
      </trkpt>
      <trkpt lat="45.59117" lon="6.6759">
        <ele>1611.1077</ele>
        <time>2019-12-26 09:51:58</time>
      </trkpt>
      <trkpt lat="45.59116" lon="6.67594">
        <ele>1611.418</ele>
        <time>2019-12-26 09:52:02</time>
      </trkpt>
      <trkpt lat="45.59118" lon="6.67596">
        <ele>1611.602</ele>
        <time>2019-12-26 09:52:15</time>
      </trkpt>
      <trkpt lat="45.59118" lon="6.67597">
        <ele>1611.626</ele>
        <time>2019-12-26 09:52:16</time>
      </trkpt>
      <trkpt lat="45.59118" lon="6.67597">
        <ele>1611.8235</ele>
        <time>2019-12-26 09:52:18</time>
      </trkpt>
      <trkpt lat="45.59118" lon="6.67598">
        <ele>1612.063</ele>
        <time>2019-12-26 09:52:19</time>
      </trkpt>
      <trkpt lat="45.59117" lon="6.67597">
        <ele>1614.8728</ele>
        <time>2019-12-26 09:52:51</time>
      </trkpt>
      <trkpt lat="45.59117" lon="6.67598">
        <ele>1615.1323</ele>
        <time>2019-12-26 09:52:52</time>
      </trkpt>
      <trkpt lat="45.59117" lon="6.67598">
        <ele>1614.6487</ele>
        <time>2019-12-26 09:52:53</time>
      </trkpt>
      <trkpt lat="45.59117" lon="6.67599">
        <ele>1614.95</ele>
        <time>2019-12-26 09:52:54</time>
      </trkpt>
      <trkpt lat="45.59117" lon="6.67599">
        <ele>1615.6055</ele>
        <time>2019-12-26 09:52:55</time>
      </trkpt>
      <trkpt lat="45.59117" lon="6.676">
        <ele>1615.7412</ele>
        <time>2019-12-26 09:52:56</time>
      </trkpt>
      <trkpt lat="45.59119" lon="6.67604">
        <ele>1616.4263</ele>
        <time>2019-12-26 09:52:59</time>
      </trkpt>
      <trkpt lat="45.5912" lon="6.67606">
        <ele>1616.9009</ele>
        <time>2019-12-26 09:53:02</time>
      </trkpt>
      <trkpt lat="45.59121" lon="6.67608">
        <ele>1616.763</ele>
        <time>2019-12-26 09:53:03</time>
      </trkpt>
      <trkpt lat="45.59122" lon="6.6761">
        <ele>1616.679</ele>
        <time>2019-12-26 09:53:05</time>
      </trkpt>
      <trkpt lat="45.59122" lon="6.67611">
        <ele>1616.8716</ele>
        <time>2019-12-26 09:53:06</time>
      </trkpt>
      <trkpt lat="45.59124" lon="6.67615">
        <ele>1617.7876</ele>
        <time>2019-12-26 09:53:10</time>
      </trkpt>
      <trkpt lat="45.59124" lon="6.67615">
        <ele>1617.4138</ele>
        <time>2019-12-26 09:53:11</time>
      </trkpt>
      <trkpt lat="45.59124" lon="6.67615">
        <ele>1617.4956</ele>
        <time>2019-12-26 09:53:12</time>
      </trkpt>
      <trkpt lat="45.59125" lon="6.67616">
        <ele>1617.9087</ele>
        <time>2019-12-26 09:53:13</time>
      </trkpt>
      <trkpt lat="45.59126" lon="6.67617">
        <ele>1617.3792</ele>
        <time>2019-12-26 09:53:15</time>
      </trkpt>
      <trkpt lat="45.59126" lon="6.67618">
        <ele>1617.6179</ele>
        <time>2019-12-26 09:53:16</time>
      </trkpt>
      <trkpt lat="45.59128" lon="6.67621">
        <ele>1618.4956</ele>
        <time>2019-12-26 09:53:20</time>
      </trkpt>
      <trkpt lat="45.59129" lon="6.67622">
        <ele>1618.9824</ele>
        <time>2019-12-26 09:53:21</time>
      </trkpt>
      <trkpt lat="45.59129" lon="6.67622">
        <ele>1619.2246</ele>
        <time>2019-12-26 09:53:22</time>
      </trkpt>
      <trkpt lat="45.59129" lon="6.67623">
        <ele>1618.8696</ele>
        <time>2019-12-26 09:53:23</time>
      </trkpt>
      <trkpt lat="45.59131" lon="6.67624">
        <ele>1619.2983</ele>
        <time>2019-12-26 09:53:25</time>
      </trkpt>
      <trkpt lat="45.59131" lon="6.67625">
        <ele>1619.353</ele>
        <time>2019-12-26 09:53:26</time>
      </trkpt>
      <trkpt lat="45.59131" lon="6.67625">
        <ele>1620.0488</ele>
        <time>2019-12-26 09:53:27</time>
      </trkpt>
      <trkpt lat="45.59132" lon="6.67625">
        <ele>1619.9712</ele>
        <time>2019-12-26 09:53:28</time>
      </trkpt>
      <trkpt lat="45.59133" lon="6.67627">
        <ele>1620.6553</ele>
        <time>2019-12-26 09:53:31</time>
      </trkpt>
      <trkpt lat="45.59135" lon="6.67631">
        <ele>1622.4937</ele>
        <time>2019-12-26 09:53:36</time>
      </trkpt>
      <trkpt lat="45.59135" lon="6.67632">
        <ele>1622.1152</ele>
        <time>2019-12-26 09:53:37</time>
      </trkpt>
      <trkpt lat="45.59136" lon="6.67632">
        <ele>1622.0994</ele>
        <time>2019-12-26 09:53:38</time>
      </trkpt>
      <trkpt lat="45.59136" lon="6.67633">
        <ele>1623.1636</ele>
        <time>2019-12-26 09:53:40</time>
      </trkpt>
      <trkpt lat="45.59137" lon="6.67634">
        <ele>1623.8066</ele>
        <time>2019-12-26 09:53:41</time>
      </trkpt>
      <trkpt lat="45.59141" lon="6.67638">
        <ele>1623.2422</ele>
        <time>2019-12-26 09:53:49</time>
      </trkpt>
      <trkpt lat="45.59142" lon="6.67638">
        <ele>1623.8013</ele>
        <time>2019-12-26 09:53:50</time>
      </trkpt>
      <trkpt lat="45.59142" lon="6.67639">
        <ele>1623.4878</ele>
        <time>2019-12-26 09:53:51</time>
      </trkpt>
      <trkpt lat="45.59142" lon="6.67639">
        <ele>1623.1279</ele>
        <time>2019-12-26 09:53:52</time>
      </trkpt>
      <trkpt lat="45.59145" lon="6.67642">
        <ele>1624.2134</ele>
        <time>2019-12-26 09:53:57</time>
      </trkpt>
      <trkpt lat="45.59145" lon="6.67642">
        <ele>1624.5923</ele>
        <time>2019-12-26 09:53:58</time>
      </trkpt>
      <trkpt lat="45.59145" lon="6.67643">
        <ele>1624.4448</ele>
        <time>2019-12-26 09:53:59</time>
      </trkpt>
      <trkpt lat="45.59146" lon="6.67644">
        <ele>1624.4448</ele>
        <time>2019-12-26 09:54:00</time>
      </trkpt>
      <trkpt lat="45.59147" lon="6.67646">
        <ele>1624.6489</ele>
        <time>2019-12-26 09:54:02</time>
      </trkpt>
      <trkpt lat="45.59147" lon="6.67646">
        <ele>1624.9658</ele>
        <time>2019-12-26 09:54:03</time>
      </trkpt>
      <trkpt lat="45.59147" lon="6.67647">
        <ele>1625.0251</ele>
        <time>2019-12-26 09:54:04</time>
      </trkpt>
      <trkpt lat="45.59148" lon="6.67648">
        <ele>1625.0703</ele>
        <time>2019-12-26 09:54:05</time>
      </trkpt>
      <trkpt lat="45.59148" lon="6.67648">
        <ele>1625.1443</ele>
        <time>2019-12-26 09:54:06</time>
      </trkpt>
      <trkpt lat="45.59148" lon="6.67649">
        <ele>1625.8232</ele>
        <time>2019-12-26 09:54:07</time>
      </trkpt>
      <trkpt lat="45.59148" lon="6.6765">
        <ele>1625.7158</ele>
        <time>2019-12-26 09:54:08</time>
      </trkpt>
      <trkpt lat="45.59149" lon="6.6765">
        <ele>1625.6968</ele>
        <time>2019-12-26 09:54:09</time>
      </trkpt>
      <trkpt lat="45.59149" lon="6.67652">
        <ele>1627.1335</ele>
        <time>2019-12-26 09:54:11</time>
      </trkpt>
      <trkpt lat="45.5915" lon="6.67652">
        <ele>1627.5679</ele>
        <time>2019-12-26 09:54:12</time>
      </trkpt>
      <trkpt lat="45.5915" lon="6.67653">
        <ele>1627.6108</ele>
        <time>2019-12-26 09:54:13</time>
      </trkpt>
      <trkpt lat="45.59152" lon="6.67655">
        <ele>1627.4653</ele>
        <time>2019-12-26 09:54:16</time>
      </trkpt>
      <trkpt lat="45.59153" lon="6.67656">
        <ele>1628.0747</ele>
        <time>2019-12-26 09:54:18</time>
      </trkpt>
      <trkpt lat="45.59155" lon="6.67657">
        <ele>1627.3594</ele>
        <time>2019-12-26 09:54:22</time>
      </trkpt>
      <trkpt lat="45.59155" lon="6.67658">
        <ele>1627.9089</ele>
        <time>2019-12-26 09:54:23</time>
      </trkpt>
      <trkpt lat="45.59155" lon="6.67658">
        <ele>1628.1206</ele>
        <time>2019-12-26 09:54:24</time>
      </trkpt>
      <trkpt lat="45.59156" lon="6.67659">
        <ele>1628.073</ele>
        <time>2019-12-26 09:54:25</time>
      </trkpt>
      <trkpt lat="45.59157" lon="6.67661">
        <ele>1626.956</ele>
        <time>2019-12-26 09:54:28</time>
      </trkpt>
      <trkpt lat="45.59157" lon="6.67661">
        <ele>1627.3992</ele>
        <time>2019-12-26 09:54:29</time>
      </trkpt>
      <trkpt lat="45.59157" lon="6.67662">
        <ele>1627.6443</ele>
        <time>2019-12-26 09:54:30</time>
      </trkpt>
      <trkpt lat="45.59158" lon="6.67662">
        <ele>1627.6218</ele>
        <time>2019-12-26 09:54:31</time>
      </trkpt>
      <trkpt lat="45.59158" lon="6.67663">
        <ele>1627.491</ele>
        <time>2019-12-26 09:54:32</time>
      </trkpt>
      <trkpt lat="45.59158" lon="6.67663">
        <ele>1627.635</ele>
        <time>2019-12-26 09:54:33</time>
      </trkpt>
      <trkpt lat="45.59159" lon="6.67665">
        <ele>1627.5156</ele>
        <time>2019-12-26 09:54:36</time>
      </trkpt>
      <trkpt lat="45.59159" lon="6.67665">
        <ele>1627.5205</ele>
        <time>2019-12-26 09:54:37</time>
      </trkpt>
      <trkpt lat="45.5916" lon="6.67666">
        <ele>1628.2798</ele>
        <time>2019-12-26 09:54:38</time>
      </trkpt>
      <trkpt lat="45.5916" lon="6.67667">
        <ele>1627.3442</ele>
        <time>2019-12-26 09:54:39</time>
      </trkpt>
      <trkpt lat="45.59161" lon="6.67667">
        <ele>1627.1426</ele>
        <time>2019-12-26 09:54:40</time>
      </trkpt>
      <trkpt lat="45.59162" lon="6.67668">
        <ele>1627.9565</ele>
        <time>2019-12-26 09:54:42</time>
      </trkpt>
      <trkpt lat="45.59163" lon="6.67668">
        <ele>1628.4932</ele>
        <time>2019-12-26 09:54:43</time>
      </trkpt>
      <trkpt lat="45.59163" lon="6.67669">
        <ele>1628.0767</ele>
        <time>2019-12-26 09:54:44</time>
      </trkpt>
      <trkpt lat="45.59163" lon="6.67669">
        <ele>1629.0244</ele>
        <time>2019-12-26 09:54:48</time>
      </trkpt>
      <trkpt lat="45.59163" lon="6.6767">
        <ele>1628.9678</ele>
        <time>2019-12-26 09:54:49</time>
      </trkpt>
      <trkpt lat="45.59163" lon="6.67671">
        <ele>1629.3286</ele>
        <time>2019-12-26 09:54:50</time>
      </trkpt>
      <trkpt lat="45.59164" lon="6.67671">
        <ele>1629.3081</ele>
        <time>2019-12-26 09:54:51</time>
      </trkpt>
      <trkpt lat="45.59165" lon="6.67672">
        <ele>1630.9233</ele>
        <time>2019-12-26 09:54:54</time>
      </trkpt>
      <trkpt lat="45.59166" lon="6.67677">
        <ele>1631.0398</ele>
        <time>2019-12-26 09:54:58</time>
      </trkpt>
      <trkpt lat="45.59166" lon="6.67677">
        <ele>1631.0142</ele>
        <time>2019-12-26 09:54:59</time>
      </trkpt>
      <trkpt lat="45.59167" lon="6.67678">
        <ele>1630.9514</ele>
        <time>2019-12-26 09:55:00</time>
      </trkpt>
      <trkpt lat="45.59167" lon="6.67679">
        <ele>1630.8259</ele>
        <time>2019-12-26 09:55:01</time>
      </trkpt>
      <trkpt lat="45.59167" lon="6.67683">
        <ele>1631.2734</ele>
        <time>2019-12-26 09:55:05</time>
      </trkpt>
      <trkpt lat="45.59167" lon="6.67686">
        <ele>1632.2207</ele>
        <time>2019-12-26 09:55:09</time>
      </trkpt>
      <trkpt lat="45.59167" lon="6.67687">
        <ele>1632.5359</ele>
        <time>2019-12-26 09:55:10</time>
      </trkpt>
      <trkpt lat="45.59167" lon="6.67687">
        <ele>1632.7148</ele>
        <time>2019-12-26 09:55:11</time>
      </trkpt>
      <trkpt lat="45.59167" lon="6.67688">
        <ele>1632.8379</ele>
        <time>2019-12-26 09:55:12</time>
      </trkpt>
      <trkpt lat="45.59169" lon="6.67694">
        <ele>1633.31</ele>
        <time>2019-12-26 09:55:20</time>
      </trkpt>
      <trkpt lat="45.59169" lon="6.67695">
        <ele>1633.3848</ele>
        <time>2019-12-26 09:55:21</time>
      </trkpt>
      <trkpt lat="45.59169" lon="6.67699">
        <ele>1634.513</ele>
        <time>2019-12-26 09:55:26</time>
      </trkpt>
      <trkpt lat="45.5917" lon="6.677">
        <ele>1634.6514</ele>
        <time>2019-12-26 09:55:27</time>
      </trkpt>
      <trkpt lat="45.5917" lon="6.67701">
        <ele>1634.7119</ele>
        <time>2019-12-26 09:55:28</time>
      </trkpt>
      <trkpt lat="45.59172" lon="6.67704">
        <ele>1636.2378</ele>
        <time>2019-12-26 09:55:33</time>
      </trkpt>
      <trkpt lat="45.59172" lon="6.67705">
        <ele>1636.3711</ele>
        <time>2019-12-26 09:55:34</time>
      </trkpt>
      <trkpt lat="45.59173" lon="6.67705">
        <ele>1636.9907</ele>
        <time>2019-12-26 09:55:35</time>
      </trkpt>
      <trkpt lat="45.59176" lon="6.67708">
        <ele>1637.3396</ele>
        <time>2019-12-26 09:55:39</time>
      </trkpt>
      <trkpt lat="45.59176" lon="6.67708">
        <ele>1637.3787</ele>
        <time>2019-12-26 09:55:40</time>
      </trkpt>
      <trkpt lat="45.59178" lon="6.67711">
        <ele>1638.3301</ele>
        <time>2019-12-26 09:55:44</time>
      </trkpt>
      <trkpt lat="45.59178" lon="6.67712">
        <ele>1638.3628</ele>
        <time>2019-12-26 09:55:45</time>
      </trkpt>
      <trkpt lat="45.59178" lon="6.67712">
        <ele>1638.5151</ele>
        <time>2019-12-26 09:55:46</time>
      </trkpt>
      <trkpt lat="45.59178" lon="6.67713">
        <ele>1639.0352</ele>
        <time>2019-12-26 09:55:47</time>
      </trkpt>
      <trkpt lat="45.59179" lon="6.67714">
        <ele>1639.0764</ele>
        <time>2019-12-26 09:55:49</time>
      </trkpt>
      <trkpt lat="45.5918" lon="6.67715">
        <ele>1639.6714</ele>
        <time>2019-12-26 09:55:50</time>
      </trkpt>
      <trkpt lat="45.59181" lon="6.67717">
        <ele>1639.4033</ele>
        <time>2019-12-26 09:55:54</time>
      </trkpt>
      <trkpt lat="45.59182" lon="6.67718">
        <ele>1638.9019</ele>
        <time>2019-12-26 09:55:55</time>
      </trkpt>
      <trkpt lat="45.59182" lon="6.67718">
        <ele>1639.1909</ele>
        <time>2019-12-26 09:55:56</time>
      </trkpt>
      <trkpt lat="45.59182" lon="6.67719">
        <ele>1639.8721</ele>
        <time>2019-12-26 09:55:57</time>
      </trkpt>
      <trkpt lat="45.59183" lon="6.67719">
        <ele>1640.2412</ele>
        <time>2019-12-26 09:55:58</time>
      </trkpt>
      <trkpt lat="45.59183" lon="6.67719">
        <ele>1640.7805</ele>
        <time>2019-12-26 09:55:59</time>
      </trkpt>
      <trkpt lat="45.59184" lon="6.6772">
        <ele>1639.2012</ele>
        <time>2019-12-26 09:56:00</time>
      </trkpt>
      <trkpt lat="45.59186" lon="6.67722">
        <ele>1638.4683</ele>
        <time>2019-12-26 09:56:02</time>
      </trkpt>
      <trkpt lat="45.59188" lon="6.67723">
        <ele>1638.3408</ele>
        <time>2019-12-26 09:56:04</time>
      </trkpt>
      <trkpt lat="45.59189" lon="6.67724">
        <ele>1638.4539</ele>
        <time>2019-12-26 09:56:05</time>
      </trkpt>
      <trkpt lat="45.59189" lon="6.67725">
        <ele>1638.5786</ele>
        <time>2019-12-26 09:56:06</time>
      </trkpt>
      <trkpt lat="45.5919" lon="6.67725">
        <ele>1639.04</ele>
        <time>2019-12-26 09:56:07</time>
      </trkpt>
      <trkpt lat="45.59191" lon="6.67726">
        <ele>1639.4336</ele>
        <time>2019-12-26 09:56:08</time>
      </trkpt>
      <trkpt lat="45.59191" lon="6.67726">
        <ele>1640.0415</ele>
        <time>2019-12-26 09:56:09</time>
      </trkpt>
      <trkpt lat="45.59192" lon="6.67726">
        <ele>1640.7246</ele>
        <time>2019-12-26 09:56:11</time>
      </trkpt>
      <trkpt lat="45.59192" lon="6.67727">
        <ele>1640.8569</ele>
        <time>2019-12-26 09:56:12</time>
      </trkpt>
      <trkpt lat="45.59192" lon="6.67727">
        <ele>1640.956</ele>
        <time>2019-12-26 09:56:13</time>
      </trkpt>
      <trkpt lat="45.59192" lon="6.67728">
        <ele>1641.6064</ele>
        <time>2019-12-26 09:56:14</time>
      </trkpt>
      <trkpt lat="45.59193" lon="6.67729">
        <ele>1642.23</ele>
        <time>2019-12-26 09:56:15</time>
      </trkpt>
      <trkpt lat="45.59193" lon="6.67729">
        <ele>1643.4314</ele>
        <time>2019-12-26 09:56:17</time>
      </trkpt>
      <trkpt lat="45.59194" lon="6.6773">
        <ele>1643.6182</ele>
        <time>2019-12-26 09:56:18</time>
      </trkpt>
      <trkpt lat="45.59194" lon="6.67731">
        <ele>1643.8296</ele>
        <time>2019-12-26 09:56:19</time>
      </trkpt>
      <trkpt lat="45.59195" lon="6.67731">
        <ele>1643.5056</ele>
        <time>2019-12-26 09:56:20</time>
      </trkpt>
      <trkpt lat="45.59195" lon="6.67732">
        <ele>1643.3569</ele>
        <time>2019-12-26 09:56:21</time>
      </trkpt>
      <trkpt lat="45.59196" lon="6.67733">
        <ele>1644.0645</ele>
        <time>2019-12-26 09:56:22</time>
      </trkpt>
      <trkpt lat="45.59197" lon="6.67737">
        <ele>1645.3425</ele>
        <time>2019-12-26 09:56:26</time>
      </trkpt>
      <trkpt lat="45.59198" lon="6.67739">
        <ele>1642.3203</ele>
        <time>2019-12-26 09:56:28</time>
      </trkpt>
      <trkpt lat="45.59199" lon="6.67739">
        <ele>1642.2778</ele>
        <time>2019-12-26 09:56:29</time>
      </trkpt>
      <trkpt lat="45.59199" lon="6.6774">
        <ele>1642.6777</ele>
        <time>2019-12-26 09:56:30</time>
      </trkpt>
      <trkpt lat="45.592" lon="6.67741">
        <ele>1642.3875</ele>
        <time>2019-12-26 09:56:31</time>
      </trkpt>
      <trkpt lat="45.592" lon="6.67741">
        <ele>1643.771</ele>
        <time>2019-12-26 09:56:32</time>
      </trkpt>
      <trkpt lat="45.592" lon="6.67742">
        <ele>1644.1245</ele>
        <time>2019-12-26 09:56:33</time>
      </trkpt>
      <trkpt lat="45.59201" lon="6.67742">
        <ele>1644.2395</ele>
        <time>2019-12-26 09:56:34</time>
      </trkpt>
      <trkpt lat="45.59201" lon="6.67743">
        <ele>1642.0842</ele>
        <time>2019-12-26 09:56:35</time>
      </trkpt>
      <trkpt lat="45.59201" lon="6.67744">
        <ele>1642.4995</ele>
        <time>2019-12-26 09:56:36</time>
      </trkpt>
      <trkpt lat="45.59202" lon="6.67744">
        <ele>1642.596</ele>
        <time>2019-12-26 09:56:37</time>
      </trkpt>
      <trkpt lat="45.59202" lon="6.67745">
        <ele>1643.0688</ele>
        <time>2019-12-26 09:56:38</time>
      </trkpt>
      <trkpt lat="45.59203" lon="6.67746">
        <ele>1643.9233</ele>
        <time>2019-12-26 09:56:39</time>
      </trkpt>
      <trkpt lat="45.59203" lon="6.67746">
        <ele>1643.7793</ele>
        <time>2019-12-26 09:56:40</time>
      </trkpt>
      <trkpt lat="45.59203" lon="6.67747">
        <ele>1644.8345</ele>
        <time>2019-12-26 09:56:41</time>
      </trkpt>
      <trkpt lat="45.59204" lon="6.67748">
        <ele>1644.4072</ele>
        <time>2019-12-26 09:56:43</time>
      </trkpt>
      <trkpt lat="45.59205" lon="6.67749">
        <ele>1645.125</ele>
        <time>2019-12-26 09:56:44</time>
      </trkpt>
      <trkpt lat="45.59205" lon="6.67749">
        <ele>1645.0645</ele>
        <time>2019-12-26 09:56:45</time>
      </trkpt>
      <trkpt lat="45.59206" lon="6.6775">
        <ele>1645.2637</ele>
        <time>2019-12-26 09:56:46</time>
      </trkpt>
      <trkpt lat="45.59207" lon="6.67752">
        <ele>1646.4819</ele>
        <time>2019-12-26 09:56:49</time>
      </trkpt>
      <trkpt lat="45.59207" lon="6.67753">
        <ele>1646.8438</ele>
        <time>2019-12-26 09:56:50</time>
      </trkpt>
      <trkpt lat="45.59208" lon="6.67754">
        <ele>1647.4106</ele>
        <time>2019-12-26 09:56:51</time>
      </trkpt>
      <trkpt lat="45.59208" lon="6.67754">
        <ele>1647.9941</ele>
        <time>2019-12-26 09:56:52</time>
      </trkpt>
      <trkpt lat="45.59208" lon="6.67755">
        <ele>1648.397</ele>
        <time>2019-12-26 09:56:53</time>
      </trkpt>
      <trkpt lat="45.59208" lon="6.67755">
        <ele>1648.2617</ele>
        <time>2019-12-26 09:56:54</time>
      </trkpt>
      <trkpt lat="45.59209" lon="6.67756">
        <ele>1648.5156</ele>
        <time>2019-12-26 09:56:55</time>
      </trkpt>
      <trkpt lat="45.5921" lon="6.67758">
        <ele>1648.2585</ele>
        <time>2019-12-26 09:56:58</time>
      </trkpt>
      <trkpt lat="45.59211" lon="6.67757">
        <ele>1648.4429</ele>
        <time>2019-12-26 09:57:00</time>
      </trkpt>
      <trkpt lat="45.59211" lon="6.67757">
        <ele>1648.023</ele>
        <time>2019-12-26 09:57:01</time>
      </trkpt>
      <trkpt lat="45.59212" lon="6.67758">
        <ele>1648.4207</ele>
        <time>2019-12-26 09:57:02</time>
      </trkpt>
      <trkpt lat="45.59212" lon="6.67758">
        <ele>1648.6584</ele>
        <time>2019-12-26 09:57:03</time>
      </trkpt>
      <trkpt lat="45.59213" lon="6.67758">
        <ele>1648.1982</ele>
        <time>2019-12-26 09:57:04</time>
      </trkpt>
      <trkpt lat="45.59213" lon="6.67759">
        <ele>1648.5405</ele>
        <time>2019-12-26 09:57:05</time>
      </trkpt>
      <trkpt lat="45.59213" lon="6.6776">
        <ele>1648.8235</ele>
        <time>2019-12-26 09:57:06</time>
      </trkpt>
      <trkpt lat="45.59214" lon="6.6776">
        <ele>1649.3613</ele>
        <time>2019-12-26 09:57:07</time>
      </trkpt>
      <trkpt lat="45.59214" lon="6.67761">
        <ele>1650.3694</ele>
        <time>2019-12-26 09:57:08</time>
      </trkpt>
      <trkpt lat="45.59214" lon="6.67762">
        <ele>1649.9429</ele>
        <time>2019-12-26 09:57:09</time>
      </trkpt>
      <trkpt lat="45.59214" lon="6.67762">
        <ele>1649.1006</ele>
        <time>2019-12-26 09:57:10</time>
      </trkpt>
      <trkpt lat="45.59215" lon="6.67763">
        <ele>1649.9067</ele>
        <time>2019-12-26 09:57:11</time>
      </trkpt>
      <trkpt lat="45.59215" lon="6.67763">
        <ele>1650.0696</ele>
        <time>2019-12-26 09:57:12</time>
      </trkpt>
      <trkpt lat="45.59216" lon="6.67764">
        <ele>1651.8198</ele>
        <time>2019-12-26 09:57:15</time>
      </trkpt>
      <trkpt lat="45.59216" lon="6.67765">
        <ele>1652.1377</ele>
        <time>2019-12-26 09:57:25</time>
      </trkpt>
      <trkpt lat="45.59217" lon="6.67766">
        <ele>1652.1924</ele>
        <time>2019-12-26 09:57:27</time>
      </trkpt>
      <trkpt lat="45.59217" lon="6.67766">
        <ele>1651.4937</ele>
        <time>2019-12-26 09:57:28</time>
      </trkpt>
      <trkpt lat="45.59217" lon="6.67767">
        <ele>1651.5156</ele>
        <time>2019-12-26 09:57:29</time>
      </trkpt>
      <trkpt lat="45.59218" lon="6.67769">
        <ele>1651.9985</ele>
        <time>2019-12-26 09:57:32</time>
      </trkpt>
      <trkpt lat="45.59218" lon="6.6777">
        <ele>1652.1128</ele>
        <time>2019-12-26 09:57:33</time>
      </trkpt>
      <trkpt lat="45.59219" lon="6.67771">
        <ele>1652.4131</ele>
        <time>2019-12-26 09:57:34</time>
      </trkpt>
      <trkpt lat="45.59219" lon="6.67771">
        <ele>1651.9092</ele>
        <time>2019-12-26 09:57:35</time>
      </trkpt>
      <trkpt lat="45.59219" lon="6.67772">
        <ele>1651.6416</ele>
        <time>2019-12-26 09:57:36</time>
      </trkpt>
      <trkpt lat="45.59219" lon="6.67772">
        <ele>1651.6475</ele>
        <time>2019-12-26 09:57:38</time>
      </trkpt>
      <trkpt lat="45.59219" lon="6.67773">
        <ele>1651.9497</ele>
        <time>2019-12-26 09:57:39</time>
      </trkpt>
      <trkpt lat="45.59219" lon="6.67774">
        <ele>1651.6062</ele>
        <time>2019-12-26 09:57:40</time>
      </trkpt>
      <trkpt lat="45.5922" lon="6.67775">
        <ele>1651.6318</ele>
        <time>2019-12-26 09:57:41</time>
      </trkpt>
      <trkpt lat="45.59221" lon="6.67777">
        <ele>1652.7827</ele>
        <time>2019-12-26 09:57:44</time>
      </trkpt>
      <trkpt lat="45.59221" lon="6.67777">
        <ele>1652.7288</ele>
        <time>2019-12-26 09:57:45</time>
      </trkpt>
      <trkpt lat="45.59223" lon="6.67779">
        <ele>1653.3706</ele>
        <time>2019-12-26 09:57:49</time>
      </trkpt>
      <trkpt lat="45.59224" lon="6.6778">
        <ele>1653.6699</ele>
        <time>2019-12-26 09:57:50</time>
      </trkpt>
      <trkpt lat="45.59224" lon="6.67779">
        <ele>1653.2808</ele>
        <time>2019-12-26 09:57:51</time>
      </trkpt>
      <trkpt lat="45.59225" lon="6.6778">
        <ele>1653.2212</ele>
        <time>2019-12-26 09:57:52</time>
      </trkpt>
      <trkpt lat="45.59226" lon="6.67782">
        <ele>1652.7146</ele>
        <time>2019-12-26 09:57:56</time>
      </trkpt>
      <trkpt lat="45.59226" lon="6.67783">
        <ele>1653.1592</ele>
        <time>2019-12-26 09:57:57</time>
      </trkpt>
      <trkpt lat="45.59227" lon="6.67784">
        <ele>1654.0737</ele>
        <time>2019-12-26 09:57:58</time>
      </trkpt>
      <trkpt lat="45.59227" lon="6.67784">
        <ele>1654.4531</ele>
        <time>2019-12-26 09:57:59</time>
      </trkpt>
      <trkpt lat="45.59228" lon="6.67784">
        <ele>1654.5498</ele>
        <time>2019-12-26 09:58:00</time>
      </trkpt>
      <trkpt lat="45.59229" lon="6.67785">
        <ele>1654.679</ele>
        <time>2019-12-26 09:58:01</time>
      </trkpt>
      <trkpt lat="45.59229" lon="6.67785">
        <ele>1655.01</ele>
        <time>2019-12-26 09:58:02</time>
      </trkpt>
      <trkpt lat="45.59229" lon="6.67786">
        <ele>1655.9077</ele>
        <time>2019-12-26 09:58:03</time>
      </trkpt>
      <trkpt lat="45.5923" lon="6.67786">
        <ele>1656.9985</ele>
        <time>2019-12-26 09:58:04</time>
      </trkpt>
      <trkpt lat="45.5923" lon="6.67786">
        <ele>1656.7776</ele>
        <time>2019-12-26 09:58:05</time>
      </trkpt>
      <trkpt lat="45.59231" lon="6.67787">
        <ele>1657.3191</ele>
        <time>2019-12-26 09:58:07</time>
      </trkpt>
      <trkpt lat="45.59231" lon="6.67788">
        <ele>1657.1587</ele>
        <time>2019-12-26 09:58:08</time>
      </trkpt>
      <trkpt lat="45.59232" lon="6.67788">
        <ele>1657.4648</ele>
        <time>2019-12-26 09:58:09</time>
      </trkpt>
      <trkpt lat="45.59232" lon="6.67788">
        <ele>1657.7483</ele>
        <time>2019-12-26 09:58:10</time>
      </trkpt>
      <trkpt lat="45.59233" lon="6.67789">
        <ele>1657.9404</ele>
        <time>2019-12-26 09:58:11</time>
      </trkpt>
      <trkpt lat="45.59232" lon="6.67789">
        <ele>1658.2883</ele>
        <time>2019-12-26 09:58:12</time>
      </trkpt>
      <trkpt lat="45.59232" lon="6.67789">
        <ele>1657.1111</ele>
        <time>2019-12-26 09:58:13</time>
      </trkpt>
      <trkpt lat="45.59232" lon="6.6779">
        <ele>1657.2837</ele>
        <time>2019-12-26 09:58:14</time>
      </trkpt>
      <trkpt lat="45.59233" lon="6.67793">
        <ele>1657.019</ele>
        <time>2019-12-26 09:58:18</time>
      </trkpt>
      <trkpt lat="45.59233" lon="6.67794">
        <ele>1656.9595</ele>
        <time>2019-12-26 09:58:19</time>
      </trkpt>
      <trkpt lat="45.59232" lon="6.67794">
        <ele>1657.4072</ele>
        <time>2019-12-26 09:58:20</time>
      </trkpt>
      <trkpt lat="45.59232" lon="6.67795">
        <ele>1657.865</ele>
        <time>2019-12-26 09:58:21</time>
      </trkpt>
      <trkpt lat="45.59232" lon="6.67795">
        <ele>1657.313</ele>
        <time>2019-12-26 09:58:22</time>
      </trkpt>
      <trkpt lat="45.59232" lon="6.67796">
        <ele>1657.5303</ele>
        <time>2019-12-26 09:58:23</time>
      </trkpt>
      <trkpt lat="45.59232" lon="6.67796">
        <ele>1658.0586</ele>
        <time>2019-12-26 09:58:24</time>
      </trkpt>
      <trkpt lat="45.59232" lon="6.67797">
        <ele>1658.3794</ele>
        <time>2019-12-26 09:58:28</time>
      </trkpt>
      <trkpt lat="45.59232" lon="6.67797">
        <ele>1658.5698</ele>
        <time>2019-12-26 09:58:29</time>
      </trkpt>
      <trkpt lat="45.59232" lon="6.67798">
        <ele>1658.7402</ele>
        <time>2019-12-26 09:58:30</time>
      </trkpt>
      <trkpt lat="45.59231" lon="6.67798">
        <ele>1658.6125</ele>
        <time>2019-12-26 09:58:31</time>
      </trkpt>
      <trkpt lat="45.59231" lon="6.67799">
        <ele>1659.2163</ele>
        <time>2019-12-26 09:58:32</time>
      </trkpt>
      <trkpt lat="45.59231" lon="6.678">
        <ele>1659.6155</ele>
        <time>2019-12-26 09:58:33</time>
      </trkpt>
      <trkpt lat="45.59231" lon="6.67801">
        <ele>1660.769</ele>
        <time>2019-12-26 09:58:34</time>
      </trkpt>
      <trkpt lat="45.5923" lon="6.67802">
        <ele>1661.0063</ele>
        <time>2019-12-26 09:58:35</time>
      </trkpt>
      <trkpt lat="45.5923" lon="6.67803">
        <ele>1659.1582</ele>
        <time>2019-12-26 09:58:36</time>
      </trkpt>
      <trkpt lat="45.5923" lon="6.67806">
        <ele>1658.2085</ele>
        <time>2019-12-26 09:58:38</time>
      </trkpt>
      <trkpt lat="45.5923" lon="6.67807">
        <ele>1658.3472</ele>
        <time>2019-12-26 09:58:39</time>
      </trkpt>
      <trkpt lat="45.5923" lon="6.67808">
        <ele>1658.6472</ele>
        <time>2019-12-26 09:58:40</time>
      </trkpt>
      <trkpt lat="45.59229" lon="6.67809">
        <ele>1658.4827</ele>
        <time>2019-12-26 09:58:41</time>
      </trkpt>
      <trkpt lat="45.59229" lon="6.6781">
        <ele>1659.03</ele>
        <time>2019-12-26 09:58:42</time>
      </trkpt>
      <trkpt lat="45.59228" lon="6.6781">
        <ele>1659.9692</ele>
        <time>2019-12-26 09:58:43</time>
      </trkpt>
      <trkpt lat="45.59228" lon="6.67811">
        <ele>1660.072</ele>
        <time>2019-12-26 09:58:44</time>
      </trkpt>
      <trkpt lat="45.59228" lon="6.67812">
        <ele>1660.4341</ele>
        <time>2019-12-26 09:58:45</time>
      </trkpt>
      <trkpt lat="45.59225" lon="6.67814">
        <ele>1661.1846</ele>
        <time>2019-12-26 09:58:49</time>
      </trkpt>
      <trkpt lat="45.59225" lon="6.67814">
        <ele>1661.2292</ele>
        <time>2019-12-26 09:58:50</time>
      </trkpt>
      <trkpt lat="45.59225" lon="6.67815">
        <ele>1660.3481</ele>
        <time>2019-12-26 09:58:51</time>
      </trkpt>
      <trkpt lat="45.59224" lon="6.67815">
        <ele>1660.5247</ele>
        <time>2019-12-26 09:58:52</time>
      </trkpt>
      <trkpt lat="45.59223" lon="6.67817">
        <ele>1661.1909</ele>
        <time>2019-12-26 09:58:54</time>
      </trkpt>
      <trkpt lat="45.59223" lon="6.67819">
        <ele>1662.8853</ele>
        <time>2019-12-26 09:58:58</time>
      </trkpt>
      <trkpt lat="45.59224" lon="6.6782">
        <ele>1662.435</ele>
        <time>2019-12-26 09:58:59</time>
      </trkpt>
      <trkpt lat="45.59224" lon="6.6782">
        <ele>1663.3191</ele>
        <time>2019-12-26 09:59:00</time>
      </trkpt>
      <trkpt lat="45.59226" lon="6.67821">
        <ele>1664.1401</ele>
        <time>2019-12-26 09:59:03</time>
      </trkpt>
      <trkpt lat="45.59226" lon="6.67822">
        <ele>1664.8579</ele>
        <time>2019-12-26 09:59:04</time>
      </trkpt>
      <trkpt lat="45.59226" lon="6.67822">
        <ele>1665.2393</ele>
        <time>2019-12-26 09:59:05</time>
      </trkpt>
      <trkpt lat="45.59227" lon="6.67822">
        <ele>1665.9609</ele>
        <time>2019-12-26 09:59:06</time>
      </trkpt>
      <trkpt lat="45.59227" lon="6.67822">
        <ele>1667.1025</ele>
        <time>2019-12-26 09:59:07</time>
      </trkpt>
      <trkpt lat="45.59227" lon="6.67822">
        <ele>1666.835</ele>
        <time>2019-12-26 09:59:08</time>
      </trkpt>
      <trkpt lat="45.59228" lon="6.67823">
        <ele>1667.5122</ele>
        <time>2019-12-26 09:59:09</time>
      </trkpt>
      <trkpt lat="45.59224" lon="6.6783">
        <ele>1683.542</ele>
        <time>2019-12-26 09:59:12</time>
      </trkpt>
      <trkpt lat="45.59227" lon="6.67831">
        <ele>1677.3394</ele>
        <time>2019-12-26 09:59:20</time>
      </trkpt>
      <trkpt lat="45.59227" lon="6.67832">
        <ele>1677.687</ele>
        <time>2019-12-26 09:59:21</time>
      </trkpt>
      <trkpt lat="45.59228" lon="6.67833">
        <ele>1676.5103</ele>
        <time>2019-12-26 09:59:23</time>
      </trkpt>
      <trkpt lat="45.59229" lon="6.67834">
        <ele>1675.6191</ele>
        <time>2019-12-26 09:59:27</time>
      </trkpt>
      <trkpt lat="45.59229" lon="6.67838">
        <ele>1673.2512</ele>
        <time>2019-12-26 09:59:35</time>
      </trkpt>
      <trkpt lat="45.59231" lon="6.67841">
        <ele>1673.0684</ele>
        <time>2019-12-26 09:59:40</time>
      </trkpt>
      <trkpt lat="45.59238" lon="6.67844">
        <ele>1672.4458</ele>
        <time>2019-12-26 09:59:48</time>
      </trkpt>
      <trkpt lat="45.59243" lon="6.67849">
        <ele>1672.6306</ele>
        <time>2019-12-26 09:59:59</time>
      </trkpt>
      <trkpt lat="45.59247" lon="6.67858">
        <ele>1673.1641</ele>
        <time>2019-12-26 10:00:11</time>
      </trkpt>
      <trkpt lat="45.59251" lon="6.67864">
        <ele>1673.0322</ele>
        <time>2019-12-26 10:00:20</time>
      </trkpt>
      <trkpt lat="45.59253" lon="6.67867">
        <ele>1674.019</ele>
        <time>2019-12-26 10:00:24</time>
      </trkpt>
      <trkpt lat="45.59255" lon="6.67869">
        <ele>1675.7402</ele>
        <time>2019-12-26 10:00:28</time>
      </trkpt>
      <trkpt lat="45.59255" lon="6.6787">
        <ele>1676.065</ele>
        <time>2019-12-26 10:00:29</time>
      </trkpt>
      <trkpt lat="45.59255" lon="6.67871">
        <ele>1676.5825</ele>
        <time>2019-12-26 10:00:31</time>
      </trkpt>
      <trkpt lat="45.59257" lon="6.67874">
        <ele>1677.3474</ele>
        <time>2019-12-26 10:00:36</time>
      </trkpt>
      <trkpt lat="45.59259" lon="6.67874">
        <ele>1677.707</ele>
        <time>2019-12-26 10:00:41</time>
      </trkpt>
      <trkpt lat="45.5926" lon="6.67874">
        <ele>1677.502</ele>
        <time>2019-12-26 10:00:44</time>
      </trkpt>
      <trkpt lat="45.5926" lon="6.67874">
        <ele>1677.2065</ele>
        <time>2019-12-26 10:00:45</time>
      </trkpt>
      <trkpt lat="45.5926" lon="6.67874">
        <ele>1677.4148</ele>
        <time>2019-12-26 10:00:47</time>
      </trkpt>
      <trkpt lat="45.59263" lon="6.67879">
        <ele>1679.2842</ele>
        <time>2019-12-26 10:00:56</time>
      </trkpt>
      <trkpt lat="45.59265" lon="6.67883">
        <ele>1680.2434</ele>
        <time>2019-12-26 10:01:01</time>
      </trkpt>
      <trkpt lat="45.59267" lon="6.67885">
        <ele>1679.8379</ele>
        <time>2019-12-26 10:01:06</time>
      </trkpt>
      <trkpt lat="45.59269" lon="6.67884">
        <ele>1679.6108</ele>
        <time>2019-12-26 10:01:10</time>
      </trkpt>
      <trkpt lat="45.59273" lon="6.67883">
        <ele>1679.5457</ele>
        <time>2019-12-26 10:01:18</time>
      </trkpt>
      <trkpt lat="45.59273" lon="6.67883">
        <ele>1679.6777</ele>
        <time>2019-12-26 10:01:19</time>
      </trkpt>
      <trkpt lat="45.5928" lon="6.67882">
        <ele>1681.2974</ele>
        <time>2019-12-26 10:01:31</time>
      </trkpt>
      <trkpt lat="45.59282" lon="6.67884">
        <ele>1683.127</ele>
        <time>2019-12-26 10:01:37</time>
      </trkpt>
      <trkpt lat="45.59285" lon="6.67884">
        <ele>1683.821</ele>
        <time>2019-12-26 10:01:41</time>
      </trkpt>
      <trkpt lat="45.59287" lon="6.67885">
        <ele>1684.854</ele>
        <time>2019-12-26 10:01:46</time>
      </trkpt>
      <trkpt lat="45.59288" lon="6.67885">
        <ele>1687.1785</ele>
        <time>2019-12-26 10:01:50</time>
      </trkpt>
      <trkpt lat="45.5929" lon="6.67886">
        <ele>1688.7251</ele>
        <time>2019-12-26 10:01:56</time>
      </trkpt>
      <trkpt lat="45.59291" lon="6.67886">
        <ele>1689.4746</ele>
        <time>2019-12-26 10:02:04</time>
      </trkpt>
      <trkpt lat="45.59293" lon="6.67888">
        <ele>1691.2207</ele>
        <time>2019-12-26 10:02:10</time>
      </trkpt>
      <trkpt lat="45.59294" lon="6.67889">
        <ele>1691.96</ele>
        <time>2019-12-26 10:02:11</time>
      </trkpt>
      <trkpt lat="45.59296" lon="6.67891">
        <ele>1692.79</ele>
        <time>2019-12-26 10:02:16</time>
      </trkpt>
      <trkpt lat="45.59299" lon="6.67893">
        <ele>1693.7559</ele>
        <time>2019-12-26 10:02:22</time>
      </trkpt>
      <trkpt lat="45.59299" lon="6.67893">
        <ele>1694.0859</ele>
        <time>2019-12-26 10:02:23</time>
      </trkpt>
      <trkpt lat="45.59299" lon="6.67894">
        <ele>1694.0674</ele>
        <time>2019-12-26 10:02:24</time>
      </trkpt>
      <trkpt lat="45.59299" lon="6.67895">
        <ele>1692.4717</ele>
        <time>2019-12-26 10:02:28</time>
      </trkpt>
      <trkpt lat="45.59299" lon="6.67896">
        <ele>1691.9941</ele>
        <time>2019-12-26 10:02:29</time>
      </trkpt>
      <trkpt lat="45.59299" lon="6.67896">
        <ele>1692.0745</ele>
        <time>2019-12-26 10:02:30</time>
      </trkpt>
      <trkpt lat="45.59295" lon="6.6791">
        <ele>1692.1882</ele>
        <time>2019-12-26 10:02:49</time>
      </trkpt>
      <trkpt lat="45.59294" lon="6.67914">
        <ele>1691.9495</ele>
        <time>2019-12-26 10:02:56</time>
      </trkpt>
      <trkpt lat="45.59294" lon="6.67915">
        <ele>1691.8413</ele>
        <time>2019-12-26 10:02:58</time>
      </trkpt>
      <trkpt lat="45.59294" lon="6.67915">
        <ele>1691.4028</ele>
        <time>2019-12-26 10:03:02</time>
      </trkpt>
      <trkpt lat="45.59295" lon="6.67923">
        <ele>1693.3948</ele>
        <time>2019-12-26 10:03:11</time>
      </trkpt>
      <trkpt lat="45.59296" lon="6.67926">
        <ele>1694.3989</ele>
        <time>2019-12-26 10:03:15</time>
      </trkpt>
      <trkpt lat="45.59296" lon="6.67928">
        <ele>1694.2756</ele>
        <time>2019-12-26 10:03:19</time>
      </trkpt>
      <trkpt lat="45.59296" lon="6.67929">
        <ele>1693.9663</ele>
        <time>2019-12-26 10:03:21</time>
      </trkpt>
      <trkpt lat="45.59296" lon="6.67934">
        <ele>1694.8882</ele>
        <time>2019-12-26 10:03:27</time>
      </trkpt>
      <trkpt lat="45.59296" lon="6.67934">
        <ele>1694.2651</ele>
        <time>2019-12-26 10:03:35</time>
      </trkpt>
      <trkpt lat="45.59296" lon="6.67936">
        <ele>1693.9995</ele>
        <time>2019-12-26 10:03:41</time>
      </trkpt>
      <trkpt lat="45.59296" lon="6.67936">
        <ele>1693.8733</ele>
        <time>2019-12-26 10:03:46</time>
      </trkpt>
      <trkpt lat="45.59296" lon="6.67936">
        <ele>1693.9277</ele>
        <time>2019-12-26 10:03:47</time>
      </trkpt>
      <trkpt lat="45.59296" lon="6.67937">
        <ele>1694.3574</ele>
        <time>2019-12-26 10:03:58</time>
      </trkpt>
      <trkpt lat="45.59296" lon="6.67938">
        <ele>1694.4238</ele>
        <time>2019-12-26 10:03:59</time>
      </trkpt>
      <trkpt lat="45.59295" lon="6.67939">
        <ele>1694.686</ele>
        <time>2019-12-26 10:04:29</time>
      </trkpt>
      <trkpt lat="45.59295" lon="6.6794">
        <ele>1695.5437</ele>
        <time>2019-12-26 10:04:59</time>
      </trkpt>
      <trkpt lat="45.59295" lon="6.6794">
        <ele>1695.4453</ele>
        <time>2019-12-26 10:05:11</time>
      </trkpt>
      <trkpt lat="45.59295" lon="6.6794">
        <ele>1695.5952</ele>
        <time>2019-12-26 10:05:12</time>
      </trkpt>
      <trkpt lat="45.59295" lon="6.6794">
        <ele>1695.6177</ele>
        <time>2019-12-26 10:05:14</time>
      </trkpt>
      <trkpt lat="45.59295" lon="6.6794">
        <ele>1695.9089</ele>
        <time>2019-12-26 10:05:15</time>
      </trkpt>
      <trkpt lat="45.59296" lon="6.67939">
        <ele>1695.0598</ele>
        <time>2019-12-26 10:06:02</time>
      </trkpt>
      <trkpt lat="45.59296" lon="6.6794">
        <ele>1695.5303</ele>
        <time>2019-12-26 10:06:26</time>
      </trkpt>
      <trkpt lat="45.59296" lon="6.6794">
        <ele>1695.4253</ele>
        <time>2019-12-26 10:06:28</time>
      </trkpt>
      <trkpt lat="45.59295" lon="6.67941">
        <ele>1694.8564</ele>
        <time>2019-12-26 10:06:47</time>
      </trkpt>
      <trkpt lat="45.59296" lon="6.67944">
        <ele>1694.7139</ele>
        <time>2019-12-26 10:06:51</time>
      </trkpt>
      <trkpt lat="45.59296" lon="6.67944">
        <ele>1696.2122</ele>
        <time>2019-12-26 10:08:11</time>
      </trkpt>
      <trkpt lat="45.59296" lon="6.67944">
        <ele>1696.7969</ele>
        <time>2019-12-26 10:10:15</time>
      </trkpt>
      <trkpt lat="45.59297" lon="6.67945">
        <ele>1696.9775</ele>
        <time>2019-12-26 10:10:17</time>
      </trkpt>
      <trkpt lat="45.59298" lon="6.67945">
        <ele>1696.6211</ele>
        <time>2019-12-26 10:11:00</time>
      </trkpt>
      <trkpt lat="45.59301" lon="6.67948">
        <ele>1698.4983</ele>
        <time>2019-12-26 10:11:06</time>
      </trkpt>
      <trkpt lat="45.59302" lon="6.67948">
        <ele>1698.398</ele>
        <time>2019-12-26 10:11:08</time>
      </trkpt>
      <trkpt lat="45.59308" lon="6.67947">
        <ele>1699.8577</ele>
        <time>2019-12-26 10:11:20</time>
      </trkpt>
      <trkpt lat="45.5931" lon="6.67945">
        <ele>1699.1782</ele>
        <time>2019-12-26 10:11:23</time>
      </trkpt>
      <trkpt lat="45.59312" lon="6.67942">
        <ele>1699.1008</ele>
        <time>2019-12-26 10:11:26</time>
      </trkpt>
      <trkpt lat="45.59314" lon="6.67941">
        <ele>1699.7134</ele>
        <time>2019-12-26 10:11:29</time>
      </trkpt>
      <trkpt lat="45.59314" lon="6.67941">
        <ele>1699.9905</ele>
        <time>2019-12-26 10:11:30</time>
      </trkpt>
      <trkpt lat="45.59315" lon="6.67942">
        <ele>1700.4832</ele>
        <time>2019-12-26 10:11:33</time>
      </trkpt>
      <trkpt lat="45.59316" lon="6.67943">
        <ele>1700.384</ele>
        <time>2019-12-26 10:11:35</time>
      </trkpt>
      <trkpt lat="45.59316" lon="6.67946">
        <ele>1701.4639</ele>
        <time>2019-12-26 10:11:38</time>
      </trkpt>
      <trkpt lat="45.59315" lon="6.67964">
        <ele>1701.835</ele>
        <time>2019-12-26 10:11:57</time>
      </trkpt>
      <trkpt lat="45.59315" lon="6.67965">
        <ele>1702.2344</ele>
        <time>2019-12-26 10:11:58</time>
      </trkpt>
      <trkpt lat="45.59315" lon="6.67967">
        <ele>1702.3899</ele>
        <time>2019-12-26 10:12:01</time>
      </trkpt>
      <trkpt lat="45.59315" lon="6.67968">
        <ele>1702.4045</ele>
        <time>2019-12-26 10:12:03</time>
      </trkpt>
      <trkpt lat="45.59315" lon="6.6797">
        <ele>1703.6211</ele>
        <time>2019-12-26 10:12:07</time>
      </trkpt>
      <trkpt lat="45.59318" lon="6.67972">
        <ele>1705.1487</ele>
        <time>2019-12-26 10:12:13</time>
      </trkpt>
      <trkpt lat="45.59322" lon="6.6797">
        <ele>1705.897</ele>
        <time>2019-12-26 10:12:19</time>
      </trkpt>
      <trkpt lat="45.59322" lon="6.6797">
        <ele>1706.2827</ele>
        <time>2019-12-26 10:12:20</time>
      </trkpt>
      <trkpt lat="45.59322" lon="6.6797">
        <ele>1706.7876</ele>
        <time>2019-12-26 10:12:21</time>
      </trkpt>
      <trkpt lat="45.59323" lon="6.6797">
        <ele>1707.1191</ele>
        <time>2019-12-26 10:12:23</time>
      </trkpt>
      <trkpt lat="45.59329" lon="6.67966">
        <ele>1708.72</ele>
        <time>2019-12-26 10:12:35</time>
      </trkpt>
      <trkpt lat="45.59335" lon="6.67966">
        <ele>1712.5991</ele>
        <time>2019-12-26 10:12:51</time>
      </trkpt>
      <trkpt lat="45.59338" lon="6.67965">
        <ele>1712.6318</ele>
        <time>2019-12-26 10:12:56</time>
      </trkpt>
      <trkpt lat="45.59339" lon="6.67965">
        <ele>1712.2795</ele>
        <time>2019-12-26 10:12:59</time>
      </trkpt>
      <trkpt lat="45.59341" lon="6.67964">
        <ele>1711.8479</ele>
        <time>2019-12-26 10:13:16</time>
      </trkpt>
      <trkpt lat="45.59352" lon="6.67966">
        <ele>1715.5522</ele>
        <time>2019-12-26 10:13:36</time>
      </trkpt>
      <trkpt lat="45.59353" lon="6.67966">
        <ele>1715.9541</ele>
        <time>2019-12-26 10:13:37</time>
      </trkpt>
      <trkpt lat="45.59353" lon="6.67966">
        <ele>1715.6929</ele>
        <time>2019-12-26 10:13:38</time>
      </trkpt>
      <trkpt lat="45.59355" lon="6.67966">
        <ele>1715.7205</ele>
        <time>2019-12-26 10:13:40</time>
      </trkpt>
      <trkpt lat="45.59356" lon="6.67966">
        <ele>1716.2292</ele>
        <time>2019-12-26 10:13:42</time>
      </trkpt>
      <trkpt lat="45.59356" lon="6.67967">
        <ele>1716.6714</ele>
        <time>2019-12-26 10:13:43</time>
      </trkpt>
      <trkpt lat="45.59357" lon="6.67967">
        <ele>1717.0435</ele>
        <time>2019-12-26 10:13:44</time>
      </trkpt>
      <trkpt lat="45.59357" lon="6.67967">
        <ele>1717.2017</ele>
        <time>2019-12-26 10:13:46</time>
      </trkpt>
      <trkpt lat="45.59357" lon="6.67968">
        <ele>1717.0283</ele>
        <time>2019-12-26 10:13:47</time>
      </trkpt>
      <trkpt lat="45.59358" lon="6.6797">
        <ele>1718.6069</ele>
        <time>2019-12-26 10:13:53</time>
      </trkpt>
      <trkpt lat="45.59357" lon="6.67974">
        <ele>1719.1677</ele>
        <time>2019-12-26 10:13:57</time>
      </trkpt>
      <trkpt lat="45.59356" lon="6.6798">
        <ele>1720.56</ele>
        <time>2019-12-26 10:14:04</time>
      </trkpt>
      <trkpt lat="45.59356" lon="6.67987">
        <ele>1722.0957</ele>
        <time>2019-12-26 10:14:11</time>
      </trkpt>
      <trkpt lat="45.59356" lon="6.67999">
        <ele>1723.5496</ele>
        <time>2019-12-26 10:14:27</time>
      </trkpt>
      <trkpt lat="45.59356" lon="6.68003">
        <ele>1723.3384</ele>
        <time>2019-12-26 10:14:33</time>
      </trkpt>
      <trkpt lat="45.59357" lon="6.68008">
        <ele>1723.8108</ele>
        <time>2019-12-26 10:14:40</time>
      </trkpt>
      <trkpt lat="45.59358" lon="6.68009">
        <ele>1724.9417</ele>
        <time>2019-12-26 10:14:43</time>
      </trkpt>
      <trkpt lat="45.59361" lon="6.68007">
        <ele>1725.6221</ele>
        <time>2019-12-26 10:14:49</time>
      </trkpt>
      <trkpt lat="45.59361" lon="6.68007">
        <ele>1725.7595</ele>
        <time>2019-12-26 10:14:50</time>
      </trkpt>
      <trkpt lat="45.59361" lon="6.68007">
        <ele>1725.98</ele>
        <time>2019-12-26 10:14:52</time>
      </trkpt>
      <trkpt lat="45.59363" lon="6.68005">
        <ele>1726.438</ele>
        <time>2019-12-26 10:14:55</time>
      </trkpt>
      <trkpt lat="45.59375" lon="6.67998">
        <ele>1729.7632</ele>
        <time>2019-12-26 10:15:20</time>
      </trkpt>
      <trkpt lat="45.59376" lon="6.67998">
        <ele>1730.2537</ele>
        <time>2019-12-26 10:15:23</time>
      </trkpt>
      <trkpt lat="45.59376" lon="6.67998">
        <ele>1730.1858</ele>
        <time>2019-12-26 10:15:24</time>
      </trkpt>
      <trkpt lat="45.59377" lon="6.67997">
        <ele>1730.4673</ele>
        <time>2019-12-26 10:15:26</time>
      </trkpt>
      <trkpt lat="45.59384" lon="6.67995">
        <ele>1731.4915</ele>
        <time>2019-12-26 10:15:41</time>
      </trkpt>
      <trkpt lat="45.59384" lon="6.67995">
        <ele>1731.9458</ele>
        <time>2019-12-26 10:15:42</time>
      </trkpt>
      <trkpt lat="45.59384" lon="6.67995">
        <ele>1731.948</ele>
        <time>2019-12-26 10:15:43</time>
      </trkpt>
      <trkpt lat="45.59386" lon="6.67994">
        <ele>1732.3574</ele>
        <time>2019-12-26 10:15:46</time>
      </trkpt>
      <trkpt lat="45.59386" lon="6.67994">
        <ele>1732.6675</ele>
        <time>2019-12-26 10:15:47</time>
      </trkpt>
      <trkpt lat="45.59387" lon="6.67993">
        <ele>1733.2778</ele>
        <time>2019-12-26 10:15:50</time>
      </trkpt>
      <trkpt lat="45.59387" lon="6.67993">
        <ele>1733.2261</ele>
        <time>2019-12-26 10:15:51</time>
      </trkpt>
      <trkpt lat="45.59387" lon="6.67993">
        <ele>1733.2112</ele>
        <time>2019-12-26 10:15:52</time>
      </trkpt>
      <trkpt lat="45.5939" lon="6.67992">
        <ele>1733.3875</ele>
        <time>2019-12-26 10:15:58</time>
      </trkpt>
      <trkpt lat="45.5939" lon="6.67992">
        <ele>1733.1567</ele>
        <time>2019-12-26 10:15:59</time>
      </trkpt>
      <trkpt lat="45.59391" lon="6.67991">
        <ele>1732.5396</ele>
        <time>2019-12-26 10:16:01</time>
      </trkpt>
      <trkpt lat="45.59392" lon="6.67991">
        <ele>1733.2859</ele>
        <time>2019-12-26 10:16:03</time>
      </trkpt>
      <trkpt lat="45.59393" lon="6.67991">
        <ele>1733.5508</ele>
        <time>2019-12-26 10:16:05</time>
      </trkpt>
      <trkpt lat="45.59395" lon="6.6799">
        <ele>1733.7417</ele>
        <time>2019-12-26 10:16:10</time>
      </trkpt>
      <trkpt lat="45.59396" lon="6.67989">
        <ele>1733.7148</ele>
        <time>2019-12-26 10:16:11</time>
      </trkpt>
      <trkpt lat="45.59397" lon="6.67989">
        <ele>1735.4253</ele>
        <time>2019-12-26 10:16:15</time>
      </trkpt>
      <trkpt lat="45.59397" lon="6.67989">
        <ele>1735.5771</ele>
        <time>2019-12-26 10:16:16</time>
      </trkpt>
      <trkpt lat="45.59397" lon="6.67989">
        <ele>1736.3091</ele>
        <time>2019-12-26 10:16:17</time>
      </trkpt>
      <trkpt lat="45.59397" lon="6.67989">
        <ele>1736.0645</ele>
        <time>2019-12-26 10:16:18</time>
      </trkpt>
      <trkpt lat="45.59397" lon="6.6799">
        <ele>1736.8525</ele>
        <time>2019-12-26 10:16:21</time>
      </trkpt>
      <trkpt lat="45.59397" lon="6.67992">
        <ele>1737.5249</ele>
        <time>2019-12-26 10:16:23</time>
      </trkpt>
      <trkpt lat="45.59395" lon="6.68004">
        <ele>1739.9854</ele>
        <time>2019-12-26 10:16:37</time>
      </trkpt>
      <trkpt lat="45.59394" lon="6.68013">
        <ele>1741.0483</ele>
        <time>2019-12-26 10:16:48</time>
      </trkpt>
      <trkpt lat="45.59394" lon="6.68016">
        <ele>1742.155</ele>
        <time>2019-12-26 10:16:53</time>
      </trkpt>
      <trkpt lat="45.59395" lon="6.68021">
        <ele>1742.6299</ele>
        <time>2019-12-26 10:16:59</time>
      </trkpt>
      <trkpt lat="45.59398" lon="6.68023">
        <ele>1743.9937</ele>
        <time>2019-12-26 10:17:04</time>
      </trkpt>
      <trkpt lat="45.59401" lon="6.68022">
        <ele>1744.4207</ele>
        <time>2019-12-26 10:17:12</time>
      </trkpt>
      <trkpt lat="45.59402" lon="6.68022">
        <ele>1744.9775</ele>
        <time>2019-12-26 10:17:20</time>
      </trkpt>
      <trkpt lat="45.59402" lon="6.68022">
        <ele>1744.2856</ele>
        <time>2019-12-26 10:17:21</time>
      </trkpt>
      <trkpt lat="45.59401" lon="6.68023">
        <ele>1744.4111</ele>
        <time>2019-12-26 10:17:23</time>
      </trkpt>
      <trkpt lat="45.59401" lon="6.68023">
        <ele>1744.5525</ele>
        <time>2019-12-26 10:17:24</time>
      </trkpt>
      <trkpt lat="45.59401" lon="6.68023">
        <ele>1744.2837</ele>
        <time>2019-12-26 10:17:27</time>
      </trkpt>
      <trkpt lat="45.59402" lon="6.68023">
        <ele>1744.3547</ele>
        <time>2019-12-26 10:17:29</time>
      </trkpt>
      <trkpt lat="45.59405" lon="6.68023">
        <ele>1744.9814</ele>
        <time>2019-12-26 10:17:35</time>
      </trkpt>
      <trkpt lat="45.59408" lon="6.68021">
        <ele>1744.8472</ele>
        <time>2019-12-26 10:17:39</time>
      </trkpt>
      <trkpt lat="45.5941" lon="6.68019">
        <ele>1745.0144</ele>
        <time>2019-12-26 10:17:43</time>
      </trkpt>
      <trkpt lat="45.59417" lon="6.68016">
        <ele>1747.0879</ele>
        <time>2019-12-26 10:17:56</time>
      </trkpt>
      <trkpt lat="45.59418" lon="6.68016">
        <ele>1747.4155</ele>
        <time>2019-12-26 10:17:57</time>
      </trkpt>
      <trkpt lat="45.5942" lon="6.68014">
        <ele>1748.6304</ele>
        <time>2019-12-26 10:18:01</time>
      </trkpt>
      <trkpt lat="45.59424" lon="6.68011">
        <ele>1748.9067</ele>
        <time>2019-12-26 10:18:08</time>
      </trkpt>
      <trkpt lat="45.59427" lon="6.6801">
        <ele>1749.8047</ele>
        <time>2019-12-26 10:18:15</time>
      </trkpt>
      <trkpt lat="45.59428" lon="6.68009">
        <ele>1750.1072</ele>
        <time>2019-12-26 10:18:16</time>
      </trkpt>
      <trkpt lat="45.5943" lon="6.6801">
        <ele>1750.8032</ele>
        <time>2019-12-26 10:18:21</time>
      </trkpt>
      <trkpt lat="45.59431" lon="6.68013">
        <ele>1751.2192</ele>
        <time>2019-12-26 10:18:25</time>
      </trkpt>
      <trkpt lat="45.59432" lon="6.68014">
        <ele>1751.667</ele>
        <time>2019-12-26 10:18:27</time>
      </trkpt>
      <trkpt lat="45.59436" lon="6.6802">
        <ele>1752.8511</ele>
        <time>2019-12-26 10:18:37</time>
      </trkpt>
      <trkpt lat="45.59438" lon="6.6802">
        <ele>1754.9478</ele>
        <time>2019-12-26 10:18:40</time>
      </trkpt>
      <trkpt lat="45.59443" lon="6.68017">
        <ele>1755.0098</ele>
        <time>2019-12-26 10:18:48</time>
      </trkpt>
      <trkpt lat="45.59446" lon="6.68016">
        <ele>1754.7803</ele>
        <time>2019-12-26 10:18:51</time>
      </trkpt>
      <trkpt lat="45.59449" lon="6.68016">
        <ele>1755.4624</ele>
        <time>2019-12-26 10:18:55</time>
      </trkpt>
      <trkpt lat="45.59455" lon="6.68017">
        <ele>1755.081</ele>
        <time>2019-12-26 10:19:03</time>
      </trkpt>
      <trkpt lat="45.59457" lon="6.68018">
        <ele>1754.25</ele>
        <time>2019-12-26 10:19:06</time>
      </trkpt>
      <trkpt lat="45.59459" lon="6.68019">
        <ele>1754.2837</ele>
        <time>2019-12-26 10:19:10</time>
      </trkpt>
      <trkpt lat="45.59461" lon="6.68021">
        <ele>1753.9634</ele>
        <time>2019-12-26 10:19:14</time>
      </trkpt>
      <trkpt lat="45.59465" lon="6.68024">
        <ele>1753.0149</ele>
        <time>2019-12-26 10:19:21</time>
      </trkpt>
      <trkpt lat="45.59467" lon="6.68025">
        <ele>1753.0557</ele>
        <time>2019-12-26 10:19:23</time>
      </trkpt>
      <trkpt lat="45.59468" lon="6.68025">
        <ele>1753.9072</ele>
        <time>2019-12-26 10:19:24</time>
      </trkpt>
      <trkpt lat="45.59469" lon="6.68025">
        <ele>1753.2163</ele>
        <time>2019-12-26 10:19:25</time>
      </trkpt>
      <trkpt lat="45.59471" lon="6.68025">
        <ele>1753.7739</ele>
        <time>2019-12-26 10:19:28</time>
      </trkpt>
      <trkpt lat="45.59473" lon="6.68026">
        <ele>1754.5581</ele>
        <time>2019-12-26 10:19:31</time>
      </trkpt>
      <trkpt lat="45.59475" lon="6.68026">
        <ele>1754.8567</ele>
        <time>2019-12-26 10:19:35</time>
      </trkpt>
      <trkpt lat="45.59477" lon="6.68026">
        <ele>1754.5588</ele>
        <time>2019-12-26 10:19:38</time>
      </trkpt>
      <trkpt lat="45.59481" lon="6.68027">
        <ele>1757.6489</ele>
        <time>2019-12-26 10:19:46</time>
      </trkpt>
      <trkpt lat="45.59482" lon="6.68027">
        <ele>1757.1143</ele>
        <time>2019-12-26 10:19:47</time>
      </trkpt>
      <trkpt lat="45.59482" lon="6.68027">
        <ele>1758.1982</ele>
        <time>2019-12-26 10:19:49</time>
      </trkpt>
      <trkpt lat="45.59485" lon="6.68028">
        <ele>1758.8411</ele>
        <time>2019-12-26 10:19:54</time>
      </trkpt>
      <trkpt lat="45.59489" lon="6.68028">
        <ele>1759.0256</ele>
        <time>2019-12-26 10:20:01</time>
      </trkpt>
      <trkpt lat="45.59494" lon="6.68029">
        <ele>1760.5085</ele>
        <time>2019-12-26 10:20:12</time>
      </trkpt>
      <trkpt lat="45.59495" lon="6.68029">
        <ele>1759.9141</ele>
        <time>2019-12-26 10:20:13</time>
      </trkpt>
      <trkpt lat="45.59507" lon="6.68032">
        <ele>1761.8809</ele>
        <time>2019-12-26 10:20:35</time>
      </trkpt>
      <trkpt lat="45.59508" lon="6.68032">
        <ele>1762.2974</ele>
        <time>2019-12-26 10:20:38</time>
      </trkpt>
      <trkpt lat="45.59509" lon="6.68032">
        <ele>1762.4685</ele>
        <time>2019-12-26 10:20:40</time>
      </trkpt>
      <trkpt lat="45.59511" lon="6.68031">
        <ele>1761.5332</ele>
        <time>2019-12-26 10:20:43</time>
      </trkpt>
      <trkpt lat="45.59516" lon="6.68028">
        <ele>1760.1633</ele>
        <time>2019-12-26 10:20:52</time>
      </trkpt>
      <trkpt lat="45.59516" lon="6.68027">
        <ele>1759.7314</ele>
        <time>2019-12-26 10:20:53</time>
      </trkpt>
      <trkpt lat="45.59518" lon="6.68026">
        <ele>1763.6614</ele>
        <time>2019-12-26 10:20:58</time>
      </trkpt>
      <trkpt lat="45.59518" lon="6.68026">
        <ele>1764.189</ele>
        <time>2019-12-26 10:20:59</time>
      </trkpt>
      <trkpt lat="45.59519" lon="6.68026">
        <ele>1765.2021</ele>
        <time>2019-12-26 10:21:01</time>
      </trkpt>
      <trkpt lat="45.59522" lon="6.68023">
        <ele>1765.677</ele>
        <time>2019-12-26 10:21:07</time>
      </trkpt>
      <trkpt lat="45.59523" lon="6.68022">
        <ele>1764.6152</ele>
        <time>2019-12-26 10:21:08</time>
      </trkpt>
      <trkpt lat="45.59523" lon="6.68022">
        <ele>1764.3828</ele>
        <time>2019-12-26 10:21:09</time>
      </trkpt>
      <trkpt lat="45.59525" lon="6.6802">
        <ele>1764.6367</ele>
        <time>2019-12-26 10:21:12</time>
      </trkpt>
      <trkpt lat="45.59525" lon="6.6802">
        <ele>1764.9944</ele>
        <time>2019-12-26 10:21:13</time>
      </trkpt>
      <trkpt lat="45.59525" lon="6.68019">
        <ele>1765.3501</ele>
        <time>2019-12-26 10:21:14</time>
      </trkpt>
      <trkpt lat="45.59527" lon="6.68019">
        <ele>1765.7437</ele>
        <time>2019-12-26 10:21:17</time>
      </trkpt>
      <trkpt lat="45.59528" lon="6.68019">
        <ele>1766.2178</ele>
        <time>2019-12-26 10:21:19</time>
      </trkpt>
      <trkpt lat="45.59535" lon="6.68017">
        <ele>1768.1489</ele>
        <time>2019-12-26 10:21:36</time>
      </trkpt>
      <trkpt lat="45.59537" lon="6.68017">
        <ele>1770.7661</ele>
        <time>2019-12-26 10:21:42</time>
      </trkpt>
      <trkpt lat="45.59545" lon="6.68019">
        <ele>1772.7046</ele>
        <time>2019-12-26 10:21:57</time>
      </trkpt>
      <trkpt lat="45.59552" lon="6.68017">
        <ele>1774.0559</ele>
        <time>2019-12-26 10:22:10</time>
      </trkpt>
      <trkpt lat="45.59554" lon="6.68017">
        <ele>1774.6812</ele>
        <time>2019-12-26 10:22:13</time>
      </trkpt>
      <trkpt lat="45.59556" lon="6.68016">
        <ele>1775.4443</ele>
        <time>2019-12-26 10:22:18</time>
      </trkpt>
      <trkpt lat="45.59556" lon="6.68016">
        <ele>1775.8091</ele>
        <time>2019-12-26 10:22:19</time>
      </trkpt>
      <trkpt lat="45.59558" lon="6.68016">
        <ele>1775.7969</ele>
        <time>2019-12-26 10:22:21</time>
      </trkpt>
      <trkpt lat="45.59564" lon="6.68015">
        <ele>1775.5271</ele>
        <time>2019-12-26 10:22:32</time>
      </trkpt>
      <trkpt lat="45.59567" lon="6.68019">
        <ele>1776.937</ele>
        <time>2019-12-26 10:22:42</time>
      </trkpt>
      <trkpt lat="45.5957" lon="6.68017">
        <ele>1774.9185</ele>
        <time>2019-12-26 10:22:47</time>
      </trkpt>
      <trkpt lat="45.59571" lon="6.68018">
        <ele>1775.1377</ele>
        <time>2019-12-26 10:22:48</time>
      </trkpt>
      <trkpt lat="45.59571" lon="6.68021">
        <ele>1776.7573</ele>
        <time>2019-12-26 10:22:53</time>
      </trkpt>
      <trkpt lat="45.5957" lon="6.68022">
        <ele>1776.5581</ele>
        <time>2019-12-26 10:22:54</time>
      </trkpt>
      <trkpt lat="45.59569" lon="6.68023">
        <ele>1777.1143</ele>
        <time>2019-12-26 10:22:56</time>
      </trkpt>
      <trkpt lat="45.59568" lon="6.68026">
        <ele>1778.0942</ele>
        <time>2019-12-26 10:23:00</time>
      </trkpt>
      <trkpt lat="45.59565" lon="6.68032">
        <ele>1779.7405</ele>
        <time>2019-12-26 10:23:08</time>
      </trkpt>
      <trkpt lat="45.59561" lon="6.68039">
        <ele>1781.2876</ele>
        <time>2019-12-26 10:23:18</time>
      </trkpt>
      <trkpt lat="45.59557" lon="6.68043">
        <ele>1782.5977</ele>
        <time>2019-12-26 10:23:26</time>
      </trkpt>
      <trkpt lat="45.59556" lon="6.68048">
        <ele>1783.8916</ele>
        <time>2019-12-26 10:23:30</time>
      </trkpt>
      <trkpt lat="45.59559" lon="6.68054">
        <ele>1784.998</ele>
        <time>2019-12-26 10:23:38</time>
      </trkpt>
      <trkpt lat="45.59562" lon="6.68056">
        <ele>1786.1577</ele>
        <time>2019-12-26 10:23:43</time>
      </trkpt>
      <trkpt lat="45.59565" lon="6.68056">
        <ele>1786.7397</ele>
        <time>2019-12-26 10:23:48</time>
      </trkpt>
      <trkpt lat="45.59568" lon="6.68055">
        <ele>1787.7393</ele>
        <time>2019-12-26 10:23:54</time>
      </trkpt>
      <trkpt lat="45.59571" lon="6.68054">
        <ele>1789.2466</ele>
        <time>2019-12-26 10:24:03</time>
      </trkpt>
      <trkpt lat="45.59571" lon="6.68054">
        <ele>1789.1162</ele>
        <time>2019-12-26 10:24:22</time>
      </trkpt>
      <trkpt lat="45.59572" lon="6.68054">
        <ele>1788.3723</ele>
        <time>2019-12-26 10:24:25</time>
      </trkpt>
      <trkpt lat="45.59573" lon="6.68053">
        <ele>1787.7607</ele>
        <time>2019-12-26 10:24:29</time>
      </trkpt>
      <trkpt lat="45.59577" lon="6.68055">
        <ele>1788.1719</ele>
        <time>2019-12-26 10:24:35</time>
      </trkpt>
      <trkpt lat="45.59579" lon="6.68056">
        <ele>1788.6165</ele>
        <time>2019-12-26 10:24:39</time>
      </trkpt>
      <trkpt lat="45.59581" lon="6.68058">
        <ele>1789.7407</ele>
        <time>2019-12-26 10:24:44</time>
      </trkpt>
      <trkpt lat="45.59581" lon="6.68058">
        <ele>1790.5586</ele>
        <time>2019-12-26 10:24:47</time>
      </trkpt>
      <trkpt lat="45.59598" lon="6.68068">
        <ele>1794.3486</ele>
        <time>2019-12-26 10:25:12</time>
      </trkpt>
      <trkpt lat="45.59601" lon="6.68069">
        <ele>1795.7769</ele>
        <time>2019-12-26 10:25:18</time>
      </trkpt>
      <trkpt lat="45.59605" lon="6.68068">
        <ele>1795.7388</ele>
        <time>2019-12-26 10:25:25</time>
      </trkpt>
      <trkpt lat="45.59606" lon="6.68068">
        <ele>1795.8447</ele>
        <time>2019-12-26 10:25:28</time>
      </trkpt>
      <trkpt lat="45.59607" lon="6.68068">
        <ele>1795.971</ele>
        <time>2019-12-26 10:25:30</time>
      </trkpt>
      <trkpt lat="45.59616" lon="6.68065">
        <ele>1797.0576</ele>
        <time>2019-12-26 10:25:46</time>
      </trkpt>
      <trkpt lat="45.59618" lon="6.68065">
        <ele>1797.4397</ele>
        <time>2019-12-26 10:25:50</time>
      </trkpt>
      <trkpt lat="45.59618" lon="6.68066">
        <ele>1797.6592</ele>
        <time>2019-12-26 10:25:52</time>
      </trkpt>
      <trkpt lat="45.59619" lon="6.68069">
        <ele>1798.1968</ele>
        <time>2019-12-26 10:25:56</time>
      </trkpt>
      <trkpt lat="45.59619" lon="6.6807">
        <ele>1798.3389</ele>
        <time>2019-12-26 10:25:57</time>
      </trkpt>
      <trkpt lat="45.5962" lon="6.68072">
        <ele>1799.7856</ele>
        <time>2019-12-26 10:26:01</time>
      </trkpt>
      <trkpt lat="45.5962" lon="6.68072">
        <ele>1799.773</ele>
        <time>2019-12-26 10:26:02</time>
      </trkpt>
      <trkpt lat="45.5962" lon="6.68073">
        <ele>1800.2441</ele>
        <time>2019-12-26 10:26:03</time>
      </trkpt>
      <trkpt lat="45.5962" lon="6.68077">
        <ele>1801.4536</ele>
        <time>2019-12-26 10:26:08</time>
      </trkpt>
      <trkpt lat="45.5962" lon="6.68078">
        <ele>1802.0381</ele>
        <time>2019-12-26 10:26:09</time>
      </trkpt>
      <trkpt lat="45.59624" lon="6.68085">
        <ele>1804.1023</ele>
        <time>2019-12-26 10:26:20</time>
      </trkpt>
      <trkpt lat="45.59624" lon="6.68085">
        <ele>1804.3643</ele>
        <time>2019-12-26 10:26:21</time>
      </trkpt>
      <trkpt lat="45.59625" lon="6.68086">
        <ele>1804.3594</ele>
        <time>2019-12-26 10:26:23</time>
      </trkpt>
      <trkpt lat="45.59627" lon="6.68092">
        <ele>1807.1948</ele>
        <time>2019-12-26 10:26:34</time>
      </trkpt>
      <trkpt lat="45.59629" lon="6.68097">
        <ele>1809.1108</ele>
        <time>2019-12-26 10:26:42</time>
      </trkpt>
      <trkpt lat="45.5963" lon="6.68099">
        <ele>1808.968</ele>
        <time>2019-12-26 10:26:48</time>
      </trkpt>
      <trkpt lat="45.59633" lon="6.68099">
        <ele>1808.8196</ele>
        <time>2019-12-26 10:26:52</time>
      </trkpt>
      <trkpt lat="45.59636" lon="6.68098">
        <ele>1810.2368</ele>
        <time>2019-12-26 10:26:58</time>
      </trkpt>
      <trkpt lat="45.5964" lon="6.68097">
        <ele>1810.5457</ele>
        <time>2019-12-26 10:27:04</time>
      </trkpt>
      <trkpt lat="45.59644" lon="6.68097">
        <ele>1810.5972</ele>
        <time>2019-12-26 10:27:09</time>
      </trkpt>
      <trkpt lat="45.59645" lon="6.68097">
        <ele>1810.2661</ele>
        <time>2019-12-26 10:27:12</time>
      </trkpt>
      <trkpt lat="45.59646" lon="6.68097">
        <ele>1810.5562</ele>
        <time>2019-12-26 10:27:14</time>
      </trkpt>
      <trkpt lat="45.59647" lon="6.68097">
        <ele>1810.6841</ele>
        <time>2019-12-26 10:27:15</time>
      </trkpt>
      <trkpt lat="45.5965" lon="6.68098">
        <ele>1811.625</ele>
        <time>2019-12-26 10:27:20</time>
      </trkpt>
      <trkpt lat="45.5965" lon="6.68098">
        <ele>1811.9753</ele>
        <time>2019-12-26 10:27:21</time>
      </trkpt>
      <trkpt lat="45.59652" lon="6.68099">
        <ele>1812.2886</ele>
        <time>2019-12-26 10:27:26</time>
      </trkpt>
      <trkpt lat="45.59654" lon="6.68099">
        <ele>1813.0532</ele>
        <time>2019-12-26 10:27:30</time>
      </trkpt>
      <trkpt lat="45.59655" lon="6.68105">
        <ele>1814.6658</ele>
        <time>2019-12-26 10:27:37</time>
      </trkpt>
      <trkpt lat="45.59656" lon="6.68113">
        <ele>1816.2803</ele>
        <time>2019-12-26 10:27:48</time>
      </trkpt>
      <trkpt lat="45.59658" lon="6.68116">
        <ele>1816.4924</ele>
        <time>2019-12-26 10:27:54</time>
      </trkpt>
      <trkpt lat="45.59662" lon="6.68118">
        <ele>1817.322</ele>
        <time>2019-12-26 10:28:01</time>
      </trkpt>
      <trkpt lat="45.59667" lon="6.68117">
        <ele>1815.8296</ele>
        <time>2019-12-26 10:28:08</time>
      </trkpt>
      <trkpt lat="45.59673" lon="6.68114">
        <ele>1817.4595</ele>
        <time>2019-12-26 10:28:18</time>
      </trkpt>
      <trkpt lat="45.59675" lon="6.68113">
        <ele>1818.7163</ele>
        <time>2019-12-26 10:28:23</time>
      </trkpt>
      <trkpt lat="45.59678" lon="6.68112">
        <ele>1819.1199</ele>
        <time>2019-12-26 10:28:27</time>
      </trkpt>
      <trkpt lat="45.59684" lon="6.68112">
        <ele>1820.0493</ele>
        <time>2019-12-26 10:28:35</time>
      </trkpt>
      <trkpt lat="45.5969" lon="6.68113">
        <ele>1821.27</ele>
        <time>2019-12-26 10:28:44</time>
      </trkpt>
      <trkpt lat="45.59692" lon="6.68113">
        <ele>1821.9746</ele>
        <time>2019-12-26 10:28:49</time>
      </trkpt>
      <trkpt lat="45.59695" lon="6.68114">
        <ele>1822.835</ele>
        <time>2019-12-26 10:28:56</time>
      </trkpt>
      <trkpt lat="45.59697" lon="6.68113">
        <ele>1822.3833</ele>
        <time>2019-12-26 10:28:59</time>
      </trkpt>
      <trkpt lat="45.59707" lon="6.68113">
        <ele>1822.8911</ele>
        <time>2019-12-26 10:29:14</time>
      </trkpt>
      <trkpt lat="45.59707" lon="6.68117">
        <ele>1824.6309</ele>
        <time>2019-12-26 10:29:20</time>
      </trkpt>
      <trkpt lat="45.59707" lon="6.68122">
        <ele>1826.0776</ele>
        <time>2019-12-26 10:29:26</time>
      </trkpt>
      <trkpt lat="45.59707" lon="6.68123">
        <ele>1826.2847</ele>
        <time>2019-12-26 10:29:27</time>
      </trkpt>
      <trkpt lat="45.59708" lon="6.68123">
        <ele>1826.3892</ele>
        <time>2019-12-26 10:29:28</time>
      </trkpt>
      <trkpt lat="45.5971" lon="6.68123">
        <ele>1827.4502</ele>
        <time>2019-12-26 10:29:31</time>
      </trkpt>
      <trkpt lat="45.59713" lon="6.6812">
        <ele>1827.5112</ele>
        <time>2019-12-26 10:29:36</time>
      </trkpt>
      <trkpt lat="45.59714" lon="6.6812">
        <ele>1827.4343</ele>
        <time>2019-12-26 10:29:38</time>
      </trkpt>
      <trkpt lat="45.59715" lon="6.68118">
        <ele>1826.8159</ele>
        <time>2019-12-26 10:29:41</time>
      </trkpt>
      <trkpt lat="45.59721" lon="6.68116">
        <ele>1825.5176</ele>
        <time>2019-12-26 10:29:48</time>
      </trkpt>
      <trkpt lat="45.59727" lon="6.68115">
        <ele>1825.4375</ele>
        <time>2019-12-26 10:29:56</time>
      </trkpt>
      <trkpt lat="45.5973" lon="6.68116">
        <ele>1824.5371</ele>
        <time>2019-12-26 10:30:00</time>
      </trkpt>
      <trkpt lat="45.59732" lon="6.68117">
        <ele>1824.519</ele>
        <time>2019-12-26 10:30:03</time>
      </trkpt>
      <trkpt lat="45.59735" lon="6.68118">
        <ele>1824.6489</ele>
        <time>2019-12-26 10:30:06</time>
      </trkpt>
      <trkpt lat="45.59738" lon="6.68121">
        <ele>1824.4268</ele>
        <time>2019-12-26 10:30:09</time>
      </trkpt>
      <trkpt lat="45.59741" lon="6.68123">
        <ele>1824.2576</ele>
        <time>2019-12-26 10:30:13</time>
      </trkpt>
      <trkpt lat="45.59744" lon="6.68127">
        <ele>1826.6216</ele>
        <time>2019-12-26 10:30:20</time>
      </trkpt>
      <trkpt lat="45.59748" lon="6.68126">
        <ele>1826.2563</ele>
        <time>2019-12-26 10:30:25</time>
      </trkpt>
      <trkpt lat="45.5975" lon="6.68126">
        <ele>1826.5532</ele>
        <time>2019-12-26 10:30:29</time>
      </trkpt>
      <trkpt lat="45.59753" lon="6.68126">
        <ele>1827.5212</ele>
        <time>2019-12-26 10:30:33</time>
      </trkpt>
      <trkpt lat="45.59756" lon="6.68126">
        <ele>1828.06</ele>
        <time>2019-12-26 10:30:37</time>
      </trkpt>
      <trkpt lat="45.59762" lon="6.68126">
        <ele>1828.3328</ele>
        <time>2019-12-26 10:30:48</time>
      </trkpt>
      <trkpt lat="45.59768" lon="6.68126">
        <ele>1829.1218</ele>
        <time>2019-12-26 10:31:06</time>
      </trkpt>
      <trkpt lat="45.59772" lon="6.68128">
        <ele>1829.8076</ele>
        <time>2019-12-26 10:31:16</time>
      </trkpt>
      <trkpt lat="45.59772" lon="6.68128">
        <ele>1830.5981</ele>
        <time>2019-12-26 10:31:17</time>
      </trkpt>
      <trkpt lat="45.59773" lon="6.68131">
        <ele>1832.4624</ele>
        <time>2019-12-26 10:31:22</time>
      </trkpt>
      <trkpt lat="45.59774" lon="6.68134">
        <ele>1834.1431</ele>
        <time>2019-12-26 10:31:30</time>
      </trkpt>
      <trkpt lat="45.59774" lon="6.68136">
        <ele>1834.436</ele>
        <time>2019-12-26 10:31:33</time>
      </trkpt>
      <trkpt lat="45.59776" lon="6.68137">
        <ele>1835.7217</ele>
        <time>2019-12-26 10:31:39</time>
      </trkpt>
      <trkpt lat="45.59777" lon="6.68137">
        <ele>1836.29</ele>
        <time>2019-12-26 10:31:40</time>
      </trkpt>
      <trkpt lat="45.59778" lon="6.68137">
        <ele>1836.3916</ele>
        <time>2019-12-26 10:31:42</time>
      </trkpt>
      <trkpt lat="45.59779" lon="6.68136">
        <ele>1836.2842</ele>
        <time>2019-12-26 10:31:43</time>
      </trkpt>
      <trkpt lat="45.5978" lon="6.68137">
        <ele>1836.7456</ele>
        <time>2019-12-26 10:31:45</time>
      </trkpt>
      <trkpt lat="45.59781" lon="6.68136">
        <ele>1836.6636</ele>
        <time>2019-12-26 10:31:48</time>
      </trkpt>
      <trkpt lat="45.59789" lon="6.68139">
        <ele>1837.3804</ele>
        <time>2019-12-26 10:32:01</time>
      </trkpt>
      <trkpt lat="45.5979" lon="6.68141">
        <ele>1837.5044</ele>
        <time>2019-12-26 10:32:04</time>
      </trkpt>
      <trkpt lat="45.59795" lon="6.68148">
        <ele>1840.4429</ele>
        <time>2019-12-26 10:32:16</time>
      </trkpt>
      <trkpt lat="45.59797" lon="6.68152">
        <ele>1841.5315</ele>
        <time>2019-12-26 10:32:21</time>
      </trkpt>
      <trkpt lat="45.59806" lon="6.68164">
        <ele>1844.5247</ele>
        <time>2019-12-26 10:32:45</time>
      </trkpt>
      <trkpt lat="45.59808" lon="6.68167">
        <ele>1845.8291</ele>
        <time>2019-12-26 10:32:51</time>
      </trkpt>
      <trkpt lat="45.59813" lon="6.68174">
        <ele>1846.9951</ele>
        <time>2019-12-26 10:33:02</time>
      </trkpt>
      <trkpt lat="45.59813" lon="6.68176">
        <ele>1847.187</ele>
        <time>2019-12-26 10:33:05</time>
      </trkpt>
      <trkpt lat="45.59813" lon="6.68176">
        <ele>1847.1401</ele>
        <time>2019-12-26 10:33:06</time>
      </trkpt>
      <trkpt lat="45.59813" lon="6.68178">
        <ele>1847.9219</ele>
        <time>2019-12-26 10:33:09</time>
      </trkpt>
      <trkpt lat="45.59822" lon="6.68188">
        <ele>1850.1621</ele>
        <time>2019-12-26 10:33:27</time>
      </trkpt>
      <trkpt lat="45.59823" lon="6.68188">
        <ele>1850.1567</ele>
        <time>2019-12-26 10:33:29</time>
      </trkpt>
      <trkpt lat="45.59826" lon="6.68191">
        <ele>1851.1118</ele>
        <time>2019-12-26 10:33:35</time>
      </trkpt>
      <trkpt lat="45.59826" lon="6.68194">
        <ele>1851.7627</ele>
        <time>2019-12-26 10:33:39</time>
      </trkpt>
      <trkpt lat="45.59826" lon="6.68198">
        <ele>1852.1941</ele>
        <time>2019-12-26 10:33:46</time>
      </trkpt>
      <trkpt lat="45.59826" lon="6.68199">
        <ele>1852.7617</ele>
        <time>2019-12-26 10:33:47</time>
      </trkpt>
      <trkpt lat="45.59826" lon="6.682">
        <ele>1852.6045</ele>
        <time>2019-12-26 10:33:48</time>
      </trkpt>
      <trkpt lat="45.59826" lon="6.682">
        <ele>1852.6133</ele>
        <time>2019-12-26 10:33:49</time>
      </trkpt>
      <trkpt lat="45.59826" lon="6.682">
        <ele>1852.6929</ele>
        <time>2019-12-26 10:33:50</time>
      </trkpt>
      <trkpt lat="45.59826" lon="6.68201">
        <ele>1852.8481</ele>
        <time>2019-12-26 10:33:51</time>
      </trkpt>
      <trkpt lat="45.59828" lon="6.68205">
        <ele>1853.459</ele>
        <time>2019-12-26 10:33:59</time>
      </trkpt>
      <trkpt lat="45.59829" lon="6.68206">
        <ele>1852.477</ele>
        <time>2019-12-26 10:34:31</time>
      </trkpt>
      <trkpt lat="45.59829" lon="6.68206">
        <ele>1852.5176</ele>
        <time>2019-12-26 10:35:19</time>
      </trkpt>
      <trkpt lat="45.59829" lon="6.68206">
        <ele>1852.3931</ele>
        <time>2019-12-26 10:36:01</time>
      </trkpt>
      <trkpt lat="45.59829" lon="6.68206">
        <ele>1852.4312</ele>
        <time>2019-12-26 10:36:40</time>
      </trkpt>
      <trkpt lat="45.59829" lon="6.68206">
        <ele>1852.4419</ele>
        <time>2019-12-26 10:37:10</time>
      </trkpt>
      <trkpt lat="45.59829" lon="6.68206">
        <ele>1852.4783</ele>
        <time>2019-12-26 10:37:40</time>
      </trkpt>
      <trkpt lat="45.59829" lon="6.68206">
        <ele>1852.5249</ele>
        <time>2019-12-26 10:38:10</time>
      </trkpt>
      <trkpt lat="45.59829" lon="6.68206">
        <ele>1852.5798</ele>
        <time>2019-12-26 10:38:40</time>
      </trkpt>
      <trkpt lat="45.59829" lon="6.68206">
        <ele>1852.585</ele>
        <time>2019-12-26 10:39:10</time>
      </trkpt>
      <trkpt lat="45.59828" lon="6.68206">
        <ele>1852.8601</ele>
        <time>2019-12-26 10:39:41</time>
      </trkpt>
      <trkpt lat="45.59829" lon="6.68205">
        <ele>1853.221</ele>
        <time>2019-12-26 10:40:27</time>
      </trkpt>
      <trkpt lat="45.59829" lon="6.68205">
        <ele>1853.5024</ele>
        <time>2019-12-26 10:40:45</time>
      </trkpt>
      <trkpt lat="45.59828" lon="6.68205">
        <ele>1853.4585</ele>
        <time>2019-12-26 10:40:46</time>
      </trkpt>
      <trkpt lat="45.59831" lon="6.682">
        <ele>1849.2017</ele>
        <time>2019-12-26 10:41:22</time>
      </trkpt>
      <trkpt lat="45.59832" lon="6.682">
        <ele>1849.3765</ele>
        <time>2019-12-26 10:41:37</time>
      </trkpt>
      <trkpt lat="45.59832" lon="6.68199">
        <ele>1849.3691</ele>
        <time>2019-12-26 10:41:38</time>
      </trkpt>
      <trkpt lat="45.59832" lon="6.68199">
        <ele>1849.8135</ele>
        <time>2019-12-26 10:41:39</time>
      </trkpt>
      <trkpt lat="45.59832" lon="6.682">
        <ele>1849.7539</ele>
        <time>2019-12-26 10:41:40</time>
      </trkpt>
      <trkpt lat="45.59832" lon="6.682">
        <ele>1851.8022</ele>
        <time>2019-12-26 10:41:47</time>
      </trkpt>
      <trkpt lat="45.59833" lon="6.682">
        <ele>1852.1528</ele>
        <time>2019-12-26 10:41:48</time>
      </trkpt>
      <trkpt lat="45.59833" lon="6.682">
        <ele>1852.0015</ele>
        <time>2019-12-26 10:41:49</time>
      </trkpt>
      <trkpt lat="45.59835" lon="6.68197">
        <ele>1852.0977</ele>
        <time>2019-12-26 10:41:52</time>
      </trkpt>
      <trkpt lat="45.59836" lon="6.68197">
        <ele>1853.1558</ele>
        <time>2019-12-26 10:41:53</time>
      </trkpt>
      <trkpt lat="45.59836" lon="6.68196">
        <ele>1853.3391</ele>
        <time>2019-12-26 10:41:54</time>
      </trkpt>
      <trkpt lat="45.59836" lon="6.68196">
        <ele>1853.9644</ele>
        <time>2019-12-26 10:41:55</time>
      </trkpt>
      <trkpt lat="45.59836" lon="6.68196">
        <ele>1854.0752</ele>
        <time>2019-12-26 10:41:56</time>
      </trkpt>
      <trkpt lat="45.59837" lon="6.68196">
        <ele>1854.7134</ele>
        <time>2019-12-26 10:41:59</time>
      </trkpt>
      <trkpt lat="45.59837" lon="6.68196">
        <ele>1854.8989</ele>
        <time>2019-12-26 10:42:00</time>
      </trkpt>
      <trkpt lat="45.59838" lon="6.68196">
        <ele>1855.4053</ele>
        <time>2019-12-26 10:42:01</time>
      </trkpt>
      <trkpt lat="45.59838" lon="6.68196">
        <ele>1855.1418</ele>
        <time>2019-12-26 10:42:02</time>
      </trkpt>
      <trkpt lat="45.59839" lon="6.68195">
        <ele>1855.8281</ele>
        <time>2019-12-26 10:42:03</time>
      </trkpt>
      <trkpt lat="45.59839" lon="6.68195">
        <ele>1856.0889</ele>
        <time>2019-12-26 10:42:04</time>
      </trkpt>
      <trkpt lat="45.59839" lon="6.68194">
        <ele>1856.022</ele>
        <time>2019-12-26 10:42:05</time>
      </trkpt>
      <trkpt lat="45.5984" lon="6.68193">
        <ele>1856.1074</ele>
        <time>2019-12-26 10:42:06</time>
      </trkpt>
      <trkpt lat="45.5984" lon="6.68191">
        <ele>1856.4331</ele>
        <time>2019-12-26 10:42:09</time>
      </trkpt>
      <trkpt lat="45.59841" lon="6.68191">
        <ele>1856.3396</ele>
        <time>2019-12-26 10:42:10</time>
      </trkpt>
      <trkpt lat="45.59841" lon="6.6819">
        <ele>1856.3618</ele>
        <time>2019-12-26 10:42:11</time>
      </trkpt>
      <trkpt lat="45.59842" lon="6.68188">
        <ele>1856.1208</ele>
        <time>2019-12-26 10:42:13</time>
      </trkpt>
      <trkpt lat="45.59843" lon="6.68188">
        <ele>1856.1094</ele>
        <time>2019-12-26 10:42:14</time>
      </trkpt>
      <trkpt lat="45.59843" lon="6.68187">
        <ele>1855.7141</ele>
        <time>2019-12-26 10:42:15</time>
      </trkpt>
      <trkpt lat="45.59844" lon="6.68186">
        <ele>1856.1401</ele>
        <time>2019-12-26 10:42:16</time>
      </trkpt>
      <trkpt lat="45.59844" lon="6.68185">
        <ele>1856.53</ele>
        <time>2019-12-26 10:42:17</time>
      </trkpt>
      <trkpt lat="45.59845" lon="6.68184">
        <ele>1856.4893</ele>
        <time>2019-12-26 10:42:18</time>
      </trkpt>
      <trkpt lat="45.59845" lon="6.68183">
        <ele>1856.9192</ele>
        <time>2019-12-26 10:42:19</time>
      </trkpt>
      <trkpt lat="45.59848" lon="6.68178">
        <ele>1854.6519</ele>
        <time>2019-12-26 10:42:26</time>
      </trkpt>
      <trkpt lat="45.59848" lon="6.68176">
        <ele>1853.9878</ele>
        <time>2019-12-26 10:42:27</time>
      </trkpt>
      <trkpt lat="45.59852" lon="6.68171">
        <ele>1852.6245</ele>
        <time>2019-12-26 10:42:33</time>
      </trkpt>
      <trkpt lat="45.59853" lon="6.6817">
        <ele>1853.0498</ele>
        <time>2019-12-26 10:42:36</time>
      </trkpt>
      <trkpt lat="45.59854" lon="6.6817">
        <ele>1853.7507</ele>
        <time>2019-12-26 10:42:37</time>
      </trkpt>
      <trkpt lat="45.59855" lon="6.6817">
        <ele>1854.5586</ele>
        <time>2019-12-26 10:42:38</time>
      </trkpt>
      <trkpt lat="45.59858" lon="6.6817">
        <ele>1855.7803</ele>
        <time>2019-12-26 10:42:42</time>
      </trkpt>
      <trkpt lat="45.59859" lon="6.6817">
        <ele>1855.6348</ele>
        <time>2019-12-26 10:42:43</time>
      </trkpt>
      <trkpt lat="45.59859" lon="6.6817">
        <ele>1855.8367</ele>
        <time>2019-12-26 10:42:44</time>
      </trkpt>
      <trkpt lat="45.59861" lon="6.68171">
        <ele>1855.3672</ele>
        <time>2019-12-26 10:42:47</time>
      </trkpt>
      <trkpt lat="45.59862" lon="6.68171">
        <ele>1855.7739</ele>
        <time>2019-12-26 10:42:48</time>
      </trkpt>
      <trkpt lat="45.59863" lon="6.68172">
        <ele>1855.9673</ele>
        <time>2019-12-26 10:42:49</time>
      </trkpt>
      <trkpt lat="45.59864" lon="6.68172">
        <ele>1856.0928</ele>
        <time>2019-12-26 10:42:52</time>
      </trkpt>
      <trkpt lat="45.59865" lon="6.68173">
        <ele>1855.5681</ele>
        <time>2019-12-26 10:42:56</time>
      </trkpt>
      <trkpt lat="45.59865" lon="6.68173">
        <ele>1855.6079</ele>
        <time>2019-12-26 10:42:57</time>
      </trkpt>
      <trkpt lat="45.59866" lon="6.68174">
        <ele>1854.8955</ele>
        <time>2019-12-26 10:42:58</time>
      </trkpt>
      <trkpt lat="45.59867" lon="6.68174">
        <ele>1854.8188</ele>
        <time>2019-12-26 10:42:59</time>
      </trkpt>
      <trkpt lat="45.59868" lon="6.68175">
        <ele>1855.2461</ele>
        <time>2019-12-26 10:43:00</time>
      </trkpt>
      <trkpt lat="45.59869" lon="6.68175">
        <ele>1855.3325</ele>
        <time>2019-12-26 10:43:01</time>
      </trkpt>
      <trkpt lat="45.5987" lon="6.68176">
        <ele>1855.7102</ele>
        <time>2019-12-26 10:43:02</time>
      </trkpt>
      <trkpt lat="45.59871" lon="6.68176">
        <ele>1855.0854</ele>
        <time>2019-12-26 10:43:04</time>
      </trkpt>
      <trkpt lat="45.59872" lon="6.68176">
        <ele>1855.3027</ele>
        <time>2019-12-26 10:43:05</time>
      </trkpt>
      <trkpt lat="45.59874" lon="6.68177">
        <ele>1853.6736</ele>
        <time>2019-12-26 10:43:08</time>
      </trkpt>
      <trkpt lat="45.59875" lon="6.68177">
        <ele>1853.7925</ele>
        <time>2019-12-26 10:43:09</time>
      </trkpt>
      <trkpt lat="45.59875" lon="6.68178">
        <ele>1853.9343</ele>
        <time>2019-12-26 10:43:10</time>
      </trkpt>
      <trkpt lat="45.59875" lon="6.68178">
        <ele>1853.6147</ele>
        <time>2019-12-26 10:43:11</time>
      </trkpt>
      <trkpt lat="45.59876" lon="6.68179">
        <ele>1853.7417</ele>
        <time>2019-12-26 10:43:12</time>
      </trkpt>
      <trkpt lat="45.59876" lon="6.68179">
        <ele>1853.8003</ele>
        <time>2019-12-26 10:43:13</time>
      </trkpt>
      <trkpt lat="45.59877" lon="6.6818">
        <ele>1854.3062</ele>
        <time>2019-12-26 10:43:14</time>
      </trkpt>
      <trkpt lat="45.59877" lon="6.68181">
        <ele>1855.2805</ele>
        <time>2019-12-26 10:43:17</time>
      </trkpt>
      <trkpt lat="45.59878" lon="6.68182">
        <ele>1857.0686</ele>
        <time>2019-12-26 10:43:20</time>
      </trkpt>
      <trkpt lat="45.59878" lon="6.68183">
        <ele>1857.7827</ele>
        <time>2019-12-26 10:43:21</time>
      </trkpt>
      <trkpt lat="45.5988" lon="6.68186">
        <ele>1858.1992</ele>
        <time>2019-12-26 10:43:27</time>
      </trkpt>
      <trkpt lat="45.59879" lon="6.68188">
        <ele>1859.7363</ele>
        <time>2019-12-26 10:43:32</time>
      </trkpt>
      <trkpt lat="45.59877" lon="6.68189">
        <ele>1860.761</ele>
        <time>2019-12-26 10:43:36</time>
      </trkpt>
      <trkpt lat="45.59875" lon="6.68191">
        <ele>1863.0903</ele>
        <time>2019-12-26 10:43:39</time>
      </trkpt>
      <trkpt lat="45.59875" lon="6.68192">
        <ele>1863.5947</ele>
        <time>2019-12-26 10:43:40</time>
      </trkpt>
      <trkpt lat="45.59874" lon="6.68192">
        <ele>1864.0771</ele>
        <time>2019-12-26 10:43:41</time>
      </trkpt>
      <trkpt lat="45.59874" lon="6.68193">
        <ele>1863.5925</ele>
        <time>2019-12-26 10:43:42</time>
      </trkpt>
      <trkpt lat="45.59874" lon="6.68194">
        <ele>1863.6516</ele>
        <time>2019-12-26 10:43:43</time>
      </trkpt>
      <trkpt lat="45.59873" lon="6.68195">
        <ele>1863.4673</ele>
        <time>2019-12-26 10:43:44</time>
      </trkpt>
      <trkpt lat="45.59873" lon="6.68197">
        <ele>1863.3481</ele>
        <time>2019-12-26 10:43:45</time>
      </trkpt>
      <trkpt lat="45.59872" lon="6.68198">
        <ele>1863.2998</ele>
        <time>2019-12-26 10:43:46</time>
      </trkpt>
      <trkpt lat="45.59872" lon="6.68199">
        <ele>1863.8281</ele>
        <time>2019-12-26 10:43:47</time>
      </trkpt>
      <trkpt lat="45.59871" lon="6.682">
        <ele>1863.957</ele>
        <time>2019-12-26 10:43:48</time>
      </trkpt>
      <trkpt lat="45.5987" lon="6.68202">
        <ele>1864.7219</ele>
        <time>2019-12-26 10:43:51</time>
      </trkpt>
      <trkpt lat="45.5987" lon="6.68203">
        <ele>1865.1094</ele>
        <time>2019-12-26 10:43:52</time>
      </trkpt>
      <trkpt lat="45.5987" lon="6.68203">
        <ele>1865.198</ele>
        <time>2019-12-26 10:43:53</time>
      </trkpt>
      <trkpt lat="45.5987" lon="6.68204">
        <ele>1864.665</ele>
        <time>2019-12-26 10:43:54</time>
      </trkpt>
      <trkpt lat="45.59871" lon="6.68206">
        <ele>1865.4473</ele>
        <time>2019-12-26 10:43:57</time>
      </trkpt>
      <trkpt lat="45.59872" lon="6.68207">
        <ele>1865.3904</ele>
        <time>2019-12-26 10:43:58</time>
      </trkpt>
      <trkpt lat="45.59876" lon="6.68209">
        <ele>1864.4395</ele>
        <time>2019-12-26 10:44:06</time>
      </trkpt>
      <trkpt lat="45.59878" lon="6.68209">
        <ele>1864.4387</ele>
        <time>2019-12-26 10:44:09</time>
      </trkpt>
      <trkpt lat="45.59881" lon="6.6821">
        <ele>1865.19</ele>
        <time>2019-12-26 10:44:13</time>
      </trkpt>
      <trkpt lat="45.59882" lon="6.68211">
        <ele>1865.3335</ele>
        <time>2019-12-26 10:44:14</time>
      </trkpt>
      <trkpt lat="45.59882" lon="6.68212">
        <ele>1865.6079</ele>
        <time>2019-12-26 10:44:15</time>
      </trkpt>
      <trkpt lat="45.59883" lon="6.68212">
        <ele>1865.5774</ele>
        <time>2019-12-26 10:44:16</time>
      </trkpt>
      <trkpt lat="45.59884" lon="6.68213">
        <ele>1865.48</ele>
        <time>2019-12-26 10:44:17</time>
      </trkpt>
      <trkpt lat="45.59886" lon="6.68213">
        <ele>1863.065</ele>
        <time>2019-12-26 10:44:20</time>
      </trkpt>
      <trkpt lat="45.59887" lon="6.68213">
        <ele>1863.7808</ele>
        <time>2019-12-26 10:44:22</time>
      </trkpt>
      <trkpt lat="45.59887" lon="6.68213">
        <ele>1864.0469</ele>
        <time>2019-12-26 10:44:23</time>
      </trkpt>
      <trkpt lat="45.59887" lon="6.68215">
        <ele>1865.2312</ele>
        <time>2019-12-26 10:44:27</time>
      </trkpt>
      <trkpt lat="45.59887" lon="6.68216">
        <ele>1865.3965</ele>
        <time>2019-12-26 10:44:28</time>
      </trkpt>
      <trkpt lat="45.59887" lon="6.68216">
        <ele>1865.9282</ele>
        <time>2019-12-26 10:44:29</time>
      </trkpt>
      <trkpt lat="45.59889" lon="6.68216">
        <ele>1864.7148</ele>
        <time>2019-12-26 10:44:34</time>
      </trkpt>
      <trkpt lat="45.5989" lon="6.68216">
        <ele>1864.7917</ele>
        <time>2019-12-26 10:44:35</time>
      </trkpt>
      <trkpt lat="45.5989" lon="6.68217">
        <ele>1864.3276</ele>
        <time>2019-12-26 10:44:36</time>
      </trkpt>
      <trkpt lat="45.5989" lon="6.68217">
        <ele>1864.916</ele>
        <time>2019-12-26 10:44:37</time>
      </trkpt>
      <trkpt lat="45.59889" lon="6.68218">
        <ele>1865.1934</ele>
        <time>2019-12-26 10:44:38</time>
      </trkpt>
      <trkpt lat="45.59888" lon="6.68219">
        <ele>1865.8853</ele>
        <time>2019-12-26 10:44:41</time>
      </trkpt>
      <trkpt lat="45.59888" lon="6.6822">
        <ele>1866.0415</ele>
        <time>2019-12-26 10:44:42</time>
      </trkpt>
      <trkpt lat="45.59888" lon="6.68221">
        <ele>1865.9741</ele>
        <time>2019-12-26 10:44:43</time>
      </trkpt>
      <trkpt lat="45.59888" lon="6.68221">
        <ele>1865.5923</ele>
        <time>2019-12-26 10:44:44</time>
      </trkpt>
      <trkpt lat="45.59889" lon="6.68222">
        <ele>1865.0056</ele>
        <time>2019-12-26 10:44:45</time>
      </trkpt>
      <trkpt lat="45.59889" lon="6.68223">
        <ele>1864.6152</ele>
        <time>2019-12-26 10:44:47</time>
      </trkpt>
      <trkpt lat="45.59889" lon="6.68223">
        <ele>1864.6709</ele>
        <time>2019-12-26 10:44:48</time>
      </trkpt>
      <trkpt lat="45.59885" lon="6.68229">
        <ele>1864.5935</ele>
        <time>2019-12-26 10:44:53</time>
      </trkpt>
      <trkpt lat="45.59884" lon="6.6823">
        <ele>1864.353</ele>
        <time>2019-12-26 10:44:54</time>
      </trkpt>
      <trkpt lat="45.59883" lon="6.68231">
        <ele>1864.9824</ele>
        <time>2019-12-26 10:44:56</time>
      </trkpt>
      <trkpt lat="45.59883" lon="6.68232">
        <ele>1865.7527</ele>
        <time>2019-12-26 10:44:58</time>
      </trkpt>
      <trkpt lat="45.59881" lon="6.68234">
        <ele>1866.7593</ele>
        <time>2019-12-26 10:45:01</time>
      </trkpt>
      <trkpt lat="45.59881" lon="6.68235">
        <ele>1866.7151</ele>
        <time>2019-12-26 10:45:02</time>
      </trkpt>
      <trkpt lat="45.59881" lon="6.68236">
        <ele>1867.4866</ele>
        <time>2019-12-26 10:45:03</time>
      </trkpt>
      <trkpt lat="45.5988" lon="6.68238">
        <ele>1868.3027</ele>
        <time>2019-12-26 10:45:05</time>
      </trkpt>
      <trkpt lat="45.59879" lon="6.68248">
        <ele>1870.0996</ele>
        <time>2019-12-26 10:45:13</time>
      </trkpt>
      <trkpt lat="45.59879" lon="6.68248">
        <ele>1870.9219</ele>
        <time>2019-12-26 10:45:14</time>
      </trkpt>
      <trkpt lat="45.5988" lon="6.68249">
        <ele>1871.3203</ele>
        <time>2019-12-26 10:45:15</time>
      </trkpt>
      <trkpt lat="45.5988" lon="6.68249">
        <ele>1872.4619</ele>
        <time>2019-12-26 10:45:16</time>
      </trkpt>
      <trkpt lat="45.59881" lon="6.68249">
        <ele>1872.6968</ele>
        <time>2019-12-26 10:45:17</time>
      </trkpt>
      <trkpt lat="45.59882" lon="6.68248">
        <ele>1873.346</ele>
        <time>2019-12-26 10:45:18</time>
      </trkpt>
      <trkpt lat="45.59883" lon="6.68249">
        <ele>1874.1785</ele>
        <time>2019-12-26 10:45:20</time>
      </trkpt>
      <trkpt lat="45.59884" lon="6.68248">
        <ele>1874.1367</ele>
        <time>2019-12-26 10:45:21</time>
      </trkpt>
      <trkpt lat="45.59884" lon="6.68248">
        <ele>1874.6001</ele>
        <time>2019-12-26 10:45:22</time>
      </trkpt>
      <trkpt lat="45.59885" lon="6.68248">
        <ele>1874.1685</ele>
        <time>2019-12-26 10:45:24</time>
      </trkpt>
      <trkpt lat="45.59886" lon="6.68248">
        <ele>1874.9858</ele>
        <time>2019-12-26 10:45:26</time>
      </trkpt>
      <trkpt lat="45.59887" lon="6.68248">
        <ele>1875.5713</ele>
        <time>2019-12-26 10:45:30</time>
      </trkpt>
      <trkpt lat="45.59888" lon="6.68248">
        <ele>1875.7231</ele>
        <time>2019-12-26 10:45:31</time>
      </trkpt>
      <trkpt lat="45.59889" lon="6.68248">
        <ele>1876.1787</ele>
        <time>2019-12-26 10:45:32</time>
      </trkpt>
      <trkpt lat="45.59889" lon="6.68248">
        <ele>1876.5679</ele>
        <time>2019-12-26 10:45:33</time>
      </trkpt>
      <trkpt lat="45.59889" lon="6.68249">
        <ele>1877.0322</ele>
        <time>2019-12-26 10:45:34</time>
      </trkpt>
      <trkpt lat="45.59893" lon="6.68246">
        <ele>1873.4248</ele>
        <time>2019-12-26 10:45:40</time>
      </trkpt>
      <trkpt lat="45.59896" lon="6.68246">
        <ele>1874.4321</ele>
        <time>2019-12-26 10:45:45</time>
      </trkpt>
      <trkpt lat="45.59897" lon="6.68247">
        <ele>1874.5376</ele>
        <time>2019-12-26 10:45:46</time>
      </trkpt>
      <trkpt lat="45.59898" lon="6.68247">
        <ele>1874.904</ele>
        <time>2019-12-26 10:45:47</time>
      </trkpt>
      <trkpt lat="45.59898" lon="6.68248">
        <ele>1874.8999</ele>
        <time>2019-12-26 10:45:48</time>
      </trkpt>
      <trkpt lat="45.59899" lon="6.68248">
        <ele>1874.5977</ele>
        <time>2019-12-26 10:45:49</time>
      </trkpt>
      <trkpt lat="45.599" lon="6.68248">
        <ele>1874.6353</ele>
        <time>2019-12-26 10:45:50</time>
      </trkpt>
      <trkpt lat="45.599" lon="6.68248">
        <ele>1874.4585</ele>
        <time>2019-12-26 10:45:51</time>
      </trkpt>
      <trkpt lat="45.599" lon="6.68249">
        <ele>1874.7578</ele>
        <time>2019-12-26 10:45:52</time>
      </trkpt>
      <trkpt lat="45.59901" lon="6.68249">
        <ele>1875.1914</ele>
        <time>2019-12-26 10:45:53</time>
      </trkpt>
      <trkpt lat="45.59905" lon="6.68248">
        <ele>1874.2983</ele>
        <time>2019-12-26 10:45:58</time>
      </trkpt>
      <trkpt lat="45.59906" lon="6.68248">
        <ele>1873.6221</ele>
        <time>2019-12-26 10:45:59</time>
      </trkpt>
      <trkpt lat="45.59907" lon="6.68249">
        <ele>1873.7051</ele>
        <time>2019-12-26 10:46:01</time>
      </trkpt>
      <trkpt lat="45.59907" lon="6.68249">
        <ele>1873.5288</ele>
        <time>2019-12-26 10:46:02</time>
      </trkpt>
      <trkpt lat="45.59907" lon="6.6825">
        <ele>1873.9736</ele>
        <time>2019-12-26 10:46:03</time>
      </trkpt>
      <trkpt lat="45.59913" lon="6.68256">
        <ele>1876.2393</ele>
        <time>2019-12-26 10:46:15</time>
      </trkpt>
      <trkpt lat="45.59915" lon="6.68257">
        <ele>1875.5903</ele>
        <time>2019-12-26 10:46:19</time>
      </trkpt>
      <trkpt lat="45.59916" lon="6.68257">
        <ele>1875.791</ele>
        <time>2019-12-26 10:46:21</time>
      </trkpt>
      <trkpt lat="45.59916" lon="6.68257">
        <ele>1875.8171</ele>
        <time>2019-12-26 10:46:22</time>
      </trkpt>
      <trkpt lat="45.59916" lon="6.68258">
        <ele>1875.904</ele>
        <time>2019-12-26 10:46:23</time>
      </trkpt>
      <trkpt lat="45.59916" lon="6.68258">
        <ele>1875.6963</ele>
        <time>2019-12-26 10:46:26</time>
      </trkpt>
      <trkpt lat="45.59919" lon="6.68259">
        <ele>1876.6729</ele>
        <time>2019-12-26 10:46:29</time>
      </trkpt>
      <trkpt lat="45.59919" lon="6.68259">
        <ele>1876.2964</ele>
        <time>2019-12-26 10:46:30</time>
      </trkpt>
      <trkpt lat="45.5992" lon="6.6826">
        <ele>1876.5879</ele>
        <time>2019-12-26 10:46:31</time>
      </trkpt>
      <trkpt lat="45.5992" lon="6.6826">
        <ele>1875.9414</ele>
        <time>2019-12-26 10:46:32</time>
      </trkpt>
      <trkpt lat="45.59923" lon="6.68262">
        <ele>1876.6504</ele>
        <time>2019-12-26 10:46:37</time>
      </trkpt>
      <trkpt lat="45.59924" lon="6.68263">
        <ele>1877.1895</ele>
        <time>2019-12-26 10:46:38</time>
      </trkpt>
      <trkpt lat="45.59928" lon="6.68266">
        <ele>1877.79</ele>
        <time>2019-12-26 10:46:45</time>
      </trkpt>
      <trkpt lat="45.59929" lon="6.68267">
        <ele>1878.2422</ele>
        <time>2019-12-26 10:46:46</time>
      </trkpt>
      <trkpt lat="45.59929" lon="6.68268">
        <ele>1879.0518</ele>
        <time>2019-12-26 10:46:47</time>
      </trkpt>
      <trkpt lat="45.5993" lon="6.68269">
        <ele>1879.2527</ele>
        <time>2019-12-26 10:46:48</time>
      </trkpt>
      <trkpt lat="45.5993" lon="6.68269">
        <ele>1879.4282</ele>
        <time>2019-12-26 10:46:49</time>
      </trkpt>
      <trkpt lat="45.59931" lon="6.6827">
        <ele>1879.4055</ele>
        <time>2019-12-26 10:46:50</time>
      </trkpt>
      <trkpt lat="45.59931" lon="6.6827">
        <ele>1879.6763</ele>
        <time>2019-12-26 10:46:51</time>
      </trkpt>
      <trkpt lat="45.59932" lon="6.68271">
        <ele>1879.9878</ele>
        <time>2019-12-26 10:46:52</time>
      </trkpt>
      <trkpt lat="45.59936" lon="6.68272">
        <ele>1881.877</ele>
        <time>2019-12-26 10:47:00</time>
      </trkpt>
      <trkpt lat="45.59938" lon="6.68273">
        <ele>1881.7847</ele>
        <time>2019-12-26 10:47:04</time>
      </trkpt>
      <trkpt lat="45.59938" lon="6.68273">
        <ele>1881.8135</ele>
        <time>2019-12-26 10:47:05</time>
      </trkpt>
      <trkpt lat="45.59939" lon="6.68274">
        <ele>1882.1853</ele>
        <time>2019-12-26 10:47:06</time>
      </trkpt>
      <trkpt lat="45.5994" lon="6.68275">
        <ele>1882.6353</ele>
        <time>2019-12-26 10:47:07</time>
      </trkpt>
      <trkpt lat="45.5994" lon="6.68275">
        <ele>1883.0684</ele>
        <time>2019-12-26 10:47:08</time>
      </trkpt>
      <trkpt lat="45.59942" lon="6.68277">
        <ele>1883.459</ele>
        <time>2019-12-26 10:47:10</time>
      </trkpt>
      <trkpt lat="45.59943" lon="6.68277">
        <ele>1881.4604</ele>
        <time>2019-12-26 10:47:11</time>
      </trkpt>
      <trkpt lat="45.59943" lon="6.68277">
        <ele>1881.3779</ele>
        <time>2019-12-26 10:47:12</time>
      </trkpt>
      <trkpt lat="45.59945" lon="6.68277">
        <ele>1880.7148</ele>
        <time>2019-12-26 10:47:15</time>
      </trkpt>
      <trkpt lat="45.59947" lon="6.68278">
        <ele>1881.2578</ele>
        <time>2019-12-26 10:47:18</time>
      </trkpt>
      <trkpt lat="45.59948" lon="6.68278">
        <ele>1881.7959</ele>
        <time>2019-12-26 10:47:19</time>
      </trkpt>
      <trkpt lat="45.59948" lon="6.68278">
        <ele>1880.877</ele>
        <time>2019-12-26 10:47:20</time>
      </trkpt>
      <trkpt lat="45.59949" lon="6.68278">
        <ele>1881.1147</ele>
        <time>2019-12-26 10:47:21</time>
      </trkpt>
      <trkpt lat="45.5995" lon="6.68278">
        <ele>1881.2251</ele>
        <time>2019-12-26 10:47:22</time>
      </trkpt>
      <trkpt lat="45.5995" lon="6.68278">
        <ele>1881.6072</ele>
        <time>2019-12-26 10:47:23</time>
      </trkpt>
      <trkpt lat="45.59951" lon="6.68278">
        <ele>1881.9514</ele>
        <time>2019-12-26 10:47:24</time>
      </trkpt>
      <trkpt lat="45.59952" lon="6.68279">
        <ele>1882.4644</ele>
        <time>2019-12-26 10:47:26</time>
      </trkpt>
      <trkpt lat="45.59952" lon="6.6828">
        <ele>1883.6519</ele>
        <time>2019-12-26 10:47:28</time>
      </trkpt>
      <trkpt lat="45.59952" lon="6.68281">
        <ele>1883.9319</ele>
        <time>2019-12-26 10:47:29</time>
      </trkpt>
      <trkpt lat="45.59952" lon="6.68282">
        <ele>1884.6787</ele>
        <time>2019-12-26 10:47:30</time>
      </trkpt>
      <trkpt lat="45.59953" lon="6.68283">
        <ele>1885.2925</ele>
        <time>2019-12-26 10:47:31</time>
      </trkpt>
      <trkpt lat="45.59954" lon="6.68286">
        <ele>1885.4736</ele>
        <time>2019-12-26 10:47:34</time>
      </trkpt>
      <trkpt lat="45.59956" lon="6.68289">
        <ele>1886.0356</ele>
        <time>2019-12-26 10:47:38</time>
      </trkpt>
      <trkpt lat="45.59956" lon="6.68289">
        <ele>1886.3252</ele>
        <time>2019-12-26 10:47:39</time>
      </trkpt>
      <trkpt lat="45.59957" lon="6.6829">
        <ele>1885.9067</ele>
        <time>2019-12-26 10:47:40</time>
      </trkpt>
      <trkpt lat="45.59957" lon="6.68291">
        <ele>1886.0522</ele>
        <time>2019-12-26 10:47:41</time>
      </trkpt>
      <trkpt lat="45.59957" lon="6.68292">
        <ele>1886.7617</ele>
        <time>2019-12-26 10:47:42</time>
      </trkpt>
      <trkpt lat="45.59961" lon="6.68296">
        <ele>1888.706</ele>
        <time>2019-12-26 10:47:52</time>
      </trkpt>
      <trkpt lat="45.59962" lon="6.68297">
        <ele>1888.5005</ele>
        <time>2019-12-26 10:47:53</time>
      </trkpt>
      <trkpt lat="45.59963" lon="6.68298">
        <ele>1888.396</ele>
        <time>2019-12-26 10:47:54</time>
      </trkpt>
      <trkpt lat="45.59963" lon="6.68299">
        <ele>1889.3086</ele>
        <time>2019-12-26 10:47:55</time>
      </trkpt>
      <trkpt lat="45.59965" lon="6.68302">
        <ele>1889.7297</ele>
        <time>2019-12-26 10:47:59</time>
      </trkpt>
      <trkpt lat="45.59966" lon="6.68303">
        <ele>1889.6626</ele>
        <time>2019-12-26 10:48:00</time>
      </trkpt>
      <trkpt lat="45.59966" lon="6.68303">
        <ele>1889.9702</ele>
        <time>2019-12-26 10:48:01</time>
      </trkpt>
      <trkpt lat="45.59967" lon="6.68304">
        <ele>1890.5659</ele>
        <time>2019-12-26 10:48:02</time>
      </trkpt>
      <trkpt lat="45.59967" lon="6.68304">
        <ele>1890.4885</ele>
        <time>2019-12-26 10:48:03</time>
      </trkpt>
      <trkpt lat="45.59968" lon="6.68304">
        <ele>1891.0713</ele>
        <time>2019-12-26 10:48:04</time>
      </trkpt>
      <trkpt lat="45.5997" lon="6.68305">
        <ele>1891.9902</ele>
        <time>2019-12-26 10:48:08</time>
      </trkpt>
      <trkpt lat="45.59971" lon="6.68305">
        <ele>1892.2991</ele>
        <time>2019-12-26 10:48:09</time>
      </trkpt>
      <trkpt lat="45.59973" lon="6.68306">
        <ele>1891.8086</ele>
        <time>2019-12-26 10:48:12</time>
      </trkpt>
      <trkpt lat="45.59973" lon="6.68306">
        <ele>1892.1533</ele>
        <time>2019-12-26 10:48:13</time>
      </trkpt>
      <trkpt lat="45.59977" lon="6.68308">
        <ele>1891.0591</ele>
        <time>2019-12-26 10:48:20</time>
      </trkpt>
      <trkpt lat="45.59977" lon="6.68308">
        <ele>1891.5288</ele>
        <time>2019-12-26 10:48:21</time>
      </trkpt>
      <trkpt lat="45.59978" lon="6.68309">
        <ele>1891.8086</ele>
        <time>2019-12-26 10:48:22</time>
      </trkpt>
      <trkpt lat="45.59979" lon="6.68309">
        <ele>1891.8096</ele>
        <time>2019-12-26 10:48:23</time>
      </trkpt>
      <trkpt lat="45.59979" lon="6.6831">
        <ele>1892.4927</ele>
        <time>2019-12-26 10:48:24</time>
      </trkpt>
      <trkpt lat="45.5998" lon="6.6831">
        <ele>1892.4805</ele>
        <time>2019-12-26 10:48:25</time>
      </trkpt>
      <trkpt lat="45.5998" lon="6.68311">
        <ele>1892.6079</ele>
        <time>2019-12-26 10:48:26</time>
      </trkpt>
      <trkpt lat="45.59982" lon="6.68313">
        <ele>1893.2964</ele>
        <time>2019-12-26 10:48:30</time>
      </trkpt>
      <trkpt lat="45.59983" lon="6.68313">
        <ele>1893.2563</ele>
        <time>2019-12-26 10:48:31</time>
      </trkpt>
      <trkpt lat="45.59983" lon="6.68314">
        <ele>1893.3359</ele>
        <time>2019-12-26 10:48:32</time>
      </trkpt>
      <trkpt lat="45.59983" lon="6.68314">
        <ele>1893.4219</ele>
        <time>2019-12-26 10:48:33</time>
      </trkpt>
      <trkpt lat="45.59984" lon="6.68315">
        <ele>1893.779</ele>
        <time>2019-12-26 10:48:34</time>
      </trkpt>
      <trkpt lat="45.59984" lon="6.68315">
        <ele>1893.6787</ele>
        <time>2019-12-26 10:48:35</time>
      </trkpt>
      <trkpt lat="45.59985" lon="6.68317">
        <ele>1894.5547</ele>
        <time>2019-12-26 10:48:39</time>
      </trkpt>
      <trkpt lat="45.59986" lon="6.68318">
        <ele>1894.9346</ele>
        <time>2019-12-26 10:48:40</time>
      </trkpt>
      <trkpt lat="45.59986" lon="6.68319">
        <ele>1895.3398</ele>
        <time>2019-12-26 10:48:41</time>
      </trkpt>
      <trkpt lat="45.59987" lon="6.6832">
        <ele>1895.2002</ele>
        <time>2019-12-26 10:48:42</time>
      </trkpt>
      <trkpt lat="45.59987" lon="6.68321">
        <ele>1895.5874</ele>
        <time>2019-12-26 10:48:43</time>
      </trkpt>
      <trkpt lat="45.59987" lon="6.68322">
        <ele>1895.9482</ele>
        <time>2019-12-26 10:48:44</time>
      </trkpt>
      <trkpt lat="45.59987" lon="6.68323">
        <ele>1895.436</ele>
        <time>2019-12-26 10:48:45</time>
      </trkpt>
      <trkpt lat="45.59987" lon="6.68323">
        <ele>1895.3687</ele>
        <time>2019-12-26 10:48:46</time>
      </trkpt>
      <trkpt lat="45.59989" lon="6.68325">
        <ele>1894.4731</ele>
        <time>2019-12-26 10:48:49</time>
      </trkpt>
      <trkpt lat="45.59991" lon="6.68326">
        <ele>1892.8167</ele>
        <time>2019-12-26 10:48:54</time>
      </trkpt>
      <trkpt lat="45.59992" lon="6.68327">
        <ele>1892.3662</ele>
        <time>2019-12-26 10:48:55</time>
      </trkpt>
      <trkpt lat="45.59993" lon="6.68327">
        <ele>1892.1433</ele>
        <time>2019-12-26 10:48:57</time>
      </trkpt>
      <trkpt lat="45.59993" lon="6.68328">
        <ele>1892.2832</ele>
        <time>2019-12-26 10:48:58</time>
      </trkpt>
      <trkpt lat="45.59994" lon="6.68328">
        <ele>1892.1865</ele>
        <time>2019-12-26 10:48:59</time>
      </trkpt>
      <trkpt lat="45.59994" lon="6.68328">
        <ele>1893.125</ele>
        <time>2019-12-26 10:49:00</time>
      </trkpt>
      <trkpt lat="45.59995" lon="6.68329">
        <ele>1890.1748</ele>
        <time>2019-12-26 10:49:01</time>
      </trkpt>
      <trkpt lat="45.59997" lon="6.68329">
        <ele>1890.0457</ele>
        <time>2019-12-26 10:49:03</time>
      </trkpt>
      <trkpt lat="45.59997" lon="6.68329">
        <ele>1891.3721</ele>
        <time>2019-12-26 10:49:06</time>
      </trkpt>
      <trkpt lat="45.59999" lon="6.6833">
        <ele>1891.6323</ele>
        <time>2019-12-26 10:49:08</time>
      </trkpt>
      <trkpt lat="45.60001" lon="6.68331">
        <ele>1890.6545</ele>
        <time>2019-12-26 10:49:10</time>
      </trkpt>
      <trkpt lat="45.60001" lon="6.68331">
        <ele>1890.8584</ele>
        <time>2019-12-26 10:49:11</time>
      </trkpt>
      <trkpt lat="45.60002" lon="6.68331">
        <ele>1891.0068</ele>
        <time>2019-12-26 10:49:12</time>
      </trkpt>
      <trkpt lat="45.60003" lon="6.68331">
        <ele>1891.5244</ele>
        <time>2019-12-26 10:49:13</time>
      </trkpt>
      <trkpt lat="45.60004" lon="6.68333">
        <ele>1892.8994</ele>
        <time>2019-12-26 10:49:17</time>
      </trkpt>
      <trkpt lat="45.60004" lon="6.68333">
        <ele>1893.415</ele>
        <time>2019-12-26 10:49:18</time>
      </trkpt>
      <trkpt lat="45.60004" lon="6.68334">
        <ele>1893.9087</ele>
        <time>2019-12-26 10:49:19</time>
      </trkpt>
      <trkpt lat="45.60005" lon="6.68334">
        <ele>1894.6587</ele>
        <time>2019-12-26 10:49:20</time>
      </trkpt>
      <trkpt lat="45.60007" lon="6.68336">
        <ele>1894.7256</ele>
        <time>2019-12-26 10:49:24</time>
      </trkpt>
      <trkpt lat="45.60007" lon="6.68337">
        <ele>1895.227</ele>
        <time>2019-12-26 10:49:25</time>
      </trkpt>
      <trkpt lat="45.60008" lon="6.68337">
        <ele>1895.3306</ele>
        <time>2019-12-26 10:49:26</time>
      </trkpt>
      <trkpt lat="45.60008" lon="6.68338">
        <ele>1895.638</ele>
        <time>2019-12-26 10:49:27</time>
      </trkpt>
      <trkpt lat="45.60009" lon="6.68338">
        <ele>1895.5981</ele>
        <time>2019-12-26 10:49:28</time>
      </trkpt>
      <trkpt lat="45.60009" lon="6.68339">
        <ele>1895.5718</ele>
        <time>2019-12-26 10:49:29</time>
      </trkpt>
      <trkpt lat="45.6001" lon="6.68339">
        <ele>1894.6282</ele>
        <time>2019-12-26 10:49:31</time>
      </trkpt>
      <trkpt lat="45.60011" lon="6.68339">
        <ele>1895.416</ele>
        <time>2019-12-26 10:49:34</time>
      </trkpt>
      <trkpt lat="45.60012" lon="6.6834">
        <ele>1895.5742</ele>
        <time>2019-12-26 10:49:35</time>
      </trkpt>
      <trkpt lat="45.60012" lon="6.6834">
        <ele>1895.8623</ele>
        <time>2019-12-26 10:49:36</time>
      </trkpt>
      <trkpt lat="45.60012" lon="6.68341">
        <ele>1896.1306</ele>
        <time>2019-12-26 10:49:37</time>
      </trkpt>
      <trkpt lat="45.60012" lon="6.68342">
        <ele>1896.0413</ele>
        <time>2019-12-26 10:49:38</time>
      </trkpt>
      <trkpt lat="45.60013" lon="6.68341">
        <ele>1895.9629</ele>
        <time>2019-12-26 10:49:40</time>
      </trkpt>
      <trkpt lat="45.60014" lon="6.68341">
        <ele>1895.9648</ele>
        <time>2019-12-26 10:49:41</time>
      </trkpt>
      <trkpt lat="45.60014" lon="6.68341">
        <ele>1895.5781</ele>
        <time>2019-12-26 10:49:42</time>
      </trkpt>
      <trkpt lat="45.60015" lon="6.68341">
        <ele>1895.5225</ele>
        <time>2019-12-26 10:49:43</time>
      </trkpt>
      <trkpt lat="45.60016" lon="6.68341">
        <ele>1895.9568</ele>
        <time>2019-12-26 10:49:44</time>
      </trkpt>
      <trkpt lat="45.60016" lon="6.68341">
        <ele>1896.0723</ele>
        <time>2019-12-26 10:49:45</time>
      </trkpt>
      <trkpt lat="45.60017" lon="6.68341">
        <ele>1896.4014</ele>
        <time>2019-12-26 10:49:46</time>
      </trkpt>
      <trkpt lat="45.60017" lon="6.68342">
        <ele>1897.0107</ele>
        <time>2019-12-26 10:49:47</time>
      </trkpt>
      <trkpt lat="45.60017" lon="6.68342">
        <ele>1897.04</ele>
        <time>2019-12-26 10:49:48</time>
      </trkpt>
      <trkpt lat="45.60016" lon="6.68345">
        <ele>1897.6045</ele>
        <time>2019-12-26 10:49:52</time>
      </trkpt>
      <trkpt lat="45.60016" lon="6.68347">
        <ele>1897.9482</ele>
        <time>2019-12-26 10:49:53</time>
      </trkpt>
      <trkpt lat="45.60016" lon="6.68347">
        <ele>1897.8384</ele>
        <time>2019-12-26 10:49:54</time>
      </trkpt>
      <trkpt lat="45.60016" lon="6.68348">
        <ele>1898.3198</ele>
        <time>2019-12-26 10:49:55</time>
      </trkpt>
      <trkpt lat="45.60016" lon="6.68348">
        <ele>1898.8301</ele>
        <time>2019-12-26 10:49:56</time>
      </trkpt>
      <trkpt lat="45.60016" lon="6.68351">
        <ele>1896.7397</ele>
        <time>2019-12-26 10:49:58</time>
      </trkpt>
      <trkpt lat="45.60016" lon="6.68353">
        <ele>1898.0771</ele>
        <time>2019-12-26 10:50:03</time>
      </trkpt>
      <trkpt lat="45.60016" lon="6.68354">
        <ele>1897.9355</ele>
        <time>2019-12-26 10:50:04</time>
      </trkpt>
      <trkpt lat="45.60016" lon="6.68355">
        <ele>1898.0371</ele>
        <time>2019-12-26 10:50:05</time>
      </trkpt>
      <trkpt lat="45.60016" lon="6.68356">
        <ele>1897.6372</ele>
        <time>2019-12-26 10:50:06</time>
      </trkpt>
      <trkpt lat="45.60015" lon="6.68357">
        <ele>1897.6909</ele>
        <time>2019-12-26 10:50:07</time>
      </trkpt>
      <trkpt lat="45.60016" lon="6.68359">
        <ele>1897.2356</ele>
        <time>2019-12-26 10:50:09</time>
      </trkpt>
      <trkpt lat="45.60016" lon="6.6836">
        <ele>1898.1187</ele>
        <time>2019-12-26 10:50:10</time>
      </trkpt>
      <trkpt lat="45.60016" lon="6.68361">
        <ele>1898.2246</ele>
        <time>2019-12-26 10:50:11</time>
      </trkpt>
      <trkpt lat="45.60017" lon="6.68363">
        <ele>1898.5981</ele>
        <time>2019-12-26 10:50:14</time>
      </trkpt>
      <trkpt lat="45.60018" lon="6.68365">
        <ele>1899.2734</ele>
        <time>2019-12-26 10:50:16</time>
      </trkpt>
      <trkpt lat="45.60019" lon="6.68366">
        <ele>1899.2097</ele>
        <time>2019-12-26 10:50:17</time>
      </trkpt>
      <trkpt lat="45.6002" lon="6.68366">
        <ele>1898.6992</ele>
        <time>2019-12-26 10:50:19</time>
      </trkpt>
      <trkpt lat="45.60021" lon="6.68367">
        <ele>1898.8398</ele>
        <time>2019-12-26 10:50:21</time>
      </trkpt>
      <trkpt lat="45.60021" lon="6.68367">
        <ele>1898.8833</ele>
        <time>2019-12-26 10:50:22</time>
      </trkpt>
      <trkpt lat="45.60023" lon="6.68368">
        <ele>1899.2427</ele>
        <time>2019-12-26 10:50:25</time>
      </trkpt>
      <trkpt lat="45.60023" lon="6.68369">
        <ele>1900.0525</ele>
        <time>2019-12-26 10:50:26</time>
      </trkpt>
      <trkpt lat="45.60023" lon="6.68369">
        <ele>1899.5752</ele>
        <time>2019-12-26 10:50:27</time>
      </trkpt>
      <trkpt lat="45.60024" lon="6.6837">
        <ele>1898.5542</ele>
        <time>2019-12-26 10:50:28</time>
      </trkpt>
      <trkpt lat="45.60025" lon="6.6837">
        <ele>1898.7544</ele>
        <time>2019-12-26 10:50:30</time>
      </trkpt>
      <trkpt lat="45.60025" lon="6.6837">
        <ele>1899.4822</ele>
        <time>2019-12-26 10:50:31</time>
      </trkpt>
      <trkpt lat="45.60025" lon="6.68369">
        <ele>1899.6328</ele>
        <time>2019-12-26 10:50:32</time>
      </trkpt>
      <trkpt lat="45.60025" lon="6.6837">
        <ele>1900.4966</ele>
        <time>2019-12-26 10:50:33</time>
      </trkpt>
      <trkpt lat="45.60025" lon="6.68371">
        <ele>1900.6858</ele>
        <time>2019-12-26 10:50:34</time>
      </trkpt>
      <trkpt lat="45.60025" lon="6.68372">
        <ele>1901.023</ele>
        <time>2019-12-26 10:50:35</time>
      </trkpt>
      <trkpt lat="45.60025" lon="6.68373">
        <ele>1901.9731</ele>
        <time>2019-12-26 10:50:36</time>
      </trkpt>
      <trkpt lat="45.60025" lon="6.68374">
        <ele>1902.8052</ele>
        <time>2019-12-26 10:50:37</time>
      </trkpt>
      <trkpt lat="45.60024" lon="6.68377">
        <ele>1904.0598</ele>
        <time>2019-12-26 10:50:41</time>
      </trkpt>
      <trkpt lat="45.60022" lon="6.68382">
        <ele>1903.8755</ele>
        <time>2019-12-26 10:50:45</time>
      </trkpt>
      <trkpt lat="45.60022" lon="6.68384">
        <ele>1904.1973</ele>
        <time>2019-12-26 10:50:47</time>
      </trkpt>
      <trkpt lat="45.60022" lon="6.68385">
        <ele>1904.5134</ele>
        <time>2019-12-26 10:50:48</time>
      </trkpt>
      <trkpt lat="45.60022" lon="6.68385">
        <ele>1903.7573</ele>
        <time>2019-12-26 10:50:49</time>
      </trkpt>
      <trkpt lat="45.60022" lon="6.68386">
        <ele>1903.9756</ele>
        <time>2019-12-26 10:50:50</time>
      </trkpt>
      <trkpt lat="45.60022" lon="6.68385">
        <ele>1903.9358</ele>
        <time>2019-12-26 10:50:52</time>
      </trkpt>
      <trkpt lat="45.60023" lon="6.68385">
        <ele>1903.7988</ele>
        <time>2019-12-26 10:50:53</time>
      </trkpt>
      <trkpt lat="45.60024" lon="6.68386">
        <ele>1903.3391</ele>
        <time>2019-12-26 10:50:54</time>
      </trkpt>
      <trkpt lat="45.60025" lon="6.68386">
        <ele>1903.5308</ele>
        <time>2019-12-26 10:50:55</time>
      </trkpt>
      <trkpt lat="45.60025" lon="6.68386">
        <ele>1903.9111</ele>
        <time>2019-12-26 10:50:56</time>
      </trkpt>
      <trkpt lat="45.60026" lon="6.68386">
        <ele>1904.4941</ele>
        <time>2019-12-26 10:50:57</time>
      </trkpt>
      <trkpt lat="45.60026" lon="6.68386">
        <ele>1904.9429</ele>
        <time>2019-12-26 10:50:58</time>
      </trkpt>
      <trkpt lat="45.60027" lon="6.68386">
        <ele>1905.311</ele>
        <time>2019-12-26 10:50:59</time>
      </trkpt>
      <trkpt lat="45.60028" lon="6.68388">
        <ele>1906.4492</ele>
        <time>2019-12-26 10:51:02</time>
      </trkpt>
      <trkpt lat="45.60029" lon="6.68388">
        <ele>1905.844</ele>
        <time>2019-12-26 10:51:03</time>
      </trkpt>
      <trkpt lat="45.60029" lon="6.68388">
        <ele>1906.2058</ele>
        <time>2019-12-26 10:51:04</time>
      </trkpt>
      <trkpt lat="45.6003" lon="6.68388">
        <ele>1906.4143</ele>
        <time>2019-12-26 10:51:05</time>
      </trkpt>
      <trkpt lat="45.60031" lon="6.68388">
        <ele>1906.7261</ele>
        <time>2019-12-26 10:51:06</time>
      </trkpt>
      <trkpt lat="45.60032" lon="6.68388">
        <ele>1906.2114</ele>
        <time>2019-12-26 10:51:07</time>
      </trkpt>
      <trkpt lat="45.60035" lon="6.68389">
        <ele>1907.4009</ele>
        <time>2019-12-26 10:51:12</time>
      </trkpt>
      <trkpt lat="45.60036" lon="6.68389">
        <ele>1906.9299</ele>
        <time>2019-12-26 10:51:13</time>
      </trkpt>
      <trkpt lat="45.60036" lon="6.68389">
        <ele>1907.2112</ele>
        <time>2019-12-26 10:51:14</time>
      </trkpt>
      <trkpt lat="45.60036" lon="6.68389">
        <ele>1906.7593</ele>
        <time>2019-12-26 10:51:15</time>
      </trkpt>
      <trkpt lat="45.60038" lon="6.6839">
        <ele>1906.6226</ele>
        <time>2019-12-26 10:51:17</time>
      </trkpt>
      <trkpt lat="45.60038" lon="6.6839">
        <ele>1907.1201</ele>
        <time>2019-12-26 10:51:18</time>
      </trkpt>
      <trkpt lat="45.60038" lon="6.68391">
        <ele>1907.0493</ele>
        <time>2019-12-26 10:51:19</time>
      </trkpt>
      <trkpt lat="45.60038" lon="6.68391">
        <ele>1907.9102</ele>
        <time>2019-12-26 10:51:20</time>
      </trkpt>
      <trkpt lat="45.60038" lon="6.68393">
        <ele>1908.4705</ele>
        <time>2019-12-26 10:51:21</time>
      </trkpt>
      <trkpt lat="45.60038" lon="6.68393">
        <ele>1908.5894</ele>
        <time>2019-12-26 10:51:22</time>
      </trkpt>
      <trkpt lat="45.60038" lon="6.68394">
        <ele>1908.9614</ele>
        <time>2019-12-26 10:51:23</time>
      </trkpt>
      <trkpt lat="45.60038" lon="6.68395">
        <ele>1909.6353</ele>
        <time>2019-12-26 10:51:24</time>
      </trkpt>
      <trkpt lat="45.60037" lon="6.68399">
        <ele>1910.7546</ele>
        <time>2019-12-26 10:51:27</time>
      </trkpt>
      <trkpt lat="45.60037" lon="6.684">
        <ele>1911.0947</ele>
        <time>2019-12-26 10:51:28</time>
      </trkpt>
      <trkpt lat="45.60037" lon="6.684">
        <ele>1910.8833</ele>
        <time>2019-12-26 10:51:29</time>
      </trkpt>
      <trkpt lat="45.60036" lon="6.68402">
        <ele>1911.2168</ele>
        <time>2019-12-26 10:51:34</time>
      </trkpt>
      <trkpt lat="45.60034" lon="6.68404">
        <ele>1911.3496</ele>
        <time>2019-12-26 10:51:37</time>
      </trkpt>
      <trkpt lat="45.60034" lon="6.68406">
        <ele>1913.2988</ele>
        <time>2019-12-26 10:51:46</time>
      </trkpt>
      <trkpt lat="45.60033" lon="6.68408">
        <ele>1912.5781</ele>
        <time>2019-12-26 10:51:48</time>
      </trkpt>
      <trkpt lat="45.60032" lon="6.68409">
        <ele>1912.9199</ele>
        <time>2019-12-26 10:51:49</time>
      </trkpt>
      <trkpt lat="45.60032" lon="6.6841">
        <ele>1913.2017</ele>
        <time>2019-12-26 10:51:50</time>
      </trkpt>
      <trkpt lat="45.6003" lon="6.68411">
        <ele>1912.8076</ele>
        <time>2019-12-26 10:51:53</time>
      </trkpt>
      <trkpt lat="45.60029" lon="6.68411">
        <ele>1913.4377</ele>
        <time>2019-12-26 10:51:54</time>
      </trkpt>
      <trkpt lat="45.60028" lon="6.68412">
        <ele>1913.645</ele>
        <time>2019-12-26 10:51:57</time>
      </trkpt>
      <trkpt lat="45.60028" lon="6.68413">
        <ele>1913.5122</ele>
        <time>2019-12-26 10:51:58</time>
      </trkpt>
      <trkpt lat="45.60028" lon="6.68414">
        <ele>1913.5227</ele>
        <time>2019-12-26 10:51:59</time>
      </trkpt>
      <trkpt lat="45.60028" lon="6.68414">
        <ele>1914.2593</ele>
        <time>2019-12-26 10:52:00</time>
      </trkpt>
      <trkpt lat="45.60027" lon="6.68415">
        <ele>1914.5701</ele>
        <time>2019-12-26 10:52:06</time>
      </trkpt>
      <trkpt lat="45.60027" lon="6.68415">
        <ele>1914.6304</ele>
        <time>2019-12-26 10:52:07</time>
      </trkpt>
      <trkpt lat="45.60027" lon="6.68416">
        <ele>1916.3457</ele>
        <time>2019-12-26 10:52:22</time>
      </trkpt>
      <trkpt lat="45.60027" lon="6.68417">
        <ele>1915.5625</ele>
        <time>2019-12-26 10:52:23</time>
      </trkpt>
      <trkpt lat="45.60026" lon="6.68417">
        <ele>1916.1826</ele>
        <time>2019-12-26 10:52:25</time>
      </trkpt>
      <trkpt lat="45.60027" lon="6.68417">
        <ele>1916.3442</ele>
        <time>2019-12-26 10:52:26</time>
      </trkpt>
      <trkpt lat="45.60026" lon="6.68417">
        <ele>1916.3352</ele>
        <time>2019-12-26 10:52:27</time>
      </trkpt>
      <trkpt lat="45.60026" lon="6.68417">
        <ele>1916.6079</ele>
        <time>2019-12-26 10:52:28</time>
      </trkpt>
      <trkpt lat="45.60025" lon="6.68418">
        <ele>1917.2004</ele>
        <time>2019-12-26 10:52:30</time>
      </trkpt>
      <trkpt lat="45.60025" lon="6.68418">
        <ele>1917.2808</ele>
        <time>2019-12-26 10:52:31</time>
      </trkpt>
      <trkpt lat="45.60025" lon="6.68419">
        <ele>1917.0208</ele>
        <time>2019-12-26 10:52:34</time>
      </trkpt>
      <trkpt lat="45.60022" lon="6.68426">
        <ele>1917.4075</ele>
        <time>2019-12-26 10:52:43</time>
      </trkpt>
      <trkpt lat="45.60022" lon="6.68426">
        <ele>1916.4641</ele>
        <time>2019-12-26 10:52:45</time>
      </trkpt>
      <trkpt lat="45.60021" lon="6.68427">
        <ele>1917.4951</ele>
        <time>2019-12-26 10:52:52</time>
      </trkpt>
      <trkpt lat="45.60019" lon="6.68431">
        <ele>1920.4429</ele>
        <time>2019-12-26 10:53:00</time>
      </trkpt>
      <trkpt lat="45.60018" lon="6.68432">
        <ele>1920.4927</ele>
        <time>2019-12-26 10:53:01</time>
      </trkpt>
      <trkpt lat="45.60018" lon="6.68433">
        <ele>1920.3513</ele>
        <time>2019-12-26 10:53:02</time>
      </trkpt>
      <trkpt lat="45.60018" lon="6.68434">
        <ele>1921.3242</ele>
        <time>2019-12-26 10:53:03</time>
      </trkpt>
      <trkpt lat="45.60017" lon="6.68435">
        <ele>1922.2378</ele>
        <time>2019-12-26 10:53:04</time>
      </trkpt>
      <trkpt lat="45.60017" lon="6.68436">
        <ele>1922.5425</ele>
        <time>2019-12-26 10:53:05</time>
      </trkpt>
      <trkpt lat="45.60015" lon="6.68441">
        <ele>1921.5708</ele>
        <time>2019-12-26 10:53:09</time>
      </trkpt>
      <trkpt lat="45.60016" lon="6.68444">
        <ele>1923.279</ele>
        <time>2019-12-26 10:53:12</time>
      </trkpt>
      <trkpt lat="45.60016" lon="6.68445">
        <ele>1922.8892</ele>
        <time>2019-12-26 10:53:13</time>
      </trkpt>
      <trkpt lat="45.60017" lon="6.68445">
        <ele>1922.7715</ele>
        <time>2019-12-26 10:53:14</time>
      </trkpt>
      <trkpt lat="45.60017" lon="6.68446">
        <ele>1922.6948</ele>
        <time>2019-12-26 10:53:15</time>
      </trkpt>
      <trkpt lat="45.60018" lon="6.68446">
        <ele>1923.6504</ele>
        <time>2019-12-26 10:53:16</time>
      </trkpt>
      <trkpt lat="45.60022" lon="6.68446">
        <ele>1921.9155</ele>
        <time>2019-12-26 10:53:21</time>
      </trkpt>
      <trkpt lat="45.60033" lon="6.68447">
        <ele>1923.5752</ele>
        <time>2019-12-26 10:53:36</time>
      </trkpt>
      <trkpt lat="45.60034" lon="6.68447">
        <ele>1923.686</ele>
        <time>2019-12-26 10:53:38</time>
      </trkpt>
      <trkpt lat="45.60035" lon="6.68447">
        <ele>1924.4097</ele>
        <time>2019-12-26 10:53:39</time>
      </trkpt>
      <trkpt lat="45.60036" lon="6.68447">
        <ele>1924.8711</ele>
        <time>2019-12-26 10:53:40</time>
      </trkpt>
      <trkpt lat="45.60037" lon="6.68447">
        <ele>1925.3328</ele>
        <time>2019-12-26 10:53:41</time>
      </trkpt>
      <trkpt lat="45.60038" lon="6.68448">
        <ele>1925.9375</ele>
        <time>2019-12-26 10:53:43</time>
      </trkpt>
      <trkpt lat="45.60038" lon="6.68448">
        <ele>1925.916</ele>
        <time>2019-12-26 10:53:44</time>
      </trkpt>
      <trkpt lat="45.60039" lon="6.68448">
        <ele>1926.1755</ele>
        <time>2019-12-26 10:53:45</time>
      </trkpt>
      <trkpt lat="45.6004" lon="6.68449">
        <ele>1926.416</ele>
        <time>2019-12-26 10:53:46</time>
      </trkpt>
      <trkpt lat="45.6004" lon="6.68449">
        <ele>1926.3838</ele>
        <time>2019-12-26 10:53:47</time>
      </trkpt>
      <trkpt lat="45.60041" lon="6.68449">
        <ele>1926.7764</ele>
        <time>2019-12-26 10:53:48</time>
      </trkpt>
      <trkpt lat="45.60043" lon="6.68449">
        <ele>1926.9941</ele>
        <time>2019-12-26 10:53:50</time>
      </trkpt>
      <trkpt lat="45.60044" lon="6.68449">
        <ele>1927.3589</ele>
        <time>2019-12-26 10:53:51</time>
      </trkpt>
      <trkpt lat="45.60047" lon="6.68451">
        <ele>1925.7793</ele>
        <time>2019-12-26 10:53:55</time>
      </trkpt>
      <trkpt lat="45.60049" lon="6.68451">
        <ele>1926.3665</ele>
        <time>2019-12-26 10:53:56</time>
      </trkpt>
      <trkpt lat="45.6005" lon="6.68452">
        <ele>1926.1948</ele>
        <time>2019-12-26 10:53:57</time>
      </trkpt>
      <trkpt lat="45.6005" lon="6.68453">
        <ele>1926.8237</ele>
        <time>2019-12-26 10:53:58</time>
      </trkpt>
      <trkpt lat="45.60051" lon="6.68453">
        <ele>1926.835</ele>
        <time>2019-12-26 10:53:59</time>
      </trkpt>
      <trkpt lat="45.60055" lon="6.68455">
        <ele>1928.4539</ele>
        <time>2019-12-26 10:54:05</time>
      </trkpt>
      <trkpt lat="45.60056" lon="6.68456">
        <ele>1928.1709</ele>
        <time>2019-12-26 10:54:06</time>
      </trkpt>
      <trkpt lat="45.6006" lon="6.68456">
        <ele>1926.792</ele>
        <time>2019-12-26 10:54:13</time>
      </trkpt>
      <trkpt lat="45.60064" lon="6.68458">
        <ele>1927.2603</ele>
        <time>2019-12-26 10:54:19</time>
      </trkpt>
      <trkpt lat="45.60065" lon="6.68459">
        <ele>1928.0703</ele>
        <time>2019-12-26 10:54:20</time>
      </trkpt>
      <trkpt lat="45.60067" lon="6.6846">
        <ele>1929.0493</ele>
        <time>2019-12-26 10:54:24</time>
      </trkpt>
      <trkpt lat="45.60068" lon="6.6846">
        <ele>1929.8511</ele>
        <time>2019-12-26 10:54:25</time>
      </trkpt>
      <trkpt lat="45.60072" lon="6.68462">
        <ele>1930.9316</ele>
        <time>2019-12-26 10:54:31</time>
      </trkpt>
      <trkpt lat="45.60072" lon="6.68462">
        <ele>1930.9971</ele>
        <time>2019-12-26 10:54:32</time>
      </trkpt>
      <trkpt lat="45.60073" lon="6.68463">
        <ele>1931.2515</ele>
        <time>2019-12-26 10:54:33</time>
      </trkpt>
      <trkpt lat="45.60077" lon="6.68466">
        <ele>1931.8401</ele>
        <time>2019-12-26 10:54:37</time>
      </trkpt>
      <trkpt lat="45.60078" lon="6.68468">
        <ele>1932.4614</ele>
        <time>2019-12-26 10:54:40</time>
      </trkpt>
      <trkpt lat="45.60079" lon="6.68468">
        <ele>1932.2681</ele>
        <time>2019-12-26 10:54:41</time>
      </trkpt>
      <trkpt lat="45.60086" lon="6.68473">
        <ele>1931.5586</ele>
        <time>2019-12-26 10:54:50</time>
      </trkpt>
      <trkpt lat="45.60087" lon="6.68474">
        <ele>1932.2822</ele>
        <time>2019-12-26 10:54:51</time>
      </trkpt>
      <trkpt lat="45.60089" lon="6.68475">
        <ele>1931.9326</ele>
        <time>2019-12-26 10:54:53</time>
      </trkpt>
      <trkpt lat="45.6009" lon="6.68477">
        <ele>1932</ele>
        <time>2019-12-26 10:54:57</time>
      </trkpt>
      <trkpt lat="45.6009" lon="6.68478">
        <ele>1931.2104</ele>
        <time>2019-12-26 10:54:58</time>
      </trkpt>
      <trkpt lat="45.60089" lon="6.68479">
        <ele>1930.918</ele>
        <time>2019-12-26 10:54:59</time>
      </trkpt>
      <trkpt lat="45.60089" lon="6.6848">
        <ele>1930.5474</ele>
        <time>2019-12-26 10:55:00</time>
      </trkpt>
      <trkpt lat="45.60089" lon="6.68482">
        <ele>1930.7905</ele>
        <time>2019-12-26 10:55:02</time>
      </trkpt>
      <trkpt lat="45.60086" lon="6.68487">
        <ele>1932.0581</ele>
        <time>2019-12-26 10:55:06</time>
      </trkpt>
      <trkpt lat="45.60086" lon="6.68488">
        <ele>1932.4683</ele>
        <time>2019-12-26 10:55:07</time>
      </trkpt>
      <trkpt lat="45.60082" lon="6.68495">
        <ele>1933.1162</ele>
        <time>2019-12-26 10:55:13</time>
      </trkpt>
      <trkpt lat="45.60082" lon="6.68496">
        <ele>1932.9263</ele>
        <time>2019-12-26 10:55:14</time>
      </trkpt>
      <trkpt lat="45.60081" lon="6.68496">
        <ele>1932.196</ele>
        <time>2019-12-26 10:55:15</time>
      </trkpt>
      <trkpt lat="45.60081" lon="6.68497">
        <ele>1932.7754</ele>
        <time>2019-12-26 10:55:16</time>
      </trkpt>
      <trkpt lat="45.60079" lon="6.68499">
        <ele>1934.0618</ele>
        <time>2019-12-26 10:55:19</time>
      </trkpt>
      <trkpt lat="45.60079" lon="6.685">
        <ele>1934.7295</ele>
        <time>2019-12-26 10:55:20</time>
      </trkpt>
      <trkpt lat="45.60079" lon="6.685">
        <ele>1935.3188</ele>
        <time>2019-12-26 10:55:21</time>
      </trkpt>
      <trkpt lat="45.60077" lon="6.68504">
        <ele>1936.064</ele>
        <time>2019-12-26 10:55:25</time>
      </trkpt>
      <trkpt lat="45.60077" lon="6.68505">
        <ele>1936.1628</ele>
        <time>2019-12-26 10:55:27</time>
      </trkpt>
      <trkpt lat="45.60077" lon="6.68506">
        <ele>1936.7329</ele>
        <time>2019-12-26 10:55:28</time>
      </trkpt>
      <trkpt lat="45.60076" lon="6.68506">
        <ele>1936.7783</ele>
        <time>2019-12-26 10:55:29</time>
      </trkpt>
      <trkpt lat="45.60076" lon="6.68507">
        <ele>1937.3721</ele>
        <time>2019-12-26 10:55:30</time>
      </trkpt>
      <trkpt lat="45.60075" lon="6.68508">
        <ele>1937.6924</ele>
        <time>2019-12-26 10:55:32</time>
      </trkpt>
      <trkpt lat="45.60074" lon="6.68508">
        <ele>1937.8997</ele>
        <time>2019-12-26 10:55:33</time>
      </trkpt>
      <trkpt lat="45.60073" lon="6.6851">
        <ele>1938.9736</ele>
        <time>2019-12-26 10:55:37</time>
      </trkpt>
      <trkpt lat="45.60072" lon="6.68511">
        <ele>1939.4048</ele>
        <time>2019-12-26 10:55:38</time>
      </trkpt>
      <trkpt lat="45.60072" lon="6.68511">
        <ele>1939.78</ele>
        <time>2019-12-26 10:55:39</time>
      </trkpt>
      <trkpt lat="45.60071" lon="6.68512">
        <ele>1939.4412</ele>
        <time>2019-12-26 10:55:40</time>
      </trkpt>
      <trkpt lat="45.60068" lon="6.68516">
        <ele>1939.6309</ele>
        <time>2019-12-26 10:55:46</time>
      </trkpt>
      <trkpt lat="45.60068" lon="6.68517">
        <ele>1939.8403</ele>
        <time>2019-12-26 10:55:47</time>
      </trkpt>
      <trkpt lat="45.60067" lon="6.68518">
        <ele>1940.668</ele>
        <time>2019-12-26 10:55:49</time>
      </trkpt>
      <trkpt lat="45.60065" lon="6.68519">
        <ele>1942.7761</ele>
        <time>2019-12-26 10:55:53</time>
      </trkpt>
      <trkpt lat="45.60065" lon="6.68519">
        <ele>1942.7144</ele>
        <time>2019-12-26 10:55:54</time>
      </trkpt>
      <trkpt lat="45.60064" lon="6.68519">
        <ele>1942.9858</ele>
        <time>2019-12-26 10:55:55</time>
      </trkpt>
      <trkpt lat="45.60064" lon="6.68519">
        <ele>1943.1626</ele>
        <time>2019-12-26 10:55:56</time>
      </trkpt>
      <trkpt lat="45.60063" lon="6.68522">
        <ele>1941.6592</ele>
        <time>2019-12-26 10:56:00</time>
      </trkpt>
      <trkpt lat="45.60062" lon="6.68525">
        <ele>1940.7476</ele>
        <time>2019-12-26 10:56:02</time>
      </trkpt>
      <trkpt lat="45.60062" lon="6.68526">
        <ele>1940.4951</ele>
        <time>2019-12-26 10:56:03</time>
      </trkpt>
      <trkpt lat="45.60061" lon="6.68529">
        <ele>1940.6035</ele>
        <time>2019-12-26 10:56:06</time>
      </trkpt>
      <trkpt lat="45.60061" lon="6.68529">
        <ele>1940.5378</ele>
        <time>2019-12-26 10:56:07</time>
      </trkpt>
      <trkpt lat="45.6006" lon="6.68532">
        <ele>1940.4819</ele>
        <time>2019-12-26 10:56:10</time>
      </trkpt>
      <trkpt lat="45.60059" lon="6.68533">
        <ele>1940.9736</ele>
        <time>2019-12-26 10:56:11</time>
      </trkpt>
      <trkpt lat="45.60059" lon="6.68534">
        <ele>1941.512</ele>
        <time>2019-12-26 10:56:12</time>
      </trkpt>
      <trkpt lat="45.60058" lon="6.68536">
        <ele>1942.7603</ele>
        <time>2019-12-26 10:56:16</time>
      </trkpt>
      <trkpt lat="45.60058" lon="6.68537">
        <ele>1942.6804</ele>
        <time>2019-12-26 10:56:17</time>
      </trkpt>
      <trkpt lat="45.60056" lon="6.68539">
        <ele>1943.3074</ele>
        <time>2019-12-26 10:56:19</time>
      </trkpt>
      <trkpt lat="45.60055" lon="6.68543">
        <ele>1943.4858</ele>
        <time>2019-12-26 10:56:23</time>
      </trkpt>
      <trkpt lat="45.60054" lon="6.68544">
        <ele>1943.9658</ele>
        <time>2019-12-26 10:56:24</time>
      </trkpt>
      <trkpt lat="45.60053" lon="6.68545">
        <ele>1943.5815</ele>
        <time>2019-12-26 10:56:26</time>
      </trkpt>
      <trkpt lat="45.60053" lon="6.68548">
        <ele>1943.6309</ele>
        <time>2019-12-26 10:56:30</time>
      </trkpt>
      <trkpt lat="45.60053" lon="6.68549">
        <ele>1943.3604</ele>
        <time>2019-12-26 10:56:31</time>
      </trkpt>
      <trkpt lat="45.60053" lon="6.68553">
        <ele>1944.7517</ele>
        <time>2019-12-26 10:56:35</time>
      </trkpt>
      <trkpt lat="45.60054" lon="6.68555">
        <ele>1944.3477</ele>
        <time>2019-12-26 10:56:38</time>
      </trkpt>
      <trkpt lat="45.60055" lon="6.68557">
        <ele>1945.1514</ele>
        <time>2019-12-26 10:56:41</time>
      </trkpt>
      <trkpt lat="45.60056" lon="6.68557">
        <ele>1944.5505</ele>
        <time>2019-12-26 10:56:42</time>
      </trkpt>
      <trkpt lat="45.60056" lon="6.68557">
        <ele>1944.9302</ele>
        <time>2019-12-26 10:56:43</time>
      </trkpt>
      <trkpt lat="45.60057" lon="6.68559">
        <ele>1944.0786</ele>
        <time>2019-12-26 10:56:45</time>
      </trkpt>
      <trkpt lat="45.6006" lon="6.68562">
        <ele>1944.4956</ele>
        <time>2019-12-26 10:56:49</time>
      </trkpt>
      <trkpt lat="45.6006" lon="6.68562">
        <ele>1944.5356</ele>
        <time>2019-12-26 10:56:50</time>
      </trkpt>
      <trkpt lat="45.6006" lon="6.68563">
        <ele>1945.0254</ele>
        <time>2019-12-26 10:56:51</time>
      </trkpt>
      <trkpt lat="45.6006" lon="6.68563">
        <ele>1945.1338</ele>
        <time>2019-12-26 10:56:52</time>
      </trkpt>
      <trkpt lat="45.60061" lon="6.68564">
        <ele>1945.2808</ele>
        <time>2019-12-26 10:56:54</time>
      </trkpt>
      <trkpt lat="45.60061" lon="6.68565">
        <ele>1945.3923</ele>
        <time>2019-12-26 10:56:56</time>
      </trkpt>
      <trkpt lat="45.60061" lon="6.68566">
        <ele>1945.7119</ele>
        <time>2019-12-26 10:56:57</time>
      </trkpt>
      <trkpt lat="45.6006" lon="6.68566">
        <ele>1946.2095</ele>
        <time>2019-12-26 10:56:58</time>
      </trkpt>
      <trkpt lat="45.6006" lon="6.68567">
        <ele>1946.8936</ele>
        <time>2019-12-26 10:56:59</time>
      </trkpt>
      <trkpt lat="45.6006" lon="6.6857">
        <ele>1948.9897</ele>
        <time>2019-12-26 10:57:01</time>
      </trkpt>
      <trkpt lat="45.60059" lon="6.68575">
        <ele>1949.8628</ele>
        <time>2019-12-26 10:57:05</time>
      </trkpt>
      <trkpt lat="45.60059" lon="6.68576">
        <ele>1949.6675</ele>
        <time>2019-12-26 10:57:06</time>
      </trkpt>
      <trkpt lat="45.60059" lon="6.68576">
        <ele>1950.0989</ele>
        <time>2019-12-26 10:57:07</time>
      </trkpt>
      <trkpt lat="45.60059" lon="6.68577">
        <ele>1950.5813</ele>
        <time>2019-12-26 10:57:08</time>
      </trkpt>
      <trkpt lat="45.60058" lon="6.68582">
        <ele>1950.1592</ele>
        <time>2019-12-26 10:57:14</time>
      </trkpt>
      <trkpt lat="45.60058" lon="6.68582">
        <ele>1950.4729</ele>
        <time>2019-12-26 10:57:15</time>
      </trkpt>
      <trkpt lat="45.60057" lon="6.68582">
        <ele>1950.5967</ele>
        <time>2019-12-26 10:57:16</time>
      </trkpt>
      <trkpt lat="45.60057" lon="6.68583">
        <ele>1950.7446</ele>
        <time>2019-12-26 10:57:17</time>
      </trkpt>
      <trkpt lat="45.60057" lon="6.68584">
        <ele>1950.5308</ele>
        <time>2019-12-26 10:57:18</time>
      </trkpt>
      <trkpt lat="45.60057" lon="6.68585">
        <ele>1950.7246</ele>
        <time>2019-12-26 10:57:19</time>
      </trkpt>
      <trkpt lat="45.60057" lon="6.68586">
        <ele>1951.3218</ele>
        <time>2019-12-26 10:57:20</time>
      </trkpt>
      <trkpt lat="45.60056" lon="6.68587">
        <ele>1951.5933</ele>
        <time>2019-12-26 10:57:21</time>
      </trkpt>
      <trkpt lat="45.60056" lon="6.68588">
        <ele>1952.02</ele>
        <time>2019-12-26 10:57:22</time>
      </trkpt>
      <trkpt lat="45.60056" lon="6.68593">
        <ele>1952.9595</ele>
        <time>2019-12-26 10:57:26</time>
      </trkpt>
      <trkpt lat="45.60056" lon="6.68594">
        <ele>1952.8958</ele>
        <time>2019-12-26 10:57:29</time>
      </trkpt>
      <trkpt lat="45.60056" lon="6.68595">
        <ele>1953.0337</ele>
        <time>2019-12-26 10:57:30</time>
      </trkpt>
      <trkpt lat="45.60056" lon="6.68595">
        <ele>1953.1733</ele>
        <time>2019-12-26 10:57:31</time>
      </trkpt>
      <trkpt lat="45.60057" lon="6.68597">
        <ele>1953.9028</ele>
        <time>2019-12-26 10:57:33</time>
      </trkpt>
      <trkpt lat="45.60056" lon="6.68598">
        <ele>1953.8188</ele>
        <time>2019-12-26 10:57:34</time>
      </trkpt>
      <trkpt lat="45.60056" lon="6.68602">
        <ele>1954.283</ele>
        <time>2019-12-26 10:57:38</time>
      </trkpt>
      <trkpt lat="45.60056" lon="6.68603">
        <ele>1954.4707</ele>
        <time>2019-12-26 10:57:39</time>
      </trkpt>
      <trkpt lat="45.60056" lon="6.68604">
        <ele>1954.291</ele>
        <time>2019-12-26 10:57:40</time>
      </trkpt>
      <trkpt lat="45.60056" lon="6.68604">
        <ele>1954.3279</ele>
        <time>2019-12-26 10:57:41</time>
      </trkpt>
      <trkpt lat="45.60057" lon="6.68608">
        <ele>1953.9944</ele>
        <time>2019-12-26 10:57:45</time>
      </trkpt>
      <trkpt lat="45.60057" lon="6.68609">
        <ele>1954.2195</ele>
        <time>2019-12-26 10:57:46</time>
      </trkpt>
      <trkpt lat="45.60057" lon="6.6861">
        <ele>1954.4521</ele>
        <time>2019-12-26 10:57:48</time>
      </trkpt>
      <trkpt lat="45.60056" lon="6.6861">
        <ele>1954.5339</ele>
        <time>2019-12-26 10:57:50</time>
      </trkpt>
      <trkpt lat="45.60056" lon="6.68611">
        <ele>1954.5068</ele>
        <time>2019-12-26 10:57:51</time>
      </trkpt>
      <trkpt lat="45.60056" lon="6.68612">
        <ele>1954.9578</ele>
        <time>2019-12-26 10:57:52</time>
      </trkpt>
      <trkpt lat="45.60056" lon="6.68613">
        <ele>1955.1487</ele>
        <time>2019-12-26 10:57:53</time>
      </trkpt>
      <trkpt lat="45.60055" lon="6.68614">
        <ele>1955.1682</ele>
        <time>2019-12-26 10:57:54</time>
      </trkpt>
      <trkpt lat="45.60055" lon="6.68615">
        <ele>1955.7002</ele>
        <time>2019-12-26 10:57:55</time>
      </trkpt>
      <trkpt lat="45.60056" lon="6.6862">
        <ele>1958.0134</ele>
        <time>2019-12-26 10:58:17</time>
      </trkpt>
      <trkpt lat="45.60056" lon="6.68627">
        <ele>1957.7046</ele>
        <time>2019-12-26 10:58:25</time>
      </trkpt>
      <trkpt lat="45.60056" lon="6.68627">
        <ele>1958.0503</ele>
        <time>2019-12-26 10:58:26</time>
      </trkpt>
      <trkpt lat="45.60055" lon="6.68629">
        <ele>1957.6619</ele>
        <time>2019-12-26 10:58:28</time>
      </trkpt>
      <trkpt lat="45.60056" lon="6.68634">
        <ele>1957.5371</ele>
        <time>2019-12-26 10:58:33</time>
      </trkpt>
      <trkpt lat="45.60056" lon="6.68634">
        <ele>1957.4504</ele>
        <time>2019-12-26 10:58:34</time>
      </trkpt>
      <trkpt lat="45.60056" lon="6.68635">
        <ele>1957.7871</ele>
        <time>2019-12-26 10:58:35</time>
      </trkpt>
      <trkpt lat="45.60056" lon="6.68636">
        <ele>1957.8188</ele>
        <time>2019-12-26 10:58:36</time>
      </trkpt>
      <trkpt lat="45.60056" lon="6.68636">
        <ele>1957.8379</ele>
        <time>2019-12-26 10:58:37</time>
      </trkpt>
      <trkpt lat="45.60056" lon="6.68637">
        <ele>1957.8921</ele>
        <time>2019-12-26 10:58:38</time>
      </trkpt>
      <trkpt lat="45.60056" lon="6.68638">
        <ele>1958.2705</ele>
        <time>2019-12-26 10:58:39</time>
      </trkpt>
      <trkpt lat="45.60056" lon="6.68638">
        <ele>1957.7666</ele>
        <time>2019-12-26 10:58:40</time>
      </trkpt>
      <trkpt lat="45.60056" lon="6.6864">
        <ele>1957.9194</ele>
        <time>2019-12-26 10:58:41</time>
      </trkpt>
      <trkpt lat="45.60057" lon="6.68645">
        <ele>1960.3176</ele>
        <time>2019-12-26 10:58:48</time>
      </trkpt>
      <trkpt lat="45.60057" lon="6.68645">
        <ele>1960.1797</ele>
        <time>2019-12-26 10:58:49</time>
      </trkpt>
      <trkpt lat="45.60057" lon="6.68646">
        <ele>1960.375</ele>
        <time>2019-12-26 10:58:50</time>
      </trkpt>
      <trkpt lat="45.60058" lon="6.68646">
        <ele>1960.0295</ele>
        <time>2019-12-26 10:58:51</time>
      </trkpt>
      <trkpt lat="45.60058" lon="6.68647">
        <ele>1960.6543</ele>
        <time>2019-12-26 10:58:52</time>
      </trkpt>
      <trkpt lat="45.6006" lon="6.6865">
        <ele>1958.7144</ele>
        <time>2019-12-26 10:58:58</time>
      </trkpt>
      <trkpt lat="45.6006" lon="6.68651">
        <ele>1958.5007</ele>
        <time>2019-12-26 10:58:59</time>
      </trkpt>
      <trkpt lat="45.6006" lon="6.68652">
        <ele>1958.5791</ele>
        <time>2019-12-26 10:59:00</time>
      </trkpt>
      <trkpt lat="45.60061" lon="6.68652">
        <ele>1958.9353</ele>
        <time>2019-12-26 10:59:01</time>
      </trkpt>
      <trkpt lat="45.60061" lon="6.68653">
        <ele>1959.2185</ele>
        <time>2019-12-26 10:59:02</time>
      </trkpt>
      <trkpt lat="45.60061" lon="6.68654">
        <ele>1959.1982</ele>
        <time>2019-12-26 10:59:03</time>
      </trkpt>
      <trkpt lat="45.60062" lon="6.68659">
        <ele>1959.7915</ele>
        <time>2019-12-26 10:59:09</time>
      </trkpt>
      <trkpt lat="45.60062" lon="6.6866">
        <ele>1960.0679</ele>
        <time>2019-12-26 10:59:10</time>
      </trkpt>
      <trkpt lat="45.60062" lon="6.68661">
        <ele>1960.0234</ele>
        <time>2019-12-26 10:59:11</time>
      </trkpt>
      <trkpt lat="45.60062" lon="6.68662">
        <ele>1959.7256</ele>
        <time>2019-12-26 10:59:12</time>
      </trkpt>
      <trkpt lat="45.60066" lon="6.68672">
        <ele>1959.8533</ele>
        <time>2019-12-26 10:59:24</time>
      </trkpt>
      <trkpt lat="45.60066" lon="6.68672">
        <ele>1960.5562</ele>
        <time>2019-12-26 10:59:25</time>
      </trkpt>
      <trkpt lat="45.60067" lon="6.68677">
        <ele>1961.2373</ele>
        <time>2019-12-26 10:59:31</time>
      </trkpt>
      <trkpt lat="45.60067" lon="6.68678">
        <ele>1961.4229</ele>
        <time>2019-12-26 10:59:32</time>
      </trkpt>
      <trkpt lat="45.60068" lon="6.6868">
        <ele>1961.6216</ele>
        <time>2019-12-26 10:59:34</time>
      </trkpt>
      <trkpt lat="45.60069" lon="6.68685">
        <ele>1962.574</ele>
        <time>2019-12-26 10:59:38</time>
      </trkpt>
      <trkpt lat="45.60069" lon="6.68686">
        <ele>1963.0156</ele>
        <time>2019-12-26 10:59:39</time>
      </trkpt>
      <trkpt lat="45.6007" lon="6.68687">
        <ele>1963.4275</ele>
        <time>2019-12-26 10:59:40</time>
      </trkpt>
      <trkpt lat="45.6007" lon="6.68688">
        <ele>1963.9463</ele>
        <time>2019-12-26 10:59:41</time>
      </trkpt>
      <trkpt lat="45.60071" lon="6.68691">
        <ele>1964.7373</ele>
        <time>2019-12-26 10:59:45</time>
      </trkpt>
      <trkpt lat="45.60072" lon="6.68692">
        <ele>1965.148</ele>
        <time>2019-12-26 10:59:46</time>
      </trkpt>
      <trkpt lat="45.60071" lon="6.68693">
        <ele>1965.0571</ele>
        <time>2019-12-26 10:59:47</time>
      </trkpt>
      <trkpt lat="45.60071" lon="6.68694">
        <ele>1965.0193</ele>
        <time>2019-12-26 10:59:48</time>
      </trkpt>
      <trkpt lat="45.60071" lon="6.68695">
        <ele>1964.6528</ele>
        <time>2019-12-26 10:59:49</time>
      </trkpt>
      <trkpt lat="45.60071" lon="6.68695">
        <ele>1964.6375</ele>
        <time>2019-12-26 10:59:50</time>
      </trkpt>
      <trkpt lat="45.60071" lon="6.68704">
        <ele>1965.915</ele>
        <time>2019-12-26 10:59:58</time>
      </trkpt>
      <trkpt lat="45.60071" lon="6.68705">
        <ele>1966.166</ele>
        <time>2019-12-26 10:59:59</time>
      </trkpt>
      <trkpt lat="45.60071" lon="6.68706">
        <ele>1965.9583</ele>
        <time>2019-12-26 11:00:00</time>
      </trkpt>
      <trkpt lat="45.60071" lon="6.68707">
        <ele>1966.5298</ele>
        <time>2019-12-26 11:00:01</time>
      </trkpt>
      <trkpt lat="45.60072" lon="6.68711">
        <ele>1968.8337</ele>
        <time>2019-12-26 11:00:05</time>
      </trkpt>
      <trkpt lat="45.60072" lon="6.68714">
        <ele>1969.3301</ele>
        <time>2019-12-26 11:00:09</time>
      </trkpt>
      <trkpt lat="45.60072" lon="6.68715">
        <ele>1969.7468</ele>
        <time>2019-12-26 11:00:10</time>
      </trkpt>
      <trkpt lat="45.60072" lon="6.68716">
        <ele>1970.0151</ele>
        <time>2019-12-26 11:00:11</time>
      </trkpt>
      <trkpt lat="45.60072" lon="6.68716">
        <ele>1970.0596</ele>
        <time>2019-12-26 11:00:12</time>
      </trkpt>
      <trkpt lat="45.60073" lon="6.6872">
        <ele>1971.8662</ele>
        <time>2019-12-26 11:00:18</time>
      </trkpt>
      <trkpt lat="45.60073" lon="6.68722">
        <ele>1972.1431</ele>
        <time>2019-12-26 11:00:19</time>
      </trkpt>
      <trkpt lat="45.60073" lon="6.68727">
        <ele>1971.6558</ele>
        <time>2019-12-26 11:00:25</time>
      </trkpt>
      <trkpt lat="45.60073" lon="6.68728">
        <ele>1970.8484</ele>
        <time>2019-12-26 11:00:26</time>
      </trkpt>
      <trkpt lat="45.60074" lon="6.68728">
        <ele>1970.4287</ele>
        <time>2019-12-26 11:00:27</time>
      </trkpt>
      <trkpt lat="45.60074" lon="6.6873">
        <ele>1971.0059</ele>
        <time>2019-12-26 11:00:28</time>
      </trkpt>
      <trkpt lat="45.60074" lon="6.68733">
        <ele>1970.1628</ele>
        <time>2019-12-26 11:00:32</time>
      </trkpt>
      <trkpt lat="45.60074" lon="6.68734">
        <ele>1969.7483</ele>
        <time>2019-12-26 11:00:33</time>
      </trkpt>
      <trkpt lat="45.60074" lon="6.68739">
        <ele>1969.208</ele>
        <time>2019-12-26 11:00:37</time>
      </trkpt>
      <trkpt lat="45.60074" lon="6.6874">
        <ele>1969.5444</ele>
        <time>2019-12-26 11:00:38</time>
      </trkpt>
      <trkpt lat="45.60075" lon="6.68743">
        <ele>1968.5647</ele>
        <time>2019-12-26 11:00:41</time>
      </trkpt>
      <trkpt lat="45.60075" lon="6.68744">
        <ele>1968.8755</ele>
        <time>2019-12-26 11:00:42</time>
      </trkpt>
      <trkpt lat="45.60075" lon="6.68745">
        <ele>1969.2817</ele>
        <time>2019-12-26 11:00:43</time>
      </trkpt>
      <trkpt lat="45.60075" lon="6.68747">
        <ele>1970.187</ele>
        <time>2019-12-26 11:00:45</time>
      </trkpt>
      <trkpt lat="45.60075" lon="6.6875">
        <ele>1969.8096</ele>
        <time>2019-12-26 11:00:49</time>
      </trkpt>
      <trkpt lat="45.60075" lon="6.68751">
        <ele>1970.7766</ele>
        <time>2019-12-26 11:00:50</time>
      </trkpt>
      <trkpt lat="45.60074" lon="6.68753">
        <ele>1971.3867</ele>
        <time>2019-12-26 11:00:52</time>
      </trkpt>
      <trkpt lat="45.60074" lon="6.68756">
        <ele>1970.9014</ele>
        <time>2019-12-26 11:00:55</time>
      </trkpt>
      <trkpt lat="45.60074" lon="6.68761">
        <ele>1970.6401</ele>
        <time>2019-12-26 11:00:59</time>
      </trkpt>
      <trkpt lat="45.60074" lon="6.68762">
        <ele>1970.9297</ele>
        <time>2019-12-26 11:01:00</time>
      </trkpt>
      <trkpt lat="45.60073" lon="6.68763">
        <ele>1970.6416</ele>
        <time>2019-12-26 11:01:01</time>
      </trkpt>
      <trkpt lat="45.60073" lon="6.68764">
        <ele>1970.4937</ele>
        <time>2019-12-26 11:01:02</time>
      </trkpt>
      <trkpt lat="45.60073" lon="6.68766">
        <ele>1969.7925</ele>
        <time>2019-12-26 11:01:04</time>
      </trkpt>
      <trkpt lat="45.60073" lon="6.68767">
        <ele>1970.542</ele>
        <time>2019-12-26 11:01:05</time>
      </trkpt>
      <trkpt lat="45.60072" lon="6.68769">
        <ele>1970.3499</ele>
        <time>2019-12-26 11:01:06</time>
      </trkpt>
      <trkpt lat="45.60072" lon="6.6877">
        <ele>1970.4431</ele>
        <time>2019-12-26 11:01:07</time>
      </trkpt>
      <trkpt lat="45.60072" lon="6.68773">
        <ele>1970.6616</ele>
        <time>2019-12-26 11:01:09</time>
      </trkpt>
      <trkpt lat="45.60071" lon="6.68774">
        <ele>1970.8833</ele>
        <time>2019-12-26 11:01:10</time>
      </trkpt>
      <trkpt lat="45.60071" lon="6.68779">
        <ele>1971.3452</ele>
        <time>2019-12-26 11:01:16</time>
      </trkpt>
      <trkpt lat="45.6007" lon="6.6878">
        <ele>1971.4893</ele>
        <time>2019-12-26 11:01:17</time>
      </trkpt>
      <trkpt lat="45.60069" lon="6.68785">
        <ele>1971.342</ele>
        <time>2019-12-26 11:01:23</time>
      </trkpt>
      <trkpt lat="45.60069" lon="6.68786">
        <ele>1971.8452</ele>
        <time>2019-12-26 11:01:24</time>
      </trkpt>
      <trkpt lat="45.60069" lon="6.68786">
        <ele>1972.3071</ele>
        <time>2019-12-26 11:01:25</time>
      </trkpt>
      <trkpt lat="45.60069" lon="6.68787">
        <ele>1972.1233</ele>
        <time>2019-12-26 11:01:26</time>
      </trkpt>
      <trkpt lat="45.60069" lon="6.68788">
        <ele>1972.2212</ele>
        <time>2019-12-26 11:01:27</time>
      </trkpt>
      <trkpt lat="45.60068" lon="6.68789">
        <ele>1972.2722</ele>
        <time>2019-12-26 11:01:28</time>
      </trkpt>
      <trkpt lat="45.60068" lon="6.68792">
        <ele>1972.919</ele>
        <time>2019-12-26 11:01:31</time>
      </trkpt>
      <trkpt lat="45.60068" lon="6.68793">
        <ele>1972.7871</ele>
        <time>2019-12-26 11:01:32</time>
      </trkpt>
      <trkpt lat="45.60064" lon="6.68804">
        <ele>1973.2539</ele>
        <time>2019-12-26 11:01:42</time>
      </trkpt>
      <trkpt lat="45.60064" lon="6.68805">
        <ele>1973.6011</ele>
        <time>2019-12-26 11:01:43</time>
      </trkpt>
      <trkpt lat="45.60064" lon="6.68806">
        <ele>1973.4819</ele>
        <time>2019-12-26 11:01:47</time>
      </trkpt>
      <trkpt lat="45.60064" lon="6.68806">
        <ele>1973.9546</ele>
        <time>2019-12-26 11:01:48</time>
      </trkpt>
      <trkpt lat="45.60065" lon="6.68807">
        <ele>1975.2573</ele>
        <time>2019-12-26 11:01:49</time>
      </trkpt>
      <trkpt lat="45.60065" lon="6.68807">
        <ele>1975.4998</ele>
        <time>2019-12-26 11:01:50</time>
      </trkpt>
      <trkpt lat="45.60064" lon="6.6881">
        <ele>1975.0984</ele>
        <time>2019-12-26 11:01:54</time>
      </trkpt>
      <trkpt lat="45.60064" lon="6.68812">
        <ele>1975.8047</ele>
        <time>2019-12-26 11:01:57</time>
      </trkpt>
      <trkpt lat="45.60064" lon="6.68814">
        <ele>1976.3171</ele>
        <time>2019-12-26 11:01:59</time>
      </trkpt>
      <trkpt lat="45.60064" lon="6.68816">
        <ele>1976.4014</ele>
        <time>2019-12-26 11:02:01</time>
      </trkpt>
      <trkpt lat="45.60064" lon="6.68816">
        <ele>1976.9138</ele>
        <time>2019-12-26 11:02:02</time>
      </trkpt>
      <trkpt lat="45.60064" lon="6.68817">
        <ele>1977.1958</ele>
        <time>2019-12-26 11:02:03</time>
      </trkpt>
      <trkpt lat="45.60064" lon="6.68818">
        <ele>1977.2793</ele>
        <time>2019-12-26 11:02:04</time>
      </trkpt>
      <trkpt lat="45.60065" lon="6.6882">
        <ele>1976.9563</ele>
        <time>2019-12-26 11:02:08</time>
      </trkpt>
      <trkpt lat="45.60065" lon="6.68821">
        <ele>1977.0691</ele>
        <time>2019-12-26 11:02:09</time>
      </trkpt>
      <trkpt lat="45.60065" lon="6.68822">
        <ele>1977.853</ele>
        <time>2019-12-26 11:02:10</time>
      </trkpt>
      <trkpt lat="45.60066" lon="6.68823">
        <ele>1978.8052</ele>
        <time>2019-12-26 11:02:11</time>
      </trkpt>
      <trkpt lat="45.60066" lon="6.68824">
        <ele>1979.1694</ele>
        <time>2019-12-26 11:02:12</time>
      </trkpt>
      <trkpt lat="45.60066" lon="6.68825">
        <ele>1980.0032</ele>
        <time>2019-12-26 11:02:13</time>
      </trkpt>
      <trkpt lat="45.60067" lon="6.68827">
        <ele>1980.1318</ele>
        <time>2019-12-26 11:02:16</time>
      </trkpt>
      <trkpt lat="45.60067" lon="6.6883">
        <ele>1980.6162</ele>
        <time>2019-12-26 11:02:20</time>
      </trkpt>
      <trkpt lat="45.60067" lon="6.6883">
        <ele>1981.1042</ele>
        <time>2019-12-26 11:02:21</time>
      </trkpt>
      <trkpt lat="45.60067" lon="6.68831">
        <ele>1981.2373</ele>
        <time>2019-12-26 11:02:22</time>
      </trkpt>
      <trkpt lat="45.60068" lon="6.68832">
        <ele>1980.7026</ele>
        <time>2019-12-26 11:02:23</time>
      </trkpt>
      <trkpt lat="45.60068" lon="6.68832">
        <ele>1980.9092</ele>
        <time>2019-12-26 11:02:24</time>
      </trkpt>
      <trkpt lat="45.60068" lon="6.68835">
        <ele>1981.2739</ele>
        <time>2019-12-26 11:02:28</time>
      </trkpt>
      <trkpt lat="45.60068" lon="6.68836">
        <ele>1981.731</ele>
        <time>2019-12-26 11:02:29</time>
      </trkpt>
      <trkpt lat="45.60069" lon="6.68839">
        <ele>1981.4165</ele>
        <time>2019-12-26 11:02:33</time>
      </trkpt>
      <trkpt lat="45.60069" lon="6.68839">
        <ele>1981.5581</ele>
        <time>2019-12-26 11:02:34</time>
      </trkpt>
      <trkpt lat="45.60069" lon="6.6884">
        <ele>1982.0791</ele>
        <time>2019-12-26 11:02:35</time>
      </trkpt>
      <trkpt lat="45.60069" lon="6.6884">
        <ele>1982.0901</ele>
        <time>2019-12-26 11:02:36</time>
      </trkpt>
      <trkpt lat="45.60069" lon="6.68841">
        <ele>1982.3833</ele>
        <time>2019-12-26 11:02:37</time>
      </trkpt>
      <trkpt lat="45.6007" lon="6.68842">
        <ele>1983.1538</ele>
        <time>2019-12-26 11:02:39</time>
      </trkpt>
      <trkpt lat="45.6007" lon="6.68843">
        <ele>1983.542</ele>
        <time>2019-12-26 11:02:40</time>
      </trkpt>
      <trkpt lat="45.6007" lon="6.68844">
        <ele>1983.6509</ele>
        <time>2019-12-26 11:02:41</time>
      </trkpt>
      <trkpt lat="45.6007" lon="6.68845">
        <ele>1984.3589</ele>
        <time>2019-12-26 11:02:42</time>
      </trkpt>
      <trkpt lat="45.60071" lon="6.68846">
        <ele>1984.606</ele>
        <time>2019-12-26 11:02:43</time>
      </trkpt>
      <trkpt lat="45.60071" lon="6.68846">
        <ele>1984.4595</ele>
        <time>2019-12-26 11:02:44</time>
      </trkpt>
      <trkpt lat="45.60071" lon="6.68847">
        <ele>1984.6167</ele>
        <time>2019-12-26 11:02:45</time>
      </trkpt>
      <trkpt lat="45.60072" lon="6.68847">
        <ele>1984.9641</ele>
        <time>2019-12-26 11:02:46</time>
      </trkpt>
      <trkpt lat="45.60072" lon="6.68848">
        <ele>1985.24</ele>
        <time>2019-12-26 11:02:47</time>
      </trkpt>
      <trkpt lat="45.60073" lon="6.68849">
        <ele>1985.5427</ele>
        <time>2019-12-26 11:02:48</time>
      </trkpt>
      <trkpt lat="45.60075" lon="6.68852">
        <ele>1985.3535</ele>
        <time>2019-12-26 11:02:52</time>
      </trkpt>
      <trkpt lat="45.60075" lon="6.68852">
        <ele>1985.2642</ele>
        <time>2019-12-26 11:02:53</time>
      </trkpt>
      <trkpt lat="45.60076" lon="6.68852">
        <ele>1984.5581</ele>
        <time>2019-12-26 11:02:54</time>
      </trkpt>
      <trkpt lat="45.60076" lon="6.68853">
        <ele>1985.0391</ele>
        <time>2019-12-26 11:02:57</time>
      </trkpt>
      <trkpt lat="45.60076" lon="6.68854">
        <ele>1985.0293</ele>
        <time>2019-12-26 11:02:59</time>
      </trkpt>
      <trkpt lat="45.60076" lon="6.68855">
        <ele>1984.883</ele>
        <time>2019-12-26 11:03:00</time>
      </trkpt>
      <trkpt lat="45.60076" lon="6.68855">
        <ele>1985.0366</ele>
        <time>2019-12-26 11:03:01</time>
      </trkpt>
      <trkpt lat="45.60076" lon="6.68856">
        <ele>1984.8672</ele>
        <time>2019-12-26 11:03:02</time>
      </trkpt>
      <trkpt lat="45.60078" lon="6.68857">
        <ele>1984.793</ele>
        <time>2019-12-26 11:03:05</time>
      </trkpt>
      <trkpt lat="45.60078" lon="6.68859">
        <ele>1985.5752</ele>
        <time>2019-12-26 11:03:14</time>
      </trkpt>
      <trkpt lat="45.60079" lon="6.68859">
        <ele>1986.0396</ele>
        <time>2019-12-26 11:03:15</time>
      </trkpt>
      <trkpt lat="45.60079" lon="6.6886">
        <ele>1986.416</ele>
        <time>2019-12-26 11:03:16</time>
      </trkpt>
      <trkpt lat="45.60079" lon="6.68861">
        <ele>1986.3335</ele>
        <time>2019-12-26 11:03:17</time>
      </trkpt>
      <trkpt lat="45.60079" lon="6.68862">
        <ele>1986.7888</ele>
        <time>2019-12-26 11:03:18</time>
      </trkpt>
      <trkpt lat="45.60079" lon="6.68862">
        <ele>1986.8823</ele>
        <time>2019-12-26 11:03:19</time>
      </trkpt>
      <trkpt lat="45.6008" lon="6.68863">
        <ele>1987.1636</ele>
        <time>2019-12-26 11:03:20</time>
      </trkpt>
      <trkpt lat="45.6008" lon="6.68865">
        <ele>1987.5732</ele>
        <time>2019-12-26 11:03:22</time>
      </trkpt>
      <trkpt lat="45.60081" lon="6.68865">
        <ele>1987.3582</ele>
        <time>2019-12-26 11:03:24</time>
      </trkpt>
      <trkpt lat="45.60081" lon="6.68866">
        <ele>1987.7153</ele>
        <time>2019-12-26 11:03:25</time>
      </trkpt>
      <trkpt lat="45.60083" lon="6.68869">
        <ele>1987.8206</ele>
        <time>2019-12-26 11:03:30</time>
      </trkpt>
      <trkpt lat="45.60083" lon="6.6887">
        <ele>1987.706</ele>
        <time>2019-12-26 11:03:31</time>
      </trkpt>
      <trkpt lat="45.60083" lon="6.6887">
        <ele>1988.5083</ele>
        <time>2019-12-26 11:03:32</time>
      </trkpt>
      <trkpt lat="45.60083" lon="6.68871">
        <ele>1988.5488</ele>
        <time>2019-12-26 11:03:33</time>
      </trkpt>
      <trkpt lat="45.60084" lon="6.68871">
        <ele>1989.071</ele>
        <time>2019-12-26 11:03:35</time>
      </trkpt>
      <trkpt lat="45.60084" lon="6.68871">
        <ele>1988.9839</ele>
        <time>2019-12-26 11:03:36</time>
      </trkpt>
      <trkpt lat="45.60084" lon="6.68872">
        <ele>1988.8267</ele>
        <time>2019-12-26 11:03:37</time>
      </trkpt>
      <trkpt lat="45.60085" lon="6.68873">
        <ele>1989.0376</ele>
        <time>2019-12-26 11:03:39</time>
      </trkpt>
      <trkpt lat="45.60085" lon="6.68874">
        <ele>1989.0278</ele>
        <time>2019-12-26 11:03:40</time>
      </trkpt>
      <trkpt lat="45.60085" lon="6.68874">
        <ele>1989.6626</ele>
        <time>2019-12-26 11:03:43</time>
      </trkpt>
      <trkpt lat="45.60087" lon="6.68877">
        <ele>1988.9597</ele>
        <time>2019-12-26 11:03:47</time>
      </trkpt>
      <trkpt lat="45.60088" lon="6.68878">
        <ele>1988.6328</ele>
        <time>2019-12-26 11:03:49</time>
      </trkpt>
      <trkpt lat="45.60088" lon="6.68878">
        <ele>1989.1172</ele>
        <time>2019-12-26 11:03:50</time>
      </trkpt>
      <trkpt lat="45.60089" lon="6.68879">
        <ele>1989.333</ele>
        <time>2019-12-26 11:03:51</time>
      </trkpt>
      <trkpt lat="45.60089" lon="6.6888">
        <ele>1989.581</ele>
        <time>2019-12-26 11:03:52</time>
      </trkpt>
      <trkpt lat="45.60089" lon="6.68881">
        <ele>1990.1028</ele>
        <time>2019-12-26 11:03:53</time>
      </trkpt>
      <trkpt lat="45.6009" lon="6.68883">
        <ele>1990.2251</ele>
        <time>2019-12-26 11:03:54</time>
      </trkpt>
      <trkpt lat="45.60089" lon="6.68884">
        <ele>1990.6245</ele>
        <time>2019-12-26 11:03:55</time>
      </trkpt>
      <trkpt lat="45.60089" lon="6.68885">
        <ele>1990.9343</ele>
        <time>2019-12-26 11:03:56</time>
      </trkpt>
      <trkpt lat="45.6009" lon="6.68885">
        <ele>1991.1943</ele>
        <time>2019-12-26 11:03:57</time>
      </trkpt>
      <trkpt lat="45.6009" lon="6.68886">
        <ele>1991.5054</ele>
        <time>2019-12-26 11:03:58</time>
      </trkpt>
      <trkpt lat="45.6009" lon="6.6889">
        <ele>1993.1162</ele>
        <time>2019-12-26 11:04:02</time>
      </trkpt>
      <trkpt lat="45.60091" lon="6.68891">
        <ele>1993.3516</ele>
        <time>2019-12-26 11:04:03</time>
      </trkpt>
      <trkpt lat="45.60091" lon="6.68894">
        <ele>1993.4824</ele>
        <time>2019-12-26 11:04:07</time>
      </trkpt>
      <trkpt lat="45.60092" lon="6.68896">
        <ele>1993.2092</ele>
        <time>2019-12-26 11:04:10</time>
      </trkpt>
      <trkpt lat="45.60092" lon="6.68896">
        <ele>1993.1421</ele>
        <time>2019-12-26 11:04:11</time>
      </trkpt>
      <trkpt lat="45.60092" lon="6.68897">
        <ele>1993.5513</ele>
        <time>2019-12-26 11:04:12</time>
      </trkpt>
      <trkpt lat="45.60092" lon="6.68898">
        <ele>1993.771</ele>
        <time>2019-12-26 11:04:13</time>
      </trkpt>
      <trkpt lat="45.60092" lon="6.68899">
        <ele>1993.5698</ele>
        <time>2019-12-26 11:04:14</time>
      </trkpt>
      <trkpt lat="45.60092" lon="6.689">
        <ele>1993.27</ele>
        <time>2019-12-26 11:04:15</time>
      </trkpt>
      <trkpt lat="45.60092" lon="6.689">
        <ele>1993.5923</ele>
        <time>2019-12-26 11:04:16</time>
      </trkpt>
      <trkpt lat="45.60092" lon="6.68901">
        <ele>1993.5312</ele>
        <time>2019-12-26 11:04:17</time>
      </trkpt>
      <trkpt lat="45.60092" lon="6.68902">
        <ele>1993.4534</ele>
        <time>2019-12-26 11:04:18</time>
      </trkpt>
      <trkpt lat="45.60092" lon="6.68902">
        <ele>1994.0181</ele>
        <time>2019-12-26 11:04:19</time>
      </trkpt>
      <trkpt lat="45.60092" lon="6.68903">
        <ele>1993.4597</ele>
        <time>2019-12-26 11:04:20</time>
      </trkpt>
      <trkpt lat="45.60093" lon="6.68905">
        <ele>1992.9084</ele>
        <time>2019-12-26 11:04:24</time>
      </trkpt>
      <trkpt lat="45.60093" lon="6.68906">
        <ele>1993.4756</ele>
        <time>2019-12-26 11:04:25</time>
      </trkpt>
      <trkpt lat="45.60093" lon="6.68907">
        <ele>1993.8535</ele>
        <time>2019-12-26 11:04:26</time>
      </trkpt>
      <trkpt lat="45.60093" lon="6.68907">
        <ele>1994.4536</ele>
        <time>2019-12-26 11:04:27</time>
      </trkpt>
      <trkpt lat="45.60094" lon="6.68908">
        <ele>1992.834</ele>
        <time>2019-12-26 11:04:29</time>
      </trkpt>
      <trkpt lat="45.60094" lon="6.6891">
        <ele>1993.1187</ele>
        <time>2019-12-26 11:04:30</time>
      </trkpt>
      <trkpt lat="45.60095" lon="6.68914">
        <ele>1994.2239</ele>
        <time>2019-12-26 11:04:33</time>
      </trkpt>
      <trkpt lat="45.60097" lon="6.68917">
        <ele>1994.8516</ele>
        <time>2019-12-26 11:04:37</time>
      </trkpt>
      <trkpt lat="45.60098" lon="6.6892">
        <ele>1995.5586</ele>
        <time>2019-12-26 11:04:39</time>
      </trkpt>
      <trkpt lat="45.60099" lon="6.68921">
        <ele>1996.1099</ele>
        <time>2019-12-26 11:04:40</time>
      </trkpt>
      <trkpt lat="45.601" lon="6.68921">
        <ele>1996.4912</ele>
        <time>2019-12-26 11:04:41</time>
      </trkpt>
      <trkpt lat="45.601" lon="6.68922">
        <ele>1997.1123</ele>
        <time>2019-12-26 11:04:42</time>
      </trkpt>
      <trkpt lat="45.60102" lon="6.68923">
        <ele>1996.5273</ele>
        <time>2019-12-26 11:04:44</time>
      </trkpt>
      <trkpt lat="45.60103" lon="6.68924">
        <ele>1997.2676</ele>
        <time>2019-12-26 11:04:46</time>
      </trkpt>
      <trkpt lat="45.60104" lon="6.68924">
        <ele>1997.8257</ele>
        <time>2019-12-26 11:04:47</time>
      </trkpt>
      <trkpt lat="45.60105" lon="6.68923">
        <ele>1997.3496</ele>
        <time>2019-12-26 11:04:49</time>
      </trkpt>
      <trkpt lat="45.60106" lon="6.68921">
        <ele>1997.9536</ele>
        <time>2019-12-26 11:04:52</time>
      </trkpt>
      <trkpt lat="45.60106" lon="6.6892">
        <ele>1998.3313</ele>
        <time>2019-12-26 11:04:53</time>
      </trkpt>
      <trkpt lat="45.60107" lon="6.68919">
        <ele>1998.4531</ele>
        <time>2019-12-26 11:04:54</time>
      </trkpt>
      <trkpt lat="45.60107" lon="6.68918">
        <ele>1998.4824</ele>
        <time>2019-12-26 11:04:55</time>
      </trkpt>
      <trkpt lat="45.60107" lon="6.68918">
        <ele>1998.7666</ele>
        <time>2019-12-26 11:04:57</time>
      </trkpt>
      <trkpt lat="45.60107" lon="6.68917">
        <ele>1998.5271</ele>
        <time>2019-12-26 11:04:58</time>
      </trkpt>
      <trkpt lat="45.60108" lon="6.68915">
        <ele>1998.4697</ele>
        <time>2019-12-26 11:05:01</time>
      </trkpt>
      <trkpt lat="45.60108" lon="6.68914">
        <ele>1998.4775</ele>
        <time>2019-12-26 11:05:02</time>
      </trkpt>
      <trkpt lat="45.60112" lon="6.6891">
        <ele>1999.0508</ele>
        <time>2019-12-26 11:05:09</time>
      </trkpt>
      <trkpt lat="45.60112" lon="6.68909">
        <ele>1998.9966</ele>
        <time>2019-12-26 11:05:10</time>
      </trkpt>
      <trkpt lat="45.60113" lon="6.68908">
        <ele>1999.1338</ele>
        <time>2019-12-26 11:05:13</time>
      </trkpt>
      <trkpt lat="45.60115" lon="6.68905">
        <ele>2000.3013</ele>
        <time>2019-12-26 11:05:17</time>
      </trkpt>
      <trkpt lat="45.60116" lon="6.68905">
        <ele>2000.6633</ele>
        <time>2019-12-26 11:05:18</time>
      </trkpt>
      <trkpt lat="45.60117" lon="6.68905">
        <ele>2001.2556</ele>
        <time>2019-12-26 11:05:22</time>
      </trkpt>
      <trkpt lat="45.60117" lon="6.68904">
        <ele>2001.425</ele>
        <time>2019-12-26 11:05:23</time>
      </trkpt>
      <trkpt lat="45.60118" lon="6.68904">
        <ele>2000.856</ele>
        <time>2019-12-26 11:05:24</time>
      </trkpt>
      <trkpt lat="45.60119" lon="6.68904">
        <ele>2001.2646</ele>
        <time>2019-12-26 11:05:25</time>
      </trkpt>
      <trkpt lat="45.60119" lon="6.68903">
        <ele>2001.175</ele>
        <time>2019-12-26 11:05:26</time>
      </trkpt>
      <trkpt lat="45.6012" lon="6.68902">
        <ele>2000.8481</ele>
        <time>2019-12-26 11:05:27</time>
      </trkpt>
      <trkpt lat="45.60123" lon="6.68898">
        <ele>2002.3647</ele>
        <time>2019-12-26 11:05:34</time>
      </trkpt>
      <trkpt lat="45.60124" lon="6.68898">
        <ele>2002.5071</ele>
        <time>2019-12-26 11:05:35</time>
      </trkpt>
      <trkpt lat="45.60124" lon="6.68897">
        <ele>2002.7295</ele>
        <time>2019-12-26 11:05:36</time>
      </trkpt>
      <trkpt lat="45.60124" lon="6.68897">
        <ele>2003.4004</ele>
        <time>2019-12-26 11:05:37</time>
      </trkpt>
      <trkpt lat="45.60125" lon="6.68897">
        <ele>2003.1592</ele>
        <time>2019-12-26 11:05:38</time>
      </trkpt>
      <trkpt lat="45.60125" lon="6.68896">
        <ele>2002.8723</ele>
        <time>2019-12-26 11:05:39</time>
      </trkpt>
      <trkpt lat="45.60126" lon="6.68896">
        <ele>2002.2783</ele>
        <time>2019-12-26 11:05:40</time>
      </trkpt>
      <trkpt lat="45.60129" lon="6.68894">
        <ele>2002.9409</ele>
        <time>2019-12-26 11:05:45</time>
      </trkpt>
      <trkpt lat="45.60134" lon="6.68894">
        <ele>2005.9368</ele>
        <time>2019-12-26 11:06:17</time>
      </trkpt>
      <trkpt lat="45.60135" lon="6.68895">
        <ele>2006.1519</ele>
        <time>2019-12-26 11:06:36</time>
      </trkpt>
      <trkpt lat="45.60138" lon="6.68897">
        <ele>2005.0488</ele>
        <time>2019-12-26 11:06:41</time>
      </trkpt>
      <trkpt lat="45.60139" lon="6.68897">
        <ele>2005.2473</ele>
        <time>2019-12-26 11:06:43</time>
      </trkpt>
      <trkpt lat="45.60141" lon="6.68898">
        <ele>2006.9224</ele>
        <time>2019-12-26 11:06:46</time>
      </trkpt>
      <trkpt lat="45.60142" lon="6.68899">
        <ele>2006.8203</ele>
        <time>2019-12-26 11:07:16</time>
      </trkpt>
      <trkpt lat="45.60142" lon="6.68899">
        <ele>2006.8418</ele>
        <time>2019-12-26 11:07:56</time>
      </trkpt>
      <trkpt lat="45.60142" lon="6.68899">
        <ele>2006.895</ele>
        <time>2019-12-26 11:08:39</time>
      </trkpt>
      <trkpt lat="45.60142" lon="6.68899">
        <ele>2007.3894</ele>
        <time>2019-12-26 11:09:04</time>
      </trkpt>
      <trkpt lat="45.60142" lon="6.68899">
        <ele>2007.6228</ele>
        <time>2019-12-26 11:09:05</time>
      </trkpt>
      <trkpt lat="45.60147" lon="6.68896">
        <ele>2006.6323</ele>
        <time>2019-12-26 11:09:39</time>
      </trkpt>
      <trkpt lat="45.60147" lon="6.68896">
        <ele>2005.7163</ele>
        <time>2019-12-26 11:09:46</time>
      </trkpt>
      <trkpt lat="45.60147" lon="6.68896">
        <ele>2006.2195</ele>
        <time>2019-12-26 11:09:47</time>
      </trkpt>
      <trkpt lat="45.60147" lon="6.68894">
        <ele>2005.8228</ele>
        <time>2019-12-26 11:10:21</time>
      </trkpt>
      <trkpt lat="45.60147" lon="6.68893">
        <ele>2005.7227</ele>
        <time>2019-12-26 11:10:38</time>
      </trkpt>
      <trkpt lat="45.60147" lon="6.68893">
        <ele>2005.5552</ele>
        <time>2019-12-26 11:10:39</time>
      </trkpt>
      <trkpt lat="45.60147" lon="6.68891">
        <ele>2002.6763</ele>
        <time>2019-12-26 11:11:10</time>
      </trkpt>
      <trkpt lat="45.60148" lon="6.68893">
        <ele>2003.6155</ele>
        <time>2019-12-26 11:11:58</time>
      </trkpt>
      <trkpt lat="45.60148" lon="6.68893">
        <ele>2003.3806</ele>
        <time>2019-12-26 11:12:03</time>
      </trkpt>
      <trkpt lat="45.60147" lon="6.68893">
        <ele>2003.8547</ele>
        <time>2019-12-26 11:12:04</time>
      </trkpt>
      <trkpt lat="45.60147" lon="6.68893">
        <ele>2004.0588</ele>
        <time>2019-12-26 11:12:23</time>
      </trkpt>
      <trkpt lat="45.60147" lon="6.68893">
        <ele>2004.114</ele>
        <time>2019-12-26 11:12:24</time>
      </trkpt>
      <trkpt lat="45.60146" lon="6.68894">
        <ele>2002.4033</ele>
        <time>2019-12-26 11:12:38</time>
      </trkpt>
      <trkpt lat="45.60146" lon="6.68894">
        <ele>2002.5483</ele>
        <time>2019-12-26 11:12:39</time>
      </trkpt>
      <trkpt lat="45.60146" lon="6.68895">
        <ele>2003.293</ele>
        <time>2019-12-26 11:12:41</time>
      </trkpt>
      <trkpt lat="45.60147" lon="6.68895">
        <ele>2004.3516</ele>
        <time>2019-12-26 11:12:42</time>
      </trkpt>
      <trkpt lat="45.60147" lon="6.68895">
        <ele>2004.2434</ele>
        <time>2019-12-26 11:12:43</time>
      </trkpt>
      <trkpt lat="45.60147" lon="6.68895">
        <ele>2004.1326</ele>
        <time>2019-12-26 11:12:44</time>
      </trkpt>
      <trkpt lat="45.60147" lon="6.68895">
        <ele>2004.2991</ele>
        <time>2019-12-26 11:12:45</time>
      </trkpt>
      <trkpt lat="45.60147" lon="6.68896">
        <ele>2004.3486</ele>
        <time>2019-12-26 11:12:46</time>
      </trkpt>
      <trkpt lat="45.60148" lon="6.68896">
        <ele>2005.5889</ele>
        <time>2019-12-26 11:12:48</time>
      </trkpt>
      <trkpt lat="45.60149" lon="6.68897">
        <ele>2005.3794</ele>
        <time>2019-12-26 11:12:49</time>
      </trkpt>
      <trkpt lat="45.60149" lon="6.68897">
        <ele>2004.2466</ele>
        <time>2019-12-26 11:12:50</time>
      </trkpt>
      <trkpt lat="45.60149" lon="6.68897">
        <ele>2003.762</ele>
        <time>2019-12-26 11:12:51</time>
      </trkpt>
      <trkpt lat="45.60147" lon="6.689">
        <ele>2000.209</ele>
        <time>2019-12-26 11:13:24</time>
      </trkpt>
      <trkpt lat="45.60148" lon="6.68901">
        <ele>2000.169</ele>
        <time>2019-12-26 11:13:25</time>
      </trkpt>
      <trkpt lat="45.60148" lon="6.68901">
        <ele>2000.9106</ele>
        <time>2019-12-26 11:13:26</time>
      </trkpt>
      <trkpt lat="45.60149" lon="6.68902">
        <ele>2000.9126</ele>
        <time>2019-12-26 11:13:27</time>
      </trkpt>
      <trkpt lat="45.60157" lon="6.68912">
        <ele>1999.5747</ele>
        <time>2019-12-26 11:13:39</time>
      </trkpt>
      <trkpt lat="45.60159" lon="6.68914">
        <ele>1999.77</ele>
        <time>2019-12-26 11:13:43</time>
      </trkpt>
      <trkpt lat="45.60159" lon="6.68915">
        <ele>2000.3325</ele>
        <time>2019-12-26 11:13:44</time>
      </trkpt>
      <trkpt lat="45.60162" lon="6.68915">
        <ele>2000.2966</ele>
        <time>2019-12-26 11:13:48</time>
      </trkpt>
      <trkpt lat="45.60162" lon="6.68915">
        <ele>2000.9048</ele>
        <time>2019-12-26 11:13:49</time>
      </trkpt>
      <trkpt lat="45.60163" lon="6.68915">
        <ele>2001.0635</ele>
        <time>2019-12-26 11:13:51</time>
      </trkpt>
      <trkpt lat="45.60164" lon="6.68915">
        <ele>2001.4985</ele>
        <time>2019-12-26 11:13:52</time>
      </trkpt>
      <trkpt lat="45.60166" lon="6.68916">
        <ele>2001.4961</ele>
        <time>2019-12-26 11:13:54</time>
      </trkpt>
      <trkpt lat="45.60167" lon="6.68916">
        <ele>2001.2134</ele>
        <time>2019-12-26 11:13:56</time>
      </trkpt>
      <trkpt lat="45.60168" lon="6.68916">
        <ele>2001.5173</ele>
        <time>2019-12-26 11:13:57</time>
      </trkpt>
      <trkpt lat="45.60171" lon="6.68915">
        <ele>2000.8599</ele>
        <time>2019-12-26 11:14:01</time>
      </trkpt>
      <trkpt lat="45.60172" lon="6.68916">
        <ele>1999.9951</ele>
        <time>2019-12-26 11:14:03</time>
      </trkpt>
      <trkpt lat="45.60173" lon="6.68916">
        <ele>1999.832</ele>
        <time>2019-12-26 11:14:04</time>
      </trkpt>
      <trkpt lat="45.60174" lon="6.68916">
        <ele>1999.8328</ele>
        <time>2019-12-26 11:14:05</time>
      </trkpt>
      <trkpt lat="45.60175" lon="6.68916">
        <ele>2001.4106</ele>
        <time>2019-12-26 11:14:07</time>
      </trkpt>
      <trkpt lat="45.60177" lon="6.68916">
        <ele>2001.1338</ele>
        <time>2019-12-26 11:14:10</time>
      </trkpt>
      <trkpt lat="45.60178" lon="6.68917">
        <ele>2002.5947</ele>
        <time>2019-12-26 11:14:12</time>
      </trkpt>
      <trkpt lat="45.6018" lon="6.68917">
        <ele>2004.0571</ele>
        <time>2019-12-26 11:14:14</time>
      </trkpt>
      <trkpt lat="45.60185" lon="6.68919">
        <ele>2008.0195</ele>
        <time>2019-12-26 11:14:23</time>
      </trkpt>
      <trkpt lat="45.60192" lon="6.6892">
        <ele>2010.1296</ele>
        <time>2019-12-26 11:14:30</time>
      </trkpt>
      <trkpt lat="45.60194" lon="6.6892">
        <ele>2011.2021</ele>
        <time>2019-12-26 11:14:32</time>
      </trkpt>
      <trkpt lat="45.60199" lon="6.68921">
        <ele>2013.3413</ele>
        <time>2019-12-26 11:14:39</time>
      </trkpt>
      <trkpt lat="45.60201" lon="6.68921">
        <ele>2015.0981</ele>
        <time>2019-12-26 11:14:42</time>
      </trkpt>
      <trkpt lat="45.60208" lon="6.68922">
        <ele>2016.7095</ele>
        <time>2019-12-26 11:14:53</time>
      </trkpt>
      <trkpt lat="45.60214" lon="6.68923">
        <ele>2018.1304</ele>
        <time>2019-12-26 11:15:01</time>
      </trkpt>
      <trkpt lat="45.60218" lon="6.68923">
        <ele>2018.4165</ele>
        <time>2019-12-26 11:15:07</time>
      </trkpt>
      <trkpt lat="45.60226" lon="6.68929">
        <ele>2020.1575</ele>
        <time>2019-12-26 11:15:21</time>
      </trkpt>
      <trkpt lat="45.60236" lon="6.68936">
        <ele>2023.8267</ele>
        <time>2019-12-26 11:15:35</time>
      </trkpt>
      <trkpt lat="45.60241" lon="6.68937">
        <ele>2025.2207</ele>
        <time>2019-12-26 11:15:42</time>
      </trkpt>
      <trkpt lat="45.60244" lon="6.68937">
        <ele>2026.5723</ele>
        <time>2019-12-26 11:15:47</time>
      </trkpt>
      <trkpt lat="45.60251" lon="6.68939">
        <ele>2027.9668</ele>
        <time>2019-12-26 11:15:57</time>
      </trkpt>
      <trkpt lat="45.60252" lon="6.68939">
        <ele>2028.6362</ele>
        <time>2019-12-26 11:15:58</time>
      </trkpt>
      <trkpt lat="45.60255" lon="6.68941">
        <ele>2029.2725</ele>
        <time>2019-12-26 11:16:03</time>
      </trkpt>
      <trkpt lat="45.60263" lon="6.68946">
        <ele>2030.9666</ele>
        <time>2019-12-26 11:16:15</time>
      </trkpt>
      <trkpt lat="45.60267" lon="6.68949">
        <ele>2031.3772</ele>
        <time>2019-12-26 11:16:21</time>
      </trkpt>
      <trkpt lat="45.60282" lon="6.68961">
        <ele>2034.3662</ele>
        <time>2019-12-26 11:16:47</time>
      </trkpt>
      <trkpt lat="45.60286" lon="6.68962">
        <ele>2035.9714</ele>
        <time>2019-12-26 11:16:52</time>
      </trkpt>
      <trkpt lat="45.6029" lon="6.68963">
        <ele>2035.3591</ele>
        <time>2019-12-26 11:16:59</time>
      </trkpt>
      <trkpt lat="45.60302" lon="6.68964">
        <ele>2037.147</ele>
        <time>2019-12-26 11:17:22</time>
      </trkpt>
      <trkpt lat="45.60304" lon="6.68965">
        <ele>2038.9216</ele>
        <time>2019-12-26 11:17:28</time>
      </trkpt>
      <trkpt lat="45.60305" lon="6.68965">
        <ele>2039.1802</ele>
        <time>2019-12-26 11:17:29</time>
      </trkpt>
      <trkpt lat="45.60307" lon="6.68967">
        <ele>2040.6265</ele>
        <time>2019-12-26 11:17:36</time>
      </trkpt>
      <trkpt lat="45.60308" lon="6.68967">
        <ele>2040.8523</ele>
        <time>2019-12-26 11:17:37</time>
      </trkpt>
      <trkpt lat="45.60321" lon="6.68976">
        <ele>2046.1243</ele>
        <time>2019-12-26 11:18:07</time>
      </trkpt>
      <trkpt lat="45.60323" lon="6.68978">
        <ele>2046.2886</ele>
        <time>2019-12-26 11:18:12</time>
      </trkpt>
      <trkpt lat="45.60324" lon="6.68981">
        <ele>2046.9761</ele>
        <time>2019-12-26 11:18:17</time>
      </trkpt>
      <trkpt lat="45.60323" lon="6.68985">
        <ele>2048.95</ele>
        <time>2019-12-26 11:18:24</time>
      </trkpt>
      <trkpt lat="45.60322" lon="6.68987">
        <ele>2049.3088</ele>
        <time>2019-12-26 11:18:28</time>
      </trkpt>
      <trkpt lat="45.60321" lon="6.68992">
        <ele>2050.2544</ele>
        <time>2019-12-26 11:18:34</time>
      </trkpt>
      <trkpt lat="45.60318" lon="6.69005">
        <ele>2051.6328</ele>
        <time>2019-12-26 11:18:53</time>
      </trkpt>
      <trkpt lat="45.60318" lon="6.6901">
        <ele>2052.947</ele>
        <time>2019-12-26 11:18:58</time>
      </trkpt>
      <trkpt lat="45.60318" lon="6.69021">
        <ele>2054.1199</ele>
        <time>2019-12-26 11:19:14</time>
      </trkpt>
      <trkpt lat="45.60319" lon="6.69027">
        <ele>2054.9326</ele>
        <time>2019-12-26 11:19:21</time>
      </trkpt>
      <trkpt lat="45.60319" lon="6.69028">
        <ele>2055.0989</ele>
        <time>2019-12-26 11:19:23</time>
      </trkpt>
      <trkpt lat="45.60321" lon="6.69039">
        <ele>2056.0479</ele>
        <time>2019-12-26 11:19:37</time>
      </trkpt>
      <trkpt lat="45.60321" lon="6.69043">
        <ele>2056.9524</ele>
        <time>2019-12-26 11:19:42</time>
      </trkpt>
      <trkpt lat="45.60321" lon="6.69048">
        <ele>2058.7673</ele>
        <time>2019-12-26 11:19:49</time>
      </trkpt>
      <trkpt lat="45.60321" lon="6.6905">
        <ele>2058.8499</ele>
        <time>2019-12-26 11:19:54</time>
      </trkpt>
      <trkpt lat="45.60321" lon="6.69051">
        <ele>2058.4705</ele>
        <time>2019-12-26 11:19:58</time>
      </trkpt>
      <trkpt lat="45.60321" lon="6.69054">
        <ele>2058.6953</ele>
        <time>2019-12-26 11:20:01</time>
      </trkpt>
      <trkpt lat="45.60319" lon="6.69063">
        <ele>2060.176</ele>
        <time>2019-12-26 11:20:12</time>
      </trkpt>
      <trkpt lat="45.6032" lon="6.69068">
        <ele>2061.087</ele>
        <time>2019-12-26 11:20:19</time>
      </trkpt>
      <trkpt lat="45.60324" lon="6.69071">
        <ele>2061.7622</ele>
        <time>2019-12-26 11:20:26</time>
      </trkpt>
      <trkpt lat="45.60328" lon="6.69072">
        <ele>2062.802</ele>
        <time>2019-12-26 11:20:33</time>
      </trkpt>
      <trkpt lat="45.60334" lon="6.69071">
        <ele>2063.5964</ele>
        <time>2019-12-26 11:20:42</time>
      </trkpt>
      <trkpt lat="45.6034" lon="6.69065">
        <ele>2063.211</ele>
        <time>2019-12-26 11:20:53</time>
      </trkpt>
      <trkpt lat="45.6034" lon="6.69064">
        <ele>2063.683</ele>
        <time>2019-12-26 11:20:54</time>
      </trkpt>
      <trkpt lat="45.6034" lon="6.69064">
        <ele>2063.2837</ele>
        <time>2019-12-26 11:20:55</time>
      </trkpt>
      <trkpt lat="45.60341" lon="6.69062">
        <ele>2063.6614</ele>
        <time>2019-12-26 11:20:57</time>
      </trkpt>
      <trkpt lat="45.60343" lon="6.69061">
        <ele>2063.6665</ele>
        <time>2019-12-26 11:21:00</time>
      </trkpt>
      <trkpt lat="45.60343" lon="6.6906">
        <ele>2063.1064</ele>
        <time>2019-12-26 11:21:01</time>
      </trkpt>
      <trkpt lat="45.60344" lon="6.69059">
        <ele>2063.719</ele>
        <time>2019-12-26 11:21:04</time>
      </trkpt>
      <trkpt lat="45.60346" lon="6.69058">
        <ele>2064.1992</ele>
        <time>2019-12-26 11:21:07</time>
      </trkpt>
      <trkpt lat="45.60348" lon="6.69056">
        <ele>2064.987</ele>
        <time>2019-12-26 11:21:12</time>
      </trkpt>
      <trkpt lat="45.60351" lon="6.69056">
        <ele>2066.0825</ele>
        <time>2019-12-26 11:21:18</time>
      </trkpt>
      <trkpt lat="45.60357" lon="6.69057">
        <ele>2068.0815</ele>
        <time>2019-12-26 11:21:28</time>
      </trkpt>
      <trkpt lat="45.60359" lon="6.69057">
        <ele>2068.7573</ele>
        <time>2019-12-26 11:21:32</time>
      </trkpt>
      <trkpt lat="45.60363" lon="6.69058">
        <ele>2070.0825</ele>
        <time>2019-12-26 11:21:39</time>
      </trkpt>
      <trkpt lat="45.60381" lon="6.69073">
        <ele>2076.276</ele>
        <time>2019-12-26 11:22:16</time>
      </trkpt>
      <trkpt lat="45.60382" lon="6.69073">
        <ele>2076.383</ele>
        <time>2019-12-26 11:22:18</time>
      </trkpt>
      <trkpt lat="45.60395" lon="6.69078">
        <ele>2079.8682</ele>
        <time>2019-12-26 11:22:41</time>
      </trkpt>
      <trkpt lat="45.60398" lon="6.69079">
        <ele>2079.9985</ele>
        <time>2019-12-26 11:22:47</time>
      </trkpt>
      <trkpt lat="45.60401" lon="6.69079">
        <ele>2080.6833</ele>
        <time>2019-12-26 11:22:51</time>
      </trkpt>
      <trkpt lat="45.60405" lon="6.6908">
        <ele>2081.0928</ele>
        <time>2019-12-26 11:22:59</time>
      </trkpt>
      <trkpt lat="45.6041" lon="6.69082">
        <ele>2081.9475</ele>
        <time>2019-12-26 11:23:11</time>
      </trkpt>
      <trkpt lat="45.6041" lon="6.69082">
        <ele>2081.924</ele>
        <time>2019-12-26 11:23:12</time>
      </trkpt>
      <trkpt lat="45.60411" lon="6.69082">
        <ele>2082.7283</ele>
        <time>2019-12-26 11:23:15</time>
      </trkpt>
      <trkpt lat="45.60412" lon="6.69083">
        <ele>2083.3728</ele>
        <time>2019-12-26 11:23:17</time>
      </trkpt>
      <trkpt lat="45.60419" lon="6.69088">
        <ele>2085.3242</ele>
        <time>2019-12-26 11:23:30</time>
      </trkpt>
      <trkpt lat="45.60431" lon="6.69099">
        <ele>2088.5776</ele>
        <time>2019-12-26 11:23:55</time>
      </trkpt>
      <trkpt lat="45.60431" lon="6.69099">
        <ele>2088.616</ele>
        <time>2019-12-26 11:24:01</time>
      </trkpt>
      <trkpt lat="45.60438" lon="6.69108">
        <ele>2090.057</ele>
        <time>2019-12-26 11:24:13</time>
      </trkpt>
      <trkpt lat="45.60455" lon="6.69134">
        <ele>2094.5496</ele>
        <time>2019-12-26 11:24:55</time>
      </trkpt>
      <trkpt lat="45.60472" lon="6.6916">
        <ele>2097.931</ele>
        <time>2019-12-26 11:25:34</time>
      </trkpt>
      <trkpt lat="45.60475" lon="6.69163">
        <ele>2098.9365</ele>
        <time>2019-12-26 11:25:40</time>
      </trkpt>
      <trkpt lat="45.60485" lon="6.69177">
        <ele>2102.9106</ele>
        <time>2019-12-26 11:26:08</time>
      </trkpt>
      <trkpt lat="45.60494" lon="6.69184">
        <ele>2104.2188</ele>
        <time>2019-12-26 11:26:26</time>
      </trkpt>
      <trkpt lat="45.605" lon="6.69189">
        <ele>2106.3616</ele>
        <time>2019-12-26 11:26:38</time>
      </trkpt>
      <trkpt lat="45.60507" lon="6.69197">
        <ele>2108.47</ele>
        <time>2019-12-26 11:26:54</time>
      </trkpt>
      <trkpt lat="45.6051" lon="6.69201">
        <ele>2108.4312</ele>
        <time>2019-12-26 11:27:01</time>
      </trkpt>
      <trkpt lat="45.60514" lon="6.69205">
        <ele>2108.9143</ele>
        <time>2019-12-26 11:27:09</time>
      </trkpt>
      <trkpt lat="45.6052" lon="6.69211">
        <ele>2110.1394</ele>
        <time>2019-12-26 11:27:24</time>
      </trkpt>
      <trkpt lat="45.60522" lon="6.69213">
        <ele>2110.8708</ele>
        <time>2019-12-26 11:27:28</time>
      </trkpt>
      <trkpt lat="45.60531" lon="6.69226">
        <ele>2113.6482</ele>
        <time>2019-12-26 11:27:49</time>
      </trkpt>
      <trkpt lat="45.60533" lon="6.69229">
        <ele>2113.3992</ele>
        <time>2019-12-26 11:27:55</time>
      </trkpt>
      <trkpt lat="45.60534" lon="6.69229">
        <ele>2113.5042</ele>
        <time>2019-12-26 11:27:56</time>
      </trkpt>
      <trkpt lat="45.60536" lon="6.69232">
        <ele>2114.3533</ele>
        <time>2019-12-26 11:28:02</time>
      </trkpt>
      <trkpt lat="45.6054" lon="6.69237">
        <ele>2116.1228</ele>
        <time>2019-12-26 11:28:12</time>
      </trkpt>
      <trkpt lat="45.60541" lon="6.69237">
        <ele>2116.5288</ele>
        <time>2019-12-26 11:28:14</time>
      </trkpt>
      <trkpt lat="45.60544" lon="6.6924">
        <ele>2117.379</ele>
        <time>2019-12-26 11:28:20</time>
      </trkpt>
      <trkpt lat="45.60544" lon="6.69244">
        <ele>2117.391</ele>
        <time>2019-12-26 11:28:26</time>
      </trkpt>
      <trkpt lat="45.60542" lon="6.69247">
        <ele>2117.507</ele>
        <time>2019-12-26 11:28:29</time>
      </trkpt>
      <trkpt lat="45.60542" lon="6.69247">
        <ele>2117.0566</ele>
        <time>2019-12-26 11:28:30</time>
      </trkpt>
      <trkpt lat="45.60541" lon="6.69247">
        <ele>2117.8513</ele>
        <time>2019-12-26 11:28:31</time>
      </trkpt>
      <trkpt lat="45.60539" lon="6.69252">
        <ele>2117.0144</ele>
        <time>2019-12-26 11:28:38</time>
      </trkpt>
      <trkpt lat="45.60534" lon="6.69259">
        <ele>2119.1428</ele>
        <time>2019-12-26 11:28:50</time>
      </trkpt>
      <trkpt lat="45.6053" lon="6.69265">
        <ele>2120.7827</ele>
        <time>2019-12-26 11:29:01</time>
      </trkpt>
      <trkpt lat="45.60523" lon="6.69279">
        <ele>2125.7761</ele>
        <time>2019-12-26 11:29:23</time>
      </trkpt>
      <trkpt lat="45.60521" lon="6.69283">
        <ele>2126.857</ele>
        <time>2019-12-26 11:29:30</time>
      </trkpt>
      <trkpt lat="45.60521" lon="6.69283">
        <ele>2127.0513</ele>
        <time>2019-12-26 11:29:31</time>
      </trkpt>
      <trkpt lat="45.6052" lon="6.69287">
        <ele>2127.7266</ele>
        <time>2019-12-26 11:29:36</time>
      </trkpt>
      <trkpt lat="45.6052" lon="6.69292">
        <ele>2129.1003</ele>
        <time>2019-12-26 11:29:43</time>
      </trkpt>
      <trkpt lat="45.6052" lon="6.69302">
        <ele>2130.1875</ele>
        <time>2019-12-26 11:29:56</time>
      </trkpt>
      <trkpt lat="45.60521" lon="6.69316">
        <ele>2131.7961</ele>
        <time>2019-12-26 11:30:15</time>
      </trkpt>
      <trkpt lat="45.60522" lon="6.69321">
        <ele>2131.9497</ele>
        <time>2019-12-26 11:30:21</time>
      </trkpt>
      <trkpt lat="45.60522" lon="6.69329">
        <ele>2133.1091</ele>
        <time>2019-12-26 11:30:31</time>
      </trkpt>
      <trkpt lat="45.60524" lon="6.69332">
        <ele>2133.828</ele>
        <time>2019-12-26 11:30:38</time>
      </trkpt>
      <trkpt lat="45.60527" lon="6.69333">
        <ele>2134.9766</ele>
        <time>2019-12-26 11:30:42</time>
      </trkpt>
      <trkpt lat="45.60544" lon="6.69328">
        <ele>2136.592</ele>
        <time>2019-12-26 11:31:11</time>
      </trkpt>
      <trkpt lat="45.60551" lon="6.69328">
        <ele>2138.5413</ele>
        <time>2019-12-26 11:31:23</time>
      </trkpt>
      <trkpt lat="45.60559" lon="6.6933">
        <ele>2141.362</ele>
        <time>2019-12-26 11:31:37</time>
      </trkpt>
      <trkpt lat="45.60564" lon="6.69331">
        <ele>2142.8635</ele>
        <time>2019-12-26 11:31:45</time>
      </trkpt>
      <trkpt lat="45.60578" lon="6.69335">
        <ele>2145.1985</ele>
        <time>2019-12-26 11:32:12</time>
      </trkpt>
      <trkpt lat="45.60579" lon="6.69335">
        <ele>2145.8105</ele>
        <time>2019-12-26 11:32:15</time>
      </trkpt>
      <trkpt lat="45.60579" lon="6.69336">
        <ele>2146.2288</ele>
        <time>2019-12-26 11:32:25</time>
      </trkpt>
      <trkpt lat="45.60581" lon="6.69337">
        <ele>2146.8933</ele>
        <time>2019-12-26 11:32:28</time>
      </trkpt>
      <trkpt lat="45.60587" lon="6.69344">
        <ele>2149.7878</ele>
        <time>2019-12-26 11:32:41</time>
      </trkpt>
      <trkpt lat="45.6059" lon="6.69348">
        <ele>2149.6484</ele>
        <time>2019-12-26 11:32:45</time>
      </trkpt>
      <trkpt lat="45.60605" lon="6.69372">
        <ele>2153.295</ele>
        <time>2019-12-26 11:33:18</time>
      </trkpt>
      <trkpt lat="45.60608" lon="6.69376">
        <ele>2153.5579</ele>
        <time>2019-12-26 11:33:24</time>
      </trkpt>
      <trkpt lat="45.60613" lon="6.69385">
        <ele>2155.0125</ele>
        <time>2019-12-26 11:33:37</time>
      </trkpt>
      <trkpt lat="45.6062" lon="6.69397">
        <ele>2158.3147</ele>
        <time>2019-12-26 11:34:04</time>
      </trkpt>
      <trkpt lat="45.60627" lon="6.69399">
        <ele>2158.88</ele>
        <time>2019-12-26 11:34:16</time>
      </trkpt>
      <trkpt lat="45.60631" lon="6.69395">
        <ele>2159.694</ele>
        <time>2019-12-26 11:34:22</time>
      </trkpt>
      <trkpt lat="45.60633" lon="6.69392">
        <ele>2158.9082</ele>
        <time>2019-12-26 11:34:29</time>
      </trkpt>
      <trkpt lat="45.60634" lon="6.69391">
        <ele>2158.6245</ele>
        <time>2019-12-26 11:34:32</time>
      </trkpt>
      <trkpt lat="45.60635" lon="6.6939">
        <ele>2159.6267</ele>
        <time>2019-12-26 11:34:35</time>
      </trkpt>
      <trkpt lat="45.60636" lon="6.69389">
        <ele>2159.2942</ele>
        <time>2019-12-26 11:34:40</time>
      </trkpt>
      <trkpt lat="45.60637" lon="6.69389">
        <ele>2159.4158</ele>
        <time>2019-12-26 11:34:41</time>
      </trkpt>
      <trkpt lat="45.60639" lon="6.69385">
        <ele>2159.8257</ele>
        <time>2019-12-26 11:34:48</time>
      </trkpt>
      <trkpt lat="45.60641" lon="6.69384">
        <ele>2160.2815</ele>
        <time>2019-12-26 11:34:55</time>
      </trkpt>
      <trkpt lat="45.60642" lon="6.69382">
        <ele>2160.9546</ele>
        <time>2019-12-26 11:34:58</time>
      </trkpt>
      <trkpt lat="45.60642" lon="6.69381">
        <ele>2161.2</ele>
        <time>2019-12-26 11:34:59</time>
      </trkpt>
      <trkpt lat="45.60644" lon="6.6938">
        <ele>2162.388</ele>
        <time>2019-12-26 11:35:02</time>
      </trkpt>
      <trkpt lat="45.60645" lon="6.69378">
        <ele>2163.257</ele>
        <time>2019-12-26 11:35:04</time>
      </trkpt>
      <trkpt lat="45.60647" lon="6.69378">
        <ele>2163.4304</ele>
        <time>2019-12-26 11:35:08</time>
      </trkpt>
      <trkpt lat="45.6065" lon="6.69379">
        <ele>2164.6584</ele>
        <time>2019-12-26 11:35:13</time>
      </trkpt>
      <trkpt lat="45.60656" lon="6.69387">
        <ele>2166.1548</ele>
        <time>2019-12-26 11:35:27</time>
      </trkpt>
      <trkpt lat="45.60658" lon="6.6939">
        <ele>2166.4043</ele>
        <time>2019-12-26 11:35:31</time>
      </trkpt>
      <trkpt lat="45.60667" lon="6.69399">
        <ele>2167.8525</ele>
        <time>2019-12-26 11:35:46</time>
      </trkpt>
      <trkpt lat="45.6067" lon="6.69401">
        <ele>2167.631</ele>
        <time>2019-12-26 11:35:50</time>
      </trkpt>
      <trkpt lat="45.60693" lon="6.69427">
        <ele>2169.9407</ele>
        <time>2019-12-26 11:36:29</time>
      </trkpt>
      <trkpt lat="45.60702" lon="6.69433">
        <ele>2170.6338</ele>
        <time>2019-12-26 11:36:44</time>
      </trkpt>
      <trkpt lat="45.60711" lon="6.69439">
        <ele>2171.3333</ele>
        <time>2019-12-26 11:37:00</time>
      </trkpt>
      <trkpt lat="45.60713" lon="6.69441">
        <ele>2171.7498</ele>
        <time>2019-12-26 11:37:05</time>
      </trkpt>
      <trkpt lat="45.60724" lon="6.6945">
        <ele>2173.9355</ele>
        <time>2019-12-26 11:37:24</time>
      </trkpt>
      <trkpt lat="45.60726" lon="6.69452">
        <ele>2175.2434</ele>
        <time>2019-12-26 11:37:28</time>
      </trkpt>
      <trkpt lat="45.60736" lon="6.69459">
        <ele>2176.9048</ele>
        <time>2019-12-26 11:37:46</time>
      </trkpt>
      <trkpt lat="45.60743" lon="6.69465">
        <ele>2177.9612</ele>
        <time>2019-12-26 11:37:58</time>
      </trkpt>
      <trkpt lat="45.60748" lon="6.69471">
        <ele>2179.7368</ele>
        <time>2019-12-26 11:38:09</time>
      </trkpt>
      <trkpt lat="45.60751" lon="6.69473">
        <ele>2179.7556</ele>
        <time>2019-12-26 11:38:13</time>
      </trkpt>
      <trkpt lat="45.60758" lon="6.69479">
        <ele>2179.5337</ele>
        <time>2019-12-26 11:38:27</time>
      </trkpt>
      <trkpt lat="45.60762" lon="6.69482">
        <ele>2180.7307</ele>
        <time>2019-12-26 11:38:33</time>
      </trkpt>
      <trkpt lat="45.60771" lon="6.69487">
        <ele>2182.192</ele>
        <time>2019-12-26 11:38:47</time>
      </trkpt>
      <trkpt lat="45.60772" lon="6.69488">
        <ele>2183.0098</ele>
        <time>2019-12-26 11:38:50</time>
      </trkpt>
      <trkpt lat="45.60772" lon="6.69488">
        <ele>2183.4434</ele>
        <time>2019-12-26 11:38:54</time>
      </trkpt>
      <trkpt lat="45.60774" lon="6.69491">
        <ele>2183.5178</ele>
        <time>2019-12-26 11:38:58</time>
      </trkpt>
      <trkpt lat="45.6079" lon="6.69503">
        <ele>2187.2717</ele>
        <time>2019-12-26 11:39:27</time>
      </trkpt>
      <trkpt lat="45.6079" lon="6.69504">
        <ele>2187.7783</ele>
        <time>2019-12-26 11:39:28</time>
      </trkpt>
      <trkpt lat="45.60809" lon="6.69523">
        <ele>2191.6506</ele>
        <time>2019-12-26 11:40:06</time>
      </trkpt>
      <trkpt lat="45.60818" lon="6.69531">
        <ele>2194.2554</ele>
        <time>2019-12-26 11:40:24</time>
      </trkpt>
      <trkpt lat="45.60827" lon="6.69538">
        <ele>2194.2517</ele>
        <time>2019-12-26 11:40:40</time>
      </trkpt>
      <trkpt lat="45.60841" lon="6.69552">
        <ele>2196.4219</ele>
        <time>2019-12-26 11:41:09</time>
      </trkpt>
      <trkpt lat="45.60843" lon="6.69553">
        <ele>2196.2634</ele>
        <time>2019-12-26 11:41:12</time>
      </trkpt>
      <trkpt lat="45.60848" lon="6.6956">
        <ele>2195.984</ele>
        <time>2019-12-26 11:41:24</time>
      </trkpt>
      <trkpt lat="45.6085" lon="6.69563">
        <ele>2195.9507</ele>
        <time>2019-12-26 11:41:29</time>
      </trkpt>
      <trkpt lat="45.60853" lon="6.69567">
        <ele>2196.8394</ele>
        <time>2019-12-26 11:41:37</time>
      </trkpt>
      <trkpt lat="45.60853" lon="6.69568">
        <ele>2197.149</ele>
        <time>2019-12-26 11:41:38</time>
      </trkpt>
      <trkpt lat="45.60854" lon="6.69568">
        <ele>2197.2402</ele>
        <time>2019-12-26 11:41:39</time>
      </trkpt>
      <trkpt lat="45.60854" lon="6.69569">
        <ele>2197.6938</ele>
        <time>2019-12-26 11:41:40</time>
      </trkpt>
      <trkpt lat="45.60857" lon="6.69571">
        <ele>2197.94</ele>
        <time>2019-12-26 11:41:50</time>
      </trkpt>
      <trkpt lat="45.60857" lon="6.69572">
        <ele>2198.545</ele>
        <time>2019-12-26 11:41:51</time>
      </trkpt>
      <trkpt lat="45.60858" lon="6.69573">
        <ele>2199.0093</ele>
        <time>2019-12-26 11:41:54</time>
      </trkpt>
      <trkpt lat="45.60858" lon="6.69574">
        <ele>2199.4426</ele>
        <time>2019-12-26 11:41:56</time>
      </trkpt>
      <trkpt lat="45.60857" lon="6.69578">
        <ele>2199.103</ele>
        <time>2019-12-26 11:42:01</time>
      </trkpt>
      <trkpt lat="45.60857" lon="6.69579">
        <ele>2199.451</ele>
        <time>2019-12-26 11:42:02</time>
      </trkpt>
      <trkpt lat="45.60857" lon="6.69579">
        <ele>2199.6245</ele>
        <time>2019-12-26 11:42:03</time>
      </trkpt>
      <trkpt lat="45.60856" lon="6.69584">
        <ele>2202.1877</ele>
        <time>2019-12-26 11:42:10</time>
      </trkpt>
      <trkpt lat="45.60855" lon="6.69586">
        <ele>2202.462</ele>
        <time>2019-12-26 11:42:13</time>
      </trkpt>
      <trkpt lat="45.60855" lon="6.69586">
        <ele>2202.5813</ele>
        <time>2019-12-26 11:42:14</time>
      </trkpt>
      <trkpt lat="45.60854" lon="6.69588">
        <ele>2203.598</ele>
        <time>2019-12-26 11:42:17</time>
      </trkpt>
      <trkpt lat="45.60854" lon="6.69589">
        <ele>2204.3682</ele>
        <time>2019-12-26 11:42:19</time>
      </trkpt>
      <trkpt lat="45.60853" lon="6.69592">
        <ele>2204.0964</ele>
        <time>2019-12-26 11:42:23</time>
      </trkpt>
      <trkpt lat="45.60853" lon="6.69592">
        <ele>2204.0847</ele>
        <time>2019-12-26 11:42:24</time>
      </trkpt>
      <trkpt lat="45.60849" lon="6.69601">
        <ele>2204.378</ele>
        <time>2019-12-26 11:42:39</time>
      </trkpt>
      <trkpt lat="45.60849" lon="6.69602">
        <ele>2204.2278</ele>
        <time>2019-12-26 11:42:40</time>
      </trkpt>
      <trkpt lat="45.60844" lon="6.69615">
        <ele>2205.6365</ele>
        <time>2019-12-26 11:43:00</time>
      </trkpt>
      <trkpt lat="45.60848" lon="6.69618">
        <ele>2205.8032</ele>
        <time>2019-12-26 11:43:06</time>
      </trkpt>
      <trkpt lat="45.60866" lon="6.6962">
        <ele>2208.9502</ele>
        <time>2019-12-26 11:43:34</time>
      </trkpt>
      <trkpt lat="45.60867" lon="6.6962">
        <ele>2208.947</ele>
        <time>2019-12-26 11:43:37</time>
      </trkpt>
      <trkpt lat="45.60869" lon="6.69619">
        <ele>2209.5386</ele>
        <time>2019-12-26 11:43:41</time>
      </trkpt>
      <trkpt lat="45.60872" lon="6.6962">
        <ele>2210.5698</ele>
        <time>2019-12-26 11:43:46</time>
      </trkpt>
      <trkpt lat="45.60875" lon="6.6962">
        <ele>2211.1948</ele>
        <time>2019-12-26 11:43:52</time>
      </trkpt>
      <trkpt lat="45.60879" lon="6.6962">
        <ele>2212.0828</ele>
        <time>2019-12-26 11:43:59</time>
      </trkpt>
      <trkpt lat="45.60885" lon="6.69619">
        <ele>2211.8125</ele>
        <time>2019-12-26 11:44:11</time>
      </trkpt>
      <trkpt lat="45.60889" lon="6.69618">
        <ele>2212.4275</ele>
        <time>2019-12-26 11:44:19</time>
      </trkpt>
      <trkpt lat="45.60897" lon="6.69615">
        <ele>2214.4316</ele>
        <time>2019-12-26 11:44:34</time>
      </trkpt>
      <trkpt lat="45.60899" lon="6.69613">
        <ele>2215.0955</ele>
        <time>2019-12-26 11:44:39</time>
      </trkpt>
      <trkpt lat="45.60907" lon="6.69611">
        <ele>2216.9558</ele>
        <time>2019-12-26 11:44:55</time>
      </trkpt>
      <trkpt lat="45.60911" lon="6.69611">
        <ele>2217.667</ele>
        <time>2019-12-26 11:45:03</time>
      </trkpt>
      <trkpt lat="45.60914" lon="6.69611">
        <ele>2218.2317</ele>
        <time>2019-12-26 11:45:07</time>
      </trkpt>
      <trkpt lat="45.60923" lon="6.69609">
        <ele>2220.4866</ele>
        <time>2019-12-26 11:45:23</time>
      </trkpt>
      <trkpt lat="45.60935" lon="6.6961">
        <ele>2222.723</ele>
        <time>2019-12-26 11:45:43</time>
      </trkpt>
      <trkpt lat="45.60938" lon="6.69612">
        <ele>2223.1997</ele>
        <time>2019-12-26 11:45:50</time>
      </trkpt>
      <trkpt lat="45.60942" lon="6.69613">
        <ele>2224.1638</ele>
        <time>2019-12-26 11:45:56</time>
      </trkpt>
      <trkpt lat="45.60945" lon="6.69613">
        <ele>2224.9565</ele>
        <time>2019-12-26 11:46:00</time>
      </trkpt>
      <trkpt lat="45.60946" lon="6.69613">
        <ele>2224.4993</ele>
        <time>2019-12-26 11:46:03</time>
      </trkpt>
      <trkpt lat="45.60945" lon="6.69615">
        <ele>2224.212</ele>
        <time>2019-12-26 11:47:06</time>
      </trkpt>
      <trkpt lat="45.60944" lon="6.69615">
        <ele>2224.1965</ele>
        <time>2019-12-26 11:47:36</time>
      </trkpt>
      <trkpt lat="45.60945" lon="6.69615">
        <ele>2224.3223</ele>
        <time>2019-12-26 11:48:15</time>
      </trkpt>
      <trkpt lat="45.60945" lon="6.69615">
        <ele>2224.682</ele>
        <time>2019-12-26 11:48:16</time>
      </trkpt>
      <trkpt lat="45.60948" lon="6.69609">
        <ele>2224.696</ele>
        <time>2019-12-26 11:48:39</time>
      </trkpt>
      <trkpt lat="45.60948" lon="6.69608">
        <ele>2224.0007</ele>
        <time>2019-12-26 11:48:40</time>
      </trkpt>
      <trkpt lat="45.60949" lon="6.69607">
        <ele>2225.8367</ele>
        <time>2019-12-26 11:49:05</time>
      </trkpt>
      <trkpt lat="45.60949" lon="6.69608">
        <ele>2227.5867</ele>
        <time>2019-12-26 11:49:06</time>
      </trkpt>
      <trkpt lat="45.6095" lon="6.69609">
        <ele>2226.6091</ele>
        <time>2019-12-26 11:49:07</time>
      </trkpt>
      <trkpt lat="45.6095" lon="6.69609">
        <ele>2226.4631</ele>
        <time>2019-12-26 11:49:08</time>
      </trkpt>
      <trkpt lat="45.60951" lon="6.6961">
        <ele>2226.6821</ele>
        <time>2019-12-26 11:49:09</time>
      </trkpt>
      <trkpt lat="45.60951" lon="6.69611">
        <ele>2226.8022</ele>
        <time>2019-12-26 11:49:10</time>
      </trkpt>
      <trkpt lat="45.60952" lon="6.69611">
        <ele>2227.382</ele>
        <time>2019-12-26 11:49:11</time>
      </trkpt>
      <trkpt lat="45.60952" lon="6.69611">
        <ele>2226.6948</ele>
        <time>2019-12-26 11:49:12</time>
      </trkpt>
      <trkpt lat="45.60953" lon="6.69614">
        <ele>2226.443</ele>
        <time>2019-12-26 11:49:16</time>
      </trkpt>
      <trkpt lat="45.60953" lon="6.69614">
        <ele>2226.7698</ele>
        <time>2019-12-26 11:49:17</time>
      </trkpt>
      <trkpt lat="45.60953" lon="6.69615">
        <ele>2226.8083</ele>
        <time>2019-12-26 11:49:18</time>
      </trkpt>
      <trkpt lat="45.60954" lon="6.69616">
        <ele>2226.6282</ele>
        <time>2019-12-26 11:49:19</time>
      </trkpt>
      <trkpt lat="45.60954" lon="6.69617">
        <ele>2226.3352</ele>
        <time>2019-12-26 11:49:20</time>
      </trkpt>
      <trkpt lat="45.60954" lon="6.69617">
        <ele>2225.8396</ele>
        <time>2019-12-26 11:49:21</time>
      </trkpt>
      <trkpt lat="45.60954" lon="6.69618">
        <ele>2225.4497</ele>
        <time>2019-12-26 11:49:22</time>
      </trkpt>
      <trkpt lat="45.60954" lon="6.69619">
        <ele>2225.0715</ele>
        <time>2019-12-26 11:49:23</time>
      </trkpt>
      <trkpt lat="45.60954" lon="6.69619">
        <ele>2225.2407</ele>
        <time>2019-12-26 11:49:24</time>
      </trkpt>
      <trkpt lat="45.60955" lon="6.6962">
        <ele>2225.8445</ele>
        <time>2019-12-26 11:49:25</time>
      </trkpt>
      <trkpt lat="45.60954" lon="6.69621">
        <ele>2226.078</ele>
        <time>2019-12-26 11:49:26</time>
      </trkpt>
      <trkpt lat="45.60955" lon="6.69622">
        <ele>2225.7092</ele>
        <time>2019-12-26 11:49:27</time>
      </trkpt>
      <trkpt lat="45.60955" lon="6.69624">
        <ele>2225.776</ele>
        <time>2019-12-26 11:49:30</time>
      </trkpt>
      <trkpt lat="45.60955" lon="6.69625">
        <ele>2226.4495</ele>
        <time>2019-12-26 11:49:32</time>
      </trkpt>
      <trkpt lat="45.60955" lon="6.69625">
        <ele>2226.644</ele>
        <time>2019-12-26 11:49:33</time>
      </trkpt>
      <trkpt lat="45.60955" lon="6.69626">
        <ele>2226.2744</ele>
        <time>2019-12-26 11:49:34</time>
      </trkpt>
      <trkpt lat="45.60956" lon="6.69629">
        <ele>2225.958</ele>
        <time>2019-12-26 11:49:36</time>
      </trkpt>
      <trkpt lat="45.60956" lon="6.6963">
        <ele>2226.8743</ele>
        <time>2019-12-26 11:49:38</time>
      </trkpt>
      <trkpt lat="45.60957" lon="6.69631">
        <ele>2227.0513</ele>
        <time>2019-12-26 11:49:39</time>
      </trkpt>
      <trkpt lat="45.60957" lon="6.69632">
        <ele>2227.3145</ele>
        <time>2019-12-26 11:49:40</time>
      </trkpt>
      <trkpt lat="45.60957" lon="6.69632">
        <ele>2227.84</ele>
        <time>2019-12-26 11:49:41</time>
      </trkpt>
      <trkpt lat="45.60959" lon="6.69634">
        <ele>2228.659</ele>
        <time>2019-12-26 11:49:47</time>
      </trkpt>
      <trkpt lat="45.6096" lon="6.69635">
        <ele>2228.5938</ele>
        <time>2019-12-26 11:49:48</time>
      </trkpt>
      <trkpt lat="45.6096" lon="6.69635">
        <ele>2228.9822</ele>
        <time>2019-12-26 11:49:49</time>
      </trkpt>
      <trkpt lat="45.60961" lon="6.69635">
        <ele>2228.3584</ele>
        <time>2019-12-26 11:49:50</time>
      </trkpt>
      <trkpt lat="45.60961" lon="6.69636">
        <ele>2227.8013</ele>
        <time>2019-12-26 11:49:51</time>
      </trkpt>
      <trkpt lat="45.60961" lon="6.69636">
        <ele>2228.3342</ele>
        <time>2019-12-26 11:49:52</time>
      </trkpt>
      <trkpt lat="45.60961" lon="6.69637">
        <ele>2228.2083</ele>
        <time>2019-12-26 11:49:53</time>
      </trkpt>
      <trkpt lat="45.60962" lon="6.69639">
        <ele>2229.4565</ele>
        <time>2019-12-26 11:50:17</time>
      </trkpt>
      <trkpt lat="45.60962" lon="6.69639">
        <ele>2229.629</ele>
        <time>2019-12-26 11:50:18</time>
      </trkpt>
      <trkpt lat="45.60962" lon="6.69641">
        <ele>2229.5571</ele>
        <time>2019-12-26 11:50:25</time>
      </trkpt>
      <trkpt lat="45.60963" lon="6.69641">
        <ele>2229.8518</ele>
        <time>2019-12-26 11:50:26</time>
      </trkpt>
      <trkpt lat="45.60964" lon="6.69641">
        <ele>2230.6616</ele>
        <time>2019-12-26 11:50:29</time>
      </trkpt>
      <trkpt lat="45.60965" lon="6.69641">
        <ele>2231.0884</ele>
        <time>2019-12-26 11:50:30</time>
      </trkpt>
      <trkpt lat="45.60966" lon="6.69641">
        <ele>2231.5125</ele>
        <time>2019-12-26 11:50:31</time>
      </trkpt>
      <trkpt lat="45.60967" lon="6.69641">
        <ele>2231.5693</ele>
        <time>2019-12-26 11:50:32</time>
      </trkpt>
      <trkpt lat="45.60968" lon="6.69641">
        <ele>2232.163</ele>
        <time>2019-12-26 11:50:33</time>
      </trkpt>
      <trkpt lat="45.60969" lon="6.69642">
        <ele>2232.464</ele>
        <time>2019-12-26 11:50:34</time>
      </trkpt>
      <trkpt lat="45.6097" lon="6.69642">
        <ele>2232.9011</ele>
        <time>2019-12-26 11:50:35</time>
      </trkpt>
      <trkpt lat="45.60971" lon="6.69642">
        <ele>2232.8665</ele>
        <time>2019-12-26 11:50:36</time>
      </trkpt>
      <trkpt lat="45.60971" lon="6.69642">
        <ele>2233.3184</ele>
        <time>2019-12-26 11:50:37</time>
      </trkpt>
      <trkpt lat="45.60972" lon="6.69642">
        <ele>2232.9302</ele>
        <time>2019-12-26 11:50:38</time>
      </trkpt>
      <trkpt lat="45.60973" lon="6.69642">
        <ele>2232.9338</ele>
        <time>2019-12-26 11:50:39</time>
      </trkpt>
      <trkpt lat="45.60974" lon="6.69643">
        <ele>2233.386</ele>
        <time>2019-12-26 11:50:40</time>
      </trkpt>
      <trkpt lat="45.60974" lon="6.69644">
        <ele>2233.201</ele>
        <time>2019-12-26 11:50:41</time>
      </trkpt>
      <trkpt lat="45.60974" lon="6.69644">
        <ele>2233.4783</ele>
        <time>2019-12-26 11:50:42</time>
      </trkpt>
      <trkpt lat="45.60974" lon="6.69645">
        <ele>2233.354</ele>
        <time>2019-12-26 11:50:43</time>
      </trkpt>
      <trkpt lat="45.60975" lon="6.69645">
        <ele>2233.2515</ele>
        <time>2019-12-26 11:50:44</time>
      </trkpt>
      <trkpt lat="45.60975" lon="6.69646">
        <ele>2233.1394</ele>
        <time>2019-12-26 11:50:45</time>
      </trkpt>
      <trkpt lat="45.60976" lon="6.69646">
        <ele>2233.1555</ele>
        <time>2019-12-26 11:50:46</time>
      </trkpt>
      <trkpt lat="45.60976" lon="6.69646">
        <ele>2233.238</ele>
        <time>2019-12-26 11:50:47</time>
      </trkpt>
      <trkpt lat="45.60977" lon="6.69646">
        <ele>2233.2004</ele>
        <time>2019-12-26 11:50:48</time>
      </trkpt>
      <trkpt lat="45.60977" lon="6.69646">
        <ele>2233.3447</ele>
        <time>2019-12-26 11:50:49</time>
      </trkpt>
      <trkpt lat="45.60977" lon="6.69647">
        <ele>2233.1208</ele>
        <time>2019-12-26 11:50:50</time>
      </trkpt>
      <trkpt lat="45.60977" lon="6.69647">
        <ele>2233.2578</ele>
        <time>2019-12-26 11:50:52</time>
      </trkpt>
      <trkpt lat="45.60977" lon="6.69647">
        <ele>2233.1675</ele>
        <time>2019-12-26 11:50:53</time>
      </trkpt>
      <trkpt lat="45.60978" lon="6.69647">
        <ele>2232.8</ele>
        <time>2019-12-26 11:50:54</time>
      </trkpt>
      <trkpt lat="45.60979" lon="6.69647">
        <ele>2233.6643</ele>
        <time>2019-12-26 11:50:55</time>
      </trkpt>
      <trkpt lat="45.6098" lon="6.69648">
        <ele>2234.3315</ele>
        <time>2019-12-26 11:50:56</time>
      </trkpt>
      <trkpt lat="45.60981" lon="6.69648">
        <ele>2234.4072</ele>
        <time>2019-12-26 11:50:57</time>
      </trkpt>
      <trkpt lat="45.60982" lon="6.69648">
        <ele>2234.1897</ele>
        <time>2019-12-26 11:50:58</time>
      </trkpt>
      <trkpt lat="45.60982" lon="6.69649">
        <ele>2234.2668</ele>
        <time>2019-12-26 11:50:59</time>
      </trkpt>
      <trkpt lat="45.60983" lon="6.69649">
        <ele>2233.6301</ele>
        <time>2019-12-26 11:51:00</time>
      </trkpt>
      <trkpt lat="45.60983" lon="6.6965">
        <ele>2234.1968</ele>
        <time>2019-12-26 11:51:01</time>
      </trkpt>
      <trkpt lat="45.60983" lon="6.6965">
        <ele>2234.8096</ele>
        <time>2019-12-26 11:51:03</time>
      </trkpt>
      <trkpt lat="45.60984" lon="6.6965">
        <ele>2234.371</ele>
        <time>2019-12-26 11:51:04</time>
      </trkpt>
      <trkpt lat="45.60984" lon="6.6965">
        <ele>2234.5552</ele>
        <time>2019-12-26 11:51:05</time>
      </trkpt>
      <trkpt lat="45.60985" lon="6.69651">
        <ele>2234.6658</ele>
        <time>2019-12-26 11:51:06</time>
      </trkpt>
      <trkpt lat="45.60985" lon="6.69651">
        <ele>2234.7083</ele>
        <time>2019-12-26 11:51:07</time>
      </trkpt>
      <trkpt lat="45.60986" lon="6.69651">
        <ele>2235.5571</ele>
        <time>2019-12-26 11:51:08</time>
      </trkpt>
      <trkpt lat="45.60986" lon="6.69652">
        <ele>2235.7476</ele>
        <time>2019-12-26 11:51:09</time>
      </trkpt>
      <trkpt lat="45.60989" lon="6.69652">
        <ele>2235.0896</ele>
        <time>2019-12-26 11:51:13</time>
      </trkpt>
      <trkpt lat="45.60989" lon="6.69651">
        <ele>2235.0208</ele>
        <time>2019-12-26 11:51:14</time>
      </trkpt>
      <trkpt lat="45.6099" lon="6.69651">
        <ele>2235.1975</ele>
        <time>2019-12-26 11:51:15</time>
      </trkpt>
      <trkpt lat="45.60991" lon="6.69651">
        <ele>2234.7197</ele>
        <time>2019-12-26 11:51:16</time>
      </trkpt>
      <trkpt lat="45.60996" lon="6.69655">
        <ele>2236.2021</ele>
        <time>2019-12-26 11:51:23</time>
      </trkpt>
      <trkpt lat="45.60996" lon="6.69658">
        <ele>2237.71</ele>
        <time>2019-12-26 11:51:26</time>
      </trkpt>
      <trkpt lat="45.60996" lon="6.69659">
        <ele>2237.946</ele>
        <time>2019-12-26 11:51:27</time>
      </trkpt>
      <trkpt lat="45.60996" lon="6.6966">
        <ele>2238.1636</ele>
        <time>2019-12-26 11:51:28</time>
      </trkpt>
      <trkpt lat="45.60997" lon="6.6966">
        <ele>2238.5093</ele>
        <time>2019-12-26 11:51:29</time>
      </trkpt>
      <trkpt lat="45.60997" lon="6.69661">
        <ele>2238.5703</ele>
        <time>2019-12-26 11:51:30</time>
      </trkpt>
      <trkpt lat="45.60997" lon="6.69662">
        <ele>2238.1882</ele>
        <time>2019-12-26 11:51:31</time>
      </trkpt>
      <trkpt lat="45.60998" lon="6.69663">
        <ele>2238.4495</ele>
        <time>2019-12-26 11:51:32</time>
      </trkpt>
      <trkpt lat="45.60998" lon="6.69663">
        <ele>2238.8486</ele>
        <time>2019-12-26 11:51:33</time>
      </trkpt>
      <trkpt lat="45.60998" lon="6.69663">
        <ele>2238.4019</ele>
        <time>2019-12-26 11:51:34</time>
      </trkpt>
      <trkpt lat="45.60999" lon="6.69664">
        <ele>2238.9988</ele>
        <time>2019-12-26 11:51:35</time>
      </trkpt>
      <trkpt lat="45.60999" lon="6.69666">
        <ele>2239.649</ele>
        <time>2019-12-26 11:51:37</time>
      </trkpt>
      <trkpt lat="45.61002" lon="6.69666">
        <ele>2239.5935</ele>
        <time>2019-12-26 11:51:41</time>
      </trkpt>
      <trkpt lat="45.61003" lon="6.69666">
        <ele>2239.7524</ele>
        <time>2019-12-26 11:51:42</time>
      </trkpt>
      <trkpt lat="45.61004" lon="6.69666">
        <ele>2239.7732</ele>
        <time>2019-12-26 11:51:43</time>
      </trkpt>
      <trkpt lat="45.61005" lon="6.69667">
        <ele>2240.6345</ele>
        <time>2019-12-26 11:51:44</time>
      </trkpt>
      <trkpt lat="45.61005" lon="6.69667">
        <ele>2240.7786</ele>
        <time>2019-12-26 11:51:45</time>
      </trkpt>
      <trkpt lat="45.61006" lon="6.69668">
        <ele>2241.0325</ele>
        <time>2019-12-26 11:51:46</time>
      </trkpt>
      <trkpt lat="45.61007" lon="6.69669">
        <ele>2240.478</ele>
        <time>2019-12-26 11:51:48</time>
      </trkpt>
      <trkpt lat="45.61009" lon="6.69669">
        <ele>2241.206</ele>
        <time>2019-12-26 11:51:51</time>
      </trkpt>
      <trkpt lat="45.6101" lon="6.69668">
        <ele>2240.785</ele>
        <time>2019-12-26 11:51:52</time>
      </trkpt>
      <trkpt lat="45.6101" lon="6.69669">
        <ele>2241.2668</ele>
        <time>2019-12-26 11:51:53</time>
      </trkpt>
      <trkpt lat="45.6101" lon="6.69669">
        <ele>2241.1433</ele>
        <time>2019-12-26 11:51:54</time>
      </trkpt>
      <trkpt lat="45.61011" lon="6.69669">
        <ele>2241.0535</ele>
        <time>2019-12-26 11:51:55</time>
      </trkpt>
      <trkpt lat="45.61011" lon="6.6967">
        <ele>2241.0674</ele>
        <time>2019-12-26 11:51:56</time>
      </trkpt>
      <trkpt lat="45.61012" lon="6.6967">
        <ele>2241.4114</ele>
        <time>2019-12-26 11:51:57</time>
      </trkpt>
      <trkpt lat="45.61013" lon="6.6967">
        <ele>2241.4778</ele>
        <time>2019-12-26 11:51:58</time>
      </trkpt>
      <trkpt lat="45.61013" lon="6.69671">
        <ele>2241.5217</ele>
        <time>2019-12-26 11:51:59</time>
      </trkpt>
      <trkpt lat="45.61014" lon="6.69671">
        <ele>2241.29</ele>
        <time>2019-12-26 11:52:00</time>
      </trkpt>
      <trkpt lat="45.61014" lon="6.69671">
        <ele>2241.316</ele>
        <time>2019-12-26 11:52:01</time>
      </trkpt>
      <trkpt lat="45.61014" lon="6.69671">
        <ele>2241.6826</ele>
        <time>2019-12-26 11:52:02</time>
      </trkpt>
      <trkpt lat="45.61015" lon="6.69672">
        <ele>2241.8735</ele>
        <time>2019-12-26 11:52:03</time>
      </trkpt>
      <trkpt lat="45.61015" lon="6.69673">
        <ele>2241.9343</ele>
        <time>2019-12-26 11:52:04</time>
      </trkpt>
      <trkpt lat="45.61015" lon="6.69673">
        <ele>2242.1584</ele>
        <time>2019-12-26 11:52:05</time>
      </trkpt>
      <trkpt lat="45.61015" lon="6.69674">
        <ele>2241.7693</ele>
        <time>2019-12-26 11:52:06</time>
      </trkpt>
      <trkpt lat="45.61016" lon="6.69674">
        <ele>2242.3875</ele>
        <time>2019-12-26 11:52:07</time>
      </trkpt>
      <trkpt lat="45.61016" lon="6.69674">
        <ele>2243.0186</ele>
        <time>2019-12-26 11:52:08</time>
      </trkpt>
      <trkpt lat="45.61017" lon="6.69675">
        <ele>2243.2834</ele>
        <time>2019-12-26 11:52:09</time>
      </trkpt>
      <trkpt lat="45.61017" lon="6.69675">
        <ele>2242.9036</ele>
        <time>2019-12-26 11:52:10</time>
      </trkpt>
      <trkpt lat="45.61018" lon="6.69675">
        <ele>2243.606</ele>
        <time>2019-12-26 11:52:11</time>
      </trkpt>
      <trkpt lat="45.6102" lon="6.69677">
        <ele>2243.7014</ele>
        <time>2019-12-26 11:52:16</time>
      </trkpt>
      <trkpt lat="45.6102" lon="6.69677">
        <ele>2243.5947</ele>
        <time>2019-12-26 11:52:17</time>
      </trkpt>
      <trkpt lat="45.61022" lon="6.6968">
        <ele>2245.2063</ele>
        <time>2019-12-26 11:52:20</time>
      </trkpt>
      <trkpt lat="45.61022" lon="6.6968">
        <ele>2245.039</ele>
        <time>2019-12-26 11:52:21</time>
      </trkpt>
      <trkpt lat="45.61022" lon="6.69681">
        <ele>2245.1414</ele>
        <time>2019-12-26 11:52:22</time>
      </trkpt>
      <trkpt lat="45.61022" lon="6.69682">
        <ele>2245.0364</ele>
        <time>2019-12-26 11:52:23</time>
      </trkpt>
      <trkpt lat="45.61022" lon="6.69683">
        <ele>2244.9648</ele>
        <time>2019-12-26 11:52:24</time>
      </trkpt>
      <trkpt lat="45.61022" lon="6.69684">
        <ele>2244.9507</ele>
        <time>2019-12-26 11:52:25</time>
      </trkpt>
      <trkpt lat="45.61023" lon="6.69685">
        <ele>2245.8867</ele>
        <time>2019-12-26 11:52:26</time>
      </trkpt>
      <trkpt lat="45.61023" lon="6.69685">
        <ele>2245.5007</ele>
        <time>2019-12-26 11:52:27</time>
      </trkpt>
      <trkpt lat="45.61023" lon="6.69686">
        <ele>2245.5337</ele>
        <time>2019-12-26 11:52:28</time>
      </trkpt>
      <trkpt lat="45.61026" lon="6.69695">
        <ele>2246.3008</ele>
        <time>2019-12-26 11:52:38</time>
      </trkpt>
      <trkpt lat="45.61026" lon="6.69696">
        <ele>2246.56</ele>
        <time>2019-12-26 11:52:39</time>
      </trkpt>
      <trkpt lat="45.61026" lon="6.69697">
        <ele>2246.4448</ele>
        <time>2019-12-26 11:52:40</time>
      </trkpt>
      <trkpt lat="45.61026" lon="6.69698">
        <ele>2246.7302</ele>
        <time>2019-12-26 11:52:41</time>
      </trkpt>
      <trkpt lat="45.61027" lon="6.69699">
        <ele>2247.227</ele>
        <time>2019-12-26 11:52:42</time>
      </trkpt>
      <trkpt lat="45.61027" lon="6.697">
        <ele>2246.3113</ele>
        <time>2019-12-26 11:52:43</time>
      </trkpt>
      <trkpt lat="45.61029" lon="6.69703">
        <ele>2246.9443</ele>
        <time>2019-12-26 11:52:49</time>
      </trkpt>
      <trkpt lat="45.6103" lon="6.69705">
        <ele>2247.0496</ele>
        <time>2019-12-26 11:52:51</time>
      </trkpt>
      <trkpt lat="45.61031" lon="6.69705">
        <ele>2246.8755</ele>
        <time>2019-12-26 11:52:52</time>
      </trkpt>
      <trkpt lat="45.61031" lon="6.69706">
        <ele>2247.3901</ele>
        <time>2019-12-26 11:52:53</time>
      </trkpt>
      <trkpt lat="45.61031" lon="6.69707">
        <ele>2247.5447</ele>
        <time>2019-12-26 11:52:54</time>
      </trkpt>
      <trkpt lat="45.61032" lon="6.69709">
        <ele>2248.604</ele>
        <time>2019-12-26 11:52:56</time>
      </trkpt>
      <trkpt lat="45.61033" lon="6.69711">
        <ele>2248.9302</ele>
        <time>2019-12-26 11:52:58</time>
      </trkpt>
      <trkpt lat="45.61034" lon="6.69712">
        <ele>2249.7864</ele>
        <time>2019-12-26 11:52:59</time>
      </trkpt>
      <trkpt lat="45.61034" lon="6.69713">
        <ele>2249.119</ele>
        <time>2019-12-26 11:53:00</time>
      </trkpt>
      <trkpt lat="45.61034" lon="6.69714">
        <ele>2249.315</ele>
        <time>2019-12-26 11:53:01</time>
      </trkpt>
      <trkpt lat="45.61035" lon="6.69717">
        <ele>2248.1067</ele>
        <time>2019-12-26 11:53:04</time>
      </trkpt>
      <trkpt lat="45.61036" lon="6.69719">
        <ele>2248.6707</ele>
        <time>2019-12-26 11:53:07</time>
      </trkpt>
      <trkpt lat="45.61036" lon="6.6972">
        <ele>2248.6704</ele>
        <time>2019-12-26 11:53:08</time>
      </trkpt>
      <trkpt lat="45.61037" lon="6.69723">
        <ele>2248.9136</ele>
        <time>2019-12-26 11:53:11</time>
      </trkpt>
      <trkpt lat="45.61039" lon="6.69725">
        <ele>2248.441</ele>
        <time>2019-12-26 11:53:14</time>
      </trkpt>
      <trkpt lat="45.61039" lon="6.69726">
        <ele>2248.6296</ele>
        <time>2019-12-26 11:53:15</time>
      </trkpt>
      <trkpt lat="45.61043" lon="6.69736">
        <ele>2249.2449</ele>
        <time>2019-12-26 11:53:24</time>
      </trkpt>
      <trkpt lat="45.61044" lon="6.69739">
        <ele>2250.2961</ele>
        <time>2019-12-26 11:53:28</time>
      </trkpt>
      <trkpt lat="45.61044" lon="6.6974">
        <ele>2250.2703</ele>
        <time>2019-12-26 11:53:29</time>
      </trkpt>
      <trkpt lat="45.61046" lon="6.69746">
        <ele>2251.2593</ele>
        <time>2019-12-26 11:53:35</time>
      </trkpt>
      <trkpt lat="45.61046" lon="6.69748">
        <ele>2251.828</ele>
        <time>2019-12-26 11:53:36</time>
      </trkpt>
      <trkpt lat="45.61048" lon="6.69753">
        <ele>2250.7537</ele>
        <time>2019-12-26 11:53:40</time>
      </trkpt>
      <trkpt lat="45.61048" lon="6.69754">
        <ele>2251.3647</ele>
        <time>2019-12-26 11:53:41</time>
      </trkpt>
      <trkpt lat="45.61049" lon="6.69756">
        <ele>2251.7053</ele>
        <time>2019-12-26 11:53:43</time>
      </trkpt>
      <trkpt lat="45.6105" lon="6.69758">
        <ele>2250.922</ele>
        <time>2019-12-26 11:53:45</time>
      </trkpt>
      <trkpt lat="45.6105" lon="6.69758">
        <ele>2251.751</ele>
        <time>2019-12-26 11:53:46</time>
      </trkpt>
      <trkpt lat="45.61052" lon="6.69761">
        <ele>2252.3018</ele>
        <time>2019-12-26 11:53:50</time>
      </trkpt>
      <trkpt lat="45.61053" lon="6.69762">
        <ele>2251.6836</ele>
        <time>2019-12-26 11:53:52</time>
      </trkpt>
      <trkpt lat="45.61054" lon="6.69763">
        <ele>2252.0679</ele>
        <time>2019-12-26 11:53:53</time>
      </trkpt>
      <trkpt lat="45.61054" lon="6.69764">
        <ele>2251.871</ele>
        <time>2019-12-26 11:53:54</time>
      </trkpt>
      <trkpt lat="45.61054" lon="6.69765">
        <ele>2252.3796</ele>
        <time>2019-12-26 11:53:55</time>
      </trkpt>
      <trkpt lat="45.61055" lon="6.69767">
        <ele>2252.1746</ele>
        <time>2019-12-26 11:53:58</time>
      </trkpt>
      <trkpt lat="45.61055" lon="6.69767">
        <ele>2252.374</ele>
        <time>2019-12-26 11:53:59</time>
      </trkpt>
      <trkpt lat="45.61055" lon="6.69768">
        <ele>2252.7192</ele>
        <time>2019-12-26 11:54:00</time>
      </trkpt>
      <trkpt lat="45.61058" lon="6.69772">
        <ele>2253.9573</ele>
        <time>2019-12-26 11:54:06</time>
      </trkpt>
      <trkpt lat="45.61058" lon="6.69773">
        <ele>2254.5625</ele>
        <time>2019-12-26 11:54:07</time>
      </trkpt>
      <trkpt lat="45.61058" lon="6.69774">
        <ele>2254.674</ele>
        <time>2019-12-26 11:54:08</time>
      </trkpt>
      <trkpt lat="45.61059" lon="6.69775">
        <ele>2254.66</ele>
        <time>2019-12-26 11:54:09</time>
      </trkpt>
      <trkpt lat="45.6106" lon="6.69782">
        <ele>2255.506</ele>
        <time>2019-12-26 11:54:17</time>
      </trkpt>
      <trkpt lat="45.6106" lon="6.69782">
        <ele>2255.1606</ele>
        <time>2019-12-26 11:54:18</time>
      </trkpt>
      <trkpt lat="45.61061" lon="6.69783">
        <ele>2254.7356</ele>
        <time>2019-12-26 11:54:19</time>
      </trkpt>
      <trkpt lat="45.61064" lon="6.69791">
        <ele>2255.4307</ele>
        <time>2019-12-26 11:54:29</time>
      </trkpt>
      <trkpt lat="45.61064" lon="6.69791">
        <ele>2254.8325</ele>
        <time>2019-12-26 11:54:30</time>
      </trkpt>
      <trkpt lat="45.61065" lon="6.69794">
        <ele>2255.4727</ele>
        <time>2019-12-26 11:54:33</time>
      </trkpt>
      <trkpt lat="45.61067" lon="6.69797">
        <ele>2255.687</ele>
        <time>2019-12-26 11:54:36</time>
      </trkpt>
      <trkpt lat="45.61067" lon="6.69798">
        <ele>2255.515</ele>
        <time>2019-12-26 11:54:37</time>
      </trkpt>
      <trkpt lat="45.6107" lon="6.69812">
        <ele>2256.1921</ele>
        <time>2019-12-26 11:54:52</time>
      </trkpt>
      <trkpt lat="45.61071" lon="6.69813">
        <ele>2256.7754</ele>
        <time>2019-12-26 11:54:53</time>
      </trkpt>
      <trkpt lat="45.61071" lon="6.69815">
        <ele>2257.3037</ele>
        <time>2019-12-26 11:54:55</time>
      </trkpt>
      <trkpt lat="45.61072" lon="6.69818">
        <ele>2257.2996</ele>
        <time>2019-12-26 11:54:59</time>
      </trkpt>
      <trkpt lat="45.61072" lon="6.69819">
        <ele>2257.882</ele>
        <time>2019-12-26 11:55:00</time>
      </trkpt>
      <trkpt lat="45.61072" lon="6.69823">
        <ele>2258.136</ele>
        <time>2019-12-26 11:55:04</time>
      </trkpt>
      <trkpt lat="45.61073" lon="6.69825">
        <ele>2258.5679</ele>
        <time>2019-12-26 11:55:07</time>
      </trkpt>
      <trkpt lat="45.61073" lon="6.69826">
        <ele>2258.8413</ele>
        <time>2019-12-26 11:55:08</time>
      </trkpt>
      <trkpt lat="45.61073" lon="6.69827">
        <ele>2259.5874</ele>
        <time>2019-12-26 11:55:09</time>
      </trkpt>
      <trkpt lat="45.61073" lon="6.69827">
        <ele>2259.4526</ele>
        <time>2019-12-26 11:55:10</time>
      </trkpt>
      <trkpt lat="45.61073" lon="6.69828">
        <ele>2259.5771</ele>
        <time>2019-12-26 11:55:11</time>
      </trkpt>
      <trkpt lat="45.61074" lon="6.69828">
        <ele>2258.7297</ele>
        <time>2019-12-26 11:55:12</time>
      </trkpt>
      <trkpt lat="45.61074" lon="6.69831">
        <ele>2259.118</ele>
        <time>2019-12-26 11:55:15</time>
      </trkpt>
      <trkpt lat="45.61075" lon="6.69831">
        <ele>2259.2705</ele>
        <time>2019-12-26 11:55:16</time>
      </trkpt>
      <trkpt lat="45.6108" lon="6.69843">
        <ele>2260.011</ele>
        <time>2019-12-26 11:55:30</time>
      </trkpt>
      <trkpt lat="45.6108" lon="6.69846">
        <ele>2260.5713</ele>
        <time>2019-12-26 11:55:33</time>
      </trkpt>
      <trkpt lat="45.61081" lon="6.69847">
        <ele>2261.1216</ele>
        <time>2019-12-26 11:55:34</time>
      </trkpt>
      <trkpt lat="45.61083" lon="6.69856">
        <ele>2261.5344</ele>
        <time>2019-12-26 11:55:45</time>
      </trkpt>
      <trkpt lat="45.61084" lon="6.69857">
        <ele>2262.199</ele>
        <time>2019-12-26 11:55:46</time>
      </trkpt>
      <trkpt lat="45.61086" lon="6.69862">
        <ele>2263.248</ele>
        <time>2019-12-26 11:55:52</time>
      </trkpt>
      <trkpt lat="45.61087" lon="6.69863">
        <ele>2263.9478</ele>
        <time>2019-12-26 11:55:53</time>
      </trkpt>
      <trkpt lat="45.61088" lon="6.69868">
        <ele>2264.8408</ele>
        <time>2019-12-26 11:55:59</time>
      </trkpt>
      <trkpt lat="45.61088" lon="6.69869">
        <ele>2265.0146</ele>
        <time>2019-12-26 11:56:00</time>
      </trkpt>
      <trkpt lat="45.61089" lon="6.69872">
        <ele>2264.678</ele>
        <time>2019-12-26 11:56:03</time>
      </trkpt>
      <trkpt lat="45.6109" lon="6.69874">
        <ele>2264.0325</ele>
        <time>2019-12-26 11:56:06</time>
      </trkpt>
      <trkpt lat="45.6109" lon="6.69875">
        <ele>2263.9888</ele>
        <time>2019-12-26 11:56:07</time>
      </trkpt>
      <trkpt lat="45.61091" lon="6.69879">
        <ele>2263.0347</ele>
        <time>2019-12-26 11:56:11</time>
      </trkpt>
      <trkpt lat="45.61095" lon="6.69883">
        <ele>2263.408</ele>
        <time>2019-12-26 11:56:17</time>
      </trkpt>
      <trkpt lat="45.61095" lon="6.69883">
        <ele>2263.9717</ele>
        <time>2019-12-26 11:56:18</time>
      </trkpt>
      <trkpt lat="45.61096" lon="6.69884">
        <ele>2264.2104</ele>
        <time>2019-12-26 11:56:19</time>
      </trkpt>
      <trkpt lat="45.61096" lon="6.69885">
        <ele>2264.6733</ele>
        <time>2019-12-26 11:56:20</time>
      </trkpt>
      <trkpt lat="45.61098" lon="6.6989">
        <ele>2265.9358</ele>
        <time>2019-12-26 11:56:25</time>
      </trkpt>
      <trkpt lat="45.61098" lon="6.69892">
        <ele>2265.6897</ele>
        <time>2019-12-26 11:56:29</time>
      </trkpt>
      <trkpt lat="45.61099" lon="6.69892">
        <ele>2265.4775</ele>
        <time>2019-12-26 11:56:30</time>
      </trkpt>
      <trkpt lat="45.61099" lon="6.69893">
        <ele>2265.951</ele>
        <time>2019-12-26 11:56:31</time>
      </trkpt>
      <trkpt lat="45.61099" lon="6.69894">
        <ele>2266.2095</ele>
        <time>2019-12-26 11:56:32</time>
      </trkpt>
      <trkpt lat="45.611" lon="6.69894">
        <ele>2266.4412</ele>
        <time>2019-12-26 11:56:33</time>
      </trkpt>
      <trkpt lat="45.611" lon="6.69894">
        <ele>2266.603</ele>
        <time>2019-12-26 11:56:34</time>
      </trkpt>
      <trkpt lat="45.61101" lon="6.69896">
        <ele>2266.648</ele>
        <time>2019-12-26 11:56:36</time>
      </trkpt>
      <trkpt lat="45.61101" lon="6.69898">
        <ele>2266.635</ele>
        <time>2019-12-26 11:56:38</time>
      </trkpt>
      <trkpt lat="45.61101" lon="6.69899">
        <ele>2267.1667</ele>
        <time>2019-12-26 11:56:39</time>
      </trkpt>
      <trkpt lat="45.61103" lon="6.69904">
        <ele>2267.8591</ele>
        <time>2019-12-26 11:56:45</time>
      </trkpt>
      <trkpt lat="45.61103" lon="6.69905">
        <ele>2267.764</ele>
        <time>2019-12-26 11:56:46</time>
      </trkpt>
      <trkpt lat="45.61106" lon="6.69912">
        <ele>2268.4404</ele>
        <time>2019-12-26 11:56:53</time>
      </trkpt>
      <trkpt lat="45.61108" lon="6.69916">
        <ele>2268.042</ele>
        <time>2019-12-26 11:56:58</time>
      </trkpt>
      <trkpt lat="45.61108" lon="6.69916">
        <ele>2268.2224</ele>
        <time>2019-12-26 11:56:59</time>
      </trkpt>
      <trkpt lat="45.61108" lon="6.69916">
        <ele>2268.3467</ele>
        <time>2019-12-26 11:57:00</time>
      </trkpt>
      <trkpt lat="45.61109" lon="6.69919">
        <ele>2269.0354</ele>
        <time>2019-12-26 11:57:03</time>
      </trkpt>
      <trkpt lat="45.6111" lon="6.6992">
        <ele>2269.1174</ele>
        <time>2019-12-26 11:57:05</time>
      </trkpt>
      <trkpt lat="45.61112" lon="6.69925">
        <ele>2270.6272</ele>
        <time>2019-12-26 11:57:11</time>
      </trkpt>
      <trkpt lat="45.61112" lon="6.69926">
        <ele>2271.0237</ele>
        <time>2019-12-26 11:57:12</time>
      </trkpt>
      <trkpt lat="45.61114" lon="6.6993">
        <ele>2271.451</ele>
        <time>2019-12-26 11:57:16</time>
      </trkpt>
      <trkpt lat="45.61114" lon="6.6993">
        <ele>2271.544</ele>
        <time>2019-12-26 11:57:17</time>
      </trkpt>
      <trkpt lat="45.61116" lon="6.69933">
        <ele>2272.173</ele>
        <time>2019-12-26 11:57:21</time>
      </trkpt>
      <trkpt lat="45.61117" lon="6.69934">
        <ele>2272.4849</ele>
        <time>2019-12-26 11:57:22</time>
      </trkpt>
      <trkpt lat="45.61118" lon="6.69938">
        <ele>2272.4072</ele>
        <time>2019-12-26 11:57:26</time>
      </trkpt>
      <trkpt lat="45.61118" lon="6.69939">
        <ele>2272.1455</ele>
        <time>2019-12-26 11:57:27</time>
      </trkpt>
      <trkpt lat="45.61122" lon="6.69951">
        <ele>2272.172</ele>
        <time>2019-12-26 11:57:41</time>
      </trkpt>
      <trkpt lat="45.61122" lon="6.69953">
        <ele>2271.6362</ele>
        <time>2019-12-26 11:57:42</time>
      </trkpt>
      <trkpt lat="45.61123" lon="6.69955">
        <ele>2271.7156</ele>
        <time>2019-12-26 11:57:45</time>
      </trkpt>
      <trkpt lat="45.61123" lon="6.69955">
        <ele>2271.8145</ele>
        <time>2019-12-26 11:57:46</time>
      </trkpt>
      <trkpt lat="45.61123" lon="6.69956">
        <ele>2272.758</ele>
        <time>2019-12-26 11:57:47</time>
      </trkpt>
      <trkpt lat="45.61124" lon="6.6996">
        <ele>2272.7402</ele>
        <time>2019-12-26 11:57:50</time>
      </trkpt>
      <trkpt lat="45.61125" lon="6.69961">
        <ele>2272.4058</ele>
        <time>2019-12-26 11:57:51</time>
      </trkpt>
      <trkpt lat="45.61125" lon="6.69962">
        <ele>2271.6091</ele>
        <time>2019-12-26 11:57:52</time>
      </trkpt>
      <trkpt lat="45.61127" lon="6.69969">
        <ele>2271.3406</ele>
        <time>2019-12-26 11:57:58</time>
      </trkpt>
      <trkpt lat="45.61127" lon="6.6997">
        <ele>2270.7925</ele>
        <time>2019-12-26 11:57:59</time>
      </trkpt>
      <trkpt lat="45.61128" lon="6.69973">
        <ele>2271.1113</ele>
        <time>2019-12-26 11:58:01</time>
      </trkpt>
      <trkpt lat="45.61128" lon="6.69973">
        <ele>2270.9763</ele>
        <time>2019-12-26 11:58:02</time>
      </trkpt>
      <trkpt lat="45.61128" lon="6.69976">
        <ele>2269.974</ele>
        <time>2019-12-26 11:58:04</time>
      </trkpt>
      <trkpt lat="45.61129" lon="6.69977">
        <ele>2269.623</ele>
        <time>2019-12-26 11:58:05</time>
      </trkpt>
      <trkpt lat="45.61131" lon="6.69982">
        <ele>2269.8674</ele>
        <time>2019-12-26 11:58:09</time>
      </trkpt>
      <trkpt lat="45.61132" lon="6.69984">
        <ele>2270.6685</ele>
        <time>2019-12-26 11:58:13</time>
      </trkpt>
      <trkpt lat="45.61134" lon="6.69985">
        <ele>2271.009</ele>
        <time>2019-12-26 11:58:16</time>
      </trkpt>
      <trkpt lat="45.61134" lon="6.69987">
        <ele>2270.9216</ele>
        <time>2019-12-26 11:58:18</time>
      </trkpt>
      <trkpt lat="45.61135" lon="6.69988">
        <ele>2271.1213</ele>
        <time>2019-12-26 11:58:19</time>
      </trkpt>
      <trkpt lat="45.61135" lon="6.69988">
        <ele>2270.8655</ele>
        <time>2019-12-26 11:58:20</time>
      </trkpt>
      <trkpt lat="45.61135" lon="6.69989">
        <ele>2271.915</ele>
        <time>2019-12-26 11:58:21</time>
      </trkpt>
      <trkpt lat="45.61136" lon="6.69989">
        <ele>2271.9365</ele>
        <time>2019-12-26 11:58:22</time>
      </trkpt>
      <trkpt lat="45.61135" lon="6.6999">
        <ele>2272.543</ele>
        <time>2019-12-26 11:58:52</time>
      </trkpt>
      <trkpt lat="45.61135" lon="6.6999">
        <ele>2272.621</ele>
        <time>2019-12-26 11:59:27</time>
      </trkpt>
      <trkpt lat="45.61135" lon="6.6999">
        <ele>2272.4053</ele>
        <time>2019-12-26 11:59:32</time>
      </trkpt>
      <trkpt lat="45.61135" lon="6.6999">
        <ele>2272.643</ele>
        <time>2019-12-26 11:59:33</time>
      </trkpt>
      <trkpt lat="45.61136" lon="6.69989">
        <ele>2273.343</ele>
        <time>2019-12-26 12:00:07</time>
      </trkpt>
      <trkpt lat="45.61136" lon="6.69989">
        <ele>2273.3584</ele>
        <time>2019-12-26 12:00:39</time>
      </trkpt>
      <trkpt lat="45.61136" lon="6.69989">
        <ele>2273.3687</ele>
        <time>2019-12-26 12:01:10</time>
      </trkpt>
      <trkpt lat="45.61136" lon="6.69989">
        <ele>2273.3857</ele>
        <time>2019-12-26 12:01:43</time>
      </trkpt>
      <trkpt lat="45.61135" lon="6.69989">
        <ele>2273.4148</ele>
        <time>2019-12-26 12:02:13</time>
      </trkpt>
      <trkpt lat="45.61135" lon="6.69989">
        <ele>2273.414</ele>
        <time>2019-12-26 12:02:43</time>
      </trkpt>
      <trkpt lat="45.61135" lon="6.69989">
        <ele>2273.4453</ele>
        <time>2019-12-26 12:03:14</time>
      </trkpt>
      <trkpt lat="45.61135" lon="6.69989">
        <ele>2273.4727</ele>
        <time>2019-12-26 12:03:44</time>
      </trkpt>
      <trkpt lat="45.61135" lon="6.69989">
        <ele>2273.4797</ele>
        <time>2019-12-26 12:04:14</time>
      </trkpt>
      <trkpt lat="45.61135" lon="6.69989">
        <ele>2273.474</ele>
        <time>2019-12-26 12:04:46</time>
      </trkpt>
      <trkpt lat="45.61135" lon="6.69989">
        <ele>2273.4854</ele>
        <time>2019-12-26 12:05:17</time>
      </trkpt>
      <trkpt lat="45.61135" lon="6.69989">
        <ele>2273.5015</ele>
        <time>2019-12-26 12:05:47</time>
      </trkpt>
      <trkpt lat="45.61135" lon="6.69989">
        <ele>2273.5205</ele>
        <time>2019-12-26 12:06:17</time>
      </trkpt>
      <trkpt lat="45.61135" lon="6.69989">
        <ele>2273.509</ele>
        <time>2019-12-26 12:06:47</time>
      </trkpt>
      <trkpt lat="45.61135" lon="6.69989">
        <ele>2273.528</ele>
        <time>2019-12-26 12:07:17</time>
      </trkpt>
      <trkpt lat="45.61135" lon="6.69989">
        <ele>2273.501</ele>
        <time>2019-12-26 12:07:48</time>
      </trkpt>
      <trkpt lat="45.61135" lon="6.69989">
        <ele>2273.4895</ele>
        <time>2019-12-26 12:08:18</time>
      </trkpt>
      <trkpt lat="45.61135" lon="6.69989">
        <ele>2273.4897</ele>
        <time>2019-12-26 12:08:48</time>
      </trkpt>
      <trkpt lat="45.61135" lon="6.69989">
        <ele>2273.514</ele>
        <time>2019-12-26 12:09:18</time>
      </trkpt>
      <trkpt lat="45.61135" lon="6.69989">
        <ele>2274.515</ele>
        <time>2019-12-26 12:09:40</time>
      </trkpt>
      <trkpt lat="45.61135" lon="6.69989">
        <ele>2274.662</ele>
        <time>2019-12-26 12:09:41</time>
      </trkpt>
      <trkpt lat="45.61135" lon="6.69989">
        <ele>2274.2676</ele>
        <time>2019-12-26 12:10:12</time>
      </trkpt>
      <trkpt lat="45.61135" lon="6.69989">
        <ele>2274.2732</ele>
        <time>2019-12-26 12:10:43</time>
      </trkpt>
      <trkpt lat="45.61135" lon="6.69989">
        <ele>2274.2915</ele>
        <time>2019-12-26 12:11:15</time>
      </trkpt>
      <trkpt lat="45.61135" lon="6.69989">
        <ele>2274.3176</ele>
        <time>2019-12-26 12:11:45</time>
      </trkpt>
      <trkpt lat="45.61135" lon="6.69989">
        <ele>2274.3193</ele>
        <time>2019-12-26 12:12:15</time>
      </trkpt>
      <trkpt lat="45.61135" lon="6.69989">
        <ele>2274.3428</ele>
        <time>2019-12-26 12:12:45</time>
      </trkpt>
      <trkpt lat="45.61135" lon="6.69989">
        <ele>2274.3894</ele>
        <time>2019-12-26 12:13:17</time>
      </trkpt>
      <trkpt lat="45.61135" lon="6.69989">
        <ele>2274.4258</ele>
        <time>2019-12-26 12:13:49</time>
      </trkpt>
      <trkpt lat="45.61135" lon="6.69989">
        <ele>2274.4465</ele>
        <time>2019-12-26 12:14:21</time>
      </trkpt>
      <trkpt lat="45.61135" lon="6.69989">
        <ele>2274.4475</ele>
        <time>2019-12-26 12:14:51</time>
      </trkpt>
      <trkpt lat="45.61135" lon="6.69989">
        <ele>2274.5112</ele>
        <time>2019-12-26 12:15:23</time>
      </trkpt>
      <trkpt lat="45.61135" lon="6.69989">
        <ele>2274.6548</ele>
        <time>2019-12-26 12:15:35</time>
      </trkpt>
      <trkpt lat="45.61135" lon="6.69989">
        <ele>2274.7266</ele>
        <time>2019-12-26 12:15:36</time>
      </trkpt>
      <trkpt lat="45.61135" lon="6.69987">
        <ele>2274.2412</ele>
        <time>2019-12-26 12:16:06</time>
      </trkpt>
      <trkpt lat="45.61135" lon="6.69987">
        <ele>2274.272</ele>
        <time>2019-12-26 12:16:36</time>
      </trkpt>
      <trkpt lat="45.61135" lon="6.69987">
        <ele>2274.293</ele>
        <time>2019-12-26 12:17:07</time>
      </trkpt>
      <trkpt lat="45.61135" lon="6.69987">
        <ele>2274.334</ele>
        <time>2019-12-26 12:17:47</time>
      </trkpt>
      <trkpt lat="45.61135" lon="6.69987">
        <ele>2274.348</ele>
        <time>2019-12-26 12:18:20</time>
      </trkpt>
      <trkpt lat="45.61135" lon="6.69987">
        <ele>2274.38</ele>
        <time>2019-12-26 12:18:58</time>
      </trkpt>
      <trkpt lat="45.61135" lon="6.69987">
        <ele>2274.4185</ele>
        <time>2019-12-26 12:19:48</time>
      </trkpt>
      <trkpt lat="45.61135" lon="6.69987">
        <ele>2274.4504</ele>
        <time>2019-12-26 12:20:34</time>
      </trkpt>
      <trkpt lat="45.61135" lon="6.69987">
        <ele>2274.4768</ele>
        <time>2019-12-26 12:21:29</time>
      </trkpt>
      <trkpt lat="45.61134" lon="6.69986">
        <ele>2274.4148</ele>
        <time>2019-12-26 12:22:00</time>
      </trkpt>
      <trkpt lat="45.61134" lon="6.69984">
        <ele>2274.352</ele>
        <time>2019-12-26 12:22:01</time>
      </trkpt>
      <trkpt lat="45.61133" lon="6.69983">
        <ele>2273.4673</ele>
        <time>2019-12-26 12:22:02</time>
      </trkpt>
      <trkpt lat="45.61132" lon="6.69981">
        <ele>2272.6487</ele>
        <time>2019-12-26 12:22:06</time>
      </trkpt>
      <trkpt lat="45.61131" lon="6.69978">
        <ele>2270.9436</ele>
        <time>2019-12-26 12:22:09</time>
      </trkpt>
      <trkpt lat="45.6113" lon="6.69976">
        <ele>2270.9702</ele>
        <time>2019-12-26 12:22:10</time>
      </trkpt>
      <trkpt lat="45.6112" lon="6.69939">
        <ele>2269.0752</ele>
        <time>2019-12-26 12:22:22</time>
      </trkpt>
      <trkpt lat="45.61114" lon="6.6992">
        <ele>2269.6384</ele>
        <time>2019-12-26 12:22:27</time>
      </trkpt>
      <trkpt lat="45.61112" lon="6.69906">
        <ele>2269.1672</ele>
        <time>2019-12-26 12:22:30</time>
      </trkpt>
      <trkpt lat="45.6111" lon="6.69897">
        <ele>2267.3584</ele>
        <time>2019-12-26 12:22:32</time>
      </trkpt>
      <trkpt lat="45.61106" lon="6.69885">
        <ele>2265.4702</ele>
        <time>2019-12-26 12:22:35</time>
      </trkpt>
      <trkpt lat="45.61103" lon="6.69877">
        <ele>2266.0183</ele>
        <time>2019-12-26 12:22:37</time>
      </trkpt>
      <trkpt lat="45.61097" lon="6.69862">
        <ele>2264.5562</ele>
        <time>2019-12-26 12:22:41</time>
      </trkpt>
      <trkpt lat="45.61089" lon="6.69846">
        <ele>2263.781</ele>
        <time>2019-12-26 12:22:45</time>
      </trkpt>
      <trkpt lat="45.61086" lon="6.69843">
        <ele>2263.4521</ele>
        <time>2019-12-26 12:22:46</time>
      </trkpt>
      <trkpt lat="45.61084" lon="6.69839">
        <ele>2262.5635</ele>
        <time>2019-12-26 12:22:47</time>
      </trkpt>
      <trkpt lat="45.61082" lon="6.69827">
        <ele>2261.6667</ele>
        <time>2019-12-26 12:22:49</time>
      </trkpt>
      <trkpt lat="45.61081" lon="6.69821">
        <ele>2261.1838</ele>
        <time>2019-12-26 12:22:50</time>
      </trkpt>
      <trkpt lat="45.61078" lon="6.69817">
        <ele>2260.681</ele>
        <time>2019-12-26 12:22:51</time>
      </trkpt>
      <trkpt lat="45.61073" lon="6.69812">
        <ele>2259.3533</ele>
        <time>2019-12-26 12:22:53</time>
      </trkpt>
      <trkpt lat="45.61071" lon="6.69812">
        <ele>2258.8535</ele>
        <time>2019-12-26 12:22:54</time>
      </trkpt>
      <trkpt lat="45.61071" lon="6.69814">
        <ele>2258.2148</ele>
        <time>2019-12-26 12:22:57</time>
      </trkpt>
      <trkpt lat="45.6107" lon="6.69812">
        <ele>2260.3494</ele>
        <time>2019-12-26 12:23:30</time>
      </trkpt>
      <trkpt lat="45.61071" lon="6.69811">
        <ele>2259.8528</ele>
        <time>2019-12-26 12:23:32</time>
      </trkpt>
      <trkpt lat="45.61071" lon="6.69809">
        <ele>2259.2153</ele>
        <time>2019-12-26 12:23:33</time>
      </trkpt>
      <trkpt lat="45.61067" lon="6.69791">
        <ele>2257.3896</ele>
        <time>2019-12-26 12:23:39</time>
      </trkpt>
      <trkpt lat="45.61062" lon="6.69776">
        <ele>2256.8972</ele>
        <time>2019-12-26 12:23:43</time>
      </trkpt>
      <trkpt lat="45.61051" lon="6.69747">
        <ele>2254.324</ele>
        <time>2019-12-26 12:23:51</time>
      </trkpt>
      <trkpt lat="45.61048" lon="6.69736">
        <ele>2254.4873</ele>
        <time>2019-12-26 12:23:54</time>
      </trkpt>
      <trkpt lat="45.61047" lon="6.69733">
        <ele>2254.3584</ele>
        <time>2019-12-26 12:23:55</time>
      </trkpt>
      <trkpt lat="45.61045" lon="6.6973">
        <ele>2254.1575</ele>
        <time>2019-12-26 12:23:56</time>
      </trkpt>
      <trkpt lat="45.61036" lon="6.69709">
        <ele>2253.234</ele>
        <time>2019-12-26 12:24:03</time>
      </trkpt>
      <trkpt lat="45.61028" lon="6.69701">
        <ele>2252.059</ele>
        <time>2019-12-26 12:24:08</time>
      </trkpt>
      <trkpt lat="45.61028" lon="6.69702">
        <ele>2253.4443</ele>
        <time>2019-12-26 12:24:46</time>
      </trkpt>
      <trkpt lat="45.61028" lon="6.69702">
        <ele>2253.428</ele>
        <time>2019-12-26 12:25:39</time>
      </trkpt>
      <trkpt lat="45.61028" lon="6.69702">
        <ele>2253.4375</ele>
        <time>2019-12-26 12:26:33</time>
      </trkpt>
      <trkpt lat="45.61028" lon="6.69702">
        <ele>2253.44</ele>
        <time>2019-12-26 12:27:07</time>
      </trkpt>
      <trkpt lat="45.61027" lon="6.697">
        <ele>2253.581</ele>
        <time>2019-12-26 12:27:12</time>
      </trkpt>
      <trkpt lat="45.61018" lon="6.69692">
        <ele>2251.9773</ele>
        <time>2019-12-26 12:27:15</time>
      </trkpt>
      <trkpt lat="45.61015" lon="6.6969">
        <ele>2251.481</ele>
        <time>2019-12-26 12:27:16</time>
      </trkpt>
      <trkpt lat="45.61013" lon="6.69689">
        <ele>2250.575</ele>
        <time>2019-12-26 12:27:17</time>
      </trkpt>
      <trkpt lat="45.61011" lon="6.69686">
        <ele>2251.4548</ele>
        <time>2019-12-26 12:27:18</time>
      </trkpt>
      <trkpt lat="45.6101" lon="6.69683">
        <ele>2250.5068</ele>
        <time>2019-12-26 12:27:19</time>
      </trkpt>
      <trkpt lat="45.61009" lon="6.69671">
        <ele>2248.0532</ele>
        <time>2019-12-26 12:27:22</time>
      </trkpt>
      <trkpt lat="45.61006" lon="6.69669">
        <ele>2247.2732</ele>
        <time>2019-12-26 12:27:23</time>
      </trkpt>
      <trkpt lat="45.61002" lon="6.69668">
        <ele>2246.1167</ele>
        <time>2019-12-26 12:27:24</time>
      </trkpt>
      <trkpt lat="45.60995" lon="6.69665">
        <ele>2245.0466</ele>
        <time>2019-12-26 12:27:26</time>
      </trkpt>
      <trkpt lat="45.6099" lon="6.6966">
        <ele>2244.1536</ele>
        <time>2019-12-26 12:27:28</time>
      </trkpt>
      <trkpt lat="45.60989" lon="6.69656">
        <ele>2243.6855</ele>
        <time>2019-12-26 12:27:29</time>
      </trkpt>
      <trkpt lat="45.6099" lon="6.69652">
        <ele>2243.5981</ele>
        <time>2019-12-26 12:27:30</time>
      </trkpt>
      <trkpt lat="45.60991" lon="6.69647">
        <ele>2241.9194</ele>
        <time>2019-12-26 12:27:32</time>
      </trkpt>
      <trkpt lat="45.60989" lon="6.69644">
        <ele>2241.6523</ele>
        <time>2019-12-26 12:27:33</time>
      </trkpt>
      <trkpt lat="45.60987" lon="6.69641">
        <ele>2241.3523</ele>
        <time>2019-12-26 12:27:34</time>
      </trkpt>
      <trkpt lat="45.60983" lon="6.69639">
        <ele>2239.7832</ele>
        <time>2019-12-26 12:27:35</time>
      </trkpt>
      <trkpt lat="45.60979" lon="6.69638">
        <ele>2238.0435</ele>
        <time>2019-12-26 12:27:36</time>
      </trkpt>
      <trkpt lat="45.60958" lon="6.69631">
        <ele>2234.8484</ele>
        <time>2019-12-26 12:27:41</time>
      </trkpt>
      <trkpt lat="45.60953" lon="6.69631">
        <ele>2235.071</ele>
        <time>2019-12-26 12:27:42</time>
      </trkpt>
      <trkpt lat="45.60943" lon="6.6963">
        <ele>2233.6626</ele>
        <time>2019-12-26 12:27:45</time>
      </trkpt>
      <trkpt lat="45.60933" lon="6.69623">
        <ele>2228.8467</ele>
        <time>2019-12-26 12:27:48</time>
      </trkpt>
      <trkpt lat="45.60925" lon="6.69619">
        <ele>2224.7322</ele>
        <time>2019-12-26 12:27:51</time>
      </trkpt>
      <trkpt lat="45.60921" lon="6.69616">
        <ele>2223.6428</ele>
        <time>2019-12-26 12:27:53</time>
      </trkpt>
      <trkpt lat="45.6092" lon="6.69616">
        <ele>2222.9883</ele>
        <time>2019-12-26 12:27:54</time>
      </trkpt>
      <trkpt lat="45.60921" lon="6.69617">
        <ele>2222.6934</ele>
        <time>2019-12-26 12:27:55</time>
      </trkpt>
      <trkpt lat="45.60923" lon="6.69618">
        <ele>2223.7075</ele>
        <time>2019-12-26 12:28:23</time>
      </trkpt>
      <trkpt lat="45.6092" lon="6.69617">
        <ele>2224.166</ele>
        <time>2019-12-26 12:28:25</time>
      </trkpt>
      <trkpt lat="45.60912" lon="6.69613">
        <ele>2222.3486</ele>
        <time>2019-12-26 12:28:28</time>
      </trkpt>
      <trkpt lat="45.60903" lon="6.69608">
        <ele>2219.6177</ele>
        <time>2019-12-26 12:28:31</time>
      </trkpt>
      <trkpt lat="45.609" lon="6.69603">
        <ele>2219.4595</ele>
        <time>2019-12-26 12:28:32</time>
      </trkpt>
      <trkpt lat="45.60897" lon="6.69596">
        <ele>2218.46</ele>
        <time>2019-12-26 12:28:35</time>
      </trkpt>
      <trkpt lat="45.60895" lon="6.69597">
        <ele>2217.958</ele>
        <time>2019-12-26 12:28:36</time>
      </trkpt>
      <trkpt lat="45.60891" lon="6.69596">
        <ele>2218.3293</ele>
        <time>2019-12-26 12:28:38</time>
      </trkpt>
      <trkpt lat="45.6089" lon="6.69594">
        <ele>2218.286</ele>
        <time>2019-12-26 12:28:39</time>
      </trkpt>
      <trkpt lat="45.6089" lon="6.6959">
        <ele>2217.5972</ele>
        <time>2019-12-26 12:28:40</time>
      </trkpt>
      <trkpt lat="45.60889" lon="6.69587">
        <ele>2216.2888</ele>
        <time>2019-12-26 12:28:41</time>
      </trkpt>
      <trkpt lat="45.60887" lon="6.69585">
        <ele>2214.8247</ele>
        <time>2019-12-26 12:28:42</time>
      </trkpt>
      <trkpt lat="45.60878" lon="6.69574">
        <ele>2212.0479</ele>
        <time>2019-12-26 12:28:46</time>
      </trkpt>
      <trkpt lat="45.60875" lon="6.69573">
        <ele>2211.1528</ele>
        <time>2019-12-26 12:28:47</time>
      </trkpt>
      <trkpt lat="45.60873" lon="6.69574">
        <ele>2209.6582</ele>
        <time>2019-12-26 12:28:48</time>
      </trkpt>
      <trkpt lat="45.6087" lon="6.69575">
        <ele>2209.7305</ele>
        <time>2019-12-26 12:28:49</time>
      </trkpt>
      <trkpt lat="45.60868" lon="6.69574">
        <ele>2209.0713</ele>
        <time>2019-12-26 12:28:50</time>
      </trkpt>
      <trkpt lat="45.60867" lon="6.6957">
        <ele>2209.6152</ele>
        <time>2019-12-26 12:28:51</time>
      </trkpt>
      <trkpt lat="45.60869" lon="6.69559">
        <ele>2206.239</ele>
        <time>2019-12-26 12:28:55</time>
      </trkpt>
      <trkpt lat="45.60866" lon="6.69557">
        <ele>2205.1025</ele>
        <time>2019-12-26 12:28:56</time>
      </trkpt>
      <trkpt lat="45.60862" lon="6.69557">
        <ele>2203.934</ele>
        <time>2019-12-26 12:28:57</time>
      </trkpt>
      <trkpt lat="45.60849" lon="6.69561">
        <ele>2201.8862</ele>
        <time>2019-12-26 12:29:01</time>
      </trkpt>
      <trkpt lat="45.60848" lon="6.69561">
        <ele>2200.1907</ele>
        <time>2019-12-26 12:29:12</time>
      </trkpt>
      <trkpt lat="45.60847" lon="6.69552">
        <ele>2199.4373</ele>
        <time>2019-12-26 12:29:14</time>
      </trkpt>
      <trkpt lat="45.60849" lon="6.69521">
        <ele>2196.7102</ele>
        <time>2019-12-26 12:29:20</time>
      </trkpt>
      <trkpt lat="45.60848" lon="6.6951">
        <ele>2194.9707</ele>
        <time>2019-12-26 12:29:22</time>
      </trkpt>
      <trkpt lat="45.60849" lon="6.69506">
        <ele>2193.7383</ele>
        <time>2019-12-26 12:29:23</time>
      </trkpt>
      <trkpt lat="45.60852" lon="6.69503">
        <ele>2193.8152</ele>
        <time>2019-12-26 12:29:24</time>
      </trkpt>
      <trkpt lat="45.60854" lon="6.69501">
        <ele>2193.751</ele>
        <time>2019-12-26 12:29:25</time>
      </trkpt>
      <trkpt lat="45.60857" lon="6.69497">
        <ele>2193.1973</ele>
        <time>2019-12-26 12:29:27</time>
      </trkpt>
      <trkpt lat="45.60861" lon="6.69492">
        <ele>2192.4185</ele>
        <time>2019-12-26 12:29:29</time>
      </trkpt>
      <trkpt lat="45.60863" lon="6.69485">
        <ele>2191.8386</ele>
        <time>2019-12-26 12:29:31</time>
      </trkpt>
      <trkpt lat="45.60864" lon="6.69481">
        <ele>2190.2654</ele>
        <time>2019-12-26 12:29:32</time>
      </trkpt>
      <trkpt lat="45.60862" lon="6.69475">
        <ele>2188.7249</ele>
        <time>2019-12-26 12:29:34</time>
      </trkpt>
      <trkpt lat="45.60856" lon="6.69467">
        <ele>2186.9639</ele>
        <time>2019-12-26 12:29:36</time>
      </trkpt>
      <trkpt lat="45.60852" lon="6.69458">
        <ele>2185.739</ele>
        <time>2019-12-26 12:29:38</time>
      </trkpt>
      <trkpt lat="45.60851" lon="6.69453">
        <ele>2184.8022</ele>
        <time>2019-12-26 12:29:39</time>
      </trkpt>
      <trkpt lat="45.60847" lon="6.69431">
        <ele>2183.1365</ele>
        <time>2019-12-26 12:29:44</time>
      </trkpt>
      <trkpt lat="45.6084" lon="6.69416">
        <ele>2181.3591</ele>
        <time>2019-12-26 12:29:48</time>
      </trkpt>
      <trkpt lat="45.60841" lon="6.69418">
        <ele>2180.987</ele>
        <time>2019-12-26 12:29:50</time>
      </trkpt>
      <trkpt lat="45.60841" lon="6.69419">
        <ele>2183.1787</ele>
        <time>2019-12-26 12:30:02</time>
      </trkpt>
      <trkpt lat="45.60841" lon="6.69419">
        <ele>2183.056</ele>
        <time>2019-12-26 12:30:04</time>
      </trkpt>
      <trkpt lat="45.60841" lon="6.6942">
        <ele>2183.313</ele>
        <time>2019-12-26 12:30:14</time>
      </trkpt>
      <trkpt lat="45.60839" lon="6.6942">
        <ele>2182.1985</ele>
        <time>2019-12-26 12:30:18</time>
      </trkpt>
      <trkpt lat="45.60837" lon="6.6942">
        <ele>2182.62</ele>
        <time>2019-12-26 12:30:20</time>
      </trkpt>
      <trkpt lat="45.60835" lon="6.69418">
        <ele>2182.6465</ele>
        <time>2019-12-26 12:30:22</time>
      </trkpt>
      <trkpt lat="45.60833" lon="6.69414">
        <ele>2181.7522</ele>
        <time>2019-12-26 12:30:25</time>
      </trkpt>
      <trkpt lat="45.60833" lon="6.69409">
        <ele>2181.685</ele>
        <time>2019-12-26 12:30:29</time>
      </trkpt>
      <trkpt lat="45.60833" lon="6.69408">
        <ele>2181.6855</ele>
        <time>2019-12-26 12:30:50</time>
      </trkpt>
      <trkpt lat="45.60831" lon="6.69402">
        <ele>2179.2805</ele>
        <time>2019-12-26 12:30:53</time>
      </trkpt>
      <trkpt lat="45.60828" lon="6.694">
        <ele>2178.9258</ele>
        <time>2019-12-26 12:30:54</time>
      </trkpt>
      <trkpt lat="45.60811" lon="6.69395">
        <ele>2176.936</ele>
        <time>2019-12-26 12:31:00</time>
      </trkpt>
      <trkpt lat="45.60799" lon="6.69395">
        <ele>2175.0369</ele>
        <time>2019-12-26 12:31:04</time>
      </trkpt>
      <trkpt lat="45.60794" lon="6.69393">
        <ele>2174.2222</ele>
        <time>2019-12-26 12:31:06</time>
      </trkpt>
      <trkpt lat="45.60792" lon="6.6939">
        <ele>2173.1284</ele>
        <time>2019-12-26 12:31:07</time>
      </trkpt>
      <trkpt lat="45.60788" lon="6.6938">
        <ele>2171.2344</ele>
        <time>2019-12-26 12:31:10</time>
      </trkpt>
      <trkpt lat="45.60789" lon="6.69378">
        <ele>2169.9429</ele>
        <time>2019-12-26 12:31:11</time>
      </trkpt>
      <trkpt lat="45.60792" lon="6.69375">
        <ele>2168.4731</ele>
        <time>2019-12-26 12:31:13</time>
      </trkpt>
      <trkpt lat="45.60794" lon="6.69374">
        <ele>2167.371</ele>
        <time>2019-12-26 12:31:14</time>
      </trkpt>
      <trkpt lat="45.60796" lon="6.69372">
        <ele>2167.3086</ele>
        <time>2019-12-26 12:31:15</time>
      </trkpt>
      <trkpt lat="45.60796" lon="6.69369">
        <ele>2166.796</ele>
        <time>2019-12-26 12:31:16</time>
      </trkpt>
      <trkpt lat="45.60795" lon="6.69368">
        <ele>2167.674</ele>
        <time>2019-12-26 12:31:20</time>
      </trkpt>
      <trkpt lat="45.60795" lon="6.69368">
        <ele>2167.863</ele>
        <time>2019-12-26 12:31:28</time>
      </trkpt>
      <trkpt lat="45.60795" lon="6.69367">
        <ele>2167.9006</ele>
        <time>2019-12-26 12:31:29</time>
      </trkpt>
      <trkpt lat="45.60794" lon="6.69365">
        <ele>2167.3472</ele>
        <time>2019-12-26 12:31:30</time>
      </trkpt>
      <trkpt lat="45.60795" lon="6.69359">
        <ele>2167.317</ele>
        <time>2019-12-26 12:31:32</time>
      </trkpt>
      <trkpt lat="45.60796" lon="6.6935">
        <ele>2167.1921</ele>
        <time>2019-12-26 12:31:34</time>
      </trkpt>
      <trkpt lat="45.60792" lon="6.69343">
        <ele>2165.522</ele>
        <time>2019-12-26 12:31:36</time>
      </trkpt>
      <trkpt lat="45.60788" lon="6.69343">
        <ele>2165.2666</ele>
        <time>2019-12-26 12:31:39</time>
      </trkpt>
      <trkpt lat="45.60787" lon="6.69345">
        <ele>2164.3613</ele>
        <time>2019-12-26 12:31:49</time>
      </trkpt>
      <trkpt lat="45.60786" lon="6.69344">
        <ele>2164.007</ele>
        <time>2019-12-26 12:31:51</time>
      </trkpt>
      <trkpt lat="45.60773" lon="6.69332">
        <ele>2159.0151</ele>
        <time>2019-12-26 12:31:57</time>
      </trkpt>
      <trkpt lat="45.6077" lon="6.69328">
        <ele>2156.6274</ele>
        <time>2019-12-26 12:31:59</time>
      </trkpt>
      <trkpt lat="45.6077" lon="6.69324">
        <ele>2156.0952</ele>
        <time>2019-12-26 12:32:00</time>
      </trkpt>
      <trkpt lat="45.6077" lon="6.69321">
        <ele>2155.2869</ele>
        <time>2019-12-26 12:32:01</time>
      </trkpt>
      <trkpt lat="45.60767" lon="6.69318">
        <ele>2155.4954</ele>
        <time>2019-12-26 12:32:03</time>
      </trkpt>
      <trkpt lat="45.60765" lon="6.69321">
        <ele>2155.1785</ele>
        <time>2019-12-26 12:32:06</time>
      </trkpt>
      <trkpt lat="45.60766" lon="6.69323">
        <ele>2153.6863</ele>
        <time>2019-12-26 12:32:09</time>
      </trkpt>
      <trkpt lat="45.60766" lon="6.69321">
        <ele>2153.022</ele>
        <time>2019-12-26 12:32:11</time>
      </trkpt>
      <trkpt lat="45.60766" lon="6.69319">
        <ele>2152.7847</ele>
        <time>2019-12-26 12:32:12</time>
      </trkpt>
      <trkpt lat="45.60767" lon="6.69316">
        <ele>2151.1604</ele>
        <time>2019-12-26 12:32:13</time>
      </trkpt>
      <trkpt lat="45.60766" lon="6.69312">
        <ele>2148.9956</ele>
        <time>2019-12-26 12:32:14</time>
      </trkpt>
      <trkpt lat="45.60761" lon="6.69308">
        <ele>2148.9255</ele>
        <time>2019-12-26 12:32:16</time>
      </trkpt>
      <trkpt lat="45.60759" lon="6.69309">
        <ele>2148.9119</ele>
        <time>2019-12-26 12:32:17</time>
      </trkpt>
      <trkpt lat="45.60758" lon="6.69311">
        <ele>2148.3865</ele>
        <time>2019-12-26 12:32:21</time>
      </trkpt>
      <trkpt lat="45.60757" lon="6.69312">
        <ele>2148.0127</ele>
        <time>2019-12-26 12:32:30</time>
      </trkpt>
      <trkpt lat="45.60757" lon="6.69306">
        <ele>2145.4956</ele>
        <time>2019-12-26 12:32:33</time>
      </trkpt>
      <trkpt lat="45.60758" lon="6.69303">
        <ele>2144.596</ele>
        <time>2019-12-26 12:32:34</time>
      </trkpt>
      <trkpt lat="45.60761" lon="6.69296">
        <ele>2144.1174</ele>
        <time>2019-12-26 12:32:36</time>
      </trkpt>
      <trkpt lat="45.60761" lon="6.69292">
        <ele>2142.6597</ele>
        <time>2019-12-26 12:32:37</time>
      </trkpt>
      <trkpt lat="45.6076" lon="6.69287">
        <ele>2141.232</ele>
        <time>2019-12-26 12:32:38</time>
      </trkpt>
      <trkpt lat="45.60758" lon="6.69283">
        <ele>2140.1904</ele>
        <time>2019-12-26 12:32:39</time>
      </trkpt>
      <trkpt lat="45.60752" lon="6.69277">
        <ele>2139.1025</ele>
        <time>2019-12-26 12:32:41</time>
      </trkpt>
      <trkpt lat="45.6075" lon="6.69273">
        <ele>2137.644</ele>
        <time>2019-12-26 12:32:42</time>
      </trkpt>
      <trkpt lat="45.60735" lon="6.69268">
        <ele>2134.682</ele>
        <time>2019-12-26 12:32:45</time>
      </trkpt>
      <trkpt lat="45.60724" lon="6.69264">
        <ele>2133.7224</ele>
        <time>2019-12-26 12:32:48</time>
      </trkpt>
      <trkpt lat="45.60724" lon="6.69264">
        <ele>2133.223</ele>
        <time>2019-12-26 12:32:49</time>
      </trkpt>
      <trkpt lat="45.60724" lon="6.69265">
        <ele>2133.0718</ele>
        <time>2019-12-26 12:32:51</time>
      </trkpt>
      <trkpt lat="45.60724" lon="6.69265">
        <ele>2132.9692</ele>
        <time>2019-12-26 12:32:52</time>
      </trkpt>
      <trkpt lat="45.60724" lon="6.69264">
        <ele>2133.2075</ele>
        <time>2019-12-26 12:32:57</time>
      </trkpt>
      <trkpt lat="45.60724" lon="6.69264">
        <ele>2133.1152</ele>
        <time>2019-12-26 12:33:01</time>
      </trkpt>
      <trkpt lat="45.60724" lon="6.69264">
        <ele>2133.1506</ele>
        <time>2019-12-26 12:33:04</time>
      </trkpt>
      <trkpt lat="45.60724" lon="6.69264">
        <ele>2132.807</ele>
        <time>2019-12-26 12:33:06</time>
      </trkpt>
      <trkpt lat="45.60724" lon="6.69264">
        <ele>2130.6875</ele>
        <time>2019-12-26 12:33:21</time>
      </trkpt>
      <trkpt lat="45.60724" lon="6.69263">
        <ele>2130.2566</ele>
        <time>2019-12-26 12:33:23</time>
      </trkpt>
      <trkpt lat="45.60724" lon="6.69263">
        <ele>2130.0466</ele>
        <time>2019-12-26 12:33:29</time>
      </trkpt>
      <trkpt lat="45.60723" lon="6.69264">
        <ele>2130.218</ele>
        <time>2019-12-26 12:33:32</time>
      </trkpt>
      <trkpt lat="45.60723" lon="6.69263">
        <ele>2130.3125</ele>
        <time>2019-12-26 12:33:55</time>
      </trkpt>
      <trkpt lat="45.60723" lon="6.69263">
        <ele>2130.4185</ele>
        <time>2019-12-26 12:33:56</time>
      </trkpt>
      <trkpt lat="45.60723" lon="6.69261">
        <ele>2131.1292</ele>
        <time>2019-12-26 12:33:58</time>
      </trkpt>
      <trkpt lat="45.60723" lon="6.69261">
        <ele>2131.6719</ele>
        <time>2019-12-26 12:33:59</time>
      </trkpt>
      <trkpt lat="45.60723" lon="6.69261">
        <ele>2131.4714</ele>
        <time>2019-12-26 12:34:00</time>
      </trkpt>
      <trkpt lat="45.60722" lon="6.6926">
        <ele>2131.0437</ele>
        <time>2019-12-26 12:34:05</time>
      </trkpt>
      <trkpt lat="45.60721" lon="6.69261">
        <ele>2131.2986</ele>
        <time>2019-12-26 12:34:06</time>
      </trkpt>
      <trkpt lat="45.60721" lon="6.69261">
        <ele>2131.6694</ele>
        <time>2019-12-26 12:34:11</time>
      </trkpt>
      <trkpt lat="45.6072" lon="6.69261">
        <ele>2131.6545</ele>
        <time>2019-12-26 12:34:12</time>
      </trkpt>
      <trkpt lat="45.60713" lon="6.69257">
        <ele>2129.7683</ele>
        <time>2019-12-26 12:34:24</time>
      </trkpt>
      <trkpt lat="45.60713" lon="6.69256">
        <ele>2129.3633</ele>
        <time>2019-12-26 12:34:30</time>
      </trkpt>
      <trkpt lat="45.60708" lon="6.69252">
        <ele>2129.5574</ele>
        <time>2019-12-26 12:34:33</time>
      </trkpt>
      <trkpt lat="45.60705" lon="6.69249">
        <ele>2128.418</ele>
        <time>2019-12-26 12:34:34</time>
      </trkpt>
      <trkpt lat="45.60702" lon="6.69248">
        <ele>2128.4263</ele>
        <time>2019-12-26 12:34:35</time>
      </trkpt>
      <trkpt lat="45.60697" lon="6.69244">
        <ele>2126.9617</ele>
        <time>2019-12-26 12:34:37</time>
      </trkpt>
      <trkpt lat="45.60696" lon="6.69241">
        <ele>2126.838</ele>
        <time>2019-12-26 12:34:38</time>
      </trkpt>
      <trkpt lat="45.60693" lon="6.6923">
        <ele>2124.1677</ele>
        <time>2019-12-26 12:34:41</time>
      </trkpt>
      <trkpt lat="45.6069" lon="6.69228">
        <ele>2124.3901</ele>
        <time>2019-12-26 12:34:42</time>
      </trkpt>
      <trkpt lat="45.60682" lon="6.69221">
        <ele>2123.8247</ele>
        <time>2019-12-26 12:34:45</time>
      </trkpt>
      <trkpt lat="45.60676" lon="6.69217">
        <ele>2122.1917</ele>
        <time>2019-12-26 12:34:47</time>
      </trkpt>
      <trkpt lat="45.60667" lon="6.69211">
        <ele>2119.786</ele>
        <time>2019-12-26 12:34:50</time>
      </trkpt>
      <trkpt lat="45.60664" lon="6.69208">
        <ele>2119.1226</ele>
        <time>2019-12-26 12:34:51</time>
      </trkpt>
      <trkpt lat="45.60657" lon="6.69206">
        <ele>2117.5361</ele>
        <time>2019-12-26 12:34:53</time>
      </trkpt>
      <trkpt lat="45.60646" lon="6.69197">
        <ele>2115.8333</ele>
        <time>2019-12-26 12:34:56</time>
      </trkpt>
      <trkpt lat="45.60635" lon="6.69187">
        <ele>2113.0996</ele>
        <time>2019-12-26 12:34:59</time>
      </trkpt>
      <trkpt lat="45.60632" lon="6.69186">
        <ele>2112.938</ele>
        <time>2019-12-26 12:35:00</time>
      </trkpt>
      <trkpt lat="45.60628" lon="6.69186">
        <ele>2112.7773</ele>
        <time>2019-12-26 12:35:01</time>
      </trkpt>
      <trkpt lat="45.60623" lon="6.69183">
        <ele>2111.8132</ele>
        <time>2019-12-26 12:35:03</time>
      </trkpt>
      <trkpt lat="45.60622" lon="6.69179">
        <ele>2111.5337</ele>
        <time>2019-12-26 12:35:04</time>
      </trkpt>
      <trkpt lat="45.60626" lon="6.69171">
        <ele>2109.93</ele>
        <time>2019-12-26 12:35:06</time>
      </trkpt>
      <trkpt lat="45.60628" lon="6.69168">
        <ele>2108.4937</ele>
        <time>2019-12-26 12:35:07</time>
      </trkpt>
      <trkpt lat="45.60636" lon="6.69163">
        <ele>2107.2263</ele>
        <time>2019-12-26 12:35:10</time>
      </trkpt>
      <trkpt lat="45.60637" lon="6.69164">
        <ele>2105.445</ele>
        <time>2019-12-26 12:35:13</time>
      </trkpt>
      <trkpt lat="45.60637" lon="6.69164">
        <ele>2104.9177</ele>
        <time>2019-12-26 12:35:14</time>
      </trkpt>
      <trkpt lat="45.60637" lon="6.69164">
        <ele>2105.2927</ele>
        <time>2019-12-26 12:35:15</time>
      </trkpt>
      <trkpt lat="45.60637" lon="6.69162">
        <ele>2105.0427</ele>
        <time>2019-12-26 12:35:17</time>
      </trkpt>
      <trkpt lat="45.60635" lon="6.69159">
        <ele>2103.8513</ele>
        <time>2019-12-26 12:35:19</time>
      </trkpt>
      <trkpt lat="45.6059" lon="6.69108">
        <ele>2097.1008</ele>
        <time>2019-12-26 12:35:33</time>
      </trkpt>
      <trkpt lat="45.60585" lon="6.691">
        <ele>2096.1577</ele>
        <time>2019-12-26 12:35:35</time>
      </trkpt>
      <trkpt lat="45.60581" lon="6.69096">
        <ele>2095.3699</ele>
        <time>2019-12-26 12:35:36</time>
      </trkpt>
      <trkpt lat="45.60579" lon="6.69092">
        <ele>2094.5457</ele>
        <time>2019-12-26 12:35:37</time>
      </trkpt>
      <trkpt lat="45.60572" lon="6.69085">
        <ele>2092.9707</ele>
        <time>2019-12-26 12:35:39</time>
      </trkpt>
      <trkpt lat="45.60565" lon="6.69082">
        <ele>2092.2383</ele>
        <time>2019-12-26 12:35:41</time>
      </trkpt>
      <trkpt lat="45.60559" lon="6.69082">
        <ele>2091.9646</ele>
        <time>2019-12-26 12:35:43</time>
      </trkpt>
      <trkpt lat="45.60556" lon="6.69085">
        <ele>2092.2979</ele>
        <time>2019-12-26 12:35:48</time>
      </trkpt>
      <trkpt lat="45.60556" lon="6.69086">
        <ele>2092.4097</ele>
        <time>2019-12-26 12:35:52</time>
      </trkpt>
      <trkpt lat="45.60556" lon="6.69086">
        <ele>2092.613</ele>
        <time>2019-12-26 12:35:53</time>
      </trkpt>
      <trkpt lat="45.60555" lon="6.69083">
        <ele>2091.9165</ele>
        <time>2019-12-26 12:35:55</time>
      </trkpt>
      <trkpt lat="45.60555" lon="6.6908">
        <ele>2091.6748</ele>
        <time>2019-12-26 12:35:56</time>
      </trkpt>
      <trkpt lat="45.60555" lon="6.69076">
        <ele>2090.0764</ele>
        <time>2019-12-26 12:35:57</time>
      </trkpt>
      <trkpt lat="45.60559" lon="6.69069">
        <ele>2088.944</ele>
        <time>2019-12-26 12:35:59</time>
      </trkpt>
      <trkpt lat="45.60562" lon="6.69066">
        <ele>2088.1694</ele>
        <time>2019-12-26 12:36:00</time>
      </trkpt>
      <trkpt lat="45.60571" lon="6.69059">
        <ele>2086.352</ele>
        <time>2019-12-26 12:36:03</time>
      </trkpt>
      <trkpt lat="45.60572" lon="6.69056">
        <ele>2085.0051</ele>
        <time>2019-12-26 12:36:04</time>
      </trkpt>
      <trkpt lat="45.6057" lon="6.6905">
        <ele>2083.7375</ele>
        <time>2019-12-26 12:36:06</time>
      </trkpt>
      <trkpt lat="45.60566" lon="6.69048">
        <ele>2083.5972</ele>
        <time>2019-12-26 12:36:07</time>
      </trkpt>
      <trkpt lat="45.60557" lon="6.69045">
        <ele>2083.0432</ele>
        <time>2019-12-26 12:36:09</time>
      </trkpt>
      <trkpt lat="45.60543" lon="6.69036">
        <ele>2079.124</ele>
        <time>2019-12-26 12:36:15</time>
      </trkpt>
      <trkpt lat="45.60545" lon="6.69031">
        <ele>2078.1143</ele>
        <time>2019-12-26 12:36:16</time>
      </trkpt>
      <trkpt lat="45.60551" lon="6.69023">
        <ele>2075.5327</ele>
        <time>2019-12-26 12:36:18</time>
      </trkpt>
      <trkpt lat="45.60553" lon="6.6902">
        <ele>2074.7915</ele>
        <time>2019-12-26 12:36:19</time>
      </trkpt>
      <trkpt lat="45.60553" lon="6.69018">
        <ele>2073.9617</ele>
        <time>2019-12-26 12:36:20</time>
      </trkpt>
      <trkpt lat="45.60547" lon="6.69013">
        <ele>2072.9333</ele>
        <time>2019-12-26 12:36:22</time>
      </trkpt>
      <trkpt lat="45.60536" lon="6.69009">
        <ele>2068.9255</ele>
        <time>2019-12-26 12:36:26</time>
      </trkpt>
      <trkpt lat="45.6054" lon="6.69001">
        <ele>2067.616</ele>
        <time>2019-12-26 12:36:28</time>
      </trkpt>
      <trkpt lat="45.60544" lon="6.68999">
        <ele>2066.7375</ele>
        <time>2019-12-26 12:36:29</time>
      </trkpt>
      <trkpt lat="45.60551" lon="6.68992">
        <ele>2065.8425</ele>
        <time>2019-12-26 12:36:32</time>
      </trkpt>
      <trkpt lat="45.60547" lon="6.68985">
        <ele>2063.966</ele>
        <time>2019-12-26 12:36:34</time>
      </trkpt>
      <trkpt lat="45.60543" lon="6.68982">
        <ele>2063.7595</ele>
        <time>2019-12-26 12:36:35</time>
      </trkpt>
      <trkpt lat="45.60538" lon="6.68981">
        <ele>2063.2861</ele>
        <time>2019-12-26 12:36:36</time>
      </trkpt>
      <trkpt lat="45.60531" lon="6.68979">
        <ele>2063.0513</ele>
        <time>2019-12-26 12:36:38</time>
      </trkpt>
      <trkpt lat="45.60525" lon="6.68979">
        <ele>2064.1118</ele>
        <time>2019-12-26 12:36:42</time>
      </trkpt>
      <trkpt lat="45.60524" lon="6.68979">
        <ele>2063.6426</ele>
        <time>2019-12-26 12:36:44</time>
      </trkpt>
      <trkpt lat="45.60523" lon="6.68977">
        <ele>2063.1733</ele>
        <time>2019-12-26 12:36:46</time>
      </trkpt>
      <trkpt lat="45.60522" lon="6.68974">
        <ele>2063.4836</ele>
        <time>2019-12-26 12:36:47</time>
      </trkpt>
      <trkpt lat="45.60522" lon="6.68963">
        <ele>2062.9404</ele>
        <time>2019-12-26 12:36:49</time>
      </trkpt>
      <trkpt lat="45.60521" lon="6.68958">
        <ele>2062.2876</ele>
        <time>2019-12-26 12:36:50</time>
      </trkpt>
      <trkpt lat="45.60516" lon="6.6895">
        <ele>2060.288</ele>
        <time>2019-12-26 12:36:52</time>
      </trkpt>
      <trkpt lat="45.60506" lon="6.68938">
        <ele>2058.2964</ele>
        <time>2019-12-26 12:36:55</time>
      </trkpt>
      <trkpt lat="45.60503" lon="6.68936">
        <ele>2058.1902</ele>
        <time>2019-12-26 12:36:56</time>
      </trkpt>
      <trkpt lat="45.60497" lon="6.68931">
        <ele>2056.3223</ele>
        <time>2019-12-26 12:36:58</time>
      </trkpt>
      <trkpt lat="45.60488" lon="6.68925">
        <ele>2055.2798</ele>
        <time>2019-12-26 12:37:01</time>
      </trkpt>
      <trkpt lat="45.60487" lon="6.68928">
        <ele>2055.0447</ele>
        <time>2019-12-26 12:37:04</time>
      </trkpt>
      <trkpt lat="45.60487" lon="6.68928">
        <ele>2054.0364</ele>
        <time>2019-12-26 12:37:07</time>
      </trkpt>
      <trkpt lat="45.60486" lon="6.68926">
        <ele>2053.577</ele>
        <time>2019-12-26 12:37:09</time>
      </trkpt>
      <trkpt lat="45.60487" lon="6.68919">
        <ele>2051.6016</ele>
        <time>2019-12-26 12:37:11</time>
      </trkpt>
      <trkpt lat="45.60489" lon="6.68916">
        <ele>2050.8408</ele>
        <time>2019-12-26 12:37:12</time>
      </trkpt>
      <trkpt lat="45.60491" lon="6.68913">
        <ele>2050.6216</ele>
        <time>2019-12-26 12:37:13</time>
      </trkpt>
      <trkpt lat="45.60496" lon="6.68909">
        <ele>2050.026</ele>
        <time>2019-12-26 12:37:15</time>
      </trkpt>
      <trkpt lat="45.60496" lon="6.68908">
        <ele>2049.229</ele>
        <time>2019-12-26 12:37:16</time>
      </trkpt>
      <trkpt lat="45.60497" lon="6.68909">
        <ele>2049.1855</ele>
        <time>2019-12-26 12:37:20</time>
      </trkpt>
      <trkpt lat="45.60497" lon="6.68909">
        <ele>2049.383</ele>
        <time>2019-12-26 12:37:21</time>
      </trkpt>
      <trkpt lat="45.60497" lon="6.68907">
        <ele>2049.9844</ele>
        <time>2019-12-26 12:37:23</time>
      </trkpt>
      <trkpt lat="45.60497" lon="6.68903">
        <ele>2049.4446</ele>
        <time>2019-12-26 12:37:26</time>
      </trkpt>
      <trkpt lat="45.60495" lon="6.68896">
        <ele>2048.317</ele>
        <time>2019-12-26 12:37:30</time>
      </trkpt>
      <trkpt lat="45.60493" lon="6.68892">
        <ele>2047.335</ele>
        <time>2019-12-26 12:37:33</time>
      </trkpt>
      <trkpt lat="45.60496" lon="6.68892">
        <ele>2046.1973</ele>
        <time>2019-12-26 12:38:30</time>
      </trkpt>
      <trkpt lat="45.60496" lon="6.68892">
        <ele>2045.8018</ele>
        <time>2019-12-26 12:38:32</time>
      </trkpt>
      <trkpt lat="45.60496" lon="6.68891">
        <ele>2045.0293</ele>
        <time>2019-12-26 12:39:35</time>
      </trkpt>
      <trkpt lat="45.60496" lon="6.68892">
        <ele>2044.3882</ele>
        <time>2019-12-26 12:40:39</time>
      </trkpt>
      <trkpt lat="45.60496" lon="6.68892">
        <ele>2044.8291</ele>
        <time>2019-12-26 12:40:40</time>
      </trkpt>
      <trkpt lat="45.60496" lon="6.68891">
        <ele>2045.0278</ele>
        <time>2019-12-26 12:40:41</time>
      </trkpt>
      <trkpt lat="45.60497" lon="6.6889">
        <ele>2046.9714</ele>
        <time>2019-12-26 12:40:54</time>
      </trkpt>
      <trkpt lat="45.60498" lon="6.68889">
        <ele>2047.0508</ele>
        <time>2019-12-26 12:40:56</time>
      </trkpt>
      <trkpt lat="45.60499" lon="6.68888">
        <ele>2046.584</ele>
        <time>2019-12-26 12:41:00</time>
      </trkpt>
      <trkpt lat="45.60499" lon="6.68888">
        <ele>2046.8896</ele>
        <time>2019-12-26 12:41:01</time>
      </trkpt>
      <trkpt lat="45.60499" lon="6.68888">
        <ele>2047.3228</ele>
        <time>2019-12-26 12:41:03</time>
      </trkpt>
      <trkpt lat="45.60499" lon="6.68888">
        <ele>2047.3887</ele>
        <time>2019-12-26 12:41:04</time>
      </trkpt>
      <trkpt lat="45.605" lon="6.68887">
        <ele>2047.3733</ele>
        <time>2019-12-26 12:41:06</time>
      </trkpt>
      <trkpt lat="45.60502" lon="6.68889">
        <ele>2045.9377</ele>
        <time>2019-12-26 12:41:20</time>
      </trkpt>
      <trkpt lat="45.60502" lon="6.68889">
        <ele>2047.3408</ele>
        <time>2019-12-26 12:41:21</time>
      </trkpt>
      <trkpt lat="45.60501" lon="6.68888">
        <ele>2047.3479</ele>
        <time>2019-12-26 12:41:50</time>
      </trkpt>
      <trkpt lat="45.60501" lon="6.68888">
        <ele>2047.0459</ele>
        <time>2019-12-26 12:41:51</time>
      </trkpt>
      <trkpt lat="45.60501" lon="6.68888">
        <ele>2047.0693</ele>
        <time>2019-12-26 12:41:52</time>
      </trkpt>
      <trkpt lat="45.60501" lon="6.68889">
        <ele>2046.6421</ele>
        <time>2019-12-26 12:42:16</time>
      </trkpt>
      <trkpt lat="45.605" lon="6.68889">
        <ele>2046.001</ele>
        <time>2019-12-26 12:42:18</time>
      </trkpt>
      <trkpt lat="45.605" lon="6.68889">
        <ele>2046.2671</ele>
        <time>2019-12-26 12:42:19</time>
      </trkpt>
      <trkpt lat="45.60499" lon="6.68889">
        <ele>2045.6399</ele>
        <time>2019-12-26 12:42:21</time>
      </trkpt>
      <trkpt lat="45.60499" lon="6.68891">
        <ele>2045.7705</ele>
        <time>2019-12-26 12:42:39</time>
      </trkpt>
      <trkpt lat="45.60499" lon="6.68891">
        <ele>2045.2676</ele>
        <time>2019-12-26 12:42:40</time>
      </trkpt>
      <trkpt lat="45.60499" lon="6.6889">
        <ele>2044.7732</ele>
        <time>2019-12-26 12:42:41</time>
      </trkpt>
      <trkpt lat="45.605" lon="6.68892">
        <ele>2046.2422</ele>
        <time>2019-12-26 12:43:03</time>
      </trkpt>
      <trkpt lat="45.60499" lon="6.68892">
        <ele>2046.3557</ele>
        <time>2019-12-26 12:43:05</time>
      </trkpt>
      <trkpt lat="45.605" lon="6.68891">
        <ele>2045.7339</ele>
        <time>2019-12-26 12:43:39</time>
      </trkpt>
      <trkpt lat="45.605" lon="6.68892">
        <ele>2045.304</ele>
        <time>2019-12-26 12:43:40</time>
      </trkpt>
      <trkpt lat="45.605" lon="6.68892">
        <ele>2045.4419</ele>
        <time>2019-12-26 12:43:41</time>
      </trkpt>
      <trkpt lat="45.605" lon="6.68894">
        <ele>2045.6157</ele>
        <time>2019-12-26 12:43:45</time>
      </trkpt>
      <trkpt lat="45.60499" lon="6.68894">
        <ele>2045.6248</ele>
        <time>2019-12-26 12:43:47</time>
      </trkpt>
      <trkpt lat="45.60499" lon="6.68896">
        <ele>2045.9014</ele>
        <time>2019-12-26 12:43:50</time>
      </trkpt>
      <trkpt lat="45.60499" lon="6.68896">
        <ele>2045.7285</ele>
        <time>2019-12-26 12:43:51</time>
      </trkpt>
      <trkpt lat="45.605" lon="6.68896">
        <ele>2046.1116</ele>
        <time>2019-12-26 12:43:59</time>
      </trkpt>
      <trkpt lat="45.605" lon="6.68896">
        <ele>2046.2319</ele>
        <time>2019-12-26 12:44:00</time>
      </trkpt>
      <trkpt lat="45.605" lon="6.68898">
        <ele>2047.1614</ele>
        <time>2019-12-26 12:44:18</time>
      </trkpt>
      <trkpt lat="45.605" lon="6.68898">
        <ele>2047.6733</ele>
        <time>2019-12-26 12:44:19</time>
      </trkpt>
      <trkpt lat="45.60499" lon="6.68899">
        <ele>2047.8335</ele>
        <time>2019-12-26 12:44:26</time>
      </trkpt>
      <trkpt lat="45.60499" lon="6.68899">
        <ele>2047.6455</ele>
        <time>2019-12-26 12:44:28</time>
      </trkpt>
      <trkpt lat="45.60499" lon="6.68899">
        <ele>2047.6301</ele>
        <time>2019-12-26 12:44:36</time>
      </trkpt>
      <trkpt lat="45.60499" lon="6.68899">
        <ele>2047.7327</ele>
        <time>2019-12-26 12:44:37</time>
      </trkpt>
      <trkpt lat="45.60499" lon="6.68899">
        <ele>2048.9995</ele>
        <time>2019-12-26 12:45:03</time>
      </trkpt>
      <trkpt lat="45.60499" lon="6.68899">
        <ele>2048.7458</ele>
        <time>2019-12-26 12:45:04</time>
      </trkpt>
      <trkpt lat="45.60498" lon="6.68899">
        <ele>2049.244</ele>
        <time>2019-12-26 12:45:57</time>
      </trkpt>
      <trkpt lat="45.60499" lon="6.68902">
        <ele>2048.3147</ele>
        <time>2019-12-26 12:46:35</time>
      </trkpt>
      <trkpt lat="45.60499" lon="6.68902">
        <ele>2047.6855</ele>
        <time>2019-12-26 12:46:37</time>
      </trkpt>
      <trkpt lat="45.60498" lon="6.68901">
        <ele>2047.9292</ele>
        <time>2019-12-26 12:47:18</time>
      </trkpt>
      <trkpt lat="45.60497" lon="6.689">
        <ele>2048.4119</ele>
        <time>2019-12-26 12:47:48</time>
      </trkpt>
      <trkpt lat="45.60498" lon="6.689">
        <ele>2048.0286</ele>
        <time>2019-12-26 12:48:13</time>
      </trkpt>
      <trkpt lat="45.60499" lon="6.68899">
        <ele>2047.8757</ele>
        <time>2019-12-26 12:48:14</time>
      </trkpt>
      <trkpt lat="45.60499" lon="6.68899">
        <ele>2048.002</ele>
        <time>2019-12-26 12:48:15</time>
      </trkpt>
      <trkpt lat="45.60498" lon="6.68899">
        <ele>2048.084</ele>
        <time>2019-12-26 12:48:20</time>
      </trkpt>
      <trkpt lat="45.60498" lon="6.68899">
        <ele>2047.748</ele>
        <time>2019-12-26 12:48:21</time>
      </trkpt>
      <trkpt lat="45.60498" lon="6.68899">
        <ele>2047.1924</ele>
        <time>2019-12-26 12:48:33</time>
      </trkpt>
      <trkpt lat="45.60498" lon="6.68899">
        <ele>2046.2737</ele>
        <time>2019-12-26 12:48:34</time>
      </trkpt>
      <trkpt lat="45.60499" lon="6.689">
        <ele>2047.3525</ele>
        <time>2019-12-26 12:48:35</time>
      </trkpt>
      <trkpt lat="45.60497" lon="6.68899">
        <ele>2049.7869</ele>
        <time>2019-12-26 12:48:57</time>
      </trkpt>
      <trkpt lat="45.60497" lon="6.68899">
        <ele>2050.2183</ele>
        <time>2019-12-26 12:48:58</time>
      </trkpt>
      <trkpt lat="45.60497" lon="6.68898">
        <ele>2050.1553</ele>
        <time>2019-12-26 12:48:59</time>
      </trkpt>
      <trkpt lat="45.60497" lon="6.68898">
        <ele>2050.0874</ele>
        <time>2019-12-26 12:49:29</time>
      </trkpt>
      <trkpt lat="45.60497" lon="6.68898">
        <ele>2050.081</ele>
        <time>2019-12-26 12:49:59</time>
      </trkpt>
      <trkpt lat="45.60496" lon="6.68899">
        <ele>2051.0564</ele>
        <time>2019-12-26 12:50:29</time>
      </trkpt>
      <trkpt lat="45.60496" lon="6.68899">
        <ele>2051.0686</ele>
        <time>2019-12-26 12:50:59</time>
      </trkpt>
      <trkpt lat="45.60496" lon="6.68899">
        <ele>2051.0532</ele>
        <time>2019-12-26 12:51:29</time>
      </trkpt>
      <trkpt lat="45.60496" lon="6.68899">
        <ele>2051.017</ele>
        <time>2019-12-26 12:51:59</time>
      </trkpt>
      <trkpt lat="45.60496" lon="6.68899">
        <ele>2050.9724</ele>
        <time>2019-12-26 12:52:29</time>
      </trkpt>
      <trkpt lat="45.60496" lon="6.68899">
        <ele>2050.937</ele>
        <time>2019-12-26 12:52:59</time>
      </trkpt>
      <trkpt lat="45.60497" lon="6.68899">
        <ele>2050.6926</ele>
        <time>2019-12-26 12:53:29</time>
      </trkpt>
      <trkpt lat="45.60497" lon="6.68899">
        <ele>2050.123</ele>
        <time>2019-12-26 12:53:57</time>
      </trkpt>
      <trkpt lat="45.60497" lon="6.68899">
        <ele>2049.9912</ele>
        <time>2019-12-26 12:53:58</time>
      </trkpt>
      <trkpt lat="45.60498" lon="6.68899">
        <ele>2049.344</ele>
        <time>2019-12-26 12:54:10</time>
      </trkpt>
      <trkpt lat="45.60498" lon="6.68899">
        <ele>2049.2727</ele>
        <time>2019-12-26 12:54:11</time>
      </trkpt>
      <trkpt lat="45.60497" lon="6.68899">
        <ele>2049.544</ele>
        <time>2019-12-26 12:54:24</time>
      </trkpt>
      <trkpt lat="45.60497" lon="6.689">
        <ele>2049.2341</ele>
        <time>2019-12-26 12:54:25</time>
      </trkpt>
      <trkpt lat="45.60498" lon="6.689">
        <ele>2050.362</ele>
        <time>2019-12-26 12:54:26</time>
      </trkpt>
      <trkpt lat="45.60498" lon="6.689">
        <ele>2048.6636</ele>
        <time>2019-12-26 12:54:56</time>
      </trkpt>
      <trkpt lat="45.60498" lon="6.689">
        <ele>2047.439</ele>
        <time>2019-12-26 12:55:00</time>
      </trkpt>
      <trkpt lat="45.60498" lon="6.689">
        <ele>2048.899</ele>
        <time>2019-12-26 12:55:01</time>
      </trkpt>
      <trkpt lat="45.60495" lon="6.68901">
        <ele>2049.742</ele>
        <time>2019-12-26 12:55:57</time>
      </trkpt>
      <trkpt lat="45.60495" lon="6.68901">
        <ele>2049.7246</ele>
        <time>2019-12-26 12:56:39</time>
      </trkpt>
      <trkpt lat="45.60495" lon="6.68901">
        <ele>2049.7446</ele>
        <time>2019-12-26 12:57:55</time>
      </trkpt>
      <trkpt lat="45.60495" lon="6.68901">
        <ele>2049.719</ele>
        <time>2019-12-26 12:59:13</time>
      </trkpt>
      <trkpt lat="45.60495" lon="6.68901">
        <ele>2049.7363</ele>
        <time>2019-12-26 13:01:33</time>
      </trkpt>
      <trkpt lat="45.60496" lon="6.68899">
        <ele>2050.4165</ele>
        <time>2019-12-26 13:02:47</time>
      </trkpt>
      <trkpt lat="45.60496" lon="6.68899">
        <ele>2050.5486</ele>
        <time>2019-12-26 13:03:21</time>
      </trkpt>
      <trkpt lat="45.60496" lon="6.68899">
        <ele>2050.5435</ele>
        <time>2019-12-26 13:04:00</time>
      </trkpt>
      <trkpt lat="45.60496" lon="6.68899">
        <ele>2050.5447</ele>
        <time>2019-12-26 13:04:42</time>
      </trkpt>
      <trkpt lat="45.60496" lon="6.68899">
        <ele>2050.4915</ele>
        <time>2019-12-26 13:07:13</time>
      </trkpt>
      <trkpt lat="45.60496" lon="6.68899">
        <ele>2050.5364</ele>
        <time>2019-12-26 13:08:44</time>
      </trkpt>
      <trkpt lat="45.60496" lon="6.68899">
        <ele>2051.7703</ele>
        <time>2019-12-26 13:09:27</time>
      </trkpt>
      <trkpt lat="45.60496" lon="6.68899">
        <ele>2051.406</ele>
        <time>2019-12-26 13:09:28</time>
      </trkpt>
      <trkpt lat="45.60496" lon="6.68899">
        <ele>2051.4932</ele>
        <time>2019-12-26 13:09:29</time>
      </trkpt>
      <trkpt lat="45.60496" lon="6.68899">
        <ele>2051.5203</ele>
        <time>2019-12-26 13:09:30</time>
      </trkpt>
      <trkpt lat="45.60495" lon="6.68898">
        <ele>2052.3208</ele>
        <time>2019-12-26 13:09:45</time>
      </trkpt>
      <trkpt lat="45.60495" lon="6.68898">
        <ele>2052.1045</ele>
        <time>2019-12-26 13:09:46</time>
      </trkpt>
      <trkpt lat="45.60496" lon="6.68898">
        <ele>2050.5264</ele>
        <time>2019-12-26 13:10:21</time>
      </trkpt>
      <trkpt lat="45.60496" lon="6.68898">
        <ele>2050.471</ele>
        <time>2019-12-26 13:11:02</time>
      </trkpt>
      <trkpt lat="45.60496" lon="6.68898">
        <ele>2050.8926</ele>
        <time>2019-12-26 13:11:05</time>
      </trkpt>
      <trkpt lat="45.60497" lon="6.689">
        <ele>2050.8264</ele>
        <time>2019-12-26 13:11:07</time>
      </trkpt>
      <trkpt lat="45.60497" lon="6.689">
        <ele>2050.934</ele>
        <time>2019-12-26 13:11:39</time>
      </trkpt>
      <trkpt lat="45.60498" lon="6.689">
        <ele>2051.4736</ele>
        <time>2019-12-26 13:11:41</time>
      </trkpt>
      <trkpt lat="45.60498" lon="6.68899">
        <ele>2053.489</ele>
        <time>2019-12-26 13:12:01</time>
      </trkpt>
      <trkpt lat="45.60496" lon="6.68899">
        <ele>2052.611</ele>
        <time>2019-12-26 13:12:03</time>
      </trkpt>
      <trkpt lat="45.60494" lon="6.68898">
        <ele>2053.6694</ele>
        <time>2019-12-26 13:12:29</time>
      </trkpt>
      <trkpt lat="45.60494" lon="6.68898">
        <ele>2052.6584</ele>
        <time>2019-12-26 13:12:30</time>
      </trkpt>
      <trkpt lat="45.60495" lon="6.68899">
        <ele>2051.6296</ele>
        <time>2019-12-26 13:12:33</time>
      </trkpt>
      <trkpt lat="45.60495" lon="6.68899">
        <ele>2051.5176</ele>
        <time>2019-12-26 13:12:34</time>
      </trkpt>
      <trkpt lat="45.60498" lon="6.689">
        <ele>2049.263</ele>
        <time>2019-12-26 13:12:49</time>
      </trkpt>
      <trkpt lat="45.60498" lon="6.689">
        <ele>2049.9846</ele>
        <time>2019-12-26 13:12:51</time>
      </trkpt>
      <trkpt lat="45.60499" lon="6.68901">
        <ele>2049.3718</ele>
        <time>2019-12-26 13:12:52</time>
      </trkpt>
      <trkpt lat="45.60499" lon="6.68901">
        <ele>2049.3074</ele>
        <time>2019-12-26 13:12:53</time>
      </trkpt>
      <trkpt lat="45.60499" lon="6.68902">
        <ele>2049.3706</ele>
        <time>2019-12-26 13:12:55</time>
      </trkpt>
      <trkpt lat="45.60499" lon="6.68903">
        <ele>2049.4397</ele>
        <time>2019-12-26 13:12:56</time>
      </trkpt>
      <trkpt lat="45.605" lon="6.68904">
        <ele>2050.0566</ele>
        <time>2019-12-26 13:12:59</time>
      </trkpt>
      <trkpt lat="45.605" lon="6.68904">
        <ele>2049.7544</ele>
        <time>2019-12-26 13:13:00</time>
      </trkpt>
      <trkpt lat="45.60501" lon="6.68904">
        <ele>2049.505</ele>
        <time>2019-12-26 13:13:01</time>
      </trkpt>
      <trkpt lat="45.60502" lon="6.68905">
        <ele>2048.4375</ele>
        <time>2019-12-26 13:13:03</time>
      </trkpt>
      <trkpt lat="45.60502" lon="6.68905">
        <ele>2047.8687</ele>
        <time>2019-12-26 13:13:04</time>
      </trkpt>
      <trkpt lat="45.60503" lon="6.68904">
        <ele>2047.2046</ele>
        <time>2019-12-26 13:13:06</time>
      </trkpt>
      <trkpt lat="45.60503" lon="6.68905">
        <ele>2047.5762</ele>
        <time>2019-12-26 13:13:07</time>
      </trkpt>
      <trkpt lat="45.60504" lon="6.68905">
        <ele>2046.655</ele>
        <time>2019-12-26 13:13:09</time>
      </trkpt>
      <trkpt lat="45.60505" lon="6.68904">
        <ele>2046.594</ele>
        <time>2019-12-26 13:13:10</time>
      </trkpt>
      <trkpt lat="45.60506" lon="6.68904">
        <ele>2046.3032</ele>
        <time>2019-12-26 13:13:12</time>
      </trkpt>
      <trkpt lat="45.60506" lon="6.68904">
        <ele>2046.1123</ele>
        <time>2019-12-26 13:13:13</time>
      </trkpt>
      <trkpt lat="45.60506" lon="6.68904">
        <ele>2045.0281</ele>
        <time>2019-12-26 13:13:16</time>
      </trkpt>
      <trkpt lat="45.60506" lon="6.68904">
        <ele>2044.5422</ele>
        <time>2019-12-26 13:13:18</time>
      </trkpt>
      <trkpt lat="45.60506" lon="6.68904">
        <ele>2043.6318</ele>
        <time>2019-12-26 13:13:29</time>
      </trkpt>
      <trkpt lat="45.60506" lon="6.68904">
        <ele>2043.429</ele>
        <time>2019-12-26 13:13:30</time>
      </trkpt>
      <trkpt lat="45.60506" lon="6.68903">
        <ele>2042.8301</ele>
        <time>2019-12-26 13:14:36</time>
      </trkpt>
      <trkpt lat="45.60506" lon="6.68903">
        <ele>2043.0718</ele>
        <time>2019-12-26 13:14:48</time>
      </trkpt>
      <trkpt lat="45.60507" lon="6.68903">
        <ele>2043.394</ele>
        <time>2019-12-26 13:14:49</time>
      </trkpt>
      <trkpt lat="45.60505" lon="6.68904">
        <ele>2043.4646</ele>
        <time>2019-12-26 13:15:07</time>
      </trkpt>
      <trkpt lat="45.60504" lon="6.68904">
        <ele>2043.4736</ele>
        <time>2019-12-26 13:15:08</time>
      </trkpt>
      <trkpt lat="45.60501" lon="6.68901">
        <ele>2043.1636</ele>
        <time>2019-12-26 13:15:16</time>
      </trkpt>
      <trkpt lat="45.60501" lon="6.68899">
        <ele>2043.675</ele>
        <time>2019-12-26 13:15:19</time>
      </trkpt>
      <trkpt lat="45.60501" lon="6.68899">
        <ele>2044.8848</ele>
        <time>2019-12-26 13:15:28</time>
      </trkpt>
      <trkpt lat="45.60501" lon="6.68898">
        <ele>2044.386</ele>
        <time>2019-12-26 13:15:32</time>
      </trkpt>
      <trkpt lat="45.60501" lon="6.689">
        <ele>2045.448</ele>
        <time>2019-12-26 13:16:12</time>
      </trkpt>
      <trkpt lat="45.60501" lon="6.689">
        <ele>2045.4583</ele>
        <time>2019-12-26 13:16:52</time>
      </trkpt>
      <trkpt lat="45.605" lon="6.68899">
        <ele>2046.1489</ele>
        <time>2019-12-26 13:17:03</time>
      </trkpt>
      <trkpt lat="45.605" lon="6.68899">
        <ele>2046.6968</ele>
        <time>2019-12-26 13:17:04</time>
      </trkpt>
      <trkpt lat="45.60498" lon="6.68897">
        <ele>2049.5476</ele>
        <time>2019-12-26 13:17:43</time>
      </trkpt>
      <trkpt lat="45.60498" lon="6.68897">
        <ele>2051.019</ele>
        <time>2019-12-26 13:18:08</time>
      </trkpt>
      <trkpt lat="45.60498" lon="6.68897">
        <ele>2051.2153</ele>
        <time>2019-12-26 13:18:09</time>
      </trkpt>
      <trkpt lat="45.60496" lon="6.68894">
        <ele>2053.6577</ele>
        <time>2019-12-26 13:18:24</time>
      </trkpt>
      <trkpt lat="45.60496" lon="6.68894">
        <ele>2054.169</ele>
        <time>2019-12-26 13:18:25</time>
      </trkpt>
      <trkpt lat="45.60495" lon="6.68895">
        <ele>2053.0925</ele>
        <time>2019-12-26 13:18:40</time>
      </trkpt>
      <trkpt lat="45.60495" lon="6.68895">
        <ele>2053.4456</ele>
        <time>2019-12-26 13:18:41</time>
      </trkpt>
      <trkpt lat="45.60496" lon="6.68896">
        <ele>2053.5955</ele>
        <time>2019-12-26 13:19:18</time>
      </trkpt>
      <trkpt lat="45.60495" lon="6.68896">
        <ele>2053.6318</ele>
        <time>2019-12-26 13:19:21</time>
      </trkpt>
      <trkpt lat="45.60495" lon="6.68895">
        <ele>2053.0627</ele>
        <time>2019-12-26 13:19:45</time>
      </trkpt>
      <trkpt lat="45.60495" lon="6.68895">
        <ele>2053.0469</ele>
        <time>2019-12-26 13:19:46</time>
      </trkpt>
      <trkpt lat="45.60496" lon="6.68894">
        <ele>2052.705</ele>
        <time>2019-12-26 13:19:49</time>
      </trkpt>
      <trkpt lat="45.60496" lon="6.68894">
        <ele>2052.7195</ele>
        <time>2019-12-26 13:19:50</time>
      </trkpt>
      <trkpt lat="45.60496" lon="6.68893">
        <ele>2053.1494</ele>
        <time>2019-12-26 13:19:52</time>
      </trkpt>
      <trkpt lat="45.60495" lon="6.68893">
        <ele>2053.032</ele>
        <time>2019-12-26 13:19:53</time>
      </trkpt>
      <trkpt lat="45.60495" lon="6.68893">
        <ele>2052.8616</ele>
        <time>2019-12-26 13:19:54</time>
      </trkpt>
      <trkpt lat="45.60495" lon="6.68892">
        <ele>2052.0522</ele>
        <time>2019-12-26 13:19:56</time>
      </trkpt>
      <trkpt lat="45.60495" lon="6.68891">
        <ele>2051.345</ele>
        <time>2019-12-26 13:19:57</time>
      </trkpt>
      <trkpt lat="45.60496" lon="6.68891">
        <ele>2050.7786</ele>
        <time>2019-12-26 13:20:07</time>
      </trkpt>
      <trkpt lat="45.60497" lon="6.6889">
        <ele>2050.2002</ele>
        <time>2019-12-26 13:20:08</time>
      </trkpt>
      <trkpt lat="45.60499" lon="6.6889">
        <ele>2047.9658</ele>
        <time>2019-12-26 13:20:26</time>
      </trkpt>
      <trkpt lat="45.60499" lon="6.6889">
        <ele>2047.737</ele>
        <time>2019-12-26 13:20:27</time>
      </trkpt>
      <trkpt lat="45.60499" lon="6.6889">
        <ele>2047.395</ele>
        <time>2019-12-26 13:20:28</time>
      </trkpt>
      <trkpt lat="45.60499" lon="6.68889">
        <ele>2047.1924</ele>
        <time>2019-12-26 13:20:31</time>
      </trkpt>
      <trkpt lat="45.60499" lon="6.68889">
        <ele>2046.8274</ele>
        <time>2019-12-26 13:20:36</time>
      </trkpt>
      <trkpt lat="45.60498" lon="6.68889">
        <ele>2046.9639</ele>
        <time>2019-12-26 13:20:38</time>
      </trkpt>
      <trkpt lat="45.60495" lon="6.68887">
        <ele>2045.6624</ele>
        <time>2019-12-26 13:21:20</time>
      </trkpt>
      <trkpt lat="45.60496" lon="6.68889">
        <ele>2046.0933</ele>
        <time>2019-12-26 13:21:57</time>
      </trkpt>
      <trkpt lat="45.60497" lon="6.6889">
        <ele>2046.1577</ele>
        <time>2019-12-26 13:22:47</time>
      </trkpt>
      <trkpt lat="45.60497" lon="6.68889">
        <ele>2046.279</ele>
        <time>2019-12-26 13:22:51</time>
      </trkpt>
      <trkpt lat="45.60497" lon="6.68889">
        <ele>2045.9824</ele>
        <time>2019-12-26 13:22:52</time>
      </trkpt>
      <trkpt lat="45.60496" lon="6.68889">
        <ele>2045.6216</ele>
        <time>2019-12-26 13:22:53</time>
      </trkpt>
      <trkpt lat="45.60496" lon="6.68889">
        <ele>2045.5933</ele>
        <time>2019-12-26 13:22:54</time>
      </trkpt>
      <trkpt lat="45.60495" lon="6.68888">
        <ele>2046.6931</ele>
        <time>2019-12-26 13:23:22</time>
      </trkpt>
      <trkpt lat="45.60495" lon="6.68888">
        <ele>2046.939</ele>
        <time>2019-12-26 13:23:24</time>
      </trkpt>
      <trkpt lat="45.60494" lon="6.68888">
        <ele>2047.1416</ele>
        <time>2019-12-26 13:23:25</time>
      </trkpt>
      <trkpt lat="45.60494" lon="6.68887">
        <ele>2047.9072</ele>
        <time>2019-12-26 13:23:54</time>
      </trkpt>
      <trkpt lat="45.60494" lon="6.68887">
        <ele>2047.665</ele>
        <time>2019-12-26 13:23:56</time>
      </trkpt>
      <trkpt lat="45.60494" lon="6.68887">
        <ele>2047.4062</ele>
        <time>2019-12-26 13:24:40</time>
      </trkpt>
      <trkpt lat="45.60494" lon="6.68887">
        <ele>2048.2878</ele>
        <time>2019-12-26 13:24:41</time>
      </trkpt>
      <trkpt lat="45.60489" lon="6.68884">
        <ele>2047.2095</ele>
        <time>2019-12-26 13:24:47</time>
      </trkpt>
      <trkpt lat="45.60485" lon="6.68883">
        <ele>2046.9604</ele>
        <time>2019-12-26 13:24:50</time>
      </trkpt>
      <trkpt lat="45.60483" lon="6.68883">
        <ele>2046.249</ele>
        <time>2019-12-26 13:24:51</time>
      </trkpt>
      <trkpt lat="45.60481" lon="6.68882">
        <ele>2046.0774</ele>
        <time>2019-12-26 13:24:52</time>
      </trkpt>
      <trkpt lat="45.60475" lon="6.68883">
        <ele>2045.2756</ele>
        <time>2019-12-26 13:24:55</time>
      </trkpt>
      <trkpt lat="45.60473" lon="6.68882">
        <ele>2044.9897</ele>
        <time>2019-12-26 13:24:57</time>
      </trkpt>
      <trkpt lat="45.60471" lon="6.6888">
        <ele>2044.2119</ele>
        <time>2019-12-26 13:24:59</time>
      </trkpt>
      <trkpt lat="45.6047" lon="6.68877">
        <ele>2043.8291</ele>
        <time>2019-12-26 13:25:00</time>
      </trkpt>
      <trkpt lat="45.6047" lon="6.68871">
        <ele>2043.231</ele>
        <time>2019-12-26 13:25:02</time>
      </trkpt>
      <trkpt lat="45.60472" lon="6.68865">
        <ele>2042.2754</ele>
        <time>2019-12-26 13:25:04</time>
      </trkpt>
      <trkpt lat="45.60475" lon="6.6886">
        <ele>2041.8989</ele>
        <time>2019-12-26 13:25:06</time>
      </trkpt>
      <trkpt lat="45.60481" lon="6.68854">
        <ele>2039.9507</ele>
        <time>2019-12-26 13:25:10</time>
      </trkpt>
      <trkpt lat="45.6048" lon="6.68847">
        <ele>2038.6318</ele>
        <time>2019-12-26 13:25:12</time>
      </trkpt>
      <trkpt lat="45.60477" lon="6.68845">
        <ele>2038.6675</ele>
        <time>2019-12-26 13:25:13</time>
      </trkpt>
      <trkpt lat="45.60475" lon="6.68845">
        <ele>2038.896</ele>
        <time>2019-12-26 13:25:14</time>
      </trkpt>
      <trkpt lat="45.60471" lon="6.68847">
        <ele>2039.0505</ele>
        <time>2019-12-26 13:25:18</time>
      </trkpt>
      <trkpt lat="45.60471" lon="6.68849">
        <ele>2038.8416</ele>
        <time>2019-12-26 13:25:22</time>
      </trkpt>
      <trkpt lat="45.60469" lon="6.68848">
        <ele>2038.875</ele>
        <time>2019-12-26 13:25:25</time>
      </trkpt>
      <trkpt lat="45.60466" lon="6.68845">
        <ele>2038.0547</ele>
        <time>2019-12-26 13:25:27</time>
      </trkpt>
      <trkpt lat="45.60464" lon="6.68843">
        <ele>2037.4077</ele>
        <time>2019-12-26 13:25:28</time>
      </trkpt>
      <trkpt lat="45.60463" lon="6.6884">
        <ele>2036.5217</ele>
        <time>2019-12-26 13:25:29</time>
      </trkpt>
      <trkpt lat="45.60459" lon="6.68834">
        <ele>2035.2036</ele>
        <time>2019-12-26 13:25:32</time>
      </trkpt>
      <trkpt lat="45.60459" lon="6.68834">
        <ele>2035.2478</ele>
        <time>2019-12-26 13:25:33</time>
      </trkpt>
      <trkpt lat="45.60459" lon="6.68834">
        <ele>2035.6138</ele>
        <time>2019-12-26 13:25:34</time>
      </trkpt>
      <trkpt lat="45.60459" lon="6.68834">
        <ele>2035.5273</ele>
        <time>2019-12-26 13:25:37</time>
      </trkpt>
      <trkpt lat="45.6046" lon="6.68834">
        <ele>2036.2632</ele>
        <time>2019-12-26 13:25:39</time>
      </trkpt>
      <trkpt lat="45.6046" lon="6.68834">
        <ele>2036.2766</ele>
        <time>2019-12-26 13:25:40</time>
      </trkpt>
      <trkpt lat="45.60459" lon="6.68834">
        <ele>2035.9604</ele>
        <time>2019-12-26 13:25:42</time>
      </trkpt>
      <trkpt lat="45.60456" lon="6.68831">
        <ele>2035.0098</ele>
        <time>2019-12-26 13:25:50</time>
      </trkpt>
      <trkpt lat="45.60456" lon="6.68831">
        <ele>2034.8677</ele>
        <time>2019-12-26 13:25:53</time>
      </trkpt>
      <trkpt lat="45.60455" lon="6.68831">
        <ele>2035.6509</ele>
        <time>2019-12-26 13:25:58</time>
      </trkpt>
      <trkpt lat="45.60455" lon="6.68831">
        <ele>2035.7839</ele>
        <time>2019-12-26 13:26:00</time>
      </trkpt>
      <trkpt lat="45.60455" lon="6.68831">
        <ele>2035.6157</ele>
        <time>2019-12-26 13:26:01</time>
      </trkpt>
      <trkpt lat="45.60456" lon="6.6883">
        <ele>2033.6753</ele>
        <time>2019-12-26 13:26:26</time>
      </trkpt>
      <trkpt lat="45.60456" lon="6.68829">
        <ele>2033.4609</ele>
        <time>2019-12-26 13:26:27</time>
      </trkpt>
      <trkpt lat="45.6045" lon="6.68827">
        <ele>2032.5681</ele>
        <time>2019-12-26 13:26:33</time>
      </trkpt>
      <trkpt lat="45.60442" lon="6.6882">
        <ele>2031.428</ele>
        <time>2019-12-26 13:26:38</time>
      </trkpt>
      <trkpt lat="45.6044" lon="6.68819">
        <ele>2031.6562</ele>
        <time>2019-12-26 13:26:39</time>
      </trkpt>
      <trkpt lat="45.6043" lon="6.68815">
        <ele>2031.1211</ele>
        <time>2019-12-26 13:26:45</time>
      </trkpt>
      <trkpt lat="45.60428" lon="6.68813">
        <ele>2030.8804</ele>
        <time>2019-12-26 13:26:46</time>
      </trkpt>
      <trkpt lat="45.60407" lon="6.68803">
        <ele>2028.4233</ele>
        <time>2019-12-26 13:26:57</time>
      </trkpt>
      <trkpt lat="45.60404" lon="6.68802">
        <ele>2028.2205</ele>
        <time>2019-12-26 13:26:58</time>
      </trkpt>
      <trkpt lat="45.60397" lon="6.68799">
        <ele>2027.0693</ele>
        <time>2019-12-26 13:27:01</time>
      </trkpt>
      <trkpt lat="45.60392" lon="6.68798">
        <ele>2026.4346</ele>
        <time>2019-12-26 13:27:03</time>
      </trkpt>
      <trkpt lat="45.6039" lon="6.68798">
        <ele>2026.5083</ele>
        <time>2019-12-26 13:27:04</time>
      </trkpt>
      <trkpt lat="45.60386" lon="6.68794">
        <ele>2025.6047</ele>
        <time>2019-12-26 13:27:07</time>
      </trkpt>
      <trkpt lat="45.60382" lon="6.68791">
        <ele>2024.5391</ele>
        <time>2019-12-26 13:27:09</time>
      </trkpt>
      <trkpt lat="45.6037" lon="6.68788">
        <ele>2023.4092</ele>
        <time>2019-12-26 13:27:14</time>
      </trkpt>
      <trkpt lat="45.60366" lon="6.68787">
        <ele>2022.814</ele>
        <time>2019-12-26 13:27:16</time>
      </trkpt>
      <trkpt lat="45.60364" lon="6.68785">
        <ele>2023.0029</ele>
        <time>2019-12-26 13:27:18</time>
      </trkpt>
      <trkpt lat="45.60358" lon="6.6878">
        <ele>2021.8843</ele>
        <time>2019-12-26 13:27:23</time>
      </trkpt>
      <trkpt lat="45.60343" lon="6.68771">
        <ele>2019.5474</ele>
        <time>2019-12-26 13:27:33</time>
      </trkpt>
      <trkpt lat="45.60332" lon="6.68768">
        <ele>2018.4595</ele>
        <time>2019-12-26 13:27:40</time>
      </trkpt>
      <trkpt lat="45.60331" lon="6.68769">
        <ele>2018.6511</ele>
        <time>2019-12-26 13:27:42</time>
      </trkpt>
      <trkpt lat="45.60331" lon="6.68769">
        <ele>2018.8093</ele>
        <time>2019-12-26 13:27:44</time>
      </trkpt>
      <trkpt lat="45.60327" lon="6.6877">
        <ele>2017.4146</ele>
        <time>2019-12-26 13:27:53</time>
      </trkpt>
      <trkpt lat="45.60322" lon="6.68771">
        <ele>2016.814</ele>
        <time>2019-12-26 13:27:57</time>
      </trkpt>
      <trkpt lat="45.60319" lon="6.68773">
        <ele>2016.5664</ele>
        <time>2019-12-26 13:27:59</time>
      </trkpt>
      <trkpt lat="45.60307" lon="6.68783">
        <ele>2016.7261</ele>
        <time>2019-12-26 13:28:04</time>
      </trkpt>
      <trkpt lat="45.60305" lon="6.68783">
        <ele>2016.0596</ele>
        <time>2019-12-26 13:28:07</time>
      </trkpt>
      <trkpt lat="45.60303" lon="6.68781">
        <ele>2015.7104</ele>
        <time>2019-12-26 13:28:10</time>
      </trkpt>
      <trkpt lat="45.60303" lon="6.68773">
        <ele>2014.5017</ele>
        <time>2019-12-26 13:28:13</time>
      </trkpt>
      <trkpt lat="45.60303" lon="6.6877">
        <ele>2013.8169</ele>
        <time>2019-12-26 13:28:14</time>
      </trkpt>
      <trkpt lat="45.60305" lon="6.68763">
        <ele>2013.2649</ele>
        <time>2019-12-26 13:28:16</time>
      </trkpt>
      <trkpt lat="45.60308" lon="6.68755">
        <ele>2012.7241</ele>
        <time>2019-12-26 13:28:19</time>
      </trkpt>
      <trkpt lat="45.60309" lon="6.6875">
        <ele>2012.5945</ele>
        <time>2019-12-26 13:28:23</time>
      </trkpt>
      <trkpt lat="45.60309" lon="6.68746">
        <ele>2012.2563</ele>
        <time>2019-12-26 13:28:26</time>
      </trkpt>
      <trkpt lat="45.60309" lon="6.68738">
        <ele>2010.8984</ele>
        <time>2019-12-26 13:28:31</time>
      </trkpt>
      <trkpt lat="45.60311" lon="6.68732">
        <ele>2010.1357</ele>
        <time>2019-12-26 13:28:35</time>
      </trkpt>
      <trkpt lat="45.60313" lon="6.68729">
        <ele>2009.7036</ele>
        <time>2019-12-26 13:28:37</time>
      </trkpt>
      <trkpt lat="45.60317" lon="6.68725">
        <ele>2008.6548</ele>
        <time>2019-12-26 13:28:41</time>
      </trkpt>
      <trkpt lat="45.60337" lon="6.68714">
        <ele>2005.0168</ele>
        <time>2019-12-26 13:28:53</time>
      </trkpt>
      <trkpt lat="45.60344" lon="6.68712">
        <ele>2004.4573</ele>
        <time>2019-12-26 13:28:56</time>
      </trkpt>
      <trkpt lat="45.60349" lon="6.68711">
        <ele>2004.5708</ele>
        <time>2019-12-26 13:28:59</time>
      </trkpt>
      <trkpt lat="45.60349" lon="6.68711">
        <ele>2004.3025</ele>
        <time>2019-12-26 13:29:00</time>
      </trkpt>
      <trkpt lat="45.60349" lon="6.68711">
        <ele>2003.5249</ele>
        <time>2019-12-26 13:29:04</time>
      </trkpt>
      <trkpt lat="45.60349" lon="6.6871">
        <ele>2003.9604</ele>
        <time>2019-12-26 13:29:05</time>
      </trkpt>
      <trkpt lat="45.60353" lon="6.68706">
        <ele>2002.7649</ele>
        <time>2019-12-26 13:29:08</time>
      </trkpt>
      <trkpt lat="45.60359" lon="6.68703">
        <ele>2002.3594</ele>
        <time>2019-12-26 13:29:11</time>
      </trkpt>
      <trkpt lat="45.60381" lon="6.68693">
        <ele>2000.2192</ele>
        <time>2019-12-26 13:29:22</time>
      </trkpt>
      <trkpt lat="45.60395" lon="6.68684">
        <ele>1997.7007</ele>
        <time>2019-12-26 13:29:30</time>
      </trkpt>
      <trkpt lat="45.60399" lon="6.68683">
        <ele>1997.9229</ele>
        <time>2019-12-26 13:29:35</time>
      </trkpt>
      <trkpt lat="45.60399" lon="6.68683">
        <ele>1997.8445</ele>
        <time>2019-12-26 13:29:43</time>
      </trkpt>
      <trkpt lat="45.60398" lon="6.68681">
        <ele>1997.78</ele>
        <time>2019-12-26 13:29:46</time>
      </trkpt>
      <trkpt lat="45.60394" lon="6.68679">
        <ele>1997.4565</ele>
        <time>2019-12-26 13:29:49</time>
      </trkpt>
      <trkpt lat="45.60393" lon="6.68678">
        <ele>1997.3447</ele>
        <time>2019-12-26 13:29:50</time>
      </trkpt>
      <trkpt lat="45.60356" lon="6.68661">
        <ele>1995.0024</ele>
        <time>2019-12-26 13:30:06</time>
      </trkpt>
      <trkpt lat="45.60347" lon="6.68654">
        <ele>1993.7085</ele>
        <time>2019-12-26 13:30:10</time>
      </trkpt>
      <trkpt lat="45.60334" lon="6.68646">
        <ele>1992.8145</ele>
        <time>2019-12-26 13:30:16</time>
      </trkpt>
      <trkpt lat="45.60322" lon="6.6864">
        <ele>1992.1675</ele>
        <time>2019-12-26 13:30:22</time>
      </trkpt>
      <trkpt lat="45.60309" lon="6.68634">
        <ele>1990.1865</ele>
        <time>2019-12-26 13:30:27</time>
      </trkpt>
      <trkpt lat="45.60269" lon="6.68619">
        <ele>1988.4624</ele>
        <time>2019-12-26 13:30:41</time>
      </trkpt>
      <trkpt lat="45.60264" lon="6.68619">
        <ele>1988.2671</ele>
        <time>2019-12-26 13:30:43</time>
      </trkpt>
      <trkpt lat="45.60236" lon="6.68609">
        <ele>1984.2046</ele>
        <time>2019-12-26 13:30:53</time>
      </trkpt>
      <trkpt lat="45.60222" lon="6.68608">
        <ele>1983.2622</ele>
        <time>2019-12-26 13:31:00</time>
      </trkpt>
      <trkpt lat="45.60211" lon="6.68603">
        <ele>1981.7903</ele>
        <time>2019-12-26 13:31:05</time>
      </trkpt>
      <trkpt lat="45.60208" lon="6.68602">
        <ele>1981.0029</ele>
        <time>2019-12-26 13:31:08</time>
      </trkpt>
      <trkpt lat="45.60207" lon="6.68603">
        <ele>1980.8486</ele>
        <time>2019-12-26 13:31:11</time>
      </trkpt>
      <trkpt lat="45.60207" lon="6.68602">
        <ele>1980.544</ele>
        <time>2019-12-26 13:31:19</time>
      </trkpt>
      <trkpt lat="45.60208" lon="6.68597">
        <ele>1980.3203</ele>
        <time>2019-12-26 13:31:25</time>
      </trkpt>
      <trkpt lat="45.60211" lon="6.68592">
        <ele>1979.7529</ele>
        <time>2019-12-26 13:31:28</time>
      </trkpt>
      <trkpt lat="45.60219" lon="6.68585">
        <ele>1978.0527</ele>
        <time>2019-12-26 13:31:35</time>
      </trkpt>
      <trkpt lat="45.60235" lon="6.68577">
        <ele>1975.6348</ele>
        <time>2019-12-26 13:31:45</time>
      </trkpt>
      <trkpt lat="45.60234" lon="6.68577">
        <ele>1974.7632</ele>
        <time>2019-12-26 13:31:48</time>
      </trkpt>
      <trkpt lat="45.60232" lon="6.68575">
        <ele>1974.5786</ele>
        <time>2019-12-26 13:31:50</time>
      </trkpt>
      <trkpt lat="45.6023" lon="6.68574">
        <ele>1973.9888</ele>
        <time>2019-12-26 13:31:51</time>
      </trkpt>
      <trkpt lat="45.60221" lon="6.68569">
        <ele>1973.0261</ele>
        <time>2019-12-26 13:31:55</time>
      </trkpt>
      <trkpt lat="45.60201" lon="6.68562">
        <ele>1973.491</ele>
        <time>2019-12-26 13:32:05</time>
      </trkpt>
      <trkpt lat="45.60195" lon="6.68559">
        <ele>1972.8665</ele>
        <time>2019-12-26 13:32:08</time>
      </trkpt>
      <trkpt lat="45.60188" lon="6.68558">
        <ele>1972.293</ele>
        <time>2019-12-26 13:32:11</time>
      </trkpt>
      <trkpt lat="45.60176" lon="6.68559">
        <ele>1972.0518</ele>
        <time>2019-12-26 13:32:18</time>
      </trkpt>
      <trkpt lat="45.60169" lon="6.68561">
        <ele>1971.3716</ele>
        <time>2019-12-26 13:32:24</time>
      </trkpt>
      <trkpt lat="45.60144" lon="6.68575">
        <ele>1968.1616</ele>
        <time>2019-12-26 13:32:34</time>
      </trkpt>
      <trkpt lat="45.60137" lon="6.68576">
        <ele>1968.5034</ele>
        <time>2019-12-26 13:32:36</time>
      </trkpt>
      <trkpt lat="45.60126" lon="6.68574">
        <ele>1967.844</ele>
        <time>2019-12-26 13:32:40</time>
      </trkpt>
      <trkpt lat="45.60105" lon="6.68573">
        <ele>1965.8616</ele>
        <time>2019-12-26 13:32:48</time>
      </trkpt>
      <trkpt lat="45.60095" lon="6.68577">
        <ele>1964.561</ele>
        <time>2019-12-26 13:32:53</time>
      </trkpt>
      <trkpt lat="45.60092" lon="6.68581">
        <ele>1964.793</ele>
        <time>2019-12-26 13:32:58</time>
      </trkpt>
      <trkpt lat="45.60093" lon="6.6858">
        <ele>1963.9172</ele>
        <time>2019-12-26 13:33:04</time>
      </trkpt>
      <trkpt lat="45.60058" lon="6.68608">
        <ele>1959.3289</ele>
        <time>2019-12-26 13:33:19</time>
      </trkpt>
      <trkpt lat="45.60054" lon="6.6861">
        <ele>1959.1946</ele>
        <time>2019-12-26 13:33:24</time>
      </trkpt>
      <trkpt lat="45.60054" lon="6.6861">
        <ele>1959.6616</ele>
        <time>2019-12-26 13:33:27</time>
      </trkpt>
      <trkpt lat="45.60054" lon="6.6861">
        <ele>1959.5176</ele>
        <time>2019-12-26 13:33:28</time>
      </trkpt>
      <trkpt lat="45.60054" lon="6.6861">
        <ele>1959.6448</ele>
        <time>2019-12-26 13:33:29</time>
      </trkpt>
      <trkpt lat="45.60054" lon="6.6861">
        <ele>1959.8696</ele>
        <time>2019-12-26 13:33:30</time>
      </trkpt>
      <trkpt lat="45.60053" lon="6.6861">
        <ele>1959.1213</ele>
        <time>2019-12-26 13:33:40</time>
      </trkpt>
      <trkpt lat="45.60053" lon="6.68606">
        <ele>1958.4578</ele>
        <time>2019-12-26 13:33:43</time>
      </trkpt>
      <trkpt lat="45.60054" lon="6.686">
        <ele>1957.6987</ele>
        <time>2019-12-26 13:33:45</time>
      </trkpt>
      <trkpt lat="45.60058" lon="6.68586">
        <ele>1957.1001</ele>
        <time>2019-12-26 13:33:49</time>
      </trkpt>
      <trkpt lat="45.60067" lon="6.68565">
        <ele>1955.6455</ele>
        <time>2019-12-26 13:33:56</time>
      </trkpt>
      <trkpt lat="45.60071" lon="6.68553">
        <ele>1954.8696</ele>
        <time>2019-12-26 13:34:09</time>
      </trkpt>
      <trkpt lat="45.60075" lon="6.68545">
        <ele>1954.5615</ele>
        <time>2019-12-26 13:34:16</time>
      </trkpt>
      <trkpt lat="45.60079" lon="6.6854">
        <ele>1953.918</ele>
        <time>2019-12-26 13:34:20</time>
      </trkpt>
      <trkpt lat="45.60112" lon="6.68504">
        <ele>1947.8418</ele>
        <time>2019-12-26 13:34:44</time>
      </trkpt>
      <trkpt lat="45.60112" lon="6.68505">
        <ele>1947.7717</ele>
        <time>2019-12-26 13:34:47</time>
      </trkpt>
      <trkpt lat="45.60109" lon="6.68503">
        <ele>1947.7817</ele>
        <time>2019-12-26 13:34:53</time>
      </trkpt>
      <trkpt lat="45.60098" lon="6.68503">
        <ele>1947.322</ele>
        <time>2019-12-26 13:34:56</time>
      </trkpt>
      <trkpt lat="45.60081" lon="6.68502">
        <ele>1946.8306</ele>
        <time>2019-12-26 13:35:01</time>
      </trkpt>
      <trkpt lat="45.60071" lon="6.68499">
        <ele>1946.0991</ele>
        <time>2019-12-26 13:35:04</time>
      </trkpt>
      <trkpt lat="45.6005" lon="6.68495">
        <ele>1946.0127</ele>
        <time>2019-12-26 13:35:11</time>
      </trkpt>
      <trkpt lat="45.60034" lon="6.68495">
        <ele>1943.9048</ele>
        <time>2019-12-26 13:35:17</time>
      </trkpt>
      <trkpt lat="45.60031" lon="6.68496">
        <ele>1944.0762</ele>
        <time>2019-12-26 13:35:19</time>
      </trkpt>
      <trkpt lat="45.60032" lon="6.68498">
        <ele>1945.0652</ele>
        <time>2019-12-26 13:35:25</time>
      </trkpt>
      <trkpt lat="45.60031" lon="6.68498">
        <ele>1944.896</ele>
        <time>2019-12-26 13:35:26</time>
      </trkpt>
      <trkpt lat="45.60032" lon="6.68497">
        <ele>1945.178</ele>
        <time>2019-12-26 13:35:28</time>
      </trkpt>
      <trkpt lat="45.60032" lon="6.68496">
        <ele>1944.6794</ele>
        <time>2019-12-26 13:35:31</time>
      </trkpt>
      <trkpt lat="45.60032" lon="6.68496">
        <ele>1944.3267</ele>
        <time>2019-12-26 13:35:32</time>
      </trkpt>
      <trkpt lat="45.60032" lon="6.68497">
        <ele>1944.0146</ele>
        <time>2019-12-26 13:35:36</time>
      </trkpt>
      <trkpt lat="45.60033" lon="6.68496">
        <ele>1942.9268</ele>
        <time>2019-12-26 13:35:38</time>
      </trkpt>
      <trkpt lat="45.60036" lon="6.6849">
        <ele>1941.9883</ele>
        <time>2019-12-26 13:35:41</time>
      </trkpt>
      <trkpt lat="45.60047" lon="6.68473">
        <ele>1938.9714</ele>
        <time>2019-12-26 13:35:47</time>
      </trkpt>
      <trkpt lat="45.60069" lon="6.68448">
        <ele>1935.1255</ele>
        <time>2019-12-26 13:36:03</time>
      </trkpt>
      <trkpt lat="45.60069" lon="6.68449">
        <ele>1933.4602</ele>
        <time>2019-12-26 13:36:21</time>
      </trkpt>
      <trkpt lat="45.60066" lon="6.68447">
        <ele>1933.5381</ele>
        <time>2019-12-26 13:36:24</time>
      </trkpt>
      <trkpt lat="45.60062" lon="6.68447">
        <ele>1933.645</ele>
        <time>2019-12-26 13:36:26</time>
      </trkpt>
      <trkpt lat="45.60058" lon="6.68447">
        <ele>1932.7563</ele>
        <time>2019-12-26 13:36:28</time>
      </trkpt>
      <trkpt lat="45.60028" lon="6.68448">
        <ele>1929.2236</ele>
        <time>2019-12-26 13:36:43</time>
      </trkpt>
      <trkpt lat="45.60022" lon="6.6845">
        <ele>1928.7754</ele>
        <time>2019-12-26 13:36:46</time>
      </trkpt>
      <trkpt lat="45.60011" lon="6.68449">
        <ele>1928.0127</ele>
        <time>2019-12-26 13:36:55</time>
      </trkpt>
      <trkpt lat="45.6001" lon="6.68449">
        <ele>1928.2261</ele>
        <time>2019-12-26 13:37:04</time>
      </trkpt>
      <trkpt lat="45.6001" lon="6.68449">
        <ele>1928.0156</ele>
        <time>2019-12-26 13:37:05</time>
      </trkpt>
      <trkpt lat="45.60011" lon="6.68448">
        <ele>1928.4727</ele>
        <time>2019-12-26 13:37:27</time>
      </trkpt>
      <trkpt lat="45.60012" lon="6.68447">
        <ele>1928.1719</ele>
        <time>2019-12-26 13:37:30</time>
      </trkpt>
      <trkpt lat="45.60032" lon="6.68428">
        <ele>1924.8877</ele>
        <time>2019-12-26 13:37:48</time>
      </trkpt>
      <trkpt lat="45.60041" lon="6.68421">
        <ele>1924.1606</ele>
        <time>2019-12-26 13:37:55</time>
      </trkpt>
      <trkpt lat="45.60052" lon="6.6841">
        <ele>1922.5815</ele>
        <time>2019-12-26 13:38:04</time>
      </trkpt>
      <trkpt lat="45.60052" lon="6.6841">
        <ele>1922.8516</ele>
        <time>2019-12-26 13:38:05</time>
      </trkpt>
      <trkpt lat="45.60051" lon="6.6841">
        <ele>1922.9746</ele>
        <time>2019-12-26 13:38:08</time>
      </trkpt>
      <trkpt lat="45.60048" lon="6.68405">
        <ele>1923.0083</ele>
        <time>2019-12-26 13:38:18</time>
      </trkpt>
      <trkpt lat="45.60044" lon="6.68398">
        <ele>1922.3726</ele>
        <time>2019-12-26 13:38:22</time>
      </trkpt>
      <trkpt lat="45.60043" lon="6.68395">
        <ele>1921.2942</ele>
        <time>2019-12-26 13:38:24</time>
      </trkpt>
      <trkpt lat="45.60035" lon="6.68379">
        <ele>1918.2603</ele>
        <time>2019-12-26 13:38:34</time>
      </trkpt>
      <trkpt lat="45.60033" lon="6.68377">
        <ele>1917.833</ele>
        <time>2019-12-26 13:38:35</time>
      </trkpt>
      <trkpt lat="45.60028" lon="6.68364">
        <ele>1916.5806</ele>
        <time>2019-12-26 13:38:41</time>
      </trkpt>
      <trkpt lat="45.60026" lon="6.68349">
        <ele>1915.0806</ele>
        <time>2019-12-26 13:38:51</time>
      </trkpt>
      <trkpt lat="45.60024" lon="6.68348">
        <ele>1913.7441</ele>
        <time>2019-12-26 13:38:52</time>
      </trkpt>
      <trkpt lat="45.60019" lon="6.68354">
        <ele>1912.4683</ele>
        <time>2019-12-26 13:38:57</time>
      </trkpt>
      <trkpt lat="45.60018" lon="6.68351">
        <ele>1912.3262</ele>
        <time>2019-12-26 13:38:58</time>
      </trkpt>
      <trkpt lat="45.60019" lon="6.68348">
        <ele>1911.8267</ele>
        <time>2019-12-26 13:39:00</time>
      </trkpt>
      <trkpt lat="45.60021" lon="6.68346">
        <ele>1911.9331</ele>
        <time>2019-12-26 13:39:04</time>
      </trkpt>
      <trkpt lat="45.60021" lon="6.68345">
        <ele>1913.3516</ele>
        <time>2019-12-26 13:40:55</time>
      </trkpt>
      <trkpt lat="45.60021" lon="6.68345">
        <ele>1913.3174</ele>
        <time>2019-12-26 13:40:56</time>
      </trkpt>
      <trkpt lat="45.60022" lon="6.68344">
        <ele>1913.0977</ele>
        <time>2019-12-26 13:40:58</time>
      </trkpt>
      <trkpt lat="45.60021" lon="6.68344">
        <ele>1913.1372</ele>
        <time>2019-12-26 13:40:59</time>
      </trkpt>
      <trkpt lat="45.60021" lon="6.68342">
        <ele>1912.7449</ele>
        <time>2019-12-26 13:41:01</time>
      </trkpt>
      <trkpt lat="45.60021" lon="6.68335">
        <ele>1910.3335</ele>
        <time>2019-12-26 13:41:09</time>
      </trkpt>
      <trkpt lat="45.60021" lon="6.68328">
        <ele>1908.9546</ele>
        <time>2019-12-26 13:41:13</time>
      </trkpt>
      <trkpt lat="45.6002" lon="6.68319">
        <ele>1909.0259</ele>
        <time>2019-12-26 13:41:15</time>
      </trkpt>
      <trkpt lat="45.60017" lon="6.68307">
        <ele>1907.8723</ele>
        <time>2019-12-26 13:41:21</time>
      </trkpt>
      <trkpt lat="45.60016" lon="6.68304">
        <ele>1906.2695</ele>
        <time>2019-12-26 13:41:27</time>
      </trkpt>
      <trkpt lat="45.60013" lon="6.68301">
        <ele>1907.4272</ele>
        <time>2019-12-26 13:41:31</time>
      </trkpt>
      <trkpt lat="45.6001" lon="6.68302">
        <ele>1904.7539</ele>
        <time>2019-12-26 13:41:36</time>
      </trkpt>
      <trkpt lat="45.6001" lon="6.68306">
        <ele>1904.3594</ele>
        <time>2019-12-26 13:41:37</time>
      </trkpt>
      <trkpt lat="45.60009" lon="6.68313">
        <ele>1903.646</ele>
        <time>2019-12-26 13:41:39</time>
      </trkpt>
      <trkpt lat="45.60008" lon="6.68315">
        <ele>1903.6545</ele>
        <time>2019-12-26 13:41:42</time>
      </trkpt>
      <trkpt lat="45.60005" lon="6.68314">
        <ele>1903.2173</ele>
        <time>2019-12-26 13:41:45</time>
      </trkpt>
      <trkpt lat="45.60004" lon="6.68306">
        <ele>1901.8125</ele>
        <time>2019-12-26 13:41:48</time>
      </trkpt>
      <trkpt lat="45.60004" lon="6.68285">
        <ele>1900.2158</ele>
        <time>2019-12-26 13:41:54</time>
      </trkpt>
      <trkpt lat="45.60002" lon="6.68277">
        <ele>1898.9146</ele>
        <time>2019-12-26 13:41:58</time>
      </trkpt>
      <trkpt lat="45.60001" lon="6.68276">
        <ele>1898.9883</ele>
        <time>2019-12-26 13:42:01</time>
      </trkpt>
      <trkpt lat="45.60001" lon="6.68276">
        <ele>1899.742</ele>
        <time>2019-12-26 13:42:04</time>
      </trkpt>
      <trkpt lat="45.60001" lon="6.68276">
        <ele>1899.7195</ele>
        <time>2019-12-26 13:42:05</time>
      </trkpt>
      <trkpt lat="45.6" lon="6.68276">
        <ele>1899.2424</ele>
        <time>2019-12-26 13:42:07</time>
      </trkpt>
      <trkpt lat="45.59998" lon="6.68272">
        <ele>1898.0459</ele>
        <time>2019-12-26 13:42:10</time>
      </trkpt>
      <trkpt lat="45.59996" lon="6.68268">
        <ele>1897.4644</ele>
        <time>2019-12-26 13:42:12</time>
      </trkpt>
      <trkpt lat="45.59996" lon="6.68264">
        <ele>1896.6865</ele>
        <time>2019-12-26 13:42:14</time>
      </trkpt>
      <trkpt lat="45.59995" lon="6.68263">
        <ele>1896.1382</ele>
        <time>2019-12-26 13:42:15</time>
      </trkpt>
      <trkpt lat="45.59993" lon="6.68265">
        <ele>1894.9146</ele>
        <time>2019-12-26 13:42:17</time>
      </trkpt>
      <trkpt lat="45.59991" lon="6.68271">
        <ele>1894.263</ele>
        <time>2019-12-26 13:42:21</time>
      </trkpt>
      <trkpt lat="45.59989" lon="6.68268">
        <ele>1893.1201</ele>
        <time>2019-12-26 13:42:23</time>
      </trkpt>
      <trkpt lat="45.59989" lon="6.68263">
        <ele>1892.2947</ele>
        <time>2019-12-26 13:42:25</time>
      </trkpt>
      <trkpt lat="45.59988" lon="6.68258">
        <ele>1890.9624</ele>
        <time>2019-12-26 13:42:28</time>
      </trkpt>
      <trkpt lat="45.59988" lon="6.68257">
        <ele>1890.0117</ele>
        <time>2019-12-26 13:42:31</time>
      </trkpt>
      <trkpt lat="45.59988" lon="6.68258">
        <ele>1889.5654</ele>
        <time>2019-12-26 13:42:35</time>
      </trkpt>
      <trkpt lat="45.59988" lon="6.68258">
        <ele>1889.8164</ele>
        <time>2019-12-26 13:42:37</time>
      </trkpt>
      <trkpt lat="45.59988" lon="6.68258">
        <ele>1889.2305</ele>
        <time>2019-12-26 13:42:38</time>
      </trkpt>
      <trkpt lat="45.59988" lon="6.68258">
        <ele>1889.4414</ele>
        <time>2019-12-26 13:42:39</time>
      </trkpt>
      <trkpt lat="45.59988" lon="6.68257">
        <ele>1889.7952</ele>
        <time>2019-12-26 13:42:44</time>
      </trkpt>
      <trkpt lat="45.59988" lon="6.68257">
        <ele>1890.002</ele>
        <time>2019-12-26 13:42:45</time>
      </trkpt>
      <trkpt lat="45.59988" lon="6.68256">
        <ele>1890.0757</ele>
        <time>2019-12-26 13:42:46</time>
      </trkpt>
      <trkpt lat="45.59988" lon="6.68255">
        <ele>1889.9595</ele>
        <time>2019-12-26 13:42:47</time>
      </trkpt>
      <trkpt lat="45.59988" lon="6.68254">
        <ele>1889.3501</ele>
        <time>2019-12-26 13:42:48</time>
      </trkpt>
      <trkpt lat="45.59988" lon="6.68241">
        <ele>1887.9011</ele>
        <time>2019-12-26 13:42:56</time>
      </trkpt>
      <trkpt lat="45.59989" lon="6.68223">
        <ele>1885.426</ele>
        <time>2019-12-26 13:43:04</time>
      </trkpt>
      <trkpt lat="45.59989" lon="6.68208">
        <ele>1884.0923</ele>
        <time>2019-12-26 13:43:10</time>
      </trkpt>
      <trkpt lat="45.59991" lon="6.68197">
        <ele>1882.7847</ele>
        <time>2019-12-26 13:43:13</time>
      </trkpt>
      <trkpt lat="45.59992" lon="6.68195">
        <ele>1883.1292</ele>
        <time>2019-12-26 13:43:14</time>
      </trkpt>
      <trkpt lat="45.59992" lon="6.68194">
        <ele>1882.6226</ele>
        <time>2019-12-26 13:43:18</time>
      </trkpt>
      <trkpt lat="45.59992" lon="6.68194">
        <ele>1883.0305</ele>
        <time>2019-12-26 13:43:19</time>
      </trkpt>
      <trkpt lat="45.59992" lon="6.68193">
        <ele>1884.1211</ele>
        <time>2019-12-26 13:43:22</time>
      </trkpt>
      <trkpt lat="45.59992" lon="6.68193">
        <ele>1884.6716</ele>
        <time>2019-12-26 13:43:34</time>
      </trkpt>
      <trkpt lat="45.59994" lon="6.6819">
        <ele>1882.9666</ele>
        <time>2019-12-26 13:43:43</time>
      </trkpt>
      <trkpt lat="45.59994" lon="6.68189">
        <ele>1883.2488</ele>
        <time>2019-12-26 13:43:44</time>
      </trkpt>
      <trkpt lat="45.59995" lon="6.68189">
        <ele>1882.7708</ele>
        <time>2019-12-26 13:43:47</time>
      </trkpt>
      <trkpt lat="45.59995" lon="6.68189">
        <ele>1882.8511</ele>
        <time>2019-12-26 13:43:49</time>
      </trkpt>
      <trkpt lat="45.59995" lon="6.68189">
        <ele>1882.6494</ele>
        <time>2019-12-26 13:43:50</time>
      </trkpt>
      <trkpt lat="45.59994" lon="6.68189">
        <ele>1883.2568</ele>
        <time>2019-12-26 13:43:52</time>
      </trkpt>
      <trkpt lat="45.59991" lon="6.68188">
        <ele>1883.0537</ele>
        <time>2019-12-26 13:44:00</time>
      </trkpt>
      <trkpt lat="45.5999" lon="6.6819">
        <ele>1882.1665</ele>
        <time>2019-12-26 13:44:03</time>
      </trkpt>
      <trkpt lat="45.5999" lon="6.6819">
        <ele>1881.752</ele>
        <time>2019-12-26 13:44:04</time>
      </trkpt>
      <trkpt lat="45.59985" lon="6.68194">
        <ele>1879.6411</ele>
        <time>2019-12-26 13:44:08</time>
      </trkpt>
      <trkpt lat="45.5997" lon="6.68214">
        <ele>1879.3164</ele>
        <time>2019-12-26 13:44:17</time>
      </trkpt>
      <trkpt lat="45.59969" lon="6.68214">
        <ele>1879.7549</ele>
        <time>2019-12-26 13:44:24</time>
      </trkpt>
      <trkpt lat="45.59969" lon="6.68212">
        <ele>1878.7329</ele>
        <time>2019-12-26 13:44:27</time>
      </trkpt>
      <trkpt lat="45.59971" lon="6.68206">
        <ele>1878.4033</ele>
        <time>2019-12-26 13:44:29</time>
      </trkpt>
      <trkpt lat="45.59977" lon="6.68189">
        <ele>1876.6035</ele>
        <time>2019-12-26 13:44:33</time>
      </trkpt>
      <trkpt lat="45.59981" lon="6.68166">
        <ele>1875.2109</ele>
        <time>2019-12-26 13:44:39</time>
      </trkpt>
      <trkpt lat="45.59984" lon="6.68151">
        <ele>1873.3997</ele>
        <time>2019-12-26 13:44:51</time>
      </trkpt>
      <trkpt lat="45.59986" lon="6.68143">
        <ele>1871.9089</ele>
        <time>2019-12-26 13:44:56</time>
      </trkpt>
      <trkpt lat="45.59983" lon="6.68141">
        <ele>1872.1597</ele>
        <time>2019-12-26 13:44:58</time>
      </trkpt>
      <trkpt lat="45.59979" lon="6.68144">
        <ele>1871.5703</ele>
        <time>2019-12-26 13:45:01</time>
      </trkpt>
      <trkpt lat="45.59977" lon="6.68146">
        <ele>1871.144</ele>
        <time>2019-12-26 13:45:02</time>
      </trkpt>
      <trkpt lat="45.59976" lon="6.68149">
        <ele>1870.5442</ele>
        <time>2019-12-26 13:45:03</time>
      </trkpt>
      <trkpt lat="45.59973" lon="6.68154">
        <ele>1868.7651</ele>
        <time>2019-12-26 13:45:10</time>
      </trkpt>
      <trkpt lat="45.59965" lon="6.68163">
        <ele>1867.8911</ele>
        <time>2019-12-26 13:45:16</time>
      </trkpt>
      <trkpt lat="45.59961" lon="6.68157">
        <ele>1867.352</ele>
        <time>2019-12-26 13:45:18</time>
      </trkpt>
      <trkpt lat="45.5996" lon="6.68152">
        <ele>1867.2776</ele>
        <time>2019-12-26 13:45:19</time>
      </trkpt>
      <trkpt lat="45.59961" lon="6.68143">
        <ele>1866.6096</ele>
        <time>2019-12-26 13:45:21</time>
      </trkpt>
      <trkpt lat="45.59963" lon="6.68138">
        <ele>1866.1348</ele>
        <time>2019-12-26 13:45:22</time>
      </trkpt>
      <trkpt lat="45.5997" lon="6.68124">
        <ele>1864.5244</ele>
        <time>2019-12-26 13:45:29</time>
      </trkpt>
      <trkpt lat="45.59969" lon="6.68123">
        <ele>1864.4163</ele>
        <time>2019-12-26 13:45:38</time>
      </trkpt>
      <trkpt lat="45.59965" lon="6.68126">
        <ele>1864.5835</ele>
        <time>2019-12-26 13:45:41</time>
      </trkpt>
      <trkpt lat="45.59951" lon="6.68139">
        <ele>1863.9465</ele>
        <time>2019-12-26 13:45:46</time>
      </trkpt>
      <trkpt lat="45.59946" lon="6.6814">
        <ele>1864.1602</ele>
        <time>2019-12-26 13:45:48</time>
      </trkpt>
      <trkpt lat="45.59943" lon="6.68141">
        <ele>1863.7202</ele>
        <time>2019-12-26 13:45:53</time>
      </trkpt>
      <trkpt lat="45.59944" lon="6.6814">
        <ele>1863.9487</ele>
        <time>2019-12-26 13:45:55</time>
      </trkpt>
      <trkpt lat="45.59944" lon="6.68139">
        <ele>1863.814</ele>
        <time>2019-12-26 13:45:56</time>
      </trkpt>
      <trkpt lat="45.59943" lon="6.68138">
        <ele>1863.8398</ele>
        <time>2019-12-26 13:45:59</time>
      </trkpt>
      <trkpt lat="45.5994" lon="6.68138">
        <ele>1864.2183</ele>
        <time>2019-12-26 13:46:03</time>
      </trkpt>
      <trkpt lat="45.5993" lon="6.68145">
        <ele>1861.8418</ele>
        <time>2019-12-26 13:46:06</time>
      </trkpt>
      <trkpt lat="45.59922" lon="6.68147">
        <ele>1860.8774</ele>
        <time>2019-12-26 13:46:08</time>
      </trkpt>
      <trkpt lat="45.59911" lon="6.68145">
        <ele>1860.4065</ele>
        <time>2019-12-26 13:46:11</time>
      </trkpt>
      <trkpt lat="45.59902" lon="6.68139">
        <ele>1859.7764</ele>
        <time>2019-12-26 13:46:14</time>
      </trkpt>
      <trkpt lat="45.59891" lon="6.6813">
        <ele>1858.936</ele>
        <time>2019-12-26 13:46:18</time>
      </trkpt>
      <trkpt lat="45.59876" lon="6.68126">
        <ele>1857.5508</ele>
        <time>2019-12-26 13:46:23</time>
      </trkpt>
      <trkpt lat="45.59857" lon="6.68131">
        <ele>1856.1216</ele>
        <time>2019-12-26 13:46:29</time>
      </trkpt>
      <trkpt lat="45.59842" lon="6.68136">
        <ele>1854.6074</ele>
        <time>2019-12-26 13:46:35</time>
      </trkpt>
      <trkpt lat="45.59836" lon="6.68141">
        <ele>1853.9395</ele>
        <time>2019-12-26 13:46:39</time>
      </trkpt>
      <trkpt lat="45.59833" lon="6.68146">
        <ele>1853.741</ele>
        <time>2019-12-26 13:46:42</time>
      </trkpt>
      <trkpt lat="45.59827" lon="6.68159">
        <ele>1852.2603</ele>
        <time>2019-12-26 13:46:49</time>
      </trkpt>
      <trkpt lat="45.59819" lon="6.68157">
        <ele>1851.8887</ele>
        <time>2019-12-26 13:46:57</time>
      </trkpt>
      <trkpt lat="45.59805" lon="6.68151">
        <ele>1849.4529</ele>
        <time>2019-12-26 13:47:00</time>
      </trkpt>
      <trkpt lat="45.59794" lon="6.68146">
        <ele>1848.2783</ele>
        <time>2019-12-26 13:47:03</time>
      </trkpt>
      <trkpt lat="45.59788" lon="6.68145">
        <ele>1848.4861</ele>
        <time>2019-12-26 13:47:06</time>
      </trkpt>
      <trkpt lat="45.59787" lon="6.68145">
        <ele>1849.0068</ele>
        <time>2019-12-26 13:47:09</time>
      </trkpt>
      <trkpt lat="45.59786" lon="6.68145">
        <ele>1848.1616</ele>
        <time>2019-12-26 13:47:25</time>
      </trkpt>
      <trkpt lat="45.59785" lon="6.68142">
        <ele>1847.4475</ele>
        <time>2019-12-26 13:47:27</time>
      </trkpt>
      <trkpt lat="45.59783" lon="6.68137">
        <ele>1845.8711</ele>
        <time>2019-12-26 13:47:29</time>
      </trkpt>
      <trkpt lat="45.59783" lon="6.68136">
        <ele>1846.2559</ele>
        <time>2019-12-26 13:47:32</time>
      </trkpt>
      <trkpt lat="45.59783" lon="6.68136">
        <ele>1845.3115</ele>
        <time>2019-12-26 13:47:42</time>
      </trkpt>
      <trkpt lat="45.59781" lon="6.68135">
        <ele>1844.7222</ele>
        <time>2019-12-26 13:47:44</time>
      </trkpt>
      <trkpt lat="45.59778" lon="6.68135">
        <ele>1843.6614</ele>
        <time>2019-12-26 13:47:45</time>
      </trkpt>
      <trkpt lat="45.59777" lon="6.68136">
        <ele>1842.9915</ele>
        <time>2019-12-26 13:47:46</time>
      </trkpt>
      <trkpt lat="45.59773" lon="6.68141">
        <ele>1841.4702</ele>
        <time>2019-12-26 13:47:49</time>
      </trkpt>
      <trkpt lat="45.5977" lon="6.68141">
        <ele>1840.8877</ele>
        <time>2019-12-26 13:47:50</time>
      </trkpt>
      <trkpt lat="45.59767" lon="6.68137">
        <ele>1839.8201</ele>
        <time>2019-12-26 13:47:52</time>
      </trkpt>
      <trkpt lat="45.59764" lon="6.68136">
        <ele>1837.439</ele>
        <time>2019-12-26 13:47:58</time>
      </trkpt>
      <trkpt lat="45.59762" lon="6.68136">
        <ele>1837.2864</ele>
        <time>2019-12-26 13:47:59</time>
      </trkpt>
      <trkpt lat="45.59757" lon="6.68133">
        <ele>1835.1326</ele>
        <time>2019-12-26 13:48:01</time>
      </trkpt>
      <trkpt lat="45.5975" lon="6.68128">
        <ele>1834.4397</ele>
        <time>2019-12-26 13:48:04</time>
      </trkpt>
      <trkpt lat="45.59748" lon="6.68126">
        <ele>1834.8105</ele>
        <time>2019-12-26 13:48:05</time>
      </trkpt>
      <trkpt lat="45.59735" lon="6.68108">
        <ele>1832.4863</ele>
        <time>2019-12-26 13:48:11</time>
      </trkpt>
      <trkpt lat="45.59734" lon="6.68106">
        <ele>1832.3469</ele>
        <time>2019-12-26 13:48:13</time>
      </trkpt>
      <trkpt lat="45.59733" lon="6.68107">
        <ele>1832.397</ele>
        <time>2019-12-26 13:48:16</time>
      </trkpt>
      <trkpt lat="45.59732" lon="6.68107">
        <ele>1831.4468</ele>
        <time>2019-12-26 13:49:01</time>
      </trkpt>
      <trkpt lat="45.59731" lon="6.68105">
        <ele>1832.2229</ele>
        <time>2019-12-26 13:49:05</time>
      </trkpt>
      <trkpt lat="45.59726" lon="6.68102">
        <ele>1831.6208</ele>
        <time>2019-12-26 13:49:10</time>
      </trkpt>
      <trkpt lat="45.59718" lon="6.68097">
        <ele>1831.6929</ele>
        <time>2019-12-26 13:49:17</time>
      </trkpt>
      <trkpt lat="45.59715" lon="6.68096">
        <ele>1830.6333</ele>
        <time>2019-12-26 13:49:18</time>
      </trkpt>
      <trkpt lat="45.59707" lon="6.68098">
        <ele>1829.8586</ele>
        <time>2019-12-26 13:49:20</time>
      </trkpt>
      <trkpt lat="45.5969" lon="6.68103">
        <ele>1829.5845</ele>
        <time>2019-12-26 13:49:25</time>
      </trkpt>
      <trkpt lat="45.59674" lon="6.68111">
        <ele>1827.8618</ele>
        <time>2019-12-26 13:49:31</time>
      </trkpt>
      <trkpt lat="45.5967" lon="6.68112">
        <ele>1826.0159</ele>
        <time>2019-12-26 13:49:34</time>
      </trkpt>
      <trkpt lat="45.59669" lon="6.68109">
        <ele>1825.375</ele>
        <time>2019-12-26 13:49:35</time>
      </trkpt>
      <trkpt lat="45.59667" lon="6.68104">
        <ele>1824.3315</ele>
        <time>2019-12-26 13:49:38</time>
      </trkpt>
      <trkpt lat="45.59666" lon="6.68106">
        <ele>1824.2188</ele>
        <time>2019-12-26 13:49:40</time>
      </trkpt>
      <trkpt lat="45.59665" lon="6.68107">
        <ele>1824.0576</ele>
        <time>2019-12-26 13:49:43</time>
      </trkpt>
      <trkpt lat="45.59664" lon="6.68107">
        <ele>1824.2031</ele>
        <time>2019-12-26 13:49:45</time>
      </trkpt>
      <trkpt lat="45.59663" lon="6.68107">
        <ele>1823.8667</ele>
        <time>2019-12-26 13:49:47</time>
      </trkpt>
      <trkpt lat="45.59663" lon="6.68107">
        <ele>1823.708</ele>
        <time>2019-12-26 13:49:49</time>
      </trkpt>
      <trkpt lat="45.59662" lon="6.68106">
        <ele>1824.0654</ele>
        <time>2019-12-26 13:49:50</time>
      </trkpt>
      <trkpt lat="45.59661" lon="6.68102">
        <ele>1822.7649</ele>
        <time>2019-12-26 13:49:52</time>
      </trkpt>
      <trkpt lat="45.59662" lon="6.68098">
        <ele>1820.883</ele>
        <time>2019-12-26 13:49:53</time>
      </trkpt>
      <trkpt lat="45.59664" lon="6.68093">
        <ele>1820.3506</ele>
        <time>2019-12-26 13:49:54</time>
      </trkpt>
      <trkpt lat="45.59668" lon="6.68086">
        <ele>1819.6953</ele>
        <time>2019-12-26 13:49:56</time>
      </trkpt>
      <trkpt lat="45.5968" lon="6.68071">
        <ele>1818.4216</ele>
        <time>2019-12-26 13:50:03</time>
      </trkpt>
      <trkpt lat="45.59682" lon="6.68061">
        <ele>1815.4578</ele>
        <time>2019-12-26 13:50:06</time>
      </trkpt>
      <trkpt lat="45.59681" lon="6.6806">
        <ele>1815.9434</ele>
        <time>2019-12-26 13:50:07</time>
      </trkpt>
      <trkpt lat="45.59679" lon="6.68063">
        <ele>1816.4585</ele>
        <time>2019-12-26 13:50:16</time>
      </trkpt>
      <trkpt lat="45.59675" lon="6.68063">
        <ele>1815.8638</ele>
        <time>2019-12-26 13:50:19</time>
      </trkpt>
      <trkpt lat="45.59655" lon="6.68062">
        <ele>1814.8647</ele>
        <time>2019-12-26 13:50:24</time>
      </trkpt>
      <trkpt lat="45.59649" lon="6.68061">
        <ele>1813.6096</ele>
        <time>2019-12-26 13:50:27</time>
      </trkpt>
      <trkpt lat="45.59648" lon="6.68058">
        <ele>1812.415</ele>
        <time>2019-12-26 13:50:28</time>
      </trkpt>
      <trkpt lat="45.5965" lon="6.68055">
        <ele>1810.8787</ele>
        <time>2019-12-26 13:50:29</time>
      </trkpt>
      <trkpt lat="45.59651" lon="6.68049">
        <ele>1808.4692</ele>
        <time>2019-12-26 13:50:31</time>
      </trkpt>
      <trkpt lat="45.5965" lon="6.68048">
        <ele>1807.888</ele>
        <time>2019-12-26 13:50:32</time>
      </trkpt>
      <trkpt lat="45.59646" lon="6.68046">
        <ele>1806.6545</ele>
        <time>2019-12-26 13:50:34</time>
      </trkpt>
      <trkpt lat="45.59645" lon="6.68043">
        <ele>1805.5039</ele>
        <time>2019-12-26 13:50:35</time>
      </trkpt>
      <trkpt lat="45.59644" lon="6.68035">
        <ele>1804.8374</ele>
        <time>2019-12-26 13:50:37</time>
      </trkpt>
      <trkpt lat="45.59644" lon="6.68033">
        <ele>1804.5098</ele>
        <time>2019-12-26 13:50:38</time>
      </trkpt>
      <trkpt lat="45.59643" lon="6.68031">
        <ele>1804.1487</ele>
        <time>2019-12-26 13:50:39</time>
      </trkpt>
      <trkpt lat="45.59641" lon="6.6803">
        <ele>1804.293</ele>
        <time>2019-12-26 13:50:40</time>
      </trkpt>
      <trkpt lat="45.59637" lon="6.68027">
        <ele>1803.4106</ele>
        <time>2019-12-26 13:50:42</time>
      </trkpt>
      <trkpt lat="45.59633" lon="6.68026">
        <ele>1801.7661</ele>
        <time>2019-12-26 13:50:44</time>
      </trkpt>
      <trkpt lat="45.59632" lon="6.68028">
        <ele>1801.3662</ele>
        <time>2019-12-26 13:50:46</time>
      </trkpt>
      <trkpt lat="45.59632" lon="6.68029">
        <ele>1801.2847</ele>
        <time>2019-12-26 13:50:48</time>
      </trkpt>
      <trkpt lat="45.59631" lon="6.68029">
        <ele>1801.1748</ele>
        <time>2019-12-26 13:50:49</time>
      </trkpt>
      <trkpt lat="45.59621" lon="6.68028">
        <ele>1799.9536</ele>
        <time>2019-12-26 13:50:53</time>
      </trkpt>
      <trkpt lat="45.59618" lon="6.68029">
        <ele>1799.5044</ele>
        <time>2019-12-26 13:50:54</time>
      </trkpt>
      <trkpt lat="45.59612" lon="6.68033">
        <ele>1799.2949</ele>
        <time>2019-12-26 13:50:56</time>
      </trkpt>
      <trkpt lat="45.59609" lon="6.68035">
        <ele>1798.4021</ele>
        <time>2019-12-26 13:50:57</time>
      </trkpt>
      <trkpt lat="45.59593" lon="6.68039">
        <ele>1796.8733</ele>
        <time>2019-12-26 13:51:00</time>
      </trkpt>
      <trkpt lat="45.5958" lon="6.68041">
        <ele>1794.655</ele>
        <time>2019-12-26 13:51:04</time>
      </trkpt>
      <trkpt lat="45.59576" lon="6.68042">
        <ele>1793.2471</ele>
        <time>2019-12-26 13:51:08</time>
      </trkpt>
      <trkpt lat="45.59576" lon="6.68042">
        <ele>1793.3389</ele>
        <time>2019-12-26 13:51:10</time>
      </trkpt>
      <trkpt lat="45.59575" lon="6.68042">
        <ele>1793.4519</ele>
        <time>2019-12-26 13:51:11</time>
      </trkpt>
      <trkpt lat="45.59575" lon="6.68043">
        <ele>1793.3286</ele>
        <time>2019-12-26 13:51:13</time>
      </trkpt>
      <trkpt lat="45.59573" lon="6.68043">
        <ele>1792.9504</ele>
        <time>2019-12-26 13:51:14</time>
      </trkpt>
      <trkpt lat="45.5957" lon="6.68044">
        <ele>1793.501</ele>
        <time>2019-12-26 13:51:16</time>
      </trkpt>
      <trkpt lat="45.59567" lon="6.68044">
        <ele>1792.6592</ele>
        <time>2019-12-26 13:51:17</time>
      </trkpt>
      <trkpt lat="45.59561" lon="6.68046">
        <ele>1791.792</ele>
        <time>2019-12-26 13:51:19</time>
      </trkpt>
      <trkpt lat="45.59552" lon="6.68051">
        <ele>1791.4167</ele>
        <time>2019-12-26 13:51:22</time>
      </trkpt>
      <trkpt lat="45.59546" lon="6.68055">
        <ele>1790.4824</ele>
        <time>2019-12-26 13:51:28</time>
      </trkpt>
      <trkpt lat="45.59546" lon="6.68053">
        <ele>1790.0789</ele>
        <time>2019-12-26 13:51:33</time>
      </trkpt>
      <trkpt lat="45.5955" lon="6.68044">
        <ele>1789.4836</ele>
        <time>2019-12-26 13:51:37</time>
      </trkpt>
      <trkpt lat="45.59554" lon="6.68037">
        <ele>1787.4458</ele>
        <time>2019-12-26 13:51:40</time>
      </trkpt>
      <trkpt lat="45.59562" lon="6.68029">
        <ele>1786.8567</ele>
        <time>2019-12-26 13:51:44</time>
      </trkpt>
      <trkpt lat="45.59569" lon="6.68023">
        <ele>1785.1152</ele>
        <time>2019-12-26 13:51:48</time>
      </trkpt>
      <trkpt lat="45.59569" lon="6.6802">
        <ele>1784.6475</ele>
        <time>2019-12-26 13:51:49</time>
      </trkpt>
      <trkpt lat="45.59567" lon="6.68015">
        <ele>1783.9521</ele>
        <time>2019-12-26 13:51:51</time>
      </trkpt>
      <trkpt lat="45.5956" lon="6.68011">
        <ele>1781.9976</ele>
        <time>2019-12-26 13:51:53</time>
      </trkpt>
      <trkpt lat="45.59556" lon="6.68011">
        <ele>1782.0444</ele>
        <time>2019-12-26 13:51:55</time>
      </trkpt>
      <trkpt lat="45.59554" lon="6.68013">
        <ele>1781.6077</ele>
        <time>2019-12-26 13:52:00</time>
      </trkpt>
      <trkpt lat="45.59544" lon="6.68016">
        <ele>1779.4312</ele>
        <time>2019-12-26 13:52:06</time>
      </trkpt>
      <trkpt lat="45.59541" lon="6.68017">
        <ele>1778.438</ele>
        <time>2019-12-26 13:52:08</time>
      </trkpt>
      <trkpt lat="45.59539" lon="6.68015">
        <ele>1777.9731</ele>
        <time>2019-12-26 13:52:09</time>
      </trkpt>
      <trkpt lat="45.59539" lon="6.68012">
        <ele>1777.5571</ele>
        <time>2019-12-26 13:52:10</time>
      </trkpt>
      <trkpt lat="45.59538" lon="6.68005">
        <ele>1774.9697</ele>
        <time>2019-12-26 13:52:12</time>
      </trkpt>
      <trkpt lat="45.59537" lon="6.68003">
        <ele>1774.7361</ele>
        <time>2019-12-26 13:52:13</time>
      </trkpt>
      <trkpt lat="45.59535" lon="6.68004">
        <ele>1774.3086</ele>
        <time>2019-12-26 13:52:15</time>
      </trkpt>
      <trkpt lat="45.59532" lon="6.68008">
        <ele>1773.9214</ele>
        <time>2019-12-26 13:52:21</time>
      </trkpt>
      <trkpt lat="45.59532" lon="6.68008">
        <ele>1773.8638</ele>
        <time>2019-12-26 13:52:24</time>
      </trkpt>
      <trkpt lat="45.59527" lon="6.68007">
        <ele>1772.207</ele>
        <time>2019-12-26 13:52:32</time>
      </trkpt>
      <trkpt lat="45.59526" lon="6.68002">
        <ele>1770.7366</ele>
        <time>2019-12-26 13:52:34</time>
      </trkpt>
      <trkpt lat="45.59526" lon="6.67999">
        <ele>1771.6514</ele>
        <time>2019-12-26 13:52:35</time>
      </trkpt>
      <trkpt lat="45.59528" lon="6.67994">
        <ele>1770.4563</ele>
        <time>2019-12-26 13:52:37</time>
      </trkpt>
      <trkpt lat="45.59527" lon="6.67991">
        <ele>1768.9717</ele>
        <time>2019-12-26 13:52:38</time>
      </trkpt>
      <trkpt lat="45.59524" lon="6.6799">
        <ele>1768.4443</ele>
        <time>2019-12-26 13:52:40</time>
      </trkpt>
      <trkpt lat="45.59523" lon="6.67989">
        <ele>1767.4458</ele>
        <time>2019-12-26 13:52:41</time>
      </trkpt>
      <trkpt lat="45.5952" lon="6.67985">
        <ele>1766.6348</ele>
        <time>2019-12-26 13:52:43</time>
      </trkpt>
      <trkpt lat="45.59518" lon="6.67981">
        <ele>1766.7104</ele>
        <time>2019-12-26 13:52:45</time>
      </trkpt>
      <trkpt lat="45.59516" lon="6.67981">
        <ele>1766.0874</ele>
        <time>2019-12-26 13:52:46</time>
      </trkpt>
      <trkpt lat="45.59514" lon="6.67981">
        <ele>1765.3784</ele>
        <time>2019-12-26 13:52:47</time>
      </trkpt>
      <trkpt lat="45.59512" lon="6.6798">
        <ele>1764.0745</ele>
        <time>2019-12-26 13:52:48</time>
      </trkpt>
      <trkpt lat="45.59511" lon="6.67977">
        <ele>1762.8423</ele>
        <time>2019-12-26 13:52:49</time>
      </trkpt>
      <trkpt lat="45.59511" lon="6.67973">
        <ele>1761.7397</ele>
        <time>2019-12-26 13:52:53</time>
      </trkpt>
      <trkpt lat="45.59511" lon="6.67974">
        <ele>1761.1846</ele>
        <time>2019-12-26 13:52:55</time>
      </trkpt>
      <trkpt lat="45.59511" lon="6.67974">
        <ele>1760.1987</ele>
        <time>2019-12-26 13:52:56</time>
      </trkpt>
      <trkpt lat="45.5951" lon="6.67974">
        <ele>1759.4946</ele>
        <time>2019-12-26 13:52:57</time>
      </trkpt>
      <trkpt lat="45.59503" lon="6.67973">
        <ele>1757.1855</ele>
        <time>2019-12-26 13:53:02</time>
      </trkpt>
      <trkpt lat="45.595" lon="6.67968">
        <ele>1756.0078</ele>
        <time>2019-12-26 13:53:05</time>
      </trkpt>
      <trkpt lat="45.595" lon="6.67965">
        <ele>1755.8843</ele>
        <time>2019-12-26 13:53:06</time>
      </trkpt>
      <trkpt lat="45.59499" lon="6.6796">
        <ele>1755.0122</ele>
        <time>2019-12-26 13:53:08</time>
      </trkpt>
      <trkpt lat="45.59494" lon="6.67959">
        <ele>1753.8623</ele>
        <time>2019-12-26 13:53:11</time>
      </trkpt>
      <trkpt lat="45.59491" lon="6.6796">
        <ele>1753.346</ele>
        <time>2019-12-26 13:53:13</time>
      </trkpt>
      <trkpt lat="45.59472" lon="6.67969">
        <ele>1747.7642</ele>
        <time>2019-12-26 13:53:21</time>
      </trkpt>
      <trkpt lat="45.59471" lon="6.67971">
        <ele>1746.9543</ele>
        <time>2019-12-26 13:53:24</time>
      </trkpt>
      <trkpt lat="45.59471" lon="6.67971">
        <ele>1746.8665</ele>
        <time>2019-12-26 13:53:26</time>
      </trkpt>
      <trkpt lat="45.59469" lon="6.6797">
        <ele>1747.115</ele>
        <time>2019-12-26 13:53:27</time>
      </trkpt>
      <trkpt lat="45.59461" lon="6.67972">
        <ele>1745.9473</ele>
        <time>2019-12-26 13:53:31</time>
      </trkpt>
      <trkpt lat="45.59458" lon="6.67972">
        <ele>1746.3374</ele>
        <time>2019-12-26 13:53:34</time>
      </trkpt>
      <trkpt lat="45.59452" lon="6.6797">
        <ele>1745.3408</ele>
        <time>2019-12-26 13:53:36</time>
      </trkpt>
      <trkpt lat="45.59449" lon="6.6797">
        <ele>1744.9629</ele>
        <time>2019-12-26 13:53:37</time>
      </trkpt>
      <trkpt lat="45.59447" lon="6.67971">
        <ele>1744.946</ele>
        <time>2019-12-26 13:53:39</time>
      </trkpt>
      <trkpt lat="45.59447" lon="6.67971">
        <ele>1745.041</ele>
        <time>2019-12-26 13:53:40</time>
      </trkpt>
      <trkpt lat="45.59446" lon="6.67971">
        <ele>1744.7307</ele>
        <time>2019-12-26 13:53:44</time>
      </trkpt>
      <trkpt lat="45.59445" lon="6.67966">
        <ele>1743.5662</ele>
        <time>2019-12-26 13:53:47</time>
      </trkpt>
      <trkpt lat="45.59446" lon="6.67964">
        <ele>1742.939</ele>
        <time>2019-12-26 13:53:48</time>
      </trkpt>
      <trkpt lat="45.59449" lon="6.67963">
        <ele>1742.999</ele>
        <time>2019-12-26 13:53:50</time>
      </trkpt>
      <trkpt lat="45.5945" lon="6.67963">
        <ele>1742.4812</ele>
        <time>2019-12-26 13:53:51</time>
      </trkpt>
      <trkpt lat="45.59449" lon="6.67958">
        <ele>1740.0156</ele>
        <time>2019-12-26 13:53:53</time>
      </trkpt>
      <trkpt lat="45.59447" lon="6.67956">
        <ele>1740.2075</ele>
        <time>2019-12-26 13:53:54</time>
      </trkpt>
      <trkpt lat="45.59441" lon="6.67954">
        <ele>1740.3696</ele>
        <time>2019-12-26 13:53:56</time>
      </trkpt>
      <trkpt lat="45.59434" lon="6.67953">
        <ele>1740.2463</ele>
        <time>2019-12-26 13:54:01</time>
      </trkpt>
      <trkpt lat="45.59434" lon="6.67953">
        <ele>1740.4036</ele>
        <time>2019-12-26 13:54:03</time>
      </trkpt>
      <trkpt lat="45.59434" lon="6.67952">
        <ele>1740.56</ele>
        <time>2019-12-26 13:54:04</time>
      </trkpt>
      <trkpt lat="45.59434" lon="6.67951">
        <ele>1740.6934</ele>
        <time>2019-12-26 13:54:06</time>
      </trkpt>
      <trkpt lat="45.59433" lon="6.67947">
        <ele>1737.6094</ele>
        <time>2019-12-26 13:54:09</time>
      </trkpt>
      <trkpt lat="45.59435" lon="6.67942">
        <ele>1736.3936</ele>
        <time>2019-12-26 13:54:14</time>
      </trkpt>
      <trkpt lat="45.59431" lon="6.6794">
        <ele>1734.31</ele>
        <time>2019-12-26 13:54:17</time>
      </trkpt>
      <trkpt lat="45.59431" lon="6.67935">
        <ele>1733.1235</ele>
        <time>2019-12-26 13:54:20</time>
      </trkpt>
      <trkpt lat="45.59432" lon="6.67937">
        <ele>1732.8926</ele>
        <time>2019-12-26 13:54:22</time>
      </trkpt>
      <trkpt lat="45.59432" lon="6.67938">
        <ele>1732.3013</ele>
        <time>2019-12-26 13:54:27</time>
      </trkpt>
      <trkpt lat="45.59432" lon="6.67938">
        <ele>1732.1565</ele>
        <time>2019-12-26 13:54:28</time>
      </trkpt>
      <trkpt lat="45.59432" lon="6.67938">
        <ele>1732.1392</ele>
        <time>2019-12-26 13:54:30</time>
      </trkpt>
      <trkpt lat="45.59432" lon="6.67938">
        <ele>1732.0522</ele>
        <time>2019-12-26 13:54:31</time>
      </trkpt>
      <trkpt lat="45.59431" lon="6.67938">
        <ele>1730.9209</ele>
        <time>2019-12-26 13:54:39</time>
      </trkpt>
      <trkpt lat="45.5943" lon="6.67938">
        <ele>1731.0469</ele>
        <time>2019-12-26 13:54:42</time>
      </trkpt>
      <trkpt lat="45.5943" lon="6.67938">
        <ele>1731.3706</ele>
        <time>2019-12-26 13:54:44</time>
      </trkpt>
      <trkpt lat="45.5943" lon="6.67934">
        <ele>1732.3193</ele>
        <time>2019-12-26 13:54:46</time>
      </trkpt>
      <trkpt lat="45.59429" lon="6.67931">
        <ele>1731.2666</ele>
        <time>2019-12-26 13:54:47</time>
      </trkpt>
      <trkpt lat="45.59424" lon="6.67928">
        <ele>1729.8701</ele>
        <time>2019-12-26 13:54:50</time>
      </trkpt>
      <trkpt lat="45.59419" lon="6.67927">
        <ele>1727.6667</ele>
        <time>2019-12-26 13:54:53</time>
      </trkpt>
      <trkpt lat="45.59418" lon="6.67925">
        <ele>1727.1582</ele>
        <time>2019-12-26 13:54:54</time>
      </trkpt>
      <trkpt lat="45.59417" lon="6.67921">
        <ele>1726.9299</ele>
        <time>2019-12-26 13:54:55</time>
      </trkpt>
      <trkpt lat="45.59416" lon="6.67918">
        <ele>1724.6565</ele>
        <time>2019-12-26 13:54:57</time>
      </trkpt>
      <trkpt lat="45.59414" lon="6.67918">
        <ele>1724.5142</ele>
        <time>2019-12-26 13:54:58</time>
      </trkpt>
      <trkpt lat="45.59413" lon="6.6792">
        <ele>1724.7275</ele>
        <time>2019-12-26 13:54:59</time>
      </trkpt>
      <trkpt lat="45.59409" lon="6.67925">
        <ele>1723.624</ele>
        <time>2019-12-26 13:55:01</time>
      </trkpt>
      <trkpt lat="45.59408" lon="6.67927">
        <ele>1723.2622</ele>
        <time>2019-12-26 13:55:02</time>
      </trkpt>
      <trkpt lat="45.59404" lon="6.67929">
        <ele>1722.5405</ele>
        <time>2019-12-26 13:55:04</time>
      </trkpt>
      <trkpt lat="45.59403" lon="6.67926">
        <ele>1721.7996</ele>
        <time>2019-12-26 13:55:05</time>
      </trkpt>
      <trkpt lat="45.59402" lon="6.67923">
        <ele>1720.352</ele>
        <time>2019-12-26 13:55:06</time>
      </trkpt>
      <trkpt lat="45.59401" lon="6.67919">
        <ele>1718.4736</ele>
        <time>2019-12-26 13:55:08</time>
      </trkpt>
      <trkpt lat="45.59398" lon="6.67919">
        <ele>1719.2166</ele>
        <time>2019-12-26 13:55:09</time>
      </trkpt>
      <trkpt lat="45.59396" lon="6.6792">
        <ele>1716.6335</ele>
        <time>2019-12-26 13:55:10</time>
      </trkpt>
      <trkpt lat="45.59393" lon="6.67918">
        <ele>1715.0735</ele>
        <time>2019-12-26 13:55:12</time>
      </trkpt>
      <trkpt lat="45.59392" lon="6.67916">
        <ele>1714.3679</ele>
        <time>2019-12-26 13:55:13</time>
      </trkpt>
      <trkpt lat="45.59391" lon="6.67915">
        <ele>1713.0317</ele>
        <time>2019-12-26 13:55:14</time>
      </trkpt>
      <trkpt lat="45.59384" lon="6.6792">
        <ele>1711.7554</ele>
        <time>2019-12-26 13:55:17</time>
      </trkpt>
      <trkpt lat="45.59382" lon="6.6792">
        <ele>1711.8828</ele>
        <time>2019-12-26 13:55:18</time>
      </trkpt>
      <trkpt lat="45.59378" lon="6.67915">
        <ele>1709.2068</ele>
        <time>2019-12-26 13:55:20</time>
      </trkpt>
      <trkpt lat="45.59376" lon="6.67914">
        <ele>1708.9373</ele>
        <time>2019-12-26 13:55:21</time>
      </trkpt>
      <trkpt lat="45.59371" lon="6.67912">
        <ele>1708.1719</ele>
        <time>2019-12-26 13:55:23</time>
      </trkpt>
      <trkpt lat="45.59369" lon="6.67909">
        <ele>1706.9075</ele>
        <time>2019-12-26 13:55:24</time>
      </trkpt>
      <trkpt lat="45.59365" lon="6.67906">
        <ele>1705.5767</ele>
        <time>2019-12-26 13:55:26</time>
      </trkpt>
      <trkpt lat="45.59363" lon="6.67905">
        <ele>1704.4355</ele>
        <time>2019-12-26 13:55:27</time>
      </trkpt>
      <trkpt lat="45.59362" lon="6.67901">
        <ele>1703.3359</ele>
        <time>2019-12-26 13:55:29</time>
      </trkpt>
      <trkpt lat="45.5936" lon="6.67901">
        <ele>1703.8848</ele>
        <time>2019-12-26 13:55:30</time>
      </trkpt>
      <trkpt lat="45.59359" lon="6.67902">
        <ele>1703.4517</ele>
        <time>2019-12-26 13:55:31</time>
      </trkpt>
      <trkpt lat="45.59355" lon="6.67909">
        <ele>1704.5063</ele>
        <time>2019-12-26 13:55:36</time>
      </trkpt>
      <trkpt lat="45.59355" lon="6.67909">
        <ele>1704.1057</ele>
        <time>2019-12-26 13:55:39</time>
      </trkpt>
      <trkpt lat="45.59352" lon="6.67911">
        <ele>1703.7954</ele>
        <time>2019-12-26 13:55:42</time>
      </trkpt>
      <trkpt lat="45.59334" lon="6.67921">
        <ele>1703.4209</ele>
        <time>2019-12-26 13:55:49</time>
      </trkpt>
      <trkpt lat="45.59325" lon="6.67921">
        <ele>1703.2292</ele>
        <time>2019-12-26 13:55:53</time>
      </trkpt>
      <trkpt lat="45.59324" lon="6.67915">
        <ele>1700.8784</ele>
        <time>2019-12-26 13:55:55</time>
      </trkpt>
      <trkpt lat="45.59328" lon="6.67907">
        <ele>1700.456</ele>
        <time>2019-12-26 13:55:57</time>
      </trkpt>
      <trkpt lat="45.5933" lon="6.67904">
        <ele>1700.0686</ele>
        <time>2019-12-26 13:55:58</time>
      </trkpt>
      <trkpt lat="45.59335" lon="6.67901">
        <ele>1698.6099</ele>
        <time>2019-12-26 13:56:02</time>
      </trkpt>
      <trkpt lat="45.59334" lon="6.67901">
        <ele>1697.3848</ele>
        <time>2019-12-26 13:56:43</time>
      </trkpt>
      <trkpt lat="45.59334" lon="6.679">
        <ele>1697.4617</ele>
        <time>2019-12-26 13:56:49</time>
      </trkpt>
      <trkpt lat="45.59335" lon="6.67897">
        <ele>1695.2998</ele>
        <time>2019-12-26 13:56:52</time>
      </trkpt>
      <trkpt lat="45.59336" lon="6.67894">
        <ele>1695.2295</ele>
        <time>2019-12-26 13:56:53</time>
      </trkpt>
      <trkpt lat="45.59336" lon="6.67892">
        <ele>1694.7388</ele>
        <time>2019-12-26 13:56:54</time>
      </trkpt>
      <trkpt lat="45.59335" lon="6.6789">
        <ele>1693.7324</ele>
        <time>2019-12-26 13:56:56</time>
      </trkpt>
      <trkpt lat="45.59332" lon="6.67893">
        <ele>1691.749</ele>
        <time>2019-12-26 13:57:00</time>
      </trkpt>
      <trkpt lat="45.59332" lon="6.67894">
        <ele>1691.9365</ele>
        <time>2019-12-26 13:57:01</time>
      </trkpt>
      <trkpt lat="45.59332" lon="6.67895">
        <ele>1691.8579</ele>
        <time>2019-12-26 13:58:11</time>
      </trkpt>
      <trkpt lat="45.59331" lon="6.67894">
        <ele>1689.4548</ele>
        <time>2019-12-26 13:58:13</time>
      </trkpt>
      <trkpt lat="45.5933" lon="6.67891">
        <ele>1689.7505</ele>
        <time>2019-12-26 13:58:16</time>
      </trkpt>
      <trkpt lat="45.59329" lon="6.67892">
        <ele>1691.6816</ele>
        <time>2019-12-26 13:59:12</time>
      </trkpt>
      <trkpt lat="45.59328" lon="6.67892">
        <ele>1691.6677</ele>
        <time>2019-12-26 13:59:14</time>
      </trkpt>
      <trkpt lat="45.5932" lon="6.67896">
        <ele>1694.6382</ele>
        <time>2019-12-26 13:59:25</time>
      </trkpt>
      <trkpt lat="45.5932" lon="6.67895">
        <ele>1694.6133</ele>
        <time>2019-12-26 13:59:30</time>
      </trkpt>
      <trkpt lat="45.5932" lon="6.67895">
        <ele>1694.5562</ele>
        <time>2019-12-26 13:59:32</time>
      </trkpt>
      <trkpt lat="45.5932" lon="6.67895">
        <ele>1694.571</ele>
        <time>2019-12-26 13:59:35</time>
      </trkpt>
      <trkpt lat="45.59322" lon="6.67891">
        <ele>1694.6748</ele>
        <time>2019-12-26 13:59:38</time>
      </trkpt>
      <trkpt lat="45.59323" lon="6.67887">
        <ele>1693.717</ele>
        <time>2019-12-26 13:59:40</time>
      </trkpt>
      <trkpt lat="45.59326" lon="6.67883">
        <ele>1692.1582</ele>
        <time>2019-12-26 13:59:47</time>
      </trkpt>
      <trkpt lat="45.5933" lon="6.67878">
        <ele>1690.6257</ele>
        <time>2019-12-26 13:59:50</time>
      </trkpt>
      <trkpt lat="45.59344" lon="6.67867">
        <ele>1690.5266</ele>
        <time>2019-12-26 13:59:55</time>
      </trkpt>
      <trkpt lat="45.59346" lon="6.67865">
        <ele>1690.3052</ele>
        <time>2019-12-26 13:59:56</time>
      </trkpt>
      <trkpt lat="45.59355" lon="6.6785">
        <ele>1687.022</ele>
        <time>2019-12-26 14:00:01</time>
      </trkpt>
      <trkpt lat="45.59368" lon="6.6783">
        <ele>1684.4043</ele>
        <time>2019-12-26 14:00:08</time>
      </trkpt>
      <trkpt lat="45.59371" lon="6.67822">
        <ele>1683.2944</ele>
        <time>2019-12-26 14:00:11</time>
      </trkpt>
      <trkpt lat="45.59371" lon="6.67819">
        <ele>1682.4292</ele>
        <time>2019-12-26 14:00:12</time>
      </trkpt>
      <trkpt lat="45.59369" lon="6.67815">
        <ele>1680.9448</ele>
        <time>2019-12-26 14:00:14</time>
      </trkpt>
      <trkpt lat="45.59367" lon="6.67814">
        <ele>1680.831</ele>
        <time>2019-12-26 14:00:15</time>
      </trkpt>
      <trkpt lat="45.59362" lon="6.67814">
        <ele>1679.4644</ele>
        <time>2019-12-26 14:00:17</time>
      </trkpt>
      <trkpt lat="45.59361" lon="6.67812">
        <ele>1678.773</ele>
        <time>2019-12-26 14:00:18</time>
      </trkpt>
      <trkpt lat="45.59361" lon="6.67808">
        <ele>1678.3628</ele>
        <time>2019-12-26 14:00:19</time>
      </trkpt>
      <trkpt lat="45.59362" lon="6.67805">
        <ele>1677.4424</ele>
        <time>2019-12-26 14:00:20</time>
      </trkpt>
      <trkpt lat="45.59366" lon="6.67802">
        <ele>1677.2891</ele>
        <time>2019-12-26 14:00:23</time>
      </trkpt>
      <trkpt lat="45.59366" lon="6.67801">
        <ele>1676.9727</ele>
        <time>2019-12-26 14:00:24</time>
      </trkpt>
      <trkpt lat="45.59366" lon="6.67802">
        <ele>1677.696</ele>
        <time>2019-12-26 14:00:25</time>
      </trkpt>
      <trkpt lat="45.59366" lon="6.67802">
        <ele>1677.6577</ele>
        <time>2019-12-26 14:00:27</time>
      </trkpt>
      <trkpt lat="45.59366" lon="6.67801">
        <ele>1677.9116</ele>
        <time>2019-12-26 14:00:28</time>
      </trkpt>
      <trkpt lat="45.59367" lon="6.67799">
        <ele>1677.5396</ele>
        <time>2019-12-26 14:00:29</time>
      </trkpt>
      <trkpt lat="45.59368" lon="6.67797">
        <ele>1676.7107</ele>
        <time>2019-12-26 14:00:31</time>
      </trkpt>
      <trkpt lat="45.59369" lon="6.67796">
        <ele>1675.8728</ele>
        <time>2019-12-26 14:00:32</time>
      </trkpt>
      <trkpt lat="45.59375" lon="6.67784">
        <ele>1673.6321</ele>
        <time>2019-12-26 14:00:38</time>
      </trkpt>
      <trkpt lat="45.59378" lon="6.67781">
        <ele>1672.105</ele>
        <time>2019-12-26 14:00:40</time>
      </trkpt>
      <trkpt lat="45.5938" lon="6.67775">
        <ele>1671.4136</ele>
        <time>2019-12-26 14:00:42</time>
      </trkpt>
      <trkpt lat="45.59388" lon="6.67758">
        <ele>1668.7471</ele>
        <time>2019-12-26 14:00:48</time>
      </trkpt>
      <trkpt lat="45.59391" lon="6.67754">
        <ele>1667.1074</ele>
        <time>2019-12-26 14:00:51</time>
      </trkpt>
      <trkpt lat="45.59409" lon="6.67741">
        <ele>1664.4404</ele>
        <time>2019-12-26 14:00:58</time>
      </trkpt>
      <trkpt lat="45.59421" lon="6.67732">
        <ele>1663.832</ele>
        <time>2019-12-26 14:01:02</time>
      </trkpt>
      <trkpt lat="45.59423" lon="6.67731">
        <ele>1662.8164</ele>
        <time>2019-12-26 14:01:06</time>
      </trkpt>
      <trkpt lat="45.59421" lon="6.67732">
        <ele>1661.0112</ele>
        <time>2019-12-26 14:01:15</time>
      </trkpt>
      <trkpt lat="45.59418" lon="6.6773">
        <ele>1659.4963</ele>
        <time>2019-12-26 14:01:17</time>
      </trkpt>
      <trkpt lat="45.59413" lon="6.6773">
        <ele>1658.1968</ele>
        <time>2019-12-26 14:01:20</time>
      </trkpt>
      <trkpt lat="45.594" lon="6.67723">
        <ele>1659.2229</ele>
        <time>2019-12-26 14:01:27</time>
      </trkpt>
      <trkpt lat="45.59395" lon="6.67723">
        <ele>1659.6846</ele>
        <time>2019-12-26 14:01:31</time>
      </trkpt>
      <trkpt lat="45.59395" lon="6.67723">
        <ele>1659.2012</ele>
        <time>2019-12-26 14:01:38</time>
      </trkpt>
      <trkpt lat="45.59396" lon="6.6772">
        <ele>1658.4138</ele>
        <time>2019-12-26 14:01:41</time>
      </trkpt>
      <trkpt lat="45.594" lon="6.67717">
        <ele>1656.987</ele>
        <time>2019-12-26 14:01:43</time>
      </trkpt>
      <trkpt lat="45.59408" lon="6.67712">
        <ele>1656.4775</ele>
        <time>2019-12-26 14:01:46</time>
      </trkpt>
      <trkpt lat="45.59409" lon="6.67713">
        <ele>1656.2576</ele>
        <time>2019-12-26 14:01:48</time>
      </trkpt>
      <trkpt lat="45.59409" lon="6.67713">
        <ele>1657.2124</ele>
        <time>2019-12-26 14:01:51</time>
      </trkpt>
      <trkpt lat="45.5941" lon="6.67712">
        <ele>1657.1978</ele>
        <time>2019-12-26 14:01:52</time>
      </trkpt>
      <trkpt lat="45.59412" lon="6.6771">
        <ele>1657.3477</ele>
        <time>2019-12-26 14:01:53</time>
      </trkpt>
      <trkpt lat="45.59416" lon="6.67704">
        <ele>1654.8618</ele>
        <time>2019-12-26 14:01:56</time>
      </trkpt>
      <trkpt lat="45.59429" lon="6.67691">
        <ele>1653.0942</ele>
        <time>2019-12-26 14:02:09</time>
      </trkpt>
      <trkpt lat="45.5943" lon="6.6769">
        <ele>1652.29</ele>
        <time>2019-12-26 14:02:10</time>
      </trkpt>
      <trkpt lat="45.59432" lon="6.67689">
        <ele>1652.2881</ele>
        <time>2019-12-26 14:02:11</time>
      </trkpt>
      <trkpt lat="45.59435" lon="6.67687">
        <ele>1652.4463</ele>
        <time>2019-12-26 14:02:13</time>
      </trkpt>
      <trkpt lat="45.59437" lon="6.67686">
        <ele>1652.0767</ele>
        <time>2019-12-26 14:02:15</time>
      </trkpt>
      <trkpt lat="45.59437" lon="6.67685">
        <ele>1652.4126</ele>
        <time>2019-12-26 14:02:17</time>
      </trkpt>
      <trkpt lat="45.59437" lon="6.67685">
        <ele>1652.7993</ele>
        <time>2019-12-26 14:02:18</time>
      </trkpt>
      <trkpt lat="45.59437" lon="6.67685">
        <ele>1652.5344</ele>
        <time>2019-12-26 14:02:19</time>
      </trkpt>
      <trkpt lat="45.59439" lon="6.67685">
        <ele>1656.9229</ele>
        <time>2019-12-26 14:03:06</time>
      </trkpt>
      <trkpt lat="45.59438" lon="6.67684">
        <ele>1652.8989</ele>
        <time>2019-12-26 14:03:39</time>
      </trkpt>
      <trkpt lat="45.59439" lon="6.67685">
        <ele>1651.7837</ele>
        <time>2019-12-26 14:03:40</time>
      </trkpt>
      <trkpt lat="45.59439" lon="6.67685">
        <ele>1651.9836</ele>
        <time>2019-12-26 14:03:41</time>
      </trkpt>
      <trkpt lat="45.59442" lon="6.67682">
        <ele>1649.4407</ele>
        <time>2019-12-26 14:03:47</time>
      </trkpt>
      <trkpt lat="45.59447" lon="6.6768">
        <ele>1650.1101</ele>
        <time>2019-12-26 14:03:52</time>
      </trkpt>
      <trkpt lat="45.59447" lon="6.6768">
        <ele>1649.0127</ele>
        <time>2019-12-26 14:03:53</time>
      </trkpt>
      <trkpt lat="45.59447" lon="6.67681">
        <ele>1648.5918</ele>
        <time>2019-12-26 14:04:34</time>
      </trkpt>
      <trkpt lat="45.59449" lon="6.67682">
        <ele>1648.5381</ele>
        <time>2019-12-26 14:04:52</time>
      </trkpt>
      <trkpt lat="45.59449" lon="6.67682">
        <ele>1647.9268</ele>
        <time>2019-12-26 14:04:53</time>
      </trkpt>
      <trkpt lat="45.59449" lon="6.67682">
        <ele>1647.9119</ele>
        <time>2019-12-26 14:04:54</time>
      </trkpt>
      <trkpt lat="45.59451" lon="6.67683">
        <ele>1645.8596</ele>
        <time>2019-12-26 14:04:59</time>
      </trkpt>
      <trkpt lat="45.59451" lon="6.67683">
        <ele>1645.5815</ele>
        <time>2019-12-26 14:05:01</time>
      </trkpt>
      <trkpt lat="45.59454" lon="6.67684">
        <ele>1644.5703</ele>
        <time>2019-12-26 14:05:03</time>
      </trkpt>
      <trkpt lat="45.59459" lon="6.67685">
        <ele>1644.2375</ele>
        <time>2019-12-26 14:05:06</time>
      </trkpt>
      <trkpt lat="45.59459" lon="6.67684">
        <ele>1642.7715</ele>
        <time>2019-12-26 14:05:08</time>
      </trkpt>
      <trkpt lat="45.59458" lon="6.67684">
        <ele>1642.4102</ele>
        <time>2019-12-26 14:05:09</time>
      </trkpt>
      <trkpt lat="45.59458" lon="6.67683">
        <ele>1641.4639</ele>
        <time>2019-12-26 14:05:52</time>
      </trkpt>
      <trkpt lat="45.59458" lon="6.67683">
        <ele>1641.4368</ele>
        <time>2019-12-26 14:05:53</time>
      </trkpt>
      <trkpt lat="45.59458" lon="6.67684">
        <ele>1641.9421</ele>
        <time>2019-12-26 14:05:54</time>
      </trkpt>
      <trkpt lat="45.59458" lon="6.67684">
        <ele>1641.9636</ele>
        <time>2019-12-26 14:05:55</time>
      </trkpt>
      <trkpt lat="45.59457" lon="6.67683">
        <ele>1641.8335</ele>
        <time>2019-12-26 14:06:14</time>
      </trkpt>
      <trkpt lat="45.59458" lon="6.67683">
        <ele>1643.1465</ele>
        <time>2019-12-26 14:06:16</time>
      </trkpt>
      <trkpt lat="45.5946" lon="6.67681">
        <ele>1644.1597</ele>
        <time>2019-12-26 14:06:19</time>
      </trkpt>
      <trkpt lat="45.5946" lon="6.67682">
        <ele>1642.4924</ele>
        <time>2019-12-26 14:06:22</time>
      </trkpt>
      <trkpt lat="45.59462" lon="6.67683">
        <ele>1642.3984</ele>
        <time>2019-12-26 14:06:24</time>
      </trkpt>
      <trkpt lat="45.59463" lon="6.67684">
        <ele>1640.5469</ele>
        <time>2019-12-26 14:06:33</time>
      </trkpt>
      <trkpt lat="45.59463" lon="6.67685">
        <ele>1640.8867</ele>
        <time>2019-12-26 14:06:35</time>
      </trkpt>
      <trkpt lat="45.59464" lon="6.67686">
        <ele>1640.9116</ele>
        <time>2019-12-26 14:06:36</time>
      </trkpt>
      <trkpt lat="45.59465" lon="6.67686">
        <ele>1641.7744</ele>
        <time>2019-12-26 14:06:37</time>
      </trkpt>
      <trkpt lat="45.59466" lon="6.67687">
        <ele>1641.7244</ele>
        <time>2019-12-26 14:06:39</time>
      </trkpt>
      <trkpt lat="45.59467" lon="6.67688">
        <ele>1640.5488</ele>
        <time>2019-12-26 14:06:40</time>
      </trkpt>
      <trkpt lat="45.59467" lon="6.67688">
        <ele>1640.4932</ele>
        <time>2019-12-26 14:06:41</time>
      </trkpt>
      <trkpt lat="45.59467" lon="6.67689">
        <ele>1640.4248</ele>
        <time>2019-12-26 14:06:42</time>
      </trkpt>
      <trkpt lat="45.59467" lon="6.67689">
        <ele>1640.0322</ele>
        <time>2019-12-26 14:06:43</time>
      </trkpt>
      <trkpt lat="45.59467" lon="6.67689">
        <ele>1639.6445</ele>
        <time>2019-12-26 14:06:48</time>
      </trkpt>
      <trkpt lat="45.59467" lon="6.6769">
        <ele>1641.3889</ele>
        <time>2019-12-26 14:06:50</time>
      </trkpt>
      <trkpt lat="45.59468" lon="6.67691">
        <ele>1641.6133</ele>
        <time>2019-12-26 14:06:51</time>
      </trkpt>
      <trkpt lat="45.59468" lon="6.67691">
        <ele>1641.7244</ele>
        <time>2019-12-26 14:06:52</time>
      </trkpt>
      <trkpt lat="45.59469" lon="6.67692">
        <ele>1641.8071</ele>
        <time>2019-12-26 14:06:55</time>
      </trkpt>
      <trkpt lat="45.5947" lon="6.67692">
        <ele>1640.936</ele>
        <time>2019-12-26 14:06:57</time>
      </trkpt>
      <trkpt lat="45.5947" lon="6.67692">
        <ele>1641.1143</ele>
        <time>2019-12-26 14:06:59</time>
      </trkpt>
      <trkpt lat="45.5947" lon="6.67692">
        <ele>1641.6833</ele>
        <time>2019-12-26 14:07:27</time>
      </trkpt>
      <trkpt lat="45.5947" lon="6.67693">
        <ele>1641.0132</ele>
        <time>2019-12-26 14:07:28</time>
      </trkpt>
      <trkpt lat="45.59471" lon="6.67692">
        <ele>1641.6138</ele>
        <time>2019-12-26 14:07:37</time>
      </trkpt>
      <trkpt lat="45.59471" lon="6.67692">
        <ele>1641.7502</ele>
        <time>2019-12-26 14:07:38</time>
      </trkpt>
      <trkpt lat="45.59471" lon="6.67691">
        <ele>1641.9146</ele>
        <time>2019-12-26 14:08:17</time>
      </trkpt>
      <trkpt lat="45.59471" lon="6.6769">
        <ele>1641.5562</ele>
        <time>2019-12-26 14:08:55</time>
      </trkpt>
      <trkpt lat="45.5947" lon="6.6769">
        <ele>1641.2749</ele>
        <time>2019-12-26 14:08:57</time>
      </trkpt>
      <trkpt lat="45.59471" lon="6.6769">
        <ele>1642.7476</ele>
        <time>2019-12-26 14:08:59</time>
      </trkpt>
      <trkpt lat="45.5947" lon="6.6769">
        <ele>1643.2563</ele>
        <time>2019-12-26 14:09:26</time>
      </trkpt>
      <trkpt lat="45.5947" lon="6.6769">
        <ele>1643.2002</ele>
        <time>2019-12-26 14:09:27</time>
      </trkpt>
      <trkpt lat="45.5947" lon="6.67691">
        <ele>1643.7407</ele>
        <time>2019-12-26 14:09:29</time>
      </trkpt>
      <trkpt lat="45.5947" lon="6.67691">
        <ele>1643.0034</ele>
        <time>2019-12-26 14:09:43</time>
      </trkpt>
      <trkpt lat="45.5947" lon="6.67692">
        <ele>1643.24</ele>
        <time>2019-12-26 14:09:45</time>
      </trkpt>
      <trkpt lat="45.5947" lon="6.67692">
        <ele>1642.8862</ele>
        <time>2019-12-26 14:09:46</time>
      </trkpt>
      <trkpt lat="45.5947" lon="6.67692">
        <ele>1643.4248</ele>
        <time>2019-12-26 14:09:48</time>
      </trkpt>
      <trkpt lat="45.5947" lon="6.67693">
        <ele>1642.4521</ele>
        <time>2019-12-26 14:10:04</time>
      </trkpt>
      <trkpt lat="45.5947" lon="6.67693">
        <ele>1641.9905</ele>
        <time>2019-12-26 14:10:06</time>
      </trkpt>
      <trkpt lat="45.5947" lon="6.67693">
        <ele>1641.1875</ele>
        <time>2019-12-26 14:10:09</time>
      </trkpt>
      <trkpt lat="45.5947" lon="6.67693">
        <ele>1641.0942</ele>
        <time>2019-12-26 14:10:10</time>
      </trkpt>
      <trkpt lat="45.5947" lon="6.67693">
        <ele>1642.8984</ele>
        <time>2019-12-26 14:10:47</time>
      </trkpt>
      <trkpt lat="45.5947" lon="6.67693">
        <ele>1642.6006</ele>
        <time>2019-12-26 14:10:49</time>
      </trkpt>
      <trkpt lat="45.59472" lon="6.67693">
        <ele>1644.9375</ele>
        <time>2019-12-26 14:11:12</time>
      </trkpt>
      <trkpt lat="45.59472" lon="6.67693">
        <ele>1644.8867</ele>
        <time>2019-12-26 14:11:13</time>
      </trkpt>
      <trkpt lat="45.59472" lon="6.67694">
        <ele>1645.3298</ele>
        <time>2019-12-26 14:11:15</time>
      </trkpt>
      <trkpt lat="45.59473" lon="6.67694">
        <ele>1645.5608</ele>
        <time>2019-12-26 14:11:16</time>
      </trkpt>
      <trkpt lat="45.59473" lon="6.67694">
        <ele>1646.1597</ele>
        <time>2019-12-26 14:11:19</time>
      </trkpt>
      <trkpt lat="45.59474" lon="6.67694">
        <ele>1646.3779</ele>
        <time>2019-12-26 14:11:20</time>
      </trkpt>
      <trkpt lat="45.59475" lon="6.67694">
        <ele>1646.4868</ele>
        <time>2019-12-26 14:11:22</time>
      </trkpt>
      <trkpt lat="45.59478" lon="6.67691">
        <ele>1647.8286</ele>
        <time>2019-12-26 14:11:28</time>
      </trkpt>
      <trkpt lat="45.5948" lon="6.6769">
        <ele>1647.4851</ele>
        <time>2019-12-26 14:11:32</time>
      </trkpt>
      <trkpt lat="45.59481" lon="6.67689">
        <ele>1647.7236</ele>
        <time>2019-12-26 14:11:34</time>
      </trkpt>
      <trkpt lat="45.5949" lon="6.67685">
        <ele>1648.5947</ele>
        <time>2019-12-26 14:11:52</time>
      </trkpt>
      <trkpt lat="45.59495" lon="6.67686">
        <ele>1649.0449</ele>
        <time>2019-12-26 14:12:01</time>
      </trkpt>
      <trkpt lat="45.59496" lon="6.67687">
        <ele>1648.0083</ele>
        <time>2019-12-26 14:12:06</time>
      </trkpt>
      <trkpt lat="45.595" lon="6.6769">
        <ele>1647.8745</ele>
        <time>2019-12-26 14:12:15</time>
      </trkpt>
      <trkpt lat="45.59501" lon="6.6769">
        <ele>1646.7563</ele>
        <time>2019-12-26 14:12:18</time>
      </trkpt>
      <trkpt lat="45.59501" lon="6.67691">
        <ele>1647.55</ele>
        <time>2019-12-26 14:12:19</time>
      </trkpt>
      <trkpt lat="45.59503" lon="6.6769">
        <ele>1648.1426</ele>
        <time>2019-12-26 14:12:23</time>
      </trkpt>
      <trkpt lat="45.59507" lon="6.67688">
        <ele>1648.0762</ele>
        <time>2019-12-26 14:12:29</time>
      </trkpt>
      <trkpt lat="45.59508" lon="6.67687">
        <ele>1648.529</ele>
        <time>2019-12-26 14:12:32</time>
      </trkpt>
      <trkpt lat="45.59509" lon="6.67686">
        <ele>1648.4956</ele>
        <time>2019-12-26 14:12:36</time>
      </trkpt>
      <trkpt lat="45.5951" lon="6.67685">
        <ele>1647.8423</ele>
        <time>2019-12-26 14:12:37</time>
      </trkpt>
      <trkpt lat="45.59511" lon="6.67684">
        <ele>1647.8301</ele>
        <time>2019-12-26 14:12:39</time>
      </trkpt>
      <trkpt lat="45.59515" lon="6.67684">
        <ele>1648.1726</ele>
        <time>2019-12-26 14:12:43</time>
      </trkpt>
      <trkpt lat="45.59521" lon="6.67679">
        <ele>1649.439</ele>
        <time>2019-12-26 14:12:53</time>
      </trkpt>
      <trkpt lat="45.59522" lon="6.67678">
        <ele>1650.0366</ele>
        <time>2019-12-26 14:12:57</time>
      </trkpt>
      <trkpt lat="45.59522" lon="6.67679">
        <ele>1650.1187</ele>
        <time>2019-12-26 14:13:00</time>
      </trkpt>
      <trkpt lat="45.59522" lon="6.67679">
        <ele>1649.7891</ele>
        <time>2019-12-26 14:13:01</time>
      </trkpt>
      <trkpt lat="45.59523" lon="6.6768">
        <ele>1649.9312</ele>
        <time>2019-12-26 14:13:04</time>
      </trkpt>
      <trkpt lat="45.59523" lon="6.6768">
        <ele>1649.3955</ele>
        <time>2019-12-26 14:13:06</time>
      </trkpt>
      <trkpt lat="45.59525" lon="6.67681">
        <ele>1649.6074</ele>
        <time>2019-12-26 14:13:11</time>
      </trkpt>
      <trkpt lat="45.59527" lon="6.67681">
        <ele>1650.5195</ele>
        <time>2019-12-26 14:13:17</time>
      </trkpt>
      <trkpt lat="45.59533" lon="6.67679">
        <ele>1653.2139</ele>
        <time>2019-12-26 14:13:29</time>
      </trkpt>
      <trkpt lat="45.59537" lon="6.67678">
        <ele>1650.6309</ele>
        <time>2019-12-26 14:13:37</time>
      </trkpt>
      <trkpt lat="45.59537" lon="6.67678">
        <ele>1650.6672</ele>
        <time>2019-12-26 14:13:39</time>
      </trkpt>
      <trkpt lat="45.59538" lon="6.67678">
        <ele>1651.0205</ele>
        <time>2019-12-26 14:13:40</time>
      </trkpt>
      <trkpt lat="45.59543" lon="6.67679">
        <ele>1650.3984</ele>
        <time>2019-12-26 14:13:53</time>
      </trkpt>
      <trkpt lat="45.59544" lon="6.67679">
        <ele>1649.7954</ele>
        <time>2019-12-26 14:13:56</time>
      </trkpt>
      <trkpt lat="45.59544" lon="6.67678">
        <ele>1648.8721</ele>
        <time>2019-12-26 14:13:57</time>
      </trkpt>
      <trkpt lat="45.59549" lon="6.67674">
        <ele>1647.7522</ele>
        <time>2019-12-26 14:14:03</time>
      </trkpt>
      <trkpt lat="45.59553" lon="6.6767">
        <ele>1646.551</ele>
        <time>2019-12-26 14:14:11</time>
      </trkpt>
      <trkpt lat="45.59553" lon="6.6767">
        <ele>1646.6377</ele>
        <time>2019-12-26 14:14:12</time>
      </trkpt>
      <trkpt lat="45.59554" lon="6.67671">
        <ele>1646.4614</ele>
        <time>2019-12-26 14:14:14</time>
      </trkpt>
      <trkpt lat="45.59561" lon="6.67668">
        <ele>1649.335</ele>
        <time>2019-12-26 14:14:29</time>
      </trkpt>
      <trkpt lat="45.59563" lon="6.67664">
        <ele>1648.5974</ele>
        <time>2019-12-26 14:14:35</time>
      </trkpt>
      <trkpt lat="45.59572" lon="6.67657">
        <ele>1650.1973</ele>
        <time>2019-12-26 14:14:51</time>
      </trkpt>
      <trkpt lat="45.59577" lon="6.67656">
        <ele>1651.4102</ele>
        <time>2019-12-26 14:15:02</time>
      </trkpt>
      <trkpt lat="45.59578" lon="6.67656">
        <ele>1651.9482</ele>
        <time>2019-12-26 14:15:04</time>
      </trkpt>
      <trkpt lat="45.59579" lon="6.67656">
        <ele>1651.9458</ele>
        <time>2019-12-26 14:15:05</time>
      </trkpt>
      <trkpt lat="45.59583" lon="6.67656">
        <ele>1653.2717</ele>
        <time>2019-12-26 14:15:13</time>
      </trkpt>
      <trkpt lat="45.59585" lon="6.67656">
        <ele>1653.5393</ele>
        <time>2019-12-26 14:15:16</time>
      </trkpt>
      <trkpt lat="45.59585" lon="6.67656">
        <ele>1652.5154</ele>
        <time>2019-12-26 14:15:17</time>
      </trkpt>
      <trkpt lat="45.59589" lon="6.67659">
        <ele>1651.8491</ele>
        <time>2019-12-26 14:15:23</time>
      </trkpt>
      <trkpt lat="45.59594" lon="6.67661">
        <ele>1652.2576</ele>
        <time>2019-12-26 14:15:32</time>
      </trkpt>
      <trkpt lat="45.59594" lon="6.67661">
        <ele>1652.3613</ele>
        <time>2019-12-26 14:15:33</time>
      </trkpt>
      <trkpt lat="45.59594" lon="6.67661">
        <ele>1653.0464</ele>
        <time>2019-12-26 14:15:34</time>
      </trkpt>
      <trkpt lat="45.59599" lon="6.6766">
        <ele>1654.0669</ele>
        <time>2019-12-26 14:15:45</time>
      </trkpt>
      <trkpt lat="45.596" lon="6.6766">
        <ele>1653.8374</ele>
        <time>2019-12-26 14:15:48</time>
      </trkpt>
      <trkpt lat="45.59601" lon="6.6766">
        <ele>1653.5303</ele>
        <time>2019-12-26 14:15:51</time>
      </trkpt>
      <trkpt lat="45.59602" lon="6.67659">
        <ele>1653.5273</ele>
        <time>2019-12-26 14:15:52</time>
      </trkpt>
      <trkpt lat="45.59603" lon="6.6766">
        <ele>1653.7131</ele>
        <time>2019-12-26 14:15:55</time>
      </trkpt>
      <trkpt lat="45.59603" lon="6.67659">
        <ele>1655.0139</ele>
        <time>2019-12-26 14:15:57</time>
      </trkpt>
      <trkpt lat="45.59604" lon="6.67658">
        <ele>1654.8965</ele>
        <time>2019-12-26 14:15:59</time>
      </trkpt>
      <trkpt lat="45.59608" lon="6.67656">
        <ele>1652.1123</ele>
        <time>2019-12-26 14:16:07</time>
      </trkpt>
      <trkpt lat="45.59612" lon="6.67655">
        <ele>1650.5239</ele>
        <time>2019-12-26 14:16:15</time>
      </trkpt>
      <trkpt lat="45.59612" lon="6.67655">
        <ele>1649.7588</ele>
        <time>2019-12-26 14:16:16</time>
      </trkpt>
      <trkpt lat="45.59615" lon="6.67653">
        <ele>1648</ele>
        <time>2019-12-26 14:16:23</time>
      </trkpt>
      <trkpt lat="45.59622" lon="6.67647">
        <ele>1650.7959</ele>
        <time>2019-12-26 14:16:39</time>
      </trkpt>
      <trkpt lat="45.59623" lon="6.67646">
        <ele>1650.5322</ele>
        <time>2019-12-26 14:16:40</time>
      </trkpt>
      <trkpt lat="45.59626" lon="6.67644">
        <ele>1650.8755</ele>
        <time>2019-12-26 14:16:49</time>
      </trkpt>
      <trkpt lat="45.59628" lon="6.67641">
        <ele>1650.5315</ele>
        <time>2019-12-26 14:16:55</time>
      </trkpt>
      <trkpt lat="45.59629" lon="6.67639">
        <ele>1654.6724</ele>
        <time>2019-12-26 14:17:13</time>
      </trkpt>
      <trkpt lat="45.59629" lon="6.67639">
        <ele>1654.271</ele>
        <time>2019-12-26 14:17:14</time>
      </trkpt>
      <trkpt lat="45.5963" lon="6.67639">
        <ele>1654.3267</ele>
        <time>2019-12-26 14:17:15</time>
      </trkpt>
      <trkpt lat="45.59633" lon="6.67635">
        <ele>1653.635</ele>
        <time>2019-12-26 14:17:23</time>
      </trkpt>
      <trkpt lat="45.59633" lon="6.67633">
        <ele>1653.6855</ele>
        <time>2019-12-26 14:17:25</time>
      </trkpt>
      <trkpt lat="45.59634" lon="6.67632">
        <ele>1652.3159</ele>
        <time>2019-12-26 14:17:28</time>
      </trkpt>
      <trkpt lat="45.59636" lon="6.67627">
        <ele>1653.3394</ele>
        <time>2019-12-26 14:17:36</time>
      </trkpt>
      <trkpt lat="45.59636" lon="6.67626">
        <ele>1653.2109</ele>
        <time>2019-12-26 14:17:38</time>
      </trkpt>
      <trkpt lat="45.59637" lon="6.67625">
        <ele>1653.354</ele>
        <time>2019-12-26 14:17:42</time>
      </trkpt>
      <trkpt lat="45.59636" lon="6.67625">
        <ele>1653.8408</ele>
        <time>2019-12-26 14:17:44</time>
      </trkpt>
      <trkpt lat="45.59636" lon="6.67624">
        <ele>1655.0718</ele>
        <time>2019-12-26 14:17:46</time>
      </trkpt>
      <trkpt lat="45.59636" lon="6.67624">
        <ele>1655.5771</ele>
        <time>2019-12-26 14:17:48</time>
      </trkpt>
      <trkpt lat="45.59638" lon="6.67623">
        <ele>1655.9297</ele>
        <time>2019-12-26 14:17:52</time>
      </trkpt>
      <trkpt lat="45.59638" lon="6.67622">
        <ele>1655.5488</ele>
        <time>2019-12-26 14:17:54</time>
      </trkpt>
      <trkpt lat="45.59638" lon="6.67621">
        <ele>1655.6101</ele>
        <time>2019-12-26 14:17:56</time>
      </trkpt>
      <trkpt lat="45.59638" lon="6.67621">
        <ele>1652.186</ele>
        <time>2019-12-26 14:18:11</time>
      </trkpt>
      <trkpt lat="45.59638" lon="6.67621">
        <ele>1651.8845</ele>
        <time>2019-12-26 14:18:12</time>
      </trkpt>
      <trkpt lat="45.59639" lon="6.67621">
        <ele>1651.6831</ele>
        <time>2019-12-26 14:18:15</time>
      </trkpt>
      <trkpt lat="45.59639" lon="6.67619">
        <ele>1651.4004</ele>
        <time>2019-12-26 14:18:18</time>
      </trkpt>
      <trkpt lat="45.59639" lon="6.67619">
        <ele>1652.0234</ele>
        <time>2019-12-26 14:18:19</time>
      </trkpt>
      <trkpt lat="45.59641" lon="6.67618">
        <ele>1649.9226</ele>
        <time>2019-12-26 14:18:22</time>
      </trkpt>
      <trkpt lat="45.59641" lon="6.67617">
        <ele>1651.22</ele>
        <time>2019-12-26 14:18:23</time>
      </trkpt>
      <trkpt lat="45.59644" lon="6.6761">
        <ele>1653.6521</ele>
        <time>2019-12-26 14:18:29</time>
      </trkpt>
      <trkpt lat="45.59647" lon="6.67604">
        <ele>1652.3076</ele>
        <time>2019-12-26 14:18:35</time>
      </trkpt>
      <trkpt lat="45.59649" lon="6.67602">
        <ele>1650.7739</ele>
        <time>2019-12-26 14:18:38</time>
      </trkpt>
      <trkpt lat="45.59653" lon="6.67601">
        <ele>1654.5764</ele>
        <time>2019-12-26 14:18:46</time>
      </trkpt>
      <trkpt lat="45.59655" lon="6.67602">
        <ele>1655.5981</ele>
        <time>2019-12-26 14:18:50</time>
      </trkpt>
      <trkpt lat="45.59655" lon="6.67602">
        <ele>1654.6934</ele>
        <time>2019-12-26 14:18:52</time>
      </trkpt>
      <trkpt lat="45.59656" lon="6.67601">
        <ele>1654.9902</ele>
        <time>2019-12-26 14:18:53</time>
      </trkpt>
      <trkpt lat="45.59657" lon="6.67601">
        <ele>1656.2217</ele>
        <time>2019-12-26 14:18:57</time>
      </trkpt>
      <trkpt lat="45.5966" lon="6.67602">
        <ele>1657.5764</ele>
        <time>2019-12-26 14:19:05</time>
      </trkpt>
      <trkpt lat="45.59665" lon="6.67603">
        <ele>1655.1399</ele>
        <time>2019-12-26 14:19:13</time>
      </trkpt>
      <trkpt lat="45.59665" lon="6.67603">
        <ele>1654.4766</ele>
        <time>2019-12-26 14:19:14</time>
      </trkpt>
      <trkpt lat="45.59665" lon="6.67604">
        <ele>1653.6501</ele>
        <time>2019-12-26 14:19:31</time>
      </trkpt>
      <trkpt lat="45.59665" lon="6.67604">
        <ele>1653.5679</ele>
        <time>2019-12-26 14:19:32</time>
      </trkpt>
      <trkpt lat="45.59671" lon="6.67607">
        <ele>1654.3628</ele>
        <time>2019-12-26 14:19:47</time>
      </trkpt>
      <trkpt lat="45.59672" lon="6.67608">
        <ele>1655.0996</ele>
        <time>2019-12-26 14:19:51</time>
      </trkpt>
      <trkpt lat="45.59673" lon="6.67608">
        <ele>1656.0586</ele>
        <time>2019-12-26 14:19:53</time>
      </trkpt>
      <trkpt lat="45.59674" lon="6.67608">
        <ele>1655.4927</ele>
        <time>2019-12-26 14:19:57</time>
      </trkpt>
      <trkpt lat="45.59674" lon="6.67608">
        <ele>1655.1108</ele>
        <time>2019-12-26 14:19:59</time>
      </trkpt>
      <trkpt lat="45.59675" lon="6.67609">
        <ele>1654.615</ele>
        <time>2019-12-26 14:20:02</time>
      </trkpt>
      <trkpt lat="45.59675" lon="6.6761">
        <ele>1654.4915</ele>
        <time>2019-12-26 14:20:08</time>
      </trkpt>
      <trkpt lat="45.59679" lon="6.6761">
        <ele>1654.3579</ele>
        <time>2019-12-26 14:20:20</time>
      </trkpt>
      <trkpt lat="45.59681" lon="6.6761">
        <ele>1652.4604</ele>
        <time>2019-12-26 14:20:29</time>
      </trkpt>
      <trkpt lat="45.59681" lon="6.6761">
        <ele>1653.7661</ele>
        <time>2019-12-26 14:20:32</time>
      </trkpt>
      <trkpt lat="45.59682" lon="6.67611">
        <ele>1654.5483</ele>
        <time>2019-12-26 14:20:52</time>
      </trkpt>
      <trkpt lat="45.59683" lon="6.67612">
        <ele>1654.842</ele>
        <time>2019-12-26 14:20:56</time>
      </trkpt>
      <trkpt lat="45.59683" lon="6.67613">
        <ele>1654.4756</ele>
        <time>2019-12-26 14:21:00</time>
      </trkpt>
      <trkpt lat="45.59683" lon="6.67615">
        <ele>1651.8301</ele>
        <time>2019-12-26 14:21:04</time>
      </trkpt>
      <trkpt lat="45.59683" lon="6.67615">
        <ele>1651.5249</ele>
        <time>2019-12-26 14:21:07</time>
      </trkpt>
      <trkpt lat="45.59684" lon="6.67615">
        <ele>1652.083</ele>
        <time>2019-12-26 14:21:09</time>
      </trkpt>
      <trkpt lat="45.59684" lon="6.67615">
        <ele>1653.5701</ele>
        <time>2019-12-26 14:21:15</time>
      </trkpt>
      <trkpt lat="45.59685" lon="6.67616">
        <ele>1652.7861</ele>
        <time>2019-12-26 14:21:18</time>
      </trkpt>
      <trkpt lat="45.59686" lon="6.67616">
        <ele>1653.1226</ele>
        <time>2019-12-26 14:21:28</time>
      </trkpt>
      <trkpt lat="45.59687" lon="6.67616">
        <ele>1653.0557</ele>
        <time>2019-12-26 14:21:30</time>
      </trkpt>
      <trkpt lat="45.59687" lon="6.67616">
        <ele>1652.8113</ele>
        <time>2019-12-26 14:21:31</time>
      </trkpt>
      <trkpt lat="45.59688" lon="6.67617">
        <ele>1652.5918</ele>
        <time>2019-12-26 14:21:33</time>
      </trkpt>
      <trkpt lat="45.59688" lon="6.67618">
        <ele>1652.355</ele>
        <time>2019-12-26 14:21:36</time>
      </trkpt>
      <trkpt lat="45.59688" lon="6.67618">
        <ele>1652.0303</ele>
        <time>2019-12-26 14:21:39</time>
      </trkpt>
      <trkpt lat="45.59689" lon="6.67617">
        <ele>1651.7583</ele>
        <time>2019-12-26 14:21:41</time>
      </trkpt>
      <trkpt lat="45.59689" lon="6.67616">
        <ele>1649.9321</ele>
        <time>2019-12-26 14:21:44</time>
      </trkpt>
      <trkpt lat="45.59691" lon="6.67614">
        <ele>1649.321</ele>
        <time>2019-12-26 14:21:48</time>
      </trkpt>
      <trkpt lat="45.59692" lon="6.67613">
        <ele>1650.0947</ele>
        <time>2019-12-26 14:21:52</time>
      </trkpt>
      <trkpt lat="45.59692" lon="6.67612">
        <ele>1650.7366</ele>
        <time>2019-12-26 14:21:54</time>
      </trkpt>
      <trkpt lat="45.59693" lon="6.67611">
        <ele>1651.9106</ele>
        <time>2019-12-26 14:21:55</time>
      </trkpt>
      <trkpt lat="45.59698" lon="6.67601">
        <ele>1650.3843</ele>
        <time>2019-12-26 14:22:06</time>
      </trkpt>
      <trkpt lat="45.59701" lon="6.67595">
        <ele>1648.9419</ele>
        <time>2019-12-26 14:22:15</time>
      </trkpt>
      <trkpt lat="45.59704" lon="6.67592">
        <ele>1648.7583</ele>
        <time>2019-12-26 14:22:20</time>
      </trkpt>
      <trkpt lat="45.59705" lon="6.6759">
        <ele>1648.4067</ele>
        <time>2019-12-26 14:22:25</time>
      </trkpt>
      <trkpt lat="45.59707" lon="6.67586">
        <ele>1649.7627</ele>
        <time>2019-12-26 14:22:31</time>
      </trkpt>
      <trkpt lat="45.59708" lon="6.67585">
        <ele>1649.8833</ele>
        <time>2019-12-26 14:22:34</time>
      </trkpt>
      <trkpt lat="45.59708" lon="6.67585">
        <ele>1649.729</ele>
        <time>2019-12-26 14:22:35</time>
      </trkpt>
      <trkpt lat="45.59709" lon="6.67585">
        <ele>1650.0361</ele>
        <time>2019-12-26 14:22:37</time>
      </trkpt>
      <trkpt lat="45.59709" lon="6.67584">
        <ele>1651.6604</ele>
        <time>2019-12-26 14:23:00</time>
      </trkpt>
      <trkpt lat="45.59709" lon="6.67584">
        <ele>1651.6304</ele>
        <time>2019-12-26 14:23:01</time>
      </trkpt>
      <trkpt lat="45.59711" lon="6.67587">
        <ele>1652.7632</ele>
        <time>2019-12-26 14:23:28</time>
      </trkpt>
      <trkpt lat="45.5971" lon="6.67587">
        <ele>1653.3486</ele>
        <time>2019-12-26 14:23:30</time>
      </trkpt>
      <trkpt lat="45.5971" lon="6.67587">
        <ele>1654.0916</ele>
        <time>2019-12-26 14:23:34</time>
      </trkpt>
      <trkpt lat="45.59713" lon="6.67583">
        <ele>1654.822</ele>
        <time>2019-12-26 14:23:42</time>
      </trkpt>
      <trkpt lat="45.59713" lon="6.67583">
        <ele>1654.625</ele>
        <time>2019-12-26 14:23:44</time>
      </trkpt>
      <trkpt lat="45.59713" lon="6.67582">
        <ele>1654.5359</ele>
        <time>2019-12-26 14:23:47</time>
      </trkpt>
      <trkpt lat="45.59716" lon="6.67582">
        <ele>1654.085</ele>
        <time>2019-12-26 14:23:56</time>
      </trkpt>
      <trkpt lat="45.59719" lon="6.6758">
        <ele>1654.7085</ele>
        <time>2019-12-26 14:24:04</time>
      </trkpt>
      <trkpt lat="45.59739" lon="6.67567">
        <ele>1656.2026</ele>
        <time>2019-12-26 14:24:36</time>
      </trkpt>
      <trkpt lat="45.59744" lon="6.67565">
        <ele>1658.126</ele>
        <time>2019-12-26 14:24:43</time>
      </trkpt>
      <trkpt lat="45.59746" lon="6.67566">
        <ele>1659.2231</ele>
        <time>2019-12-26 14:24:49</time>
      </trkpt>
      <trkpt lat="45.59749" lon="6.67567">
        <ele>1659.7749</ele>
        <time>2019-12-26 14:24:57</time>
      </trkpt>
      <trkpt lat="45.5975" lon="6.67566">
        <ele>1660.2397</ele>
        <time>2019-12-26 14:24:58</time>
      </trkpt>
      <trkpt lat="45.5975" lon="6.67566">
        <ele>1659.685</ele>
        <time>2019-12-26 14:25:00</time>
      </trkpt>
      <trkpt lat="45.5975" lon="6.67567">
        <ele>1660.185</ele>
        <time>2019-12-26 14:25:08</time>
      </trkpt>
      <trkpt lat="45.59758" lon="6.67566">
        <ele>1659.5078</ele>
        <time>2019-12-26 14:25:19</time>
      </trkpt>
      <trkpt lat="45.59758" lon="6.67566">
        <ele>1659.748</ele>
        <time>2019-12-26 14:25:20</time>
      </trkpt>
      <trkpt lat="45.59758" lon="6.67566">
        <ele>1659.6587</ele>
        <time>2019-12-26 14:25:21</time>
      </trkpt>
      <trkpt lat="45.59759" lon="6.67568">
        <ele>1659.1343</ele>
        <time>2019-12-26 14:25:25</time>
      </trkpt>
      <trkpt lat="45.59759" lon="6.67568">
        <ele>1660.5278</ele>
        <time>2019-12-26 14:26:58</time>
      </trkpt>
      <trkpt lat="45.59759" lon="6.67568">
        <ele>1659.8984</ele>
        <time>2019-12-26 14:27:00</time>
      </trkpt>
      <trkpt lat="45.59763" lon="6.6756">
        <ele>1660.4419</ele>
        <time>2019-12-26 14:27:32</time>
      </trkpt>
      <trkpt lat="45.59764" lon="6.6756">
        <ele>1661.9722</ele>
        <time>2019-12-26 14:27:35</time>
      </trkpt>
      <trkpt lat="45.59764" lon="6.6756">
        <ele>1661.7971</ele>
        <time>2019-12-26 14:27:37</time>
      </trkpt>
      <trkpt lat="45.59765" lon="6.67559">
        <ele>1661.6838</ele>
        <time>2019-12-26 14:27:39</time>
      </trkpt>
      <trkpt lat="45.59765" lon="6.6756">
        <ele>1661.3286</ele>
        <time>2019-12-26 14:27:40</time>
      </trkpt>
      <trkpt lat="45.59767" lon="6.67556">
        <ele>1660.3911</ele>
        <time>2019-12-26 14:28:18</time>
      </trkpt>
      <trkpt lat="45.59767" lon="6.67555">
        <ele>1660.8413</ele>
        <time>2019-12-26 14:28:19</time>
      </trkpt>
      <trkpt lat="45.59767" lon="6.67555">
        <ele>1660.5562</ele>
        <time>2019-12-26 14:28:20</time>
      </trkpt>
      <trkpt lat="45.59764" lon="6.67556">
        <ele>1663.9341</ele>
        <time>2019-12-26 14:28:58</time>
      </trkpt>
      <trkpt lat="45.59764" lon="6.67556">
        <ele>1664.0391</ele>
        <time>2019-12-26 14:29:04</time>
      </trkpt>
      <trkpt lat="45.59765" lon="6.67557">
        <ele>1662.9021</ele>
        <time>2019-12-26 14:29:06</time>
      </trkpt>
      <trkpt lat="45.59765" lon="6.67555">
        <ele>1662.5122</ele>
        <time>2019-12-26 14:29:43</time>
      </trkpt>
      <trkpt lat="45.59764" lon="6.67555">
        <ele>1659.7554</ele>
        <time>2019-12-26 14:29:45</time>
      </trkpt>
      <trkpt lat="45.59764" lon="6.67555">
        <ele>1659.8528</ele>
        <time>2019-12-26 14:29:47</time>
      </trkpt>
      <trkpt lat="45.59765" lon="6.67555">
        <ele>1659.5952</ele>
        <time>2019-12-26 14:29:49</time>
      </trkpt>
      <trkpt lat="45.59765" lon="6.67557">
        <ele>1659.044</ele>
        <time>2019-12-26 14:30:27</time>
      </trkpt>
      <trkpt lat="45.59765" lon="6.67557">
        <ele>1659</ele>
        <time>2019-12-26 14:30:35</time>
      </trkpt>
      <trkpt lat="45.59765" lon="6.67559">
        <ele>1656.7573</ele>
        <time>2019-12-26 14:30:39</time>
      </trkpt>
      <trkpt lat="45.59765" lon="6.67559">
        <ele>1657.2673</ele>
        <time>2019-12-26 14:31:18</time>
      </trkpt>
      <trkpt lat="45.59765" lon="6.67559">
        <ele>1657.3433</ele>
        <time>2019-12-26 14:31:46</time>
      </trkpt>
      <trkpt lat="45.59765" lon="6.67559">
        <ele>1657.2598</ele>
        <time>2019-12-26 14:31:47</time>
      </trkpt>
      <trkpt lat="45.59766" lon="6.67559">
        <ele>1656.7524</ele>
        <time>2019-12-26 14:31:56</time>
      </trkpt>
      <trkpt lat="45.59766" lon="6.67559">
        <ele>1657.1794</ele>
        <time>2019-12-26 14:31:57</time>
      </trkpt>
      <trkpt lat="45.59765" lon="6.67557">
        <ele>1656.935</ele>
        <time>2019-12-26 14:32:14</time>
      </trkpt>
      <trkpt lat="45.59766" lon="6.67557">
        <ele>1656.9775</ele>
        <time>2019-12-26 14:32:15</time>
      </trkpt>
      <trkpt lat="45.59766" lon="6.67556">
        <ele>1658.8638</ele>
        <time>2019-12-26 14:32:24</time>
      </trkpt>
      <trkpt lat="45.59768" lon="6.67551">
        <ele>1658.0154</ele>
        <time>2019-12-26 14:32:28</time>
      </trkpt>
      <trkpt lat="45.59771" lon="6.67544">
        <ele>1657.6389</ele>
        <time>2019-12-26 14:32:32</time>
      </trkpt>
      <trkpt lat="45.59772" lon="6.67542">
        <ele>1657.166</ele>
        <time>2019-12-26 14:32:33</time>
      </trkpt>
      <trkpt lat="45.59774" lon="6.67541">
        <ele>1656.9734</ele>
        <time>2019-12-26 14:32:35</time>
      </trkpt>
      <trkpt lat="45.59774" lon="6.67542">
        <ele>1656.6367</ele>
        <time>2019-12-26 14:32:37</time>
      </trkpt>
      <trkpt lat="45.59774" lon="6.67542">
        <ele>1656.4526</ele>
        <time>2019-12-26 14:32:39</time>
      </trkpt>
      <trkpt lat="45.59781" lon="6.67538">
        <ele>1653.5867</ele>
        <time>2019-12-26 14:32:47</time>
      </trkpt>
      <trkpt lat="45.59783" lon="6.67538">
        <ele>1653.314</ele>
        <time>2019-12-26 14:32:51</time>
      </trkpt>
      <trkpt lat="45.59784" lon="6.67537">
        <ele>1652.197</ele>
        <time>2019-12-26 14:32:59</time>
      </trkpt>
      <trkpt lat="45.59785" lon="6.67536">
        <ele>1652.1748</ele>
        <time>2019-12-26 14:33:00</time>
      </trkpt>
      <trkpt lat="45.59787" lon="6.67531">
        <ele>1649.477</ele>
        <time>2019-12-26 14:33:08</time>
      </trkpt>
      <trkpt lat="45.5979" lon="6.67529">
        <ele>1648.5332</ele>
        <time>2019-12-26 14:33:10</time>
      </trkpt>
      <trkpt lat="45.59794" lon="6.67528">
        <ele>1647.137</ele>
        <time>2019-12-26 14:33:13</time>
      </trkpt>
      <trkpt lat="45.59797" lon="6.67528">
        <ele>1647.2744</ele>
        <time>2019-12-26 14:33:16</time>
      </trkpt>
      <trkpt lat="45.59797" lon="6.67528">
        <ele>1647.158</ele>
        <time>2019-12-26 14:33:22</time>
      </trkpt>
      <trkpt lat="45.59797" lon="6.67528">
        <ele>1646.5791</ele>
        <time>2019-12-26 14:33:23</time>
      </trkpt>
      <trkpt lat="45.59797" lon="6.67528">
        <ele>1646.831</ele>
        <time>2019-12-26 14:33:25</time>
      </trkpt>
      <trkpt lat="45.59798" lon="6.67526">
        <ele>1647.0569</ele>
        <time>2019-12-26 14:33:27</time>
      </trkpt>
      <trkpt lat="45.59804" lon="6.67516">
        <ele>1644.7263</ele>
        <time>2019-12-26 14:33:35</time>
      </trkpt>
      <trkpt lat="45.59804" lon="6.67516">
        <ele>1644.2856</ele>
        <time>2019-12-26 14:33:36</time>
      </trkpt>
      <trkpt lat="45.59804" lon="6.67516">
        <ele>1644.6484</ele>
        <time>2019-12-26 14:33:39</time>
      </trkpt>
      <trkpt lat="45.59804" lon="6.67516">
        <ele>1644.8506</ele>
        <time>2019-12-26 14:33:40</time>
      </trkpt>
      <trkpt lat="45.59804" lon="6.67516">
        <ele>1644.3359</ele>
        <time>2019-12-26 14:33:45</time>
      </trkpt>
      <trkpt lat="45.59805" lon="6.67514">
        <ele>1644.4438</ele>
        <time>2019-12-26 14:33:52</time>
      </trkpt>
      <trkpt lat="45.59805" lon="6.67513">
        <ele>1644.169</ele>
        <time>2019-12-26 14:33:55</time>
      </trkpt>
      <trkpt lat="45.59805" lon="6.67513">
        <ele>1643.853</ele>
        <time>2019-12-26 14:33:56</time>
      </trkpt>
      <trkpt lat="45.59807" lon="6.67511">
        <ele>1642.96</ele>
        <time>2019-12-26 14:33:58</time>
      </trkpt>
      <trkpt lat="45.59809" lon="6.67509">
        <ele>1642.7397</ele>
        <time>2019-12-26 14:33:59</time>
      </trkpt>
      <trkpt lat="45.59825" lon="6.67497">
        <ele>1639.9927</ele>
        <time>2019-12-26 14:34:05</time>
      </trkpt>
      <trkpt lat="45.59826" lon="6.67495">
        <ele>1639.7598</ele>
        <time>2019-12-26 14:34:06</time>
      </trkpt>
      <trkpt lat="45.59827" lon="6.67492">
        <ele>1639.4612</ele>
        <time>2019-12-26 14:34:10</time>
      </trkpt>
      <trkpt lat="45.59827" lon="6.67492">
        <ele>1640.065</ele>
        <time>2019-12-26 14:34:14</time>
      </trkpt>
      <trkpt lat="45.59827" lon="6.67488">
        <ele>1639.9316</ele>
        <time>2019-12-26 14:34:19</time>
      </trkpt>
      <trkpt lat="45.59827" lon="6.67486">
        <ele>1639.1318</ele>
        <time>2019-12-26 14:34:24</time>
      </trkpt>
      <trkpt lat="45.59827" lon="6.67485">
        <ele>1637.1748</ele>
        <time>2019-12-26 14:34:28</time>
      </trkpt>
      <trkpt lat="45.59829" lon="6.67481">
        <ele>1637.4102</ele>
        <time>2019-12-26 14:34:34</time>
      </trkpt>
      <trkpt lat="45.59831" lon="6.67478">
        <ele>1640.2183</ele>
        <time>2019-12-26 14:35:23</time>
      </trkpt>
      <trkpt lat="45.5983" lon="6.67478">
        <ele>1639.854</ele>
        <time>2019-12-26 14:36:02</time>
      </trkpt>
      <trkpt lat="45.5983" lon="6.67478">
        <ele>1640.19</ele>
        <time>2019-12-26 14:36:04</time>
      </trkpt>
      <trkpt lat="45.59829" lon="6.67478">
        <ele>1640.169</ele>
        <time>2019-12-26 14:36:12</time>
      </trkpt>
      <trkpt lat="45.59829" lon="6.67478">
        <ele>1640.6282</ele>
        <time>2019-12-26 14:36:14</time>
      </trkpt>
      <trkpt lat="45.59829" lon="6.67479">
        <ele>1640.4893</ele>
        <time>2019-12-26 14:36:15</time>
      </trkpt>
      <trkpt lat="45.5983" lon="6.67479">
        <ele>1640.3567</ele>
        <time>2019-12-26 14:36:16</time>
      </trkpt>
      <trkpt lat="45.5983" lon="6.67479">
        <ele>1639.071</ele>
        <time>2019-12-26 14:36:26</time>
      </trkpt>
      <trkpt lat="45.5983" lon="6.67479">
        <ele>1639.4231</ele>
        <time>2019-12-26 14:36:27</time>
      </trkpt>
      <trkpt lat="45.59829" lon="6.6748">
        <ele>1635.7654</ele>
        <time>2019-12-26 14:36:50</time>
      </trkpt>
      <trkpt lat="45.59829" lon="6.6748">
        <ele>1636.3589</ele>
        <time>2019-12-26 14:36:53</time>
      </trkpt>
      <trkpt lat="45.59829" lon="6.6748">
        <ele>1635.9321</ele>
        <time>2019-12-26 14:37:48</time>
      </trkpt>
      <trkpt lat="45.59829" lon="6.6748">
        <ele>1637.1431</ele>
        <time>2019-12-26 14:37:50</time>
      </trkpt>
      <trkpt lat="45.59829" lon="6.67481">
        <ele>1637.0071</ele>
        <time>2019-12-26 14:37:52</time>
      </trkpt>
      <trkpt lat="45.5983" lon="6.67481">
        <ele>1638.5027</ele>
        <time>2019-12-26 14:38:04</time>
      </trkpt>
      <trkpt lat="45.5983" lon="6.67481">
        <ele>1638.6753</ele>
        <time>2019-12-26 14:38:05</time>
      </trkpt>
      <trkpt lat="45.5983" lon="6.6748">
        <ele>1637.4873</ele>
        <time>2019-12-26 14:38:08</time>
      </trkpt>
      <trkpt lat="45.5983" lon="6.67479">
        <ele>1637.4382</ele>
        <time>2019-12-26 14:38:09</time>
      </trkpt>
      <trkpt lat="45.59829" lon="6.67476">
        <ele>1635.7124</ele>
        <time>2019-12-26 14:38:11</time>
      </trkpt>
      <trkpt lat="45.59826" lon="6.67477">
        <ele>1635.0381</ele>
        <time>2019-12-26 14:38:13</time>
      </trkpt>
      <trkpt lat="45.59821" lon="6.6748">
        <ele>1633.1606</ele>
        <time>2019-12-26 14:38:19</time>
      </trkpt>
      <trkpt lat="45.59818" lon="6.67476">
        <ele>1631.5674</ele>
        <time>2019-12-26 14:38:22</time>
      </trkpt>
      <trkpt lat="45.59819" lon="6.67472">
        <ele>1631.5679</ele>
        <time>2019-12-26 14:38:24</time>
      </trkpt>
      <trkpt lat="45.59822" lon="6.67468">
        <ele>1630.5156</ele>
        <time>2019-12-26 14:38:26</time>
      </trkpt>
      <trkpt lat="45.59822" lon="6.67465">
        <ele>1630.1987</ele>
        <time>2019-12-26 14:38:27</time>
      </trkpt>
      <trkpt lat="45.59821" lon="6.67463">
        <ele>1629.0381</ele>
        <time>2019-12-26 14:38:28</time>
      </trkpt>
      <trkpt lat="45.59817" lon="6.67461">
        <ele>1627.6953</ele>
        <time>2019-12-26 14:38:31</time>
      </trkpt>
      <trkpt lat="45.59816" lon="6.67459">
        <ele>1627.478</ele>
        <time>2019-12-26 14:38:32</time>
      </trkpt>
      <trkpt lat="45.59817" lon="6.67457">
        <ele>1627.7734</ele>
        <time>2019-12-26 14:38:33</time>
      </trkpt>
      <trkpt lat="45.5982" lon="6.67456">
        <ele>1628.8804</ele>
        <time>2019-12-26 14:38:37</time>
      </trkpt>
      <trkpt lat="45.59821" lon="6.67457">
        <ele>1629.1841</ele>
        <time>2019-12-26 14:38:42</time>
      </trkpt>
      <trkpt lat="45.59823" lon="6.67453">
        <ele>1629.9751</ele>
        <time>2019-12-26 14:38:50</time>
      </trkpt>
      <trkpt lat="45.59823" lon="6.67453">
        <ele>1629.9263</ele>
        <time>2019-12-26 14:38:51</time>
      </trkpt>
      <trkpt lat="45.59823" lon="6.67453">
        <ele>1630.4277</ele>
        <time>2019-12-26 14:38:52</time>
      </trkpt>
      <trkpt lat="45.59826" lon="6.67451">
        <ele>1629.7651</ele>
        <time>2019-12-26 14:38:56</time>
      </trkpt>
      <trkpt lat="45.59828" lon="6.67449">
        <ele>1629.2593</ele>
        <time>2019-12-26 14:38:58</time>
      </trkpt>
      <trkpt lat="45.59828" lon="6.67449">
        <ele>1629.4824</ele>
        <time>2019-12-26 14:39:00</time>
      </trkpt>
      <trkpt lat="45.5983" lon="6.67448">
        <ele>1629.1252</ele>
        <time>2019-12-26 14:39:04</time>
      </trkpt>
      <trkpt lat="45.59832" lon="6.67448">
        <ele>1628.9705</ele>
        <time>2019-12-26 14:39:05</time>
      </trkpt>
      <trkpt lat="45.59833" lon="6.67448">
        <ele>1628.9443</ele>
        <time>2019-12-26 14:39:06</time>
      </trkpt>
      <trkpt lat="45.59838" lon="6.67449">
        <ele>1628.4429</ele>
        <time>2019-12-26 14:39:09</time>
      </trkpt>
      <trkpt lat="45.59844" lon="6.67447">
        <ele>1629.3237</ele>
        <time>2019-12-26 14:39:17</time>
      </trkpt>
      <trkpt lat="45.59844" lon="6.67448">
        <ele>1630.4004</ele>
        <time>2019-12-26 14:39:23</time>
      </trkpt>
      <trkpt lat="45.59846" lon="6.67446">
        <ele>1631.4531</ele>
        <time>2019-12-26 14:39:31</time>
      </trkpt>
      <trkpt lat="45.59846" lon="6.67446">
        <ele>1631.0664</ele>
        <time>2019-12-26 14:39:32</time>
      </trkpt>
      <trkpt lat="45.59846" lon="6.67446">
        <ele>1631.4194</ele>
        <time>2019-12-26 14:39:34</time>
      </trkpt>
      <trkpt lat="45.59846" lon="6.67446">
        <ele>1631.4746</ele>
        <time>2019-12-26 14:39:37</time>
      </trkpt>
      <trkpt lat="45.59846" lon="6.67445">
        <ele>1632.7314</ele>
        <time>2019-12-26 14:39:42</time>
      </trkpt>
      <trkpt lat="45.59847" lon="6.67444">
        <ele>1632.5063</ele>
        <time>2019-12-26 14:39:44</time>
      </trkpt>
      <trkpt lat="45.59847" lon="6.67442">
        <ele>1631.0605</ele>
        <time>2019-12-26 14:39:49</time>
      </trkpt>
      <trkpt lat="45.59847" lon="6.67442">
        <ele>1631.1523</ele>
        <time>2019-12-26 14:39:51</time>
      </trkpt>
      <trkpt lat="45.59852" lon="6.67432">
        <ele>1627.6465</ele>
        <time>2019-12-26 14:40:17</time>
      </trkpt>
      <trkpt lat="45.59852" lon="6.67432">
        <ele>1628.3005</ele>
        <time>2019-12-26 14:40:19</time>
      </trkpt>
      <trkpt lat="45.5985" lon="6.6743">
        <ele>1628.6182</ele>
        <time>2019-12-26 14:40:23</time>
      </trkpt>
      <trkpt lat="45.5985" lon="6.67428">
        <ele>1627.3501</ele>
        <time>2019-12-26 14:40:25</time>
      </trkpt>
      <trkpt lat="45.5985" lon="6.67428">
        <ele>1626.9468</ele>
        <time>2019-12-26 14:40:26</time>
      </trkpt>
      <trkpt lat="45.59851" lon="6.67427">
        <ele>1624.6812</ele>
        <time>2019-12-26 14:40:42</time>
      </trkpt>
      <trkpt lat="45.59851" lon="6.67426">
        <ele>1624.6396</ele>
        <time>2019-12-26 14:40:44</time>
      </trkpt>
      <trkpt lat="45.59851" lon="6.67426">
        <ele>1625.5522</ele>
        <time>2019-12-26 14:40:45</time>
      </trkpt>
      <trkpt lat="45.59851" lon="6.67426">
        <ele>1625.7107</ele>
        <time>2019-12-26 14:40:51</time>
      </trkpt>
      <trkpt lat="45.5985" lon="6.67426">
        <ele>1625.6421</ele>
        <time>2019-12-26 14:40:57</time>
      </trkpt>
      <trkpt lat="45.59849" lon="6.67424">
        <ele>1623.9702</ele>
        <time>2019-12-26 14:41:02</time>
      </trkpt>
      <trkpt lat="45.59849" lon="6.67422">
        <ele>1622.8115</ele>
        <time>2019-12-26 14:41:09</time>
      </trkpt>
      <trkpt lat="45.5985" lon="6.67421">
        <ele>1623.0337</ele>
        <time>2019-12-26 14:41:11</time>
      </trkpt>
      <trkpt lat="45.5985" lon="6.67421">
        <ele>1621.8589</ele>
        <time>2019-12-26 14:41:12</time>
      </trkpt>
      <trkpt lat="45.5985" lon="6.67421">
        <ele>1622.2544</ele>
        <time>2019-12-26 14:41:13</time>
      </trkpt>
      <trkpt lat="45.5985" lon="6.67421">
        <ele>1622.0332</ele>
        <time>2019-12-26 14:41:14</time>
      </trkpt>
      <trkpt lat="45.59851" lon="6.6742">
        <ele>1622.5281</ele>
        <time>2019-12-26 14:41:16</time>
      </trkpt>
      <trkpt lat="45.59851" lon="6.6742">
        <ele>1622.6064</ele>
        <time>2019-12-26 14:41:18</time>
      </trkpt>
      <trkpt lat="45.59851" lon="6.67419">
        <ele>1622.8125</ele>
        <time>2019-12-26 14:41:19</time>
      </trkpt>
      <trkpt lat="45.59851" lon="6.6742">
        <ele>1621.6953</ele>
        <time>2019-12-26 14:41:21</time>
      </trkpt>
      <trkpt lat="45.59851" lon="6.6742">
        <ele>1621.4019</ele>
        <time>2019-12-26 14:41:22</time>
      </trkpt>
      <trkpt lat="45.59851" lon="6.6742">
        <ele>1620.1436</ele>
        <time>2019-12-26 14:41:24</time>
      </trkpt>
      <trkpt lat="45.5985" lon="6.67419">
        <ele>1619.4407</ele>
        <time>2019-12-26 14:41:27</time>
      </trkpt>
      <trkpt lat="45.59849" lon="6.67419">
        <ele>1619.2603</ele>
        <time>2019-12-26 14:41:28</time>
      </trkpt>
      <trkpt lat="45.59848" lon="6.67419">
        <ele>1619.044</ele>
        <time>2019-12-26 14:41:34</time>
      </trkpt>
      <trkpt lat="45.59848" lon="6.67418">
        <ele>1619.2195</ele>
        <time>2019-12-26 14:41:35</time>
      </trkpt>
      <trkpt lat="45.59849" lon="6.67418">
        <ele>1620.6147</ele>
        <time>2019-12-26 14:41:44</time>
      </trkpt>
      <trkpt lat="45.59849" lon="6.67417">
        <ele>1620.4062</ele>
        <time>2019-12-26 14:41:45</time>
      </trkpt>
      <trkpt lat="45.59849" lon="6.67419">
        <ele>1619.533</ele>
        <time>2019-12-26 14:41:51</time>
      </trkpt>
      <trkpt lat="45.59849" lon="6.67418">
        <ele>1620.9851</ele>
        <time>2019-12-26 14:41:53</time>
      </trkpt>
      <trkpt lat="45.5985" lon="6.67416">
        <ele>1620.4321</ele>
        <time>2019-12-26 14:42:01</time>
      </trkpt>
      <trkpt lat="45.5985" lon="6.67415">
        <ele>1620.5376</ele>
        <time>2019-12-26 14:42:02</time>
      </trkpt>
      <trkpt lat="45.5985" lon="6.67415">
        <ele>1620.0564</ele>
        <time>2019-12-26 14:42:03</time>
      </trkpt>
      <trkpt lat="45.5985" lon="6.67414">
        <ele>1619.8948</ele>
        <time>2019-12-26 14:42:06</time>
      </trkpt>
      <trkpt lat="45.5985" lon="6.67414">
        <ele>1617.4971</ele>
        <time>2019-12-26 14:42:07</time>
      </trkpt>
      <trkpt lat="45.59849" lon="6.67412">
        <ele>1617.3223</ele>
        <time>2019-12-26 14:42:33</time>
      </trkpt>
      <trkpt lat="45.59848" lon="6.67411">
        <ele>1618.3579</ele>
        <time>2019-12-26 14:42:35</time>
      </trkpt>
      <trkpt lat="45.59849" lon="6.6741">
        <ele>1617.1917</ele>
        <time>2019-12-26 14:42:41</time>
      </trkpt>
      <trkpt lat="45.59848" lon="6.67409">
        <ele>1617.0669</ele>
        <time>2019-12-26 14:42:43</time>
      </trkpt>
      <trkpt lat="45.5985" lon="6.67407">
        <ele>1613.5908</ele>
        <time>2019-12-26 14:43:12</time>
      </trkpt>
      <trkpt lat="45.5985" lon="6.67407">
        <ele>1613.6282</ele>
        <time>2019-12-26 14:43:13</time>
      </trkpt>
      <trkpt lat="45.5985" lon="6.67406">
        <ele>1613.4751</ele>
        <time>2019-12-26 14:43:17</time>
      </trkpt>
      <trkpt lat="45.59849" lon="6.67405">
        <ele>1613.1504</ele>
        <time>2019-12-26 14:43:18</time>
      </trkpt>
      <trkpt lat="45.59845" lon="6.67401">
        <ele>1610.8103</ele>
        <time>2019-12-26 14:43:59</time>
      </trkpt>
      <trkpt lat="45.59845" lon="6.67401">
        <ele>1611.8755</ele>
        <time>2019-12-26 14:44:00</time>
      </trkpt>
      <trkpt lat="45.59845" lon="6.67401">
        <ele>1612.5225</ele>
        <time>2019-12-26 14:44:01</time>
      </trkpt>
      <trkpt lat="45.59845" lon="6.67402">
        <ele>1612.404</ele>
        <time>2019-12-26 14:44:03</time>
      </trkpt>
      <trkpt lat="45.59845" lon="6.67401">
        <ele>1613.0867</ele>
        <time>2019-12-26 14:44:04</time>
      </trkpt>
      <trkpt lat="45.59846" lon="6.67401">
        <ele>1612.8623</ele>
        <time>2019-12-26 14:44:07</time>
      </trkpt>
      <trkpt lat="45.59845" lon="6.674">
        <ele>1613.1265</ele>
        <time>2019-12-26 14:44:08</time>
      </trkpt>
      <trkpt lat="45.59846" lon="6.67399">
        <ele>1612.8601</ele>
        <time>2019-12-26 14:44:12</time>
      </trkpt>
      <trkpt lat="45.59846" lon="6.67401">
        <ele>1613.0581</ele>
        <time>2019-12-26 14:44:16</time>
      </trkpt>
      <trkpt lat="45.59846" lon="6.67401">
        <ele>1613.2356</ele>
        <time>2019-12-26 14:44:17</time>
      </trkpt>
      <trkpt lat="45.59846" lon="6.67401">
        <ele>1613.1685</ele>
        <time>2019-12-26 14:44:20</time>
      </trkpt>
      <trkpt lat="45.59846" lon="6.67403">
        <ele>1613.06</ele>
        <time>2019-12-26 14:44:39</time>
      </trkpt>
      <trkpt lat="45.59846" lon="6.67402">
        <ele>1610.1934</ele>
        <time>2019-12-26 14:44:41</time>
      </trkpt>
      <trkpt lat="45.59845" lon="6.67403">
        <ele>1611</ele>
        <time>2019-12-26 14:44:44</time>
      </trkpt>
      <trkpt lat="45.59845" lon="6.67401">
        <ele>1612.185</ele>
        <time>2019-12-26 14:44:48</time>
      </trkpt>
      <trkpt lat="45.59845" lon="6.674">
        <ele>1612.3225</ele>
        <time>2019-12-26 14:44:50</time>
      </trkpt>
      <trkpt lat="45.59845" lon="6.674">
        <ele>1613.1099</ele>
        <time>2019-12-26 14:44:52</time>
      </trkpt>
      <trkpt lat="45.59844" lon="6.67398">
        <ele>1612.6445</ele>
        <time>2019-12-26 14:45:00</time>
      </trkpt>
      <trkpt lat="45.59844" lon="6.67397">
        <ele>1613.6597</ele>
        <time>2019-12-26 14:45:01</time>
      </trkpt>
      <trkpt lat="45.59844" lon="6.67397">
        <ele>1613.9421</ele>
        <time>2019-12-26 14:45:05</time>
      </trkpt>
      <trkpt lat="45.59845" lon="6.67397">
        <ele>1613.8472</ele>
        <time>2019-12-26 14:45:06</time>
      </trkpt>
      <trkpt lat="45.59843" lon="6.67396">
        <ele>1610.1167</ele>
        <time>2019-12-26 14:45:24</time>
      </trkpt>
      <trkpt lat="45.59842" lon="6.67396">
        <ele>1609.6184</ele>
        <time>2019-12-26 14:45:25</time>
      </trkpt>
      <trkpt lat="45.59842" lon="6.67394">
        <ele>1609.4321</ele>
        <time>2019-12-26 14:45:27</time>
      </trkpt>
      <trkpt lat="45.59841" lon="6.67393">
        <ele>1607.9727</ele>
        <time>2019-12-26 14:45:29</time>
      </trkpt>
      <trkpt lat="45.59841" lon="6.6739">
        <ele>1607.1968</ele>
        <time>2019-12-26 14:45:46</time>
      </trkpt>
      <trkpt lat="45.59841" lon="6.67389">
        <ele>1606.6489</ele>
        <time>2019-12-26 14:45:48</time>
      </trkpt>
      <trkpt lat="45.59841" lon="6.67389">
        <ele>1605.3955</ele>
        <time>2019-12-26 14:45:50</time>
      </trkpt>
      <trkpt lat="45.5984" lon="6.67388">
        <ele>1605.2046</ele>
        <time>2019-12-26 14:45:52</time>
      </trkpt>
      <trkpt lat="45.5984" lon="6.67388">
        <ele>1601.8386</ele>
        <time>2019-12-26 14:45:58</time>
      </trkpt>
      <trkpt lat="45.5984" lon="6.67387">
        <ele>1602.6206</ele>
        <time>2019-12-26 14:45:59</time>
      </trkpt>
      <trkpt lat="45.5984" lon="6.67386">
        <ele>1602.5273</ele>
        <time>2019-12-26 14:46:03</time>
      </trkpt>
      <trkpt lat="45.5984" lon="6.67386">
        <ele>1602.383</ele>
        <time>2019-12-26 14:46:04</time>
      </trkpt>
      <trkpt lat="45.5984" lon="6.67386">
        <ele>1602.4463</ele>
        <time>2019-12-26 14:46:06</time>
      </trkpt>
      <trkpt lat="45.59841" lon="6.67385">
        <ele>1602.7822</ele>
        <time>2019-12-26 14:46:07</time>
      </trkpt>
      <trkpt lat="45.59841" lon="6.67385">
        <ele>1603.1223</ele>
        <time>2019-12-26 14:46:08</time>
      </trkpt>
      <trkpt lat="45.59841" lon="6.67385">
        <ele>1602.95</ele>
        <time>2019-12-26 14:46:10</time>
      </trkpt>
      <trkpt lat="45.59841" lon="6.67384">
        <ele>1602.9458</ele>
        <time>2019-12-26 14:46:11</time>
      </trkpt>
      <trkpt lat="45.59842" lon="6.67383">
        <ele>1602.9951</ele>
        <time>2019-12-26 14:46:14</time>
      </trkpt>
      <trkpt lat="45.59842" lon="6.67383">
        <ele>1604.043</ele>
        <time>2019-12-26 14:46:15</time>
      </trkpt>
      <trkpt lat="45.59844" lon="6.67379">
        <ele>1604.2754</ele>
        <time>2019-12-26 14:46:20</time>
      </trkpt>
      <trkpt lat="45.59844" lon="6.67379">
        <ele>1604.4084</ele>
        <time>2019-12-26 14:46:22</time>
      </trkpt>
      <trkpt lat="45.59843" lon="6.67378">
        <ele>1604.9072</ele>
        <time>2019-12-26 14:46:23</time>
      </trkpt>
      <trkpt lat="45.59843" lon="6.67377">
        <ele>1604.54</ele>
        <time>2019-12-26 14:46:25</time>
      </trkpt>
      <trkpt lat="45.59843" lon="6.67376">
        <ele>1604.228</ele>
        <time>2019-12-26 14:46:26</time>
      </trkpt>
      <trkpt lat="45.59843" lon="6.67375">
        <ele>1604.2522</ele>
        <time>2019-12-26 14:46:27</time>
      </trkpt>
      <trkpt lat="45.59843" lon="6.67374">
        <ele>1603.2827</ele>
        <time>2019-12-26 14:46:29</time>
      </trkpt>
      <trkpt lat="45.59843" lon="6.67373">
        <ele>1602.4641</ele>
        <time>2019-12-26 14:46:30</time>
      </trkpt>
      <trkpt lat="45.59843" lon="6.67372">
        <ele>1601.8843</ele>
        <time>2019-12-26 14:46:32</time>
      </trkpt>
      <trkpt lat="45.59843" lon="6.67372">
        <ele>1601.6914</ele>
        <time>2019-12-26 14:46:33</time>
      </trkpt>
      <trkpt lat="45.59843" lon="6.67372">
        <ele>1599.9834</ele>
        <time>2019-12-26 14:46:35</time>
      </trkpt>
      <trkpt lat="45.59844" lon="6.67372">
        <ele>1600.4539</ele>
        <time>2019-12-26 14:46:36</time>
      </trkpt>
      <trkpt lat="45.59843" lon="6.6737">
        <ele>1598.0906</ele>
        <time>2019-12-26 14:46:39</time>
      </trkpt>
      <trkpt lat="45.59843" lon="6.6737">
        <ele>1598.7129</ele>
        <time>2019-12-26 14:46:40</time>
      </trkpt>
      <trkpt lat="45.59843" lon="6.67369">
        <ele>1598.7065</ele>
        <time>2019-12-26 14:46:43</time>
      </trkpt>
      <trkpt lat="45.59843" lon="6.67369">
        <ele>1598.5464</ele>
        <time>2019-12-26 14:46:44</time>
      </trkpt>
      <trkpt lat="45.59844" lon="6.67369">
        <ele>1598.9668</ele>
        <time>2019-12-26 14:46:46</time>
      </trkpt>
      <trkpt lat="45.59844" lon="6.67368">
        <ele>1599.334</ele>
        <time>2019-12-26 14:46:47</time>
      </trkpt>
      <trkpt lat="45.59844" lon="6.67368">
        <ele>1599.1509</ele>
        <time>2019-12-26 14:46:48</time>
      </trkpt>
      <trkpt lat="45.59844" lon="6.67367">
        <ele>1598.4067</ele>
        <time>2019-12-26 14:46:50</time>
      </trkpt>
      <trkpt lat="45.59844" lon="6.67367">
        <ele>1598.1125</ele>
        <time>2019-12-26 14:46:51</time>
      </trkpt>
      <trkpt lat="45.59843" lon="6.67367">
        <ele>1597.3022</ele>
        <time>2019-12-26 14:46:53</time>
      </trkpt>
      <trkpt lat="45.59842" lon="6.67365">
        <ele>1598.8994</ele>
        <time>2019-12-26 14:46:57</time>
      </trkpt>
      <trkpt lat="45.59842" lon="6.67365">
        <ele>1599.6494</ele>
        <time>2019-12-26 14:46:58</time>
      </trkpt>
      <trkpt lat="45.59842" lon="6.67365">
        <ele>1600.8662</ele>
        <time>2019-12-26 14:46:59</time>
      </trkpt>
      <trkpt lat="45.59842" lon="6.67365">
        <ele>1601.478</ele>
        <time>2019-12-26 14:47:00</time>
      </trkpt>
      <trkpt lat="45.59842" lon="6.67365">
        <ele>1598.6362</ele>
        <time>2019-12-26 14:47:13</time>
      </trkpt>
      <trkpt lat="45.59843" lon="6.67365">
        <ele>1598.6621</ele>
        <time>2019-12-26 14:47:14</time>
      </trkpt>
      <trkpt lat="45.59842" lon="6.67365">
        <ele>1598.0405</ele>
        <time>2019-12-26 14:47:15</time>
      </trkpt>
      <trkpt lat="45.59842" lon="6.67364">
        <ele>1598.0295</ele>
        <time>2019-12-26 14:47:16</time>
      </trkpt>
      <trkpt lat="45.59842" lon="6.67364">
        <ele>1597.6504</ele>
        <time>2019-12-26 14:47:18</time>
      </trkpt>
      <trkpt lat="45.59842" lon="6.67363">
        <ele>1596.8667</ele>
        <time>2019-12-26 14:47:19</time>
      </trkpt>
      <trkpt lat="45.59843" lon="6.67363">
        <ele>1596.6807</ele>
        <time>2019-12-26 14:47:21</time>
      </trkpt>
      <trkpt lat="45.59844" lon="6.67362">
        <ele>1595.8091</ele>
        <time>2019-12-26 14:47:23</time>
      </trkpt>
      <trkpt lat="45.59844" lon="6.67362">
        <ele>1597.1292</ele>
        <time>2019-12-26 14:47:24</time>
      </trkpt>
      <trkpt lat="45.59845" lon="6.67362">
        <ele>1596.1631</ele>
        <time>2019-12-26 14:47:25</time>
      </trkpt>
      <trkpt lat="45.59845" lon="6.67361">
        <ele>1595.46</ele>
        <time>2019-12-26 14:47:26</time>
      </trkpt>
      <trkpt lat="45.59845" lon="6.6736">
        <ele>1596.8438</ele>
        <time>2019-12-26 14:47:27</time>
      </trkpt>
      <trkpt lat="45.59845" lon="6.67359">
        <ele>1598.7793</ele>
        <time>2019-12-26 14:47:37</time>
      </trkpt>
      <trkpt lat="45.59845" lon="6.67358">
        <ele>1598.8496</ele>
        <time>2019-12-26 14:47:38</time>
      </trkpt>
      <trkpt lat="45.59842" lon="6.67358">
        <ele>1602.9026</ele>
        <time>2019-12-26 14:47:51</time>
      </trkpt>
      <trkpt lat="45.59841" lon="6.67358">
        <ele>1602.8906</ele>
        <time>2019-12-26 14:47:53</time>
      </trkpt>
      <trkpt lat="45.59842" lon="6.67358">
        <ele>1602.6724</ele>
        <time>2019-12-26 14:47:54</time>
      </trkpt>
      <trkpt lat="45.59842" lon="6.67358">
        <ele>1602.1753</ele>
        <time>2019-12-26 14:47:55</time>
      </trkpt>
      <trkpt lat="45.59842" lon="6.67357">
        <ele>1600.9829</ele>
        <time>2019-12-26 14:48:01</time>
      </trkpt>
      <trkpt lat="45.59842" lon="6.67357">
        <ele>1600.9509</ele>
        <time>2019-12-26 14:48:02</time>
      </trkpt>
      <trkpt lat="45.59841" lon="6.67355">
        <ele>1602.3091</ele>
        <time>2019-12-26 14:48:05</time>
      </trkpt>
      <trkpt lat="45.59841" lon="6.67355">
        <ele>1602.2764</ele>
        <time>2019-12-26 14:48:06</time>
      </trkpt>
      <trkpt lat="45.59841" lon="6.67354">
        <ele>1602.1558</ele>
        <time>2019-12-26 14:48:07</time>
      </trkpt>
      <trkpt lat="45.59842" lon="6.67354">
        <ele>1600.5608</ele>
        <time>2019-12-26 14:48:09</time>
      </trkpt>
      <trkpt lat="45.59842" lon="6.67354">
        <ele>1601.3362</ele>
        <time>2019-12-26 14:48:10</time>
      </trkpt>
      <trkpt lat="45.59839" lon="6.67353">
        <ele>1603.7024</ele>
        <time>2019-12-26 14:48:38</time>
      </trkpt>
      <trkpt lat="45.59839" lon="6.67352">
        <ele>1603.5015</ele>
        <time>2019-12-26 14:48:39</time>
      </trkpt>
      <trkpt lat="45.59839" lon="6.67351">
        <ele>1604.1152</ele>
        <time>2019-12-26 14:48:42</time>
      </trkpt>
      <trkpt lat="45.59839" lon="6.67351">
        <ele>1604.5688</ele>
        <time>2019-12-26 14:48:43</time>
      </trkpt>
      <trkpt lat="45.59839" lon="6.67349">
        <ele>1602.596</ele>
        <time>2019-12-26 14:48:53</time>
      </trkpt>
      <trkpt lat="45.5984" lon="6.67349">
        <ele>1602.5293</ele>
        <time>2019-12-26 14:48:54</time>
      </trkpt>
      <trkpt lat="45.5984" lon="6.67346">
        <ele>1602.7378</ele>
        <time>2019-12-26 14:49:06</time>
      </trkpt>
      <trkpt lat="45.5984" lon="6.67346">
        <ele>1602.5708</ele>
        <time>2019-12-26 14:49:07</time>
      </trkpt>
      <trkpt lat="45.59841" lon="6.67343">
        <ele>1601.7988</ele>
        <time>2019-12-26 14:49:09</time>
      </trkpt>
      <trkpt lat="45.59842" lon="6.67343">
        <ele>1601.3887</ele>
        <time>2019-12-26 14:49:10</time>
      </trkpt>
      <trkpt lat="45.5984" lon="6.67343">
        <ele>1601.9722</ele>
        <time>2019-12-26 14:49:12</time>
      </trkpt>
      <trkpt lat="45.59841" lon="6.67342">
        <ele>1601.4414</ele>
        <time>2019-12-26 14:49:13</time>
      </trkpt>
      <trkpt lat="45.59841" lon="6.67342">
        <ele>1600.3389</ele>
        <time>2019-12-26 14:49:15</time>
      </trkpt>
      <trkpt lat="45.59841" lon="6.67341">
        <ele>1599.4878</ele>
        <time>2019-12-26 14:49:17</time>
      </trkpt>
      <trkpt lat="45.59841" lon="6.67341">
        <ele>1598.1953</ele>
        <time>2019-12-26 14:49:18</time>
      </trkpt>
      <trkpt lat="45.59841" lon="6.67341">
        <ele>1599.4668</ele>
        <time>2019-12-26 14:49:19</time>
      </trkpt>
      <trkpt lat="45.59841" lon="6.67341">
        <ele>1597.1289</ele>
        <time>2019-12-26 14:49:20</time>
      </trkpt>
      <trkpt lat="45.59841" lon="6.67341">
        <ele>1596.8037</ele>
        <time>2019-12-26 14:49:21</time>
      </trkpt>
      <trkpt lat="45.59841" lon="6.67342">
        <ele>1595.1777</ele>
        <time>2019-12-26 14:49:22</time>
      </trkpt>
      <trkpt lat="45.59843" lon="6.67343">
        <ele>1594.5996</ele>
        <time>2019-12-26 14:49:24</time>
      </trkpt>
      <trkpt lat="45.59844" lon="6.67343">
        <ele>1593.9512</ele>
        <time>2019-12-26 14:49:27</time>
      </trkpt>
      <trkpt lat="45.59844" lon="6.67343">
        <ele>1593.7827</ele>
        <time>2019-12-26 14:49:28</time>
      </trkpt>
      <trkpt lat="45.59845" lon="6.67342">
        <ele>1595.8157</ele>
        <time>2019-12-26 14:49:42</time>
      </trkpt>
      <trkpt lat="45.59844" lon="6.67341">
        <ele>1594.9192</ele>
        <time>2019-12-26 14:49:44</time>
      </trkpt>
      <trkpt lat="45.59844" lon="6.67341">
        <ele>1595.5168</ele>
        <time>2019-12-26 14:49:45</time>
      </trkpt>
      <trkpt lat="45.59843" lon="6.6734">
        <ele>1591.72</ele>
        <time>2019-12-26 14:49:47</time>
      </trkpt>
      <trkpt lat="45.59843" lon="6.67339">
        <ele>1591.8818</ele>
        <time>2019-12-26 14:49:48</time>
      </trkpt>
      <trkpt lat="45.59842" lon="6.67339">
        <ele>1592.1338</ele>
        <time>2019-12-26 14:49:50</time>
      </trkpt>
      <trkpt lat="45.59842" lon="6.6734">
        <ele>1592.2104</ele>
        <time>2019-12-26 14:49:51</time>
      </trkpt>
      <trkpt lat="45.59842" lon="6.6734">
        <ele>1590.8789</ele>
        <time>2019-12-26 14:49:54</time>
      </trkpt>
      <trkpt lat="45.59842" lon="6.6734">
        <ele>1590.0088</ele>
        <time>2019-12-26 14:49:55</time>
      </trkpt>
      <trkpt lat="45.59845" lon="6.67336">
        <ele>1589.5481</ele>
        <time>2019-12-26 14:49:59</time>
      </trkpt>
      <trkpt lat="45.59848" lon="6.67332">
        <ele>1588.9026</ele>
        <time>2019-12-26 14:50:01</time>
      </trkpt>
      <trkpt lat="45.59849" lon="6.67331">
        <ele>1588.227</ele>
        <time>2019-12-26 14:50:04</time>
      </trkpt>
      <trkpt lat="45.59849" lon="6.67332">
        <ele>1587.6252</ele>
        <time>2019-12-26 14:50:06</time>
      </trkpt>
      <trkpt lat="45.5985" lon="6.67332">
        <ele>1585.315</ele>
        <time>2019-12-26 14:50:09</time>
      </trkpt>
      <trkpt lat="45.59851" lon="6.67332">
        <ele>1582.334</ele>
        <time>2019-12-26 14:50:10</time>
      </trkpt>
      <trkpt lat="45.59852" lon="6.6733">
        <ele>1580.918</ele>
        <time>2019-12-26 14:50:13</time>
      </trkpt>
      <trkpt lat="45.59852" lon="6.67329">
        <ele>1578.5583</ele>
        <time>2019-12-26 14:50:19</time>
      </trkpt>
      <trkpt lat="45.59853" lon="6.67328">
        <ele>1577.8674</ele>
        <time>2019-12-26 14:50:22</time>
      </trkpt>
      <trkpt lat="45.59854" lon="6.67326">
        <ele>1577.1797</ele>
        <time>2019-12-26 14:50:24</time>
      </trkpt>
      <trkpt lat="45.59854" lon="6.67325">
        <ele>1576.5388</ele>
        <time>2019-12-26 14:50:25</time>
      </trkpt>
      <trkpt lat="45.59857" lon="6.67323">
        <ele>1573.8833</ele>
        <time>2019-12-26 14:50:28</time>
      </trkpt>
      <trkpt lat="45.59858" lon="6.67323">
        <ele>1574.9006</ele>
        <time>2019-12-26 14:50:30</time>
      </trkpt>
      <trkpt lat="45.59858" lon="6.67323">
        <ele>1574.0933</ele>
        <time>2019-12-26 14:50:35</time>
      </trkpt>
      <trkpt lat="45.59859" lon="6.67323">
        <ele>1573.0471</ele>
        <time>2019-12-26 14:50:36</time>
      </trkpt>
      <trkpt lat="45.5986" lon="6.67322">
        <ele>1574.956</ele>
        <time>2019-12-26 14:50:51</time>
      </trkpt>
      <trkpt lat="45.5986" lon="6.6732">
        <ele>1576.5679</ele>
        <time>2019-12-26 14:50:53</time>
      </trkpt>
      <trkpt lat="45.59859" lon="6.67319">
        <ele>1576.1147</ele>
        <time>2019-12-26 14:50:57</time>
      </trkpt>
      <trkpt lat="45.59859" lon="6.67319">
        <ele>1576.1743</ele>
        <time>2019-12-26 14:50:58</time>
      </trkpt>
      <trkpt lat="45.5986" lon="6.67319">
        <ele>1577.2859</ele>
        <time>2019-12-26 14:51:07</time>
      </trkpt>
      <trkpt lat="45.59861" lon="6.67319">
        <ele>1576.9509</ele>
        <time>2019-12-26 14:51:09</time>
      </trkpt>
      <trkpt lat="45.59861" lon="6.67319">
        <ele>1577.7388</ele>
        <time>2019-12-26 14:51:15</time>
      </trkpt>
      <trkpt lat="45.59862" lon="6.67319">
        <ele>1578.1338</ele>
        <time>2019-12-26 14:51:16</time>
      </trkpt>
      <trkpt lat="45.59863" lon="6.67316">
        <ele>1575.3948</ele>
        <time>2019-12-26 14:51:18</time>
      </trkpt>
      <trkpt lat="45.59864" lon="6.67315">
        <ele>1574.2544</ele>
        <time>2019-12-26 14:51:21</time>
      </trkpt>
      <trkpt lat="45.59864" lon="6.67314">
        <ele>1574.7085</ele>
        <time>2019-12-26 14:51:22</time>
      </trkpt>
      <trkpt lat="45.59865" lon="6.67314">
        <ele>1574.2437</ele>
        <time>2019-12-26 14:51:23</time>
      </trkpt>
      <trkpt lat="45.59865" lon="6.67314">
        <ele>1573.9824</ele>
        <time>2019-12-26 14:51:24</time>
      </trkpt>
      <trkpt lat="45.59866" lon="6.67313">
        <ele>1573.252</ele>
        <time>2019-12-26 14:51:28</time>
      </trkpt>
      <trkpt lat="45.59866" lon="6.67311">
        <ele>1574.3088</ele>
        <time>2019-12-26 14:51:56</time>
      </trkpt>
      <trkpt lat="45.59866" lon="6.67311">
        <ele>1574.9529</ele>
        <time>2019-12-26 14:51:57</time>
      </trkpt>
      <trkpt lat="45.59867" lon="6.6731">
        <ele>1575.1401</ele>
        <time>2019-12-26 14:52:14</time>
      </trkpt>
      <trkpt lat="45.59867" lon="6.6731">
        <ele>1575.1897</ele>
        <time>2019-12-26 14:52:15</time>
      </trkpt>
      <trkpt lat="45.59867" lon="6.67311">
        <ele>1576.0715</ele>
        <time>2019-12-26 14:52:41</time>
      </trkpt>
      <trkpt lat="45.59867" lon="6.67311">
        <ele>1575.5962</ele>
        <time>2019-12-26 14:52:42</time>
      </trkpt>
      <trkpt lat="45.59868" lon="6.6731">
        <ele>1576.7031</ele>
        <time>2019-12-26 14:53:12</time>
      </trkpt>
      <trkpt lat="45.59868" lon="6.67311">
        <ele>1575.833</ele>
        <time>2019-12-26 14:53:14</time>
      </trkpt>
      <trkpt lat="45.59868" lon="6.67311">
        <ele>1575.3259</ele>
        <time>2019-12-26 14:53:15</time>
      </trkpt>
      <trkpt lat="45.59868" lon="6.67313">
        <ele>1573.811</ele>
        <time>2019-12-26 14:53:38</time>
      </trkpt>
      <trkpt lat="45.59868" lon="6.67313">
        <ele>1574.157</ele>
        <time>2019-12-26 14:53:39</time>
      </trkpt>
      <trkpt lat="45.59869" lon="6.67316">
        <ele>1570.864</ele>
        <time>2019-12-26 14:54:17</time>
      </trkpt>
      <trkpt lat="45.59869" lon="6.67316">
        <ele>1571.4448</ele>
        <time>2019-12-26 14:54:26</time>
      </trkpt>
      <trkpt lat="45.59869" lon="6.67316">
        <ele>1571.2439</ele>
        <time>2019-12-26 14:54:27</time>
      </trkpt>
      <trkpt lat="45.59869" lon="6.67316">
        <ele>1571.1963</ele>
        <time>2019-12-26 14:54:29</time>
      </trkpt>
      <trkpt lat="45.59869" lon="6.67315">
        <ele>1569.918</ele>
        <time>2019-12-26 14:54:30</time>
      </trkpt>
      <trkpt lat="45.5987" lon="6.67314">
        <ele>1573.8579</ele>
        <time>2019-12-26 14:54:37</time>
      </trkpt>
      <trkpt lat="45.5987" lon="6.67314">
        <ele>1572.5164</ele>
        <time>2019-12-26 14:54:38</time>
      </trkpt>
      <trkpt lat="45.59871" lon="6.67314">
        <ele>1571.8633</ele>
        <time>2019-12-26 14:54:39</time>
      </trkpt>
      <trkpt lat="45.59871" lon="6.67314">
        <ele>1572.0205</ele>
        <time>2019-12-26 14:54:40</time>
      </trkpt>
      <trkpt lat="45.59872" lon="6.67315">
        <ele>1572.6577</ele>
        <time>2019-12-26 14:54:41</time>
      </trkpt>
      <trkpt lat="45.59874" lon="6.67315">
        <ele>1575.3098</ele>
        <time>2019-12-26 14:54:44</time>
      </trkpt>
      <trkpt lat="45.59874" lon="6.67315">
        <ele>1575.5337</ele>
        <time>2019-12-26 14:54:45</time>
      </trkpt>
      <trkpt lat="45.59874" lon="6.67314">
        <ele>1574.918</ele>
        <time>2019-12-26 14:54:46</time>
      </trkpt>
      <trkpt lat="45.59875" lon="6.67314">
        <ele>1574.2368</ele>
        <time>2019-12-26 14:54:51</time>
      </trkpt>
      <trkpt lat="45.59877" lon="6.67314">
        <ele>1574.1008</ele>
        <time>2019-12-26 14:54:52</time>
      </trkpt>
      <trkpt lat="45.59879" lon="6.67314">
        <ele>1574.3064</ele>
        <time>2019-12-26 14:54:54</time>
      </trkpt>
      <trkpt lat="45.59879" lon="6.67313">
        <ele>1574.9287</ele>
        <time>2019-12-26 14:54:55</time>
      </trkpt>
      <trkpt lat="45.59881" lon="6.67315">
        <ele>1573.6279</ele>
        <time>2019-12-26 14:55:04</time>
      </trkpt>
      <trkpt lat="45.59881" lon="6.67315">
        <ele>1574.437</ele>
        <time>2019-12-26 14:55:05</time>
      </trkpt>
      <trkpt lat="45.59882" lon="6.67315">
        <ele>1573.3862</ele>
        <time>2019-12-26 14:55:08</time>
      </trkpt>
      <trkpt lat="45.59882" lon="6.67315">
        <ele>1573.0249</ele>
        <time>2019-12-26 14:55:09</time>
      </trkpt>
      <trkpt lat="45.59883" lon="6.67315">
        <ele>1573.9456</ele>
        <time>2019-12-26 14:55:10</time>
      </trkpt>
      <trkpt lat="45.59884" lon="6.67314">
        <ele>1575.1392</ele>
        <time>2019-12-26 14:55:12</time>
      </trkpt>
      <trkpt lat="45.59885" lon="6.67314">
        <ele>1576.1753</ele>
        <time>2019-12-26 14:55:13</time>
      </trkpt>
      <trkpt lat="45.5989" lon="6.67312">
        <ele>1575.3271</ele>
        <time>2019-12-26 14:55:22</time>
      </trkpt>
      <trkpt lat="45.5989" lon="6.67313">
        <ele>1573.794</ele>
        <time>2019-12-26 14:55:24</time>
      </trkpt>
      <trkpt lat="45.59891" lon="6.67313">
        <ele>1575.4668</ele>
        <time>2019-12-26 14:55:26</time>
      </trkpt>
      <trkpt lat="45.59892" lon="6.67313">
        <ele>1572.3901</ele>
        <time>2019-12-26 14:55:27</time>
      </trkpt>
      <trkpt lat="45.59893" lon="6.67312">
        <ele>1573.5352</ele>
        <time>2019-12-26 14:55:34</time>
      </trkpt>
      <trkpt lat="45.59893" lon="6.67312">
        <ele>1574.2559</ele>
        <time>2019-12-26 14:55:35</time>
      </trkpt>
      <trkpt lat="45.59894" lon="6.67307">
        <ele>1581.2671</ele>
        <time>2019-12-26 14:56:14</time>
      </trkpt>
      <trkpt lat="45.59895" lon="6.67307">
        <ele>1582.2351</ele>
        <time>2019-12-26 14:56:15</time>
      </trkpt>
      <trkpt lat="45.59896" lon="6.67307">
        <ele>1581.3906</ele>
        <time>2019-12-26 14:56:17</time>
      </trkpt>
      <trkpt lat="45.59897" lon="6.67308">
        <ele>1580.8416</ele>
        <time>2019-12-26 14:56:22</time>
      </trkpt>
      <trkpt lat="45.59898" lon="6.67308">
        <ele>1579.7732</ele>
        <time>2019-12-26 14:56:23</time>
      </trkpt>
      <trkpt lat="45.59899" lon="6.67309">
        <ele>1581.9958</ele>
        <time>2019-12-26 14:56:26</time>
      </trkpt>
      <trkpt lat="45.59899" lon="6.67308">
        <ele>1583.8193</ele>
        <time>2019-12-26 14:56:29</time>
      </trkpt>
      <trkpt lat="45.59899" lon="6.67307">
        <ele>1585.8481</ele>
        <time>2019-12-26 14:56:36</time>
      </trkpt>
      <trkpt lat="45.599" lon="6.67307">
        <ele>1588.3647</ele>
        <time>2019-12-26 14:56:37</time>
      </trkpt>
      <trkpt lat="45.59901" lon="6.67308">
        <ele>1586.2307</ele>
        <time>2019-12-26 14:56:39</time>
      </trkpt>
      <trkpt lat="45.59903" lon="6.67309">
        <ele>1588.4653</ele>
        <time>2019-12-26 14:56:42</time>
      </trkpt>
      <trkpt lat="45.59903" lon="6.6731">
        <ele>1588.4536</ele>
        <time>2019-12-26 14:56:44</time>
      </trkpt>
      <trkpt lat="45.59904" lon="6.6731">
        <ele>1585.9038</ele>
        <time>2019-12-26 14:56:45</time>
      </trkpt>
      <trkpt lat="45.59908" lon="6.6731">
        <ele>1580.7461</ele>
        <time>2019-12-26 14:56:47</time>
      </trkpt>
      <trkpt lat="45.59916" lon="6.67311">
        <ele>1578.0166</ele>
        <time>2019-12-26 14:56:53</time>
      </trkpt>
      <trkpt lat="45.59919" lon="6.6731">
        <ele>1577.4661</ele>
        <time>2019-12-26 14:56:56</time>
      </trkpt>
      <trkpt lat="45.59923" lon="6.6731">
        <ele>1579.1904</ele>
        <time>2019-12-26 14:57:00</time>
      </trkpt>
      <trkpt lat="45.59927" lon="6.67312">
        <ele>1576.5596</ele>
        <time>2019-12-26 14:57:04</time>
      </trkpt>
      <trkpt lat="45.59931" lon="6.67314">
        <ele>1570.5203</ele>
        <time>2019-12-26 14:57:08</time>
      </trkpt>
      <trkpt lat="45.59938" lon="6.67315">
        <ele>1567.2534</ele>
        <time>2019-12-26 14:57:13</time>
      </trkpt>
      <trkpt lat="45.59942" lon="6.67318">
        <ele>1566.8799</ele>
        <time>2019-12-26 14:57:16</time>
      </trkpt>
      <trkpt lat="45.59951" lon="6.67317">
        <ele>1575.6284</ele>
        <time>2019-12-26 14:57:24</time>
      </trkpt>
      <trkpt lat="45.59952" lon="6.67317">
        <ele>1574.5391</ele>
        <time>2019-12-26 14:57:25</time>
      </trkpt>
      <trkpt lat="45.59954" lon="6.67319">
        <ele>1573.9829</ele>
        <time>2019-12-26 14:57:27</time>
      </trkpt>
      <trkpt lat="45.59955" lon="6.6732">
        <ele>1574.0532</ele>
        <time>2019-12-26 14:57:28</time>
      </trkpt>
      <trkpt lat="45.59957" lon="6.67321">
        <ele>1575.3259</ele>
        <time>2019-12-26 14:57:30</time>
      </trkpt>
      <trkpt lat="45.5996" lon="6.67323">
        <ele>1577.0967</ele>
        <time>2019-12-26 14:57:33</time>
      </trkpt>
      <trkpt lat="45.59962" lon="6.67323">
        <ele>1575.719</ele>
        <time>2019-12-26 14:57:36</time>
      </trkpt>
      <trkpt lat="45.59964" lon="6.67324">
        <ele>1578.7422</ele>
        <time>2019-12-26 14:57:40</time>
      </trkpt>
      <trkpt lat="45.59965" lon="6.67324">
        <ele>1576.9248</ele>
        <time>2019-12-26 14:57:41</time>
      </trkpt>
      <trkpt lat="45.59969" lon="6.67323">
        <ele>1577.4233</ele>
        <time>2019-12-26 14:57:47</time>
      </trkpt>
      <trkpt lat="45.59972" lon="6.67323">
        <ele>1575.7183</ele>
        <time>2019-12-26 14:57:56</time>
      </trkpt>
      <trkpt lat="45.59974" lon="6.67322">
        <ele>1575.5698</ele>
        <time>2019-12-26 14:57:58</time>
      </trkpt>
      <trkpt lat="45.59976" lon="6.6732">
        <ele>1578.085</ele>
        <time>2019-12-26 14:58:05</time>
      </trkpt>
      <trkpt lat="45.59977" lon="6.67321">
        <ele>1578.75</ele>
        <time>2019-12-26 14:58:07</time>
      </trkpt>
      <trkpt lat="45.59979" lon="6.6732">
        <ele>1577.3105</ele>
        <time>2019-12-26 14:58:12</time>
      </trkpt>
      <trkpt lat="45.59981" lon="6.6732">
        <ele>1575.1445</ele>
        <time>2019-12-26 14:58:15</time>
      </trkpt>
      <trkpt lat="45.59984" lon="6.67321">
        <ele>1575.4692</ele>
        <time>2019-12-26 14:58:18</time>
      </trkpt>
      <trkpt lat="45.59986" lon="6.67321">
        <ele>1577.5981</ele>
        <time>2019-12-26 14:58:21</time>
      </trkpt>
      <trkpt lat="45.59986" lon="6.67321">
        <ele>1577.3735</ele>
        <time>2019-12-26 14:58:22</time>
      </trkpt>
      <trkpt lat="45.59987" lon="6.67321">
        <ele>1579.5103</ele>
        <time>2019-12-26 14:58:25</time>
      </trkpt>
      <trkpt lat="45.59988" lon="6.67322">
        <ele>1578.2676</ele>
        <time>2019-12-26 14:58:27</time>
      </trkpt>
      <trkpt lat="45.59989" lon="6.67324">
        <ele>1576.522</ele>
        <time>2019-12-26 14:58:30</time>
      </trkpt>
      <trkpt lat="45.59991" lon="6.67325">
        <ele>1576.9431</ele>
        <time>2019-12-26 14:58:36</time>
      </trkpt>
      <trkpt lat="45.59991" lon="6.67325">
        <ele>1575.9617</ele>
        <time>2019-12-26 14:58:37</time>
      </trkpt>
      <trkpt lat="45.59994" lon="6.67323">
        <ele>1576.9141</ele>
        <time>2019-12-26 14:59:01</time>
      </trkpt>
      <trkpt lat="45.59994" lon="6.67323">
        <ele>1576.748</ele>
        <time>2019-12-26 14:59:02</time>
      </trkpt>
      <trkpt lat="45.59996" lon="6.67322">
        <ele>1577.9792</ele>
        <time>2019-12-26 14:59:04</time>
      </trkpt>
      <trkpt lat="45.59999" lon="6.67322">
        <ele>1576.061</ele>
        <time>2019-12-26 14:59:06</time>
      </trkpt>
      <trkpt lat="45.60003" lon="6.67321">
        <ele>1575.6875</ele>
        <time>2019-12-26 14:59:09</time>
      </trkpt>
      <trkpt lat="45.60005" lon="6.67321">
        <ele>1576.1313</ele>
        <time>2019-12-26 14:59:10</time>
      </trkpt>
      <trkpt lat="45.60011" lon="6.67318">
        <ele>1575.9468</ele>
        <time>2019-12-26 14:59:14</time>
      </trkpt>
      <trkpt lat="45.60017" lon="6.67312">
        <ele>1575.4021</ele>
        <time>2019-12-26 14:59:20</time>
      </trkpt>
      <trkpt lat="45.60018" lon="6.67311">
        <ele>1574.5178</ele>
        <time>2019-12-26 14:59:21</time>
      </trkpt>
      <trkpt lat="45.60023" lon="6.67307">
        <ele>1571.1204</ele>
        <time>2019-12-26 14:59:25</time>
      </trkpt>
      <trkpt lat="45.6003" lon="6.67304">
        <ele>1567.5405</ele>
        <time>2019-12-26 14:59:30</time>
      </trkpt>
      <trkpt lat="45.60032" lon="6.67303">
        <ele>1567.2778</ele>
        <time>2019-12-26 14:59:32</time>
      </trkpt>
      <trkpt lat="45.60043" lon="6.67298">
        <ele>1566.1333</ele>
        <time>2019-12-26 14:59:42</time>
      </trkpt>
      <trkpt lat="45.60044" lon="6.67298">
        <ele>1565.7578</ele>
        <time>2019-12-26 14:59:43</time>
      </trkpt>
      <trkpt lat="45.60067" lon="6.67304">
        <ele>1566.5801</ele>
        <time>2019-12-26 14:59:58</time>
      </trkpt>
      <trkpt lat="45.60071" lon="6.67307">
        <ele>1567.0415</ele>
        <time>2019-12-26 15:00:01</time>
      </trkpt>
      <trkpt lat="45.60077" lon="6.67311">
        <ele>1567.0381</ele>
        <time>2019-12-26 15:00:05</time>
      </trkpt>
      <trkpt lat="45.60082" lon="6.67312">
        <ele>1565.1013</ele>
        <time>2019-12-26 15:00:09</time>
      </trkpt>
      <trkpt lat="45.60088" lon="6.6731">
        <ele>1565.5063</ele>
        <time>2019-12-26 15:00:13</time>
      </trkpt>
      <trkpt lat="45.60089" lon="6.67309">
        <ele>1564.9404</ele>
        <time>2019-12-26 15:00:14</time>
      </trkpt>
      <trkpt lat="45.60092" lon="6.67309">
        <ele>1564.4585</ele>
        <time>2019-12-26 15:00:16</time>
      </trkpt>
      <trkpt lat="45.60094" lon="6.67308">
        <ele>1566.918</ele>
        <time>2019-12-26 15:00:17</time>
      </trkpt>
      <trkpt lat="45.60098" lon="6.67307">
        <ele>1568.0254</ele>
        <time>2019-12-26 15:00:19</time>
      </trkpt>
      <trkpt lat="45.601" lon="6.67306">
        <ele>1567.689</ele>
        <time>2019-12-26 15:00:20</time>
      </trkpt>
      <trkpt lat="45.60104" lon="6.67305">
        <ele>1570.1489</ele>
        <time>2019-12-26 15:00:22</time>
      </trkpt>
      <trkpt lat="45.60117" lon="6.67299">
        <ele>1570.915</ele>
        <time>2019-12-26 15:00:31</time>
      </trkpt>
      <trkpt lat="45.60127" lon="6.67292">
        <ele>1577.9185</ele>
        <time>2019-12-26 15:00:37</time>
      </trkpt>
      <trkpt lat="45.6013" lon="6.6729">
        <ele>1574.1277</ele>
        <time>2019-12-26 15:00:40</time>
      </trkpt>
      <trkpt lat="45.60131" lon="6.6729">
        <ele>1573.3486</ele>
        <time>2019-12-26 15:00:41</time>
      </trkpt>
      <trkpt lat="45.60138" lon="6.67283">
        <ele>1572.2598</ele>
        <time>2019-12-26 15:00:50</time>
      </trkpt>
      <trkpt lat="45.60138" lon="6.67283">
        <ele>1571.383</ele>
        <time>2019-12-26 15:00:51</time>
      </trkpt>
      <trkpt lat="45.6014" lon="6.67282">
        <ele>1570.3931</ele>
        <time>2019-12-26 15:00:53</time>
      </trkpt>
      <trkpt lat="45.60143" lon="6.67279">
        <ele>1568.4675</ele>
        <time>2019-12-26 15:01:26</time>
      </trkpt>
      <trkpt lat="45.60144" lon="6.67279">
        <ele>1569.1936</ele>
        <time>2019-12-26 15:01:28</time>
      </trkpt>
      <trkpt lat="45.60145" lon="6.67277">
        <ele>1570.815</ele>
        <time>2019-12-26 15:01:32</time>
      </trkpt>
      <trkpt lat="45.60145" lon="6.67276">
        <ele>1571.4321</ele>
        <time>2019-12-26 15:01:33</time>
      </trkpt>
      <trkpt lat="45.60145" lon="6.67275">
        <ele>1572.3262</ele>
        <time>2019-12-26 15:01:34</time>
      </trkpt>
      <trkpt lat="45.60145" lon="6.67273">
        <ele>1572.6938</ele>
        <time>2019-12-26 15:01:35</time>
      </trkpt>
      <trkpt lat="45.60145" lon="6.67271">
        <ele>1574.2366</ele>
        <time>2019-12-26 15:01:36</time>
      </trkpt>
      <trkpt lat="45.60145" lon="6.67269">
        <ele>1573.9922</ele>
        <time>2019-12-26 15:01:38</time>
      </trkpt>
      <trkpt lat="45.60143" lon="6.67267">
        <ele>1573.4614</ele>
        <time>2019-12-26 15:01:40</time>
      </trkpt>
      <trkpt lat="45.6014" lon="6.67264">
        <ele>1574.3237</ele>
        <time>2019-12-26 15:01:43</time>
      </trkpt>
      <trkpt lat="45.60138" lon="6.67262">
        <ele>1575.5371</ele>
        <time>2019-12-26 15:01:45</time>
      </trkpt>
      <trkpt lat="45.60137" lon="6.67261">
        <ele>1575.4053</ele>
        <time>2019-12-26 15:01:48</time>
      </trkpt>
      <trkpt lat="45.60136" lon="6.6726">
        <ele>1575.4524</ele>
        <time>2019-12-26 15:01:49</time>
      </trkpt>
      <trkpt lat="45.60135" lon="6.6726">
        <ele>1575.2205</ele>
        <time>2019-12-26 15:01:50</time>
      </trkpt>
      <trkpt lat="45.60131" lon="6.67259">
        <ele>1577.3105</ele>
        <time>2019-12-26 15:01:52</time>
      </trkpt>
      <trkpt lat="45.60128" lon="6.67258">
        <ele>1575.0879</ele>
        <time>2019-12-26 15:01:54</time>
      </trkpt>
      <trkpt lat="45.60123" lon="6.67256">
        <ele>1574.062</ele>
        <time>2019-12-26 15:01:56</time>
      </trkpt>
      <trkpt lat="45.60109" lon="6.67248">
        <ele>1572.9336</ele>
        <time>2019-12-26 15:02:04</time>
      </trkpt>
      <trkpt lat="45.60103" lon="6.67241">
        <ele>1575.6475</ele>
        <time>2019-12-26 15:02:08</time>
      </trkpt>
      <trkpt lat="45.60102" lon="6.67236">
        <ele>1577.3167</ele>
        <time>2019-12-26 15:02:11</time>
      </trkpt>
      <trkpt lat="45.60101" lon="6.6723">
        <ele>1578.042</ele>
        <time>2019-12-26 15:02:14</time>
      </trkpt>
      <trkpt lat="45.601" lon="6.67228">
        <ele>1577.8193</ele>
        <time>2019-12-26 15:02:15</time>
      </trkpt>
      <trkpt lat="45.601" lon="6.67225">
        <ele>1581.1475</ele>
        <time>2019-12-26 15:02:17</time>
      </trkpt>
      <trkpt lat="45.601" lon="6.67223">
        <ele>1581.9663</ele>
        <time>2019-12-26 15:02:18</time>
      </trkpt>
      <trkpt lat="45.601" lon="6.67218">
        <ele>1581.7688</ele>
        <time>2019-12-26 15:02:20</time>
      </trkpt>
      <trkpt lat="45.60099" lon="6.67216">
        <ele>1580.6353</ele>
        <time>2019-12-26 15:02:21</time>
      </trkpt>
      <trkpt lat="45.60098" lon="6.67211">
        <ele>1580.6294</ele>
        <time>2019-12-26 15:02:24</time>
      </trkpt>
      <trkpt lat="45.60095" lon="6.672">
        <ele>1578.2021</ele>
        <time>2019-12-26 15:02:29</time>
      </trkpt>
      <trkpt lat="45.60093" lon="6.67198">
        <ele>1576.9917</ele>
        <time>2019-12-26 15:02:30</time>
      </trkpt>
      <trkpt lat="45.6009" lon="6.67196">
        <ele>1578.1416</ele>
        <time>2019-12-26 15:02:32</time>
      </trkpt>
      <trkpt lat="45.6009" lon="6.67194">
        <ele>1578.4026</ele>
        <time>2019-12-26 15:02:33</time>
      </trkpt>
      <trkpt lat="45.60085" lon="6.67185">
        <ele>1574.5342</ele>
        <time>2019-12-26 15:02:36</time>
      </trkpt>
      <trkpt lat="45.60084" lon="6.67183">
        <ele>1574.2842</ele>
        <time>2019-12-26 15:02:37</time>
      </trkpt>
      <trkpt lat="45.60082" lon="6.6718">
        <ele>1573.7856</ele>
        <time>2019-12-26 15:02:38</time>
      </trkpt>
      <trkpt lat="45.6008" lon="6.67175">
        <ele>1573.6572</ele>
        <time>2019-12-26 15:02:40</time>
      </trkpt>
      <trkpt lat="45.60079" lon="6.67173">
        <ele>1574.1304</ele>
        <time>2019-12-26 15:02:41</time>
      </trkpt>
      <trkpt lat="45.6008" lon="6.67161">
        <ele>1575.1484</ele>
        <time>2019-12-26 15:02:45</time>
      </trkpt>
      <trkpt lat="45.6008" lon="6.6714">
        <ele>1572.147</ele>
        <time>2019-12-26 15:02:50</time>
      </trkpt>
      <trkpt lat="45.60076" lon="6.67125">
        <ele>1570.3018</ele>
        <time>2019-12-26 15:02:54</time>
      </trkpt>
      <trkpt lat="45.60074" lon="6.67121">
        <ele>1569.042</ele>
        <time>2019-12-26 15:02:55</time>
      </trkpt>
      <trkpt lat="45.60073" lon="6.67118">
        <ele>1569.106</ele>
        <time>2019-12-26 15:02:56</time>
      </trkpt>
      <trkpt lat="45.60068" lon="6.67102">
        <ele>1565.6687</ele>
        <time>2019-12-26 15:03:01</time>
      </trkpt>
      <trkpt lat="45.60062" lon="6.67074">
        <ele>1559.2754</ele>
        <time>2019-12-26 15:03:08</time>
      </trkpt>
      <trkpt lat="45.60054" lon="6.67057">
        <ele>1556.1902</ele>
        <time>2019-12-26 15:03:13</time>
      </trkpt>
      <trkpt lat="45.60048" lon="6.67048">
        <ele>1554.6748</ele>
        <time>2019-12-26 15:03:16</time>
      </trkpt>
      <trkpt lat="45.60043" lon="6.67038">
        <ele>1558.977</ele>
        <time>2019-12-26 15:03:20</time>
      </trkpt>
      <trkpt lat="45.60041" lon="6.67036">
        <ele>1559.1631</ele>
        <time>2019-12-26 15:03:21</time>
      </trkpt>
      <trkpt lat="45.60039" lon="6.67034">
        <ele>1558.4634</ele>
        <time>2019-12-26 15:03:22</time>
      </trkpt>
      <trkpt lat="45.60036" lon="6.67032">
        <ele>1556.727</ele>
        <time>2019-12-26 15:03:23</time>
      </trkpt>
      <trkpt lat="45.60031" lon="6.67029">
        <ele>1554.8594</ele>
        <time>2019-12-26 15:03:25</time>
      </trkpt>
      <trkpt lat="45.60027" lon="6.67027">
        <ele>1552.3748</ele>
        <time>2019-12-26 15:03:27</time>
      </trkpt>
      <trkpt lat="45.60016" lon="6.67026">
        <ele>1550.7883</ele>
        <time>2019-12-26 15:03:32</time>
      </trkpt>
      <trkpt lat="45.60007" lon="6.67024">
        <ele>1549.3457</ele>
        <time>2019-12-26 15:03:35</time>
      </trkpt>
      <trkpt lat="45.59972" lon="6.67019">
        <ele>1548.208</ele>
        <time>2019-12-26 15:03:52</time>
      </trkpt>
      <trkpt lat="45.59968" lon="6.67019">
        <ele>1551.1558</ele>
        <time>2019-12-26 15:03:54</time>
      </trkpt>
      <trkpt lat="45.59966" lon="6.67017">
        <ele>1551.3826</ele>
        <time>2019-12-26 15:03:55</time>
      </trkpt>
      <trkpt lat="45.59958" lon="6.67013">
        <ele>1552.574</ele>
        <time>2019-12-26 15:03:58</time>
      </trkpt>
      <trkpt lat="45.59934" lon="6.67006">
        <ele>1549.4255</ele>
        <time>2019-12-26 15:04:08</time>
      </trkpt>
      <trkpt lat="45.59931" lon="6.67002">
        <ele>1551.3159</ele>
        <time>2019-12-26 15:04:11</time>
      </trkpt>
      <trkpt lat="45.59931" lon="6.67001">
        <ele>1550.1292</ele>
        <time>2019-12-26 15:04:12</time>
      </trkpt>
      <trkpt lat="45.59932" lon="6.66999">
        <ele>1551.3071</ele>
        <time>2019-12-26 15:04:13</time>
      </trkpt>
      <trkpt lat="45.59932" lon="6.66992">
        <ele>1556.2144</ele>
        <time>2019-12-26 15:04:17</time>
      </trkpt>
      <trkpt lat="45.59929" lon="6.66989">
        <ele>1556.4014</ele>
        <time>2019-12-26 15:04:19</time>
      </trkpt>
      <trkpt lat="45.59926" lon="6.66986">
        <ele>1553.8496</ele>
        <time>2019-12-26 15:04:21</time>
      </trkpt>
      <trkpt lat="45.59918" lon="6.66982">
        <ele>1551.5288</ele>
        <time>2019-12-26 15:04:23</time>
      </trkpt>
      <trkpt lat="45.59903" lon="6.66973">
        <ele>1547.7202</ele>
        <time>2019-12-26 15:04:28</time>
      </trkpt>
      <trkpt lat="45.59894" lon="6.66963">
        <ele>1546.844</ele>
        <time>2019-12-26 15:04:32</time>
      </trkpt>
      <trkpt lat="45.59875" lon="6.66948">
        <ele>1540.9716</ele>
        <time>2019-12-26 15:04:40</time>
      </trkpt>
      <trkpt lat="45.59872" lon="6.66947">
        <ele>1539.3353</ele>
        <time>2019-12-26 15:04:41</time>
      </trkpt>
      <trkpt lat="45.59866" lon="6.66946">
        <ele>1537.4059</ele>
        <time>2019-12-26 15:04:43</time>
      </trkpt>
      <trkpt lat="45.59845" lon="6.66946">
        <ele>1531.4701</ele>
        <time>2019-12-26 15:04:51</time>
      </trkpt>
      <trkpt lat="45.59832" lon="6.66946">
        <ele>1530.7115</ele>
        <time>2019-12-26 15:04:56</time>
      </trkpt>
      <trkpt lat="45.59813" lon="6.66948">
        <ele>1526.0803</ele>
        <time>2019-12-26 15:05:03</time>
      </trkpt>
      <trkpt lat="45.59805" lon="6.66949">
        <ele>1525.098</ele>
        <time>2019-12-26 15:05:06</time>
      </trkpt>
      <trkpt lat="45.59799" lon="6.66949">
        <ele>1523.4384</ele>
        <time>2019-12-26 15:05:09</time>
      </trkpt>
      <trkpt lat="45.59788" lon="6.66952">
        <ele>1522.3779</ele>
        <time>2019-12-26 15:05:14</time>
      </trkpt>
      <trkpt lat="45.59762" lon="6.66952">
        <ele>1519.8325</ele>
        <time>2019-12-26 15:05:23</time>
      </trkpt>
      <trkpt lat="45.59753" lon="6.66948">
        <ele>1519.6034</ele>
        <time>2019-12-26 15:05:27</time>
      </trkpt>
      <trkpt lat="45.59747" lon="6.66943">
        <ele>1518.9227</ele>
        <time>2019-12-26 15:05:31</time>
      </trkpt>
      <trkpt lat="45.59744" lon="6.66938">
        <ele>1518.8457</ele>
        <time>2019-12-26 15:05:34</time>
      </trkpt>
      <trkpt lat="45.5974" lon="6.66927">
        <ele>1519.5831</ele>
        <time>2019-12-26 15:05:39</time>
      </trkpt>
      <trkpt lat="45.59741" lon="6.66918">
        <ele>1521.5813</ele>
        <time>2019-12-26 15:05:42</time>
      </trkpt>
      <trkpt lat="45.5974" lon="6.66866">
        <ele>1520.8002</ele>
        <time>2019-12-26 15:05:57</time>
      </trkpt>
      <trkpt lat="45.5974" lon="6.66856">
        <ele>1520.9082</ele>
        <time>2019-12-26 15:06:00</time>
      </trkpt>
      <trkpt lat="45.5974" lon="6.66844">
        <ele>1522.9994</ele>
        <time>2019-12-26 15:06:03</time>
      </trkpt>
      <trkpt lat="45.59741" lon="6.6684">
        <ele>1522.2234</ele>
        <time>2019-12-26 15:06:04</time>
      </trkpt>
      <trkpt lat="45.59742" lon="6.66836">
        <ele>1522.0399</ele>
        <time>2019-12-26 15:06:06</time>
      </trkpt>
      <trkpt lat="45.5974" lon="6.66832">
        <ele>1525.1455</ele>
        <time>2019-12-26 15:06:08</time>
      </trkpt>
      <trkpt lat="45.59739" lon="6.66827">
        <ele>1526.845</ele>
        <time>2019-12-26 15:06:10</time>
      </trkpt>
      <trkpt lat="45.59737" lon="6.6682">
        <ele>1522.8835</ele>
        <time>2019-12-26 15:06:12</time>
      </trkpt>
      <trkpt lat="45.59734" lon="6.66817">
        <ele>1520.0458</ele>
        <time>2019-12-26 15:06:13</time>
      </trkpt>
      <trkpt lat="45.59727" lon="6.66813">
        <ele>1517.6666</ele>
        <time>2019-12-26 15:06:15</time>
      </trkpt>
      <trkpt lat="45.59705" lon="6.66798">
        <ele>1512.4082</ele>
        <time>2019-12-26 15:06:24</time>
      </trkpt>
      <trkpt lat="45.59701" lon="6.66795">
        <ele>1510.6428</ele>
        <time>2019-12-26 15:06:26</time>
      </trkpt>
      <trkpt lat="45.59695" lon="6.66788">
        <ele>1510.49</ele>
        <time>2019-12-26 15:06:30</time>
      </trkpt>
      <trkpt lat="45.59688" lon="6.66784">
        <ele>1511.5485</ele>
        <time>2019-12-26 15:06:34</time>
      </trkpt>
      <trkpt lat="45.5968" lon="6.66773">
        <ele>1510.9747</ele>
        <time>2019-12-26 15:06:40</time>
      </trkpt>
      <trkpt lat="45.59675" lon="6.66771">
        <ele>1512.0314</ele>
        <time>2019-12-26 15:06:43</time>
      </trkpt>
      <trkpt lat="45.5967" lon="6.6677">
        <ele>1511.2224</ele>
        <time>2019-12-26 15:06:45</time>
      </trkpt>
      <trkpt lat="45.59666" lon="6.6677">
        <ele>1511.1967</ele>
        <time>2019-12-26 15:06:47</time>
      </trkpt>
      <trkpt lat="45.59655" lon="6.66771">
        <ele>1509.399</ele>
        <time>2019-12-26 15:06:51</time>
      </trkpt>
      <trkpt lat="45.59638" lon="6.66775">
        <ele>1507.1603</ele>
        <time>2019-12-26 15:06:56</time>
      </trkpt>
      <trkpt lat="45.59618" lon="6.66774">
        <ele>1505.2579</ele>
        <time>2019-12-26 15:07:03</time>
      </trkpt>
      <trkpt lat="45.59613" lon="6.66774">
        <ele>1504.9813</ele>
        <time>2019-12-26 15:07:05</time>
      </trkpt>
      <trkpt lat="45.59598" lon="6.66776">
        <ele>1506.0369</ele>
        <time>2019-12-26 15:07:11</time>
      </trkpt>
      <trkpt lat="45.59597" lon="6.66784">
        <ele>1505.4572</ele>
        <time>2019-12-26 15:07:13</time>
      </trkpt>
      <trkpt lat="45.59598" lon="6.66788">
        <ele>1506.1615</ele>
        <time>2019-12-26 15:07:14</time>
      </trkpt>
      <trkpt lat="45.59599" lon="6.66791">
        <ele>1506.4595</ele>
        <time>2019-12-26 15:07:15</time>
      </trkpt>
      <trkpt lat="45.59604" lon="6.66797">
        <ele>1504.7664</ele>
        <time>2019-12-26 15:07:17</time>
      </trkpt>
      <trkpt lat="45.59613" lon="6.66805">
        <ele>1504.0625</ele>
        <time>2019-12-26 15:07:20</time>
      </trkpt>
      <trkpt lat="45.59623" lon="6.66815">
        <ele>1502.0133</ele>
        <time>2019-12-26 15:07:24</time>
      </trkpt>
      <trkpt lat="45.59636" lon="6.66835">
        <ele>1498.811</ele>
        <time>2019-12-26 15:07:31</time>
      </trkpt>
      <trkpt lat="45.59638" lon="6.66846">
        <ele>1499.9363</ele>
        <time>2019-12-26 15:07:34</time>
      </trkpt>
      <trkpt lat="45.59639" lon="6.66849">
        <ele>1499.7235</ele>
        <time>2019-12-26 15:07:35</time>
      </trkpt>
      <trkpt lat="45.59638" lon="6.66863">
        <ele>1499.3069</ele>
        <time>2019-12-26 15:07:38</time>
      </trkpt>
      <trkpt lat="45.59635" lon="6.6692">
        <ele>1498.3009</ele>
        <time>2019-12-26 15:07:50</time>
      </trkpt>
      <trkpt lat="45.59632" lon="6.66937">
        <ele>1497.7385</ele>
        <time>2019-12-26 15:07:54</time>
      </trkpt>
      <trkpt lat="45.59633" lon="6.66944">
        <ele>1497.8735</ele>
        <time>2019-12-26 15:07:56</time>
      </trkpt>
      <trkpt lat="45.59636" lon="6.6696">
        <ele>1493.2142</ele>
        <time>2019-12-26 15:08:00</time>
      </trkpt>
      <trkpt lat="45.59639" lon="6.66968">
        <ele>1487.7654</ele>
        <time>2019-12-26 15:08:03</time>
      </trkpt>
      <trkpt lat="45.59643" lon="6.66983">
        <ele>1486.6641</ele>
        <time>2019-12-26 15:08:07</time>
      </trkpt>
      <trkpt lat="45.59643" lon="6.66992">
        <ele>1486.3158</ele>
        <time>2019-12-26 15:08:09</time>
      </trkpt>
      <trkpt lat="45.59642" lon="6.67004">
        <ele>1486.1167</ele>
        <time>2019-12-26 15:08:12</time>
      </trkpt>
      <trkpt lat="45.5964" lon="6.67011">
        <ele>1483.7681</ele>
        <time>2019-12-26 15:08:15</time>
      </trkpt>
      <trkpt lat="45.59639" lon="6.67011">
        <ele>1484.8557</ele>
        <time>2019-12-26 15:08:17</time>
      </trkpt>
      <trkpt lat="45.59637" lon="6.6701">
        <ele>1484.4939</ele>
        <time>2019-12-26 15:08:57</time>
      </trkpt>
      <trkpt lat="45.59637" lon="6.67011">
        <ele>1484.3479</ele>
        <time>2019-12-26 15:08:58</time>
      </trkpt>
      <trkpt lat="45.59636" lon="6.67011">
        <ele>1483.8506</ele>
        <time>2019-12-26 15:09:00</time>
      </trkpt>
      <trkpt lat="45.59636" lon="6.67013">
        <ele>1483.6324</ele>
        <time>2019-12-26 15:09:03</time>
      </trkpt>
      <trkpt lat="45.59635" lon="6.67013">
        <ele>1487.1465</ele>
        <time>2019-12-26 15:09:08</time>
      </trkpt>
      <trkpt lat="45.59633" lon="6.67012">
        <ele>1486.368</ele>
        <time>2019-12-26 15:09:10</time>
      </trkpt>
      <trkpt lat="45.59632" lon="6.67013">
        <ele>1486.0491</ele>
        <time>2019-12-26 15:09:11</time>
      </trkpt>
      <trkpt lat="45.59622" lon="6.67012">
        <ele>1484.4055</ele>
        <time>2019-12-26 15:09:19</time>
      </trkpt>
      <trkpt lat="45.59617" lon="6.67009">
        <ele>1484.4812</ele>
        <time>2019-12-26 15:09:21</time>
      </trkpt>
      <trkpt lat="45.59583" lon="6.66993">
        <ele>1478.2924</ele>
        <time>2019-12-26 15:09:33</time>
      </trkpt>
      <trkpt lat="45.59577" lon="6.66993">
        <ele>1478.753</ele>
        <time>2019-12-26 15:09:35</time>
      </trkpt>
      <trkpt lat="45.59571" lon="6.66993">
        <ele>1477.6864</ele>
        <time>2019-12-26 15:09:37</time>
      </trkpt>
      <trkpt lat="45.59546" lon="6.66996">
        <ele>1475.147</ele>
        <time>2019-12-26 15:09:45</time>
      </trkpt>
      <trkpt lat="45.59513" lon="6.66992">
        <ele>1474.8916</ele>
        <time>2019-12-26 15:09:56</time>
      </trkpt>
      <trkpt lat="45.5951" lon="6.66994">
        <ele>1474.8763</ele>
        <time>2019-12-26 15:09:57</time>
      </trkpt>
      <trkpt lat="45.59487" lon="6.67008">
        <ele>1471.3859</ele>
        <time>2019-12-26 15:10:05</time>
      </trkpt>
      <trkpt lat="45.59478" lon="6.67016">
        <ele>1471.0472</ele>
        <time>2019-12-26 15:10:08</time>
      </trkpt>
      <trkpt lat="45.59462" lon="6.67029">
        <ele>1468.9309</ele>
        <time>2019-12-26 15:10:14</time>
      </trkpt>
      <trkpt lat="45.59455" lon="6.67031">
        <ele>1468.6772</ele>
        <time>2019-12-26 15:10:16</time>
      </trkpt>
      <trkpt lat="45.59432" lon="6.67035">
        <ele>1466.8551</ele>
        <time>2019-12-26 15:10:22</time>
      </trkpt>
      <trkpt lat="45.5942" lon="6.67046">
        <ele>1465.5066</ele>
        <time>2019-12-26 15:10:25</time>
      </trkpt>
      <trkpt lat="45.59391" lon="6.67067">
        <ele>1462.9639</ele>
        <time>2019-12-26 15:10:32</time>
      </trkpt>
      <trkpt lat="45.59388" lon="6.67071">
        <ele>1464.3158</ele>
        <time>2019-12-26 15:10:33</time>
      </trkpt>
      <trkpt lat="45.59383" lon="6.67071">
        <ele>1464.5325</ele>
        <time>2019-12-26 15:10:35</time>
      </trkpt>
      <trkpt lat="45.59362" lon="6.67076">
        <ele>1466.073</ele>
        <time>2019-12-26 15:10:41</time>
      </trkpt>
      <trkpt lat="45.59336" lon="6.67076">
        <ele>1463.0624</ele>
        <time>2019-12-26 15:10:52</time>
      </trkpt>
      <trkpt lat="45.59331" lon="6.67072">
        <ele>1465.3025</ele>
        <time>2019-12-26 15:10:54</time>
      </trkpt>
      <trkpt lat="45.59321" lon="6.67066">
        <ele>1467.9137</ele>
        <time>2019-12-26 15:10:58</time>
      </trkpt>
      <trkpt lat="45.59318" lon="6.67066">
        <ele>1468.4675</ele>
        <time>2019-12-26 15:10:59</time>
      </trkpt>
      <trkpt lat="45.59311" lon="6.67067">
        <ele>1465.9618</ele>
        <time>2019-12-26 15:11:01</time>
      </trkpt>
      <trkpt lat="45.593" lon="6.67071">
        <ele>1463.3407</ele>
        <time>2019-12-26 15:11:06</time>
      </trkpt>
      <trkpt lat="45.59298" lon="6.67071">
        <ele>1463.1808</ele>
        <time>2019-12-26 15:11:07</time>
      </trkpt>
      <trkpt lat="45.59293" lon="6.67067">
        <ele>1462.9072</ele>
        <time>2019-12-26 15:11:09</time>
      </trkpt>
      <trkpt lat="45.59287" lon="6.67066">
        <ele>1463.1946</ele>
        <time>2019-12-26 15:11:12</time>
      </trkpt>
      <trkpt lat="45.59278" lon="6.67066">
        <ele>1463.1359</ele>
        <time>2019-12-26 15:11:15</time>
      </trkpt>
      <trkpt lat="45.59268" lon="6.67065">
        <ele>1465.011</ele>
        <time>2019-12-26 15:11:19</time>
      </trkpt>
      <trkpt lat="45.59257" lon="6.67066">
        <ele>1467.5886</ele>
        <time>2019-12-26 15:11:23</time>
      </trkpt>
      <trkpt lat="45.59243" lon="6.67067">
        <ele>1467.9725</ele>
        <time>2019-12-26 15:11:28</time>
      </trkpt>
      <trkpt lat="45.59223" lon="6.67069">
        <ele>1464.1929</ele>
        <time>2019-12-26 15:11:39</time>
      </trkpt>
      <trkpt lat="45.5922" lon="6.67069">
        <ele>1464.5118</ele>
        <time>2019-12-26 15:11:40</time>
      </trkpt>
      <trkpt lat="45.59211" lon="6.67072">
        <ele>1465.0154</ele>
        <time>2019-12-26 15:11:44</time>
      </trkpt>
      <trkpt lat="45.59204" lon="6.67077">
        <ele>1463.5111</ele>
        <time>2019-12-26 15:11:51</time>
      </trkpt>
      <trkpt lat="45.59202" lon="6.67078">
        <ele>1463.1508</ele>
        <time>2019-12-26 15:12:32</time>
      </trkpt>
      <trkpt lat="45.59202" lon="6.67078">
        <ele>1463.7936</ele>
        <time>2019-12-26 15:13:07</time>
      </trkpt>
      <trkpt lat="45.59202" lon="6.67079">
        <ele>1463.4338</ele>
        <time>2019-12-26 15:13:09</time>
      </trkpt>
      <trkpt lat="45.59202" lon="6.67084">
        <ele>1459.7596</ele>
        <time>2019-12-26 15:13:19</time>
      </trkpt>
      <trkpt lat="45.59202" lon="6.67084">
        <ele>1460.7018</ele>
        <time>2019-12-26 15:13:20</time>
      </trkpt>
      <trkpt lat="45.59201" lon="6.67085">
        <ele>1458.5828</ele>
        <time>2019-12-26 15:13:22</time>
      </trkpt>
      <trkpt lat="45.59201" lon="6.67086">
        <ele>1458.9038</ele>
        <time>2019-12-26 15:13:23</time>
      </trkpt>
      <trkpt lat="45.592" lon="6.67087">
        <ele>1457.569</ele>
        <time>2019-12-26 15:13:24</time>
      </trkpt>
      <trkpt lat="45.592" lon="6.67088">
        <ele>1457.1709</ele>
        <time>2019-12-26 15:13:25</time>
      </trkpt>
      <trkpt lat="45.59193" lon="6.67087">
        <ele>1458.1658</ele>
        <time>2019-12-26 15:13:34</time>
      </trkpt>
      <trkpt lat="45.59184" lon="6.67087">
        <ele>1460.1221</ele>
        <time>2019-12-26 15:13:43</time>
      </trkpt>
      <trkpt lat="45.59178" lon="6.67088">
        <ele>1461.3779</ele>
        <time>2019-12-26 15:13:48</time>
      </trkpt>
      <trkpt lat="45.5917" lon="6.67091">
        <ele>1463.1835</ele>
        <time>2019-12-26 15:13:57</time>
      </trkpt>
      <trkpt lat="45.59169" lon="6.67091">
        <ele>1461.2603</ele>
        <time>2019-12-26 15:14:12</time>
      </trkpt>
      <trkpt lat="45.59169" lon="6.67092">
        <ele>1460.7506</ele>
        <time>2019-12-26 15:14:13</time>
      </trkpt>
      <trkpt lat="45.59169" lon="6.67091">
        <ele>1459.2535</ele>
        <time>2019-12-26 15:14:27</time>
      </trkpt>
      <trkpt lat="45.59169" lon="6.67091">
        <ele>1459.4745</ele>
        <time>2019-12-26 15:14:29</time>
      </trkpt>
      <trkpt lat="45.59169" lon="6.67091">
        <ele>1460.0267</ele>
        <time>2019-12-26 15:15:14</time>
      </trkpt>
      <trkpt lat="45.59169" lon="6.6709">
        <ele>1459.7358</ele>
        <time>2019-12-26 15:15:28</time>
      </trkpt>
      <trkpt lat="45.59169" lon="6.67091">
        <ele>1459.8528</ele>
        <time>2019-12-26 15:15:30</time>
      </trkpt>
      <trkpt lat="45.59169" lon="6.67091">
        <ele>1459.5852</ele>
        <time>2019-12-26 15:15:31</time>
      </trkpt>
      <trkpt lat="45.59169" lon="6.67093">
        <ele>1459.2001</ele>
        <time>2019-12-26 15:15:33</time>
      </trkpt>
      <trkpt lat="45.59169" lon="6.67095">
        <ele>1455.2168</ele>
        <time>2019-12-26 15:15:42</time>
      </trkpt>
      <trkpt lat="45.59169" lon="6.67096">
        <ele>1455.5448</ele>
        <time>2019-12-26 15:15:43</time>
      </trkpt>
      <trkpt lat="45.5917" lon="6.67096">
        <ele>1455.7001</ele>
        <time>2019-12-26 15:15:49</time>
      </trkpt>
      <trkpt lat="45.5917" lon="6.67095">
        <ele>1454.7588</ele>
        <time>2019-12-26 15:15:52</time>
      </trkpt>
      <trkpt lat="45.59169" lon="6.67094">
        <ele>1456.7448</ele>
        <time>2019-12-26 15:16:04</time>
      </trkpt>
      <trkpt lat="45.59169" lon="6.67094">
        <ele>1458.4175</ele>
        <time>2019-12-26 15:16:06</time>
      </trkpt>
      <trkpt lat="45.59168" lon="6.67093">
        <ele>1458.7103</ele>
        <time>2019-12-26 15:16:11</time>
      </trkpt>
      <trkpt lat="45.59168" lon="6.67093">
        <ele>1458.7052</ele>
        <time>2019-12-26 15:16:12</time>
      </trkpt>
      <trkpt lat="45.59168" lon="6.67094">
        <ele>1458.2028</ele>
        <time>2019-12-26 15:16:14</time>
      </trkpt>
      <trkpt lat="45.59168" lon="6.67093">
        <ele>1458.3861</ele>
        <time>2019-12-26 15:16:17</time>
      </trkpt>
      <trkpt lat="45.59167" lon="6.67094">
        <ele>1458.2891</ele>
        <time>2019-12-26 15:16:38</time>
      </trkpt>
      <trkpt lat="45.59167" lon="6.67094">
        <ele>1458.0442</ele>
        <time>2019-12-26 15:16:39</time>
      </trkpt>
      <trkpt lat="45.59168" lon="6.67095">
        <ele>1458.6172</ele>
        <time>2019-12-26 15:16:57</time>
      </trkpt>
      <trkpt lat="45.59168" lon="6.67096">
        <ele>1458.0448</ele>
        <time>2019-12-26 15:16:58</time>
      </trkpt>
      <trkpt lat="45.59168" lon="6.67097">
        <ele>1458.5413</ele>
        <time>2019-12-26 15:17:00</time>
      </trkpt>
    </trkseg>
  </trk>
</gpx>